<?xml version="1.0" encoding="UTF-8" standalone="no" ?>
<gpx xmlns="http://www.topografix.com/GPX/1/1" xmlns:xsi="http://www.w3.org/2001/XMLSchema-instance" xsi:schemaLocation="http://www.topografix.com/GPX/1/1 http://www.topografix.com/GPX/1/1/gpx.xsd" version="1.1" creator="VisuGPX - https://www.visugpx.com">
  <metadata>
    <name>Randonnée VTT d'Ecos 27</name>
    <desc><![CDATA[Sortie vtt pour la rando d'Ecos de 30 kms]]></desc>
  </metadata>
  <trk>
    <name><![CDATA[Randonnée VTT d'Ecos 27_1]]></name>
    <trkseg>
      <trkpt lat="49.15723" lon="1.59836">
        <ele>112.62339782715</ele>
        <time>2016-09-11T06:39:30.000Z</time>
      </trkpt>
      <trkpt lat="49.15722" lon="1.59836">
        <ele>112.61959838867</ele>
        <time>2016-09-11T06:39:32.000Z</time>
      </trkpt>
      <trkpt lat="49.15723" lon="1.59835">
        <ele>112.63031768799</ele>
        <time>2016-09-11T06:39:35.000Z</time>
      </trkpt>
      <trkpt lat="49.15724" lon="1.59834">
        <ele>112.64085388184</ele>
        <time>2016-09-11T06:39:47.000Z</time>
      </trkpt>
      <trkpt lat="49.15724" lon="1.59834">
        <ele>112.64085388184</ele>
        <time>2016-09-11T06:40:07.000Z</time>
      </trkpt>
      <trkpt lat="49.15725" lon="1.59835">
        <ele>112.64524841309</ele>
        <time>2016-09-11T06:40:24.000Z</time>
      </trkpt>
      <trkpt lat="49.15725" lon="1.59834">
        <ele>112.6583404541</ele>
        <time>2016-09-11T06:40:26.000Z</time>
      </trkpt>
      <trkpt lat="49.15722" lon="1.59833">
        <ele>112.6695098877</ele>
        <time>2016-09-11T06:40:29.000Z</time>
      </trkpt>
      <trkpt lat="49.15721" lon="1.59835">
        <ele>112.66335296631</ele>
        <time>2016-09-11T06:40:32.000Z</time>
      </trkpt>
      <trkpt lat="49.15719" lon="1.59837">
        <ele>112.64192962646</ele>
        <time>2016-09-11T06:40:34.000Z</time>
      </trkpt>
      <trkpt lat="49.15718" lon="1.59835">
        <ele>112.6272354126</ele>
        <time>2016-09-11T06:40:39.000Z</time>
      </trkpt>
      <trkpt lat="49.1572" lon="1.59837">
        <ele>112.60559082031</ele>
        <time>2016-09-11T06:40:43.000Z</time>
      </trkpt>
      <trkpt lat="49.15721" lon="1.59836">
        <ele>112.59152984619</ele>
        <time>2016-09-11T06:40:49.000Z</time>
      </trkpt>
      <trkpt lat="49.15724" lon="1.5984">
        <ele>112.58486175537</ele>
        <time>2016-09-11T06:41:04.000Z</time>
      </trkpt>
      <trkpt lat="49.15725" lon="1.59841">
        <ele>112.58555603027</ele>
        <time>2016-09-11T06:41:07.000Z</time>
      </trkpt>
      <trkpt lat="49.15724" lon="1.59843">
        <ele>112.5763168335</ele>
        <time>2016-09-11T06:41:10.000Z</time>
      </trkpt>
      <trkpt lat="49.15725" lon="1.59843">
        <ele>112.57176208496</ele>
        <time>2016-09-11T06:41:14.000Z</time>
      </trkpt>
      <trkpt lat="49.15723" lon="1.59841">
        <ele>112.5629119873</ele>
        <time>2016-09-11T06:41:17.000Z</time>
      </trkpt>
      <trkpt lat="49.15722" lon="1.59843">
        <ele>112.54669189453</ele>
        <time>2016-09-11T06:41:19.000Z</time>
      </trkpt>
      <trkpt lat="49.15723" lon="1.59843">
        <ele>112.53565979004</ele>
        <time>2016-09-11T06:41:21.000Z</time>
      </trkpt>
      <trkpt lat="49.15721" lon="1.59843">
        <ele>112.52778625488</ele>
        <time>2016-09-11T06:41:24.000Z</time>
      </trkpt>
      <trkpt lat="49.1572" lon="1.59841">
        <ele>112.51725769043</ele>
        <time>2016-09-11T06:41:29.000Z</time>
      </trkpt>
      <trkpt lat="49.15721" lon="1.59839">
        <ele>112.51535797119</ele>
        <time>2016-09-11T06:41:34.000Z</time>
      </trkpt>
      <trkpt lat="49.15723" lon="1.59843">
        <ele>112.52030181885</ele>
        <time>2016-09-11T06:41:37.000Z</time>
      </trkpt>
      <trkpt lat="49.15723" lon="1.59844">
        <ele>112.51766204834</ele>
        <time>2016-09-11T06:41:40.000Z</time>
      </trkpt>
      <trkpt lat="49.15721" lon="1.59841">
        <ele>112.52111816406</ele>
        <time>2016-09-11T06:41:43.000Z</time>
      </trkpt>
      <trkpt lat="49.1572" lon="1.5984">
        <ele>112.52645111084</ele>
        <time>2016-09-11T06:41:47.000Z</time>
      </trkpt>
      <trkpt lat="49.15722" lon="1.59836">
        <ele>112.54112243652</ele>
        <time>2016-09-11T06:41:50.000Z</time>
      </trkpt>
      <trkpt lat="49.1572" lon="1.59835">
        <ele>112.55582427979</ele>
        <time>2016-09-11T06:41:54.000Z</time>
      </trkpt>
      <trkpt lat="49.15718" lon="1.59837">
        <ele>112.56778717041</ele>
        <time>2016-09-11T06:41:57.000Z</time>
      </trkpt>
      <trkpt lat="49.1572" lon="1.59839">
        <ele>112.57243347168</ele>
        <time>2016-09-11T06:42:01.000Z</time>
      </trkpt>
      <trkpt lat="49.1572" lon="1.5984">
        <ele>112.57208251953</ele>
        <time>2016-09-11T06:42:06.000Z</time>
      </trkpt>
      <trkpt lat="49.15721" lon="1.59841">
        <ele>112.55326843262</ele>
        <time>2016-09-11T06:42:09.000Z</time>
      </trkpt>
      <trkpt lat="49.15724" lon="1.59841">
        <ele>112.54762268066</ele>
        <time>2016-09-11T06:42:12.000Z</time>
      </trkpt>
      <trkpt lat="49.15727" lon="1.59839">
        <ele>112.56081390381</ele>
        <time>2016-09-11T06:42:14.000Z</time>
      </trkpt>
      <trkpt lat="49.15728" lon="1.5984">
        <ele>112.57829284668</ele>
        <time>2016-09-11T06:42:17.000Z</time>
      </trkpt>
      <trkpt lat="49.15726" lon="1.59841">
        <ele>112.58973693848</ele>
        <time>2016-09-11T06:42:20.000Z</time>
      </trkpt>
      <trkpt lat="49.15725" lon="1.59843">
        <ele>112.59606933594</ele>
        <time>2016-09-11T06:42:24.000Z</time>
      </trkpt>
      <trkpt lat="49.15724" lon="1.59841">
        <ele>112.59516906738</ele>
        <time>2016-09-11T06:42:28.000Z</time>
      </trkpt>
      <trkpt lat="49.15725" lon="1.5984">
        <ele>112.5892791748</ele>
        <time>2016-09-11T06:42:32.000Z</time>
      </trkpt>
      <trkpt lat="49.15722" lon="1.59839">
        <ele>112.57780456543</ele>
        <time>2016-09-11T06:42:35.000Z</time>
      </trkpt>
      <trkpt lat="49.15721" lon="1.5984">
        <ele>112.569190979</ele>
        <time>2016-09-11T06:42:39.000Z</time>
      </trkpt>
      <trkpt lat="49.15721" lon="1.59838">
        <ele>112.57153320312</ele>
        <time>2016-09-11T06:42:43.000Z</time>
      </trkpt>
      <trkpt lat="49.15722" lon="1.59837">
        <ele>112.57734680176</ele>
        <time>2016-09-11T06:42:46.000Z</time>
      </trkpt>
      <trkpt lat="49.15723" lon="1.59838">
        <ele>112.57945251465</ele>
        <time>2016-09-11T06:42:49.000Z</time>
      </trkpt>
      <trkpt lat="49.15725" lon="1.59839">
        <ele>112.5877456665</ele>
        <time>2016-09-11T06:42:58.000Z</time>
      </trkpt>
      <trkpt lat="49.15725" lon="1.59839">
        <ele>112.5877456665</ele>
        <time>2016-09-11T06:43:18.000Z</time>
      </trkpt>
      <trkpt lat="49.15726" lon="1.5984">
        <ele>112.60208892822</ele>
        <time>2016-09-11T06:43:19.000Z</time>
      </trkpt>
      <trkpt lat="49.15726" lon="1.59842">
        <ele>112.60410308838</ele>
        <time>2016-09-11T06:43:23.000Z</time>
      </trkpt>
      <trkpt lat="49.15728" lon="1.59842">
        <ele>112.60546875</ele>
        <time>2016-09-11T06:43:27.000Z</time>
      </trkpt>
      <trkpt lat="49.15729" lon="1.5984">
        <ele>112.61296081543</ele>
        <time>2016-09-11T06:43:29.000Z</time>
      </trkpt>
      <trkpt lat="49.1573" lon="1.59839">
        <ele>112.62614440918</ele>
        <time>2016-09-11T06:43:31.000Z</time>
      </trkpt>
      <trkpt lat="49.15728" lon="1.59836">
        <ele>112.64208984375</ele>
        <time>2016-09-11T06:43:35.000Z</time>
      </trkpt>
      <trkpt lat="49.1573" lon="1.59835">
        <ele>112.67154693604</ele>
        <time>2016-09-11T06:43:38.000Z</time>
      </trkpt>
      <trkpt lat="49.1573" lon="1.59838">
        <ele>112.68794250488</ele>
        <time>2016-09-11T06:43:43.000Z</time>
      </trkpt>
      <trkpt lat="49.1573" lon="1.59842">
        <ele>112.68668365479</ele>
        <time>2016-09-11T06:43:50.000Z</time>
      </trkpt>
      <trkpt lat="49.15728" lon="1.5984">
        <ele>112.67718505859</ele>
        <time>2016-09-11T06:44:03.000Z</time>
      </trkpt>
      <trkpt lat="49.15726" lon="1.59844">
        <ele>112.64772033691</ele>
        <time>2016-09-11T06:44:06.000Z</time>
      </trkpt>
      <trkpt lat="49.15728" lon="1.59845">
        <ele>112.61387634277</ele>
        <time>2016-09-11T06:44:13.000Z</time>
      </trkpt>
      <trkpt lat="49.15728" lon="1.59843">
        <ele>112.59306335449</ele>
        <time>2016-09-11T06:44:19.000Z</time>
      </trkpt>
      <trkpt lat="49.15728" lon="1.59841">
        <ele>112.58809661865</ele>
        <time>2016-09-11T06:44:28.000Z</time>
      </trkpt>
      <trkpt lat="49.15727" lon="1.59839">
        <ele>112.59031677246</ele>
        <time>2016-09-11T06:44:31.000Z</time>
      </trkpt>
      <trkpt lat="49.15728" lon="1.5984">
        <ele>112.60750579834</ele>
        <time>2016-09-11T06:44:34.000Z</time>
      </trkpt>
      <trkpt lat="49.15729" lon="1.59841">
        <ele>112.62226867676</ele>
        <time>2016-09-11T06:44:36.000Z</time>
      </trkpt>
      <trkpt lat="49.15729" lon="1.59841">
        <ele>112.62226867676</ele>
        <time>2016-09-11T06:44:56.000Z</time>
      </trkpt>
      <trkpt lat="49.15729" lon="1.59836">
        <ele>112.64659118652</ele>
        <time>2016-09-11T06:45:13.000Z</time>
      </trkpt>
      <trkpt lat="49.1573" lon="1.59837">
        <ele>112.66661071777</ele>
        <time>2016-09-11T06:45:18.000Z</time>
      </trkpt>
      <trkpt lat="49.15729" lon="1.59838">
        <ele>112.673828125</ele>
        <time>2016-09-11T06:45:20.000Z</time>
      </trkpt>
      <trkpt lat="49.1573" lon="1.59837">
        <ele>112.6875</ele>
        <time>2016-09-11T06:45:37.000Z</time>
      </trkpt>
      <trkpt lat="49.1573" lon="1.59836">
        <ele>112.70503234863</ele>
        <time>2016-09-11T06:45:41.000Z</time>
      </trkpt>
      <trkpt lat="49.1573" lon="1.59834">
        <ele>112.71437835693</ele>
        <time>2016-09-11T06:45:43.000Z</time>
      </trkpt>
      <trkpt lat="49.1573" lon="1.59832">
        <ele>112.72714996338</ele>
        <time>2016-09-11T06:45:49.000Z</time>
      </trkpt>
      <trkpt lat="49.1573" lon="1.59831">
        <ele>112.75002288818</ele>
        <time>2016-09-11T06:45:51.000Z</time>
      </trkpt>
      <trkpt lat="49.1573" lon="1.59833">
        <ele>112.7632598877</ele>
        <time>2016-09-11T06:45:53.000Z</time>
      </trkpt>
      <trkpt lat="49.15729" lon="1.59832">
        <ele>112.77256011963</ele>
        <time>2016-09-11T06:45:59.000Z</time>
      </trkpt>
      <trkpt lat="49.15727" lon="1.59834">
        <ele>112.76405334473</ele>
        <time>2016-09-11T06:46:04.000Z</time>
      </trkpt>
      <trkpt lat="49.15726" lon="1.59835">
        <ele>112.74629211426</ele>
        <time>2016-09-11T06:46:06.000Z</time>
      </trkpt>
      <trkpt lat="49.15726" lon="1.59833">
        <ele>112.73057556152</ele>
        <time>2016-09-11T06:46:09.000Z</time>
      </trkpt>
      <trkpt lat="49.15725" lon="1.59833">
        <ele>112.71928405762</ele>
        <time>2016-09-11T06:46:18.000Z</time>
      </trkpt>
      <trkpt lat="49.15725" lon="1.59836">
        <ele>112.69814300537</ele>
        <time>2016-09-11T06:46:21.000Z</time>
      </trkpt>
      <trkpt lat="49.15723" lon="1.59836">
        <ele>112.68170166016</ele>
        <time>2016-09-11T06:46:23.000Z</time>
      </trkpt>
      <trkpt lat="49.15722" lon="1.59835">
        <ele>112.67027282715</ele>
        <time>2016-09-11T06:46:26.000Z</time>
      </trkpt>
      <trkpt lat="49.15723" lon="1.59835">
        <ele>112.65606689453</ele>
        <time>2016-09-11T06:46:29.000Z</time>
      </trkpt>
      <trkpt lat="49.15722" lon="1.59835">
        <ele>112.64106750488</ele>
        <time>2016-09-11T06:46:32.000Z</time>
      </trkpt>
      <trkpt lat="49.15722" lon="1.59836">
        <ele>112.6312713623</ele>
        <time>2016-09-11T06:46:41.000Z</time>
      </trkpt>
      <trkpt lat="49.15723" lon="1.59837">
        <ele>112.6268081665</ele>
        <time>2016-09-11T06:46:44.000Z</time>
      </trkpt>
      <trkpt lat="49.15723" lon="1.59838">
        <ele>112.619972229</ele>
        <time>2016-09-11T06:46:47.000Z</time>
      </trkpt>
      <trkpt lat="49.15724" lon="1.59841">
        <ele>112.60507965088</ele>
        <time>2016-09-11T06:46:50.000Z</time>
      </trkpt>
      <trkpt lat="49.15725" lon="1.5984">
        <ele>112.59859466553</ele>
        <time>2016-09-11T06:46:53.000Z</time>
      </trkpt>
      <trkpt lat="49.15727" lon="1.59839">
        <ele>112.60325622559</ele>
        <time>2016-09-11T06:46:55.000Z</time>
      </trkpt>
      <trkpt lat="49.15726" lon="1.5984">
        <ele>112.60400390625</ele>
        <time>2016-09-11T06:46:58.000Z</time>
      </trkpt>
      <trkpt lat="49.15725" lon="1.5984">
        <ele>112.60398864746</ele>
        <time>2016-09-11T06:47:03.000Z</time>
      </trkpt>
      <trkpt lat="49.15726" lon="1.59839">
        <ele>112.61344146729</ele>
        <time>2016-09-11T06:47:16.000Z</time>
      </trkpt>
      <trkpt lat="49.15725" lon="1.59837">
        <ele>112.62236022949</ele>
        <time>2016-09-11T06:47:29.000Z</time>
      </trkpt>
      <trkpt lat="49.15726" lon="1.59837">
        <ele>112.62701416016</ele>
        <time>2016-09-11T06:47:32.000Z</time>
      </trkpt>
      <trkpt lat="49.15729" lon="1.59837">
        <ele>112.64321136475</ele>
        <time>2016-09-11T06:47:35.000Z</time>
      </trkpt>
      <trkpt lat="49.15731" lon="1.59838">
        <ele>112.66510009766</ele>
        <time>2016-09-11T06:47:39.000Z</time>
      </trkpt>
      <trkpt lat="49.15732" lon="1.5984">
        <ele>112.67733001709</ele>
        <time>2016-09-11T06:47:43.000Z</time>
      </trkpt>
      <trkpt lat="49.15731" lon="1.59842">
        <ele>112.67819976807</ele>
        <time>2016-09-11T06:47:48.000Z</time>
      </trkpt>
      <trkpt lat="49.15733" lon="1.59846">
        <ele>112.66882324219</ele>
        <time>2016-09-11T06:47:51.000Z</time>
      </trkpt>
      <trkpt lat="49.15735" lon="1.59849">
        <ele>112.64967346191</ele>
        <time>2016-09-11T06:47:54.000Z</time>
      </trkpt>
      <trkpt lat="49.15739" lon="1.59847">
        <ele>112.64463806152</ele>
        <time>2016-09-11T06:47:57.000Z</time>
      </trkpt>
      <trkpt lat="49.1574" lon="1.59847">
        <ele>112.64933776855</ele>
        <time>2016-09-11T06:48:00.000Z</time>
      </trkpt>
      <trkpt lat="49.15738" lon="1.59842">
        <ele>112.66499328613</ele>
        <time>2016-09-11T06:48:07.000Z</time>
      </trkpt>
      <trkpt lat="49.15739" lon="1.59842">
        <ele>112.69317626953</ele>
        <time>2016-09-11T06:48:15.000Z</time>
      </trkpt>
      <trkpt lat="49.15739" lon="1.59842">
        <ele>112.69317626953</ele>
        <time>2016-09-11T06:48:35.000Z</time>
      </trkpt>
      <trkpt lat="49.1574" lon="1.59842">
        <ele>112.72646331787</ele>
        <time>2016-09-11T06:50:14.000Z</time>
      </trkpt>
      <trkpt lat="49.15738" lon="1.59841">
        <ele>112.73984527588</ele>
        <time>2016-09-11T06:50:17.000Z</time>
      </trkpt>
      <trkpt lat="49.15737" lon="1.59841">
        <ele>112.74643707275</ele>
        <time>2016-09-11T06:50:19.000Z</time>
      </trkpt>
      <trkpt lat="49.15736" lon="1.5984">
        <ele>112.74668121338</ele>
        <time>2016-09-11T06:50:22.000Z</time>
      </trkpt>
      <trkpt lat="49.15735" lon="1.59842">
        <ele>112.73439788818</ele>
        <time>2016-09-11T06:50:33.000Z</time>
      </trkpt>
      <trkpt lat="49.15733" lon="1.59844">
        <ele>112.7109375</ele>
        <time>2016-09-11T06:50:35.000Z</time>
      </trkpt>
      <trkpt lat="49.15737" lon="1.59844">
        <ele>112.69905090332</ele>
        <time>2016-09-11T06:50:38.000Z</time>
      </trkpt>
      <trkpt lat="49.15739" lon="1.59846">
        <ele>112.6912612915</ele>
        <time>2016-09-11T06:50:41.000Z</time>
      </trkpt>
      <trkpt lat="49.15737" lon="1.59847">
        <ele>112.67437744141</ele>
        <time>2016-09-11T06:51:01.000Z</time>
      </trkpt>
      <trkpt lat="49.15736" lon="1.59843">
        <ele>112.67820739746</ele>
        <time>2016-09-11T06:51:04.000Z</time>
      </trkpt>
      <trkpt lat="49.15735" lon="1.59843">
        <ele>112.68752288818</ele>
        <time>2016-09-11T06:51:15.000Z</time>
      </trkpt>
      <trkpt lat="49.15734" lon="1.5984">
        <ele>112.69250488281</ele>
        <time>2016-09-11T06:51:18.000Z</time>
      </trkpt>
      <trkpt lat="49.15734" lon="1.59836">
        <ele>112.7054901123</ele>
        <time>2016-09-11T06:51:20.000Z</time>
      </trkpt>
      <trkpt lat="49.15738" lon="1.59836">
        <ele>112.73979187012</ele>
        <time>2016-09-11T06:51:23.000Z</time>
      </trkpt>
      <trkpt lat="49.15738" lon="1.59839">
        <ele>112.75250244141</ele>
        <time>2016-09-11T06:51:26.000Z</time>
      </trkpt>
      <trkpt lat="49.15736" lon="1.59842">
        <ele>112.75788879395</ele>
        <time>2016-09-11T06:51:28.000Z</time>
      </trkpt>
      <trkpt lat="49.15735" lon="1.59844">
        <ele>112.74723052979</ele>
        <time>2016-09-11T06:51:31.000Z</time>
      </trkpt>
      <trkpt lat="49.15731" lon="1.59847">
        <ele>112.71148681641</ele>
        <time>2016-09-11T06:51:34.000Z</time>
      </trkpt>
      <trkpt lat="49.15731" lon="1.59845">
        <ele>112.6678314209</ele>
        <time>2016-09-11T06:51:39.000Z</time>
      </trkpt>
      <trkpt lat="49.15731" lon="1.59847">
        <ele>112.62530517578</ele>
        <time>2016-09-11T06:51:42.000Z</time>
      </trkpt>
      <trkpt lat="49.15731" lon="1.59845">
        <ele>112.60038757324</ele>
        <time>2016-09-11T06:51:44.000Z</time>
      </trkpt>
      <trkpt lat="49.1573" lon="1.59843">
        <ele>112.59267425537</ele>
        <time>2016-09-11T06:51:46.000Z</time>
      </trkpt>
      <trkpt lat="49.15728" lon="1.59843">
        <ele>112.59320068359</ele>
        <time>2016-09-11T06:51:49.000Z</time>
      </trkpt>
      <trkpt lat="49.15727" lon="1.59844">
        <ele>112.58506011963</ele>
        <time>2016-09-11T06:51:51.000Z</time>
      </trkpt>
      <trkpt lat="49.15729" lon="1.59845">
        <ele>112.58811187744</ele>
        <time>2016-09-11T06:51:54.000Z</time>
      </trkpt>
      <trkpt lat="49.15729" lon="1.59845">
        <ele>112.58811187744</ele>
        <time>2016-09-11T06:52:14.000Z</time>
      </trkpt>
      <trkpt lat="49.15733" lon="1.59842">
        <ele>112.60395812988</ele>
        <time>2016-09-11T06:52:31.000Z</time>
      </trkpt>
      <trkpt lat="49.15734" lon="1.59841">
        <ele>112.61965179443</ele>
        <time>2016-09-11T06:52:33.000Z</time>
      </trkpt>
      <trkpt lat="49.15734" lon="1.59842">
        <ele>112.6368637085</ele>
        <time>2016-09-11T06:52:41.000Z</time>
      </trkpt>
      <trkpt lat="49.15733" lon="1.59844">
        <ele>112.65269470215</ele>
        <time>2016-09-11T06:52:44.000Z</time>
      </trkpt>
      <trkpt lat="49.15734" lon="1.59842">
        <ele>112.67448425293</ele>
        <time>2016-09-11T06:52:46.000Z</time>
      </trkpt>
      <trkpt lat="49.15735" lon="1.59844">
        <ele>112.67437744141</ele>
        <time>2016-09-11T06:52:58.000Z</time>
      </trkpt>
      <trkpt lat="49.15734" lon="1.59842">
        <ele>112.67234802246</ele>
        <time>2016-09-11T06:53:04.000Z</time>
      </trkpt>
      <trkpt lat="49.15735" lon="1.59846">
        <ele>112.66672515869</ele>
        <time>2016-09-11T06:53:23.000Z</time>
      </trkpt>
      <trkpt lat="49.15736" lon="1.59845">
        <ele>112.67128753662</ele>
        <time>2016-09-11T06:53:26.000Z</time>
      </trkpt>
      <trkpt lat="49.15737" lon="1.59841">
        <ele>112.68119812012</ele>
        <time>2016-09-11T06:53:29.000Z</time>
      </trkpt>
      <trkpt lat="49.15738" lon="1.59844">
        <ele>112.68878173828</ele>
        <time>2016-09-11T06:53:35.000Z</time>
      </trkpt>
      <trkpt lat="49.15737" lon="1.59844">
        <ele>112.68943023682</ele>
        <time>2016-09-11T06:53:38.000Z</time>
      </trkpt>
      <trkpt lat="49.15736" lon="1.59844">
        <ele>112.69905090332</ele>
        <time>2016-09-11T06:53:40.000Z</time>
      </trkpt>
      <trkpt lat="49.15734" lon="1.59842">
        <ele>112.70436859131</ele>
        <time>2016-09-11T06:53:52.000Z</time>
      </trkpt>
      <trkpt lat="49.15736" lon="1.59839">
        <ele>112.70574951172</ele>
        <time>2016-09-11T06:53:56.000Z</time>
      </trkpt>
      <trkpt lat="49.15741" lon="1.59835">
        <ele>112.73857116699</ele>
        <time>2016-09-11T06:53:59.000Z</time>
      </trkpt>
      <trkpt lat="49.15746" lon="1.5983">
        <ele>112.79734802246</ele>
        <time>2016-09-11T06:54:01.000Z</time>
      </trkpt>
      <trkpt lat="49.15753" lon="1.5982">
        <ele>112.90531158447</ele>
        <time>2016-09-11T06:54:04.000Z</time>
      </trkpt>
      <trkpt lat="49.15758" lon="1.59812">
        <ele>113.05432128906</ele>
        <time>2016-09-11T06:54:07.000Z</time>
      </trkpt>
      <trkpt lat="49.1576" lon="1.5981">
        <ele>113.21103668213</ele>
        <time>2016-09-11T06:54:09.000Z</time>
      </trkpt>
      <trkpt lat="49.15765" lon="1.5981">
        <ele>113.3636932373</ele>
        <time>2016-09-11T06:54:12.000Z</time>
      </trkpt>
      <trkpt lat="49.15769" lon="1.59815">
        <ele>113.502784729</ele>
        <time>2016-09-11T06:54:14.000Z</time>
      </trkpt>
      <trkpt lat="49.15775" lon="1.59827">
        <ele>113.59120941162</ele>
        <time>2016-09-11T06:54:17.000Z</time>
      </trkpt>
      <trkpt lat="49.1578" lon="1.59838">
        <ele>113.63272857666</ele>
        <time>2016-09-11T06:54:19.000Z</time>
      </trkpt>
      <trkpt lat="49.15785" lon="1.59853">
        <ele>113.63173675537</ele>
        <time>2016-09-11T06:54:22.000Z</time>
      </trkpt>
      <trkpt lat="49.15789" lon="1.59863">
        <ele>113.58394622803</ele>
        <time>2016-09-11T06:54:24.000Z</time>
      </trkpt>
      <trkpt lat="49.15796" lon="1.59887">
        <ele>113.46960449219</ele>
        <time>2016-09-11T06:54:27.000Z</time>
      </trkpt>
      <trkpt lat="49.15803" lon="1.59907">
        <ele>113.29902648926</ele>
        <time>2016-09-11T06:54:30.000Z</time>
      </trkpt>
      <trkpt lat="49.15812" lon="1.59912">
        <ele>113.13724517822</ele>
        <time>2016-09-11T06:54:32.000Z</time>
      </trkpt>
      <trkpt lat="49.15819" lon="1.59928">
        <ele>112.98832702637</ele>
        <time>2016-09-11T06:54:35.000Z</time>
      </trkpt>
      <trkpt lat="49.15825" lon="1.59935">
        <ele>112.88043212891</ele>
        <time>2016-09-11T06:54:38.000Z</time>
      </trkpt>
      <trkpt lat="49.15828" lon="1.59936">
        <ele>112.83823394775</ele>
        <time>2016-09-11T06:54:41.000Z</time>
      </trkpt>
      <trkpt lat="49.1583" lon="1.59927">
        <ele>112.86293792725</ele>
        <time>2016-09-11T06:54:44.000Z</time>
      </trkpt>
      <trkpt lat="49.15833" lon="1.59917">
        <ele>112.89650726318</ele>
        <time>2016-09-11T06:54:46.000Z</time>
      </trkpt>
      <trkpt lat="49.15836" lon="1.59909">
        <ele>112.99229431152</ele>
        <time>2016-09-11T06:54:48.000Z</time>
      </trkpt>
      <trkpt lat="49.15845" lon="1.59894">
        <ele>113.18552398682</ele>
        <time>2016-09-11T06:54:51.000Z</time>
      </trkpt>
      <trkpt lat="49.15853" lon="1.59875">
        <ele>113.49997711182</ele>
        <time>2016-09-11T06:54:54.000Z</time>
      </trkpt>
      <trkpt lat="49.15857" lon="1.59863">
        <ele>113.88012695312</ele>
        <time>2016-09-11T06:54:56.000Z</time>
      </trkpt>
      <trkpt lat="49.1586" lon="1.59848">
        <ele>114.33935546875</ele>
        <time>2016-09-11T06:54:59.000Z</time>
      </trkpt>
      <trkpt lat="49.15863" lon="1.59835">
        <ele>114.82427978516</ele>
        <time>2016-09-11T06:55:01.000Z</time>
      </trkpt>
      <trkpt lat="49.15869" lon="1.5981">
        <ele>115.33206939697</ele>
        <time>2016-09-11T06:55:04.000Z</time>
      </trkpt>
      <trkpt lat="49.15871" lon="1.598">
        <ele>115.76762390137</ele>
        <time>2016-09-11T06:55:06.000Z</time>
      </trkpt>
      <trkpt lat="49.1587" lon="1.59784">
        <ele>116.19998931885</ele>
        <time>2016-09-11T06:55:09.000Z</time>
      </trkpt>
      <trkpt lat="49.15873" lon="1.59776">
        <ele>116.60093688965</ele>
        <time>2016-09-11T06:55:11.000Z</time>
      </trkpt>
      <trkpt lat="49.15879" lon="1.59764">
        <ele>117.03321838379</ele>
        <time>2016-09-11T06:55:13.000Z</time>
      </trkpt>
      <trkpt lat="49.15884" lon="1.59746">
        <ele>117.44802093506</ele>
        <time>2016-09-11T06:55:16.000Z</time>
      </trkpt>
      <trkpt lat="49.15886" lon="1.59728">
        <ele>117.84126281738</ele>
        <time>2016-09-11T06:55:19.000Z</time>
      </trkpt>
      <trkpt lat="49.15889" lon="1.59711">
        <ele>118.20274353027</ele>
        <time>2016-09-11T06:55:22.000Z</time>
      </trkpt>
      <trkpt lat="49.1589" lon="1.59699">
        <ele>118.52457427979</ele>
        <time>2016-09-11T06:55:24.000Z</time>
      </trkpt>
      <trkpt lat="49.15891" lon="1.59688">
        <ele>118.75016021729</ele>
        <time>2016-09-11T06:55:26.000Z</time>
      </trkpt>
      <trkpt lat="49.15891" lon="1.59672">
        <ele>118.87424468994</ele>
        <time>2016-09-11T06:55:29.000Z</time>
      </trkpt>
      <trkpt lat="49.15892" lon="1.59656">
        <ele>118.97579193115</ele>
        <time>2016-09-11T06:55:32.000Z</time>
      </trkpt>
      <trkpt lat="49.15893" lon="1.5964">
        <ele>119.04343414307</ele>
        <time>2016-09-11T06:55:35.000Z</time>
      </trkpt>
      <trkpt lat="49.15894" lon="1.59623">
        <ele>119.10048675537</ele>
        <time>2016-09-11T06:55:38.000Z</time>
      </trkpt>
      <trkpt lat="49.15895" lon="1.59612">
        <ele>119.14923095703</ele>
        <time>2016-09-11T06:55:40.000Z</time>
      </trkpt>
      <trkpt lat="49.15895" lon="1.59601">
        <ele>119.1826171875</ele>
        <time>2016-09-11T06:55:42.000Z</time>
      </trkpt>
      <trkpt lat="49.15896" lon="1.59584">
        <ele>119.208984375</ele>
        <time>2016-09-11T06:55:45.000Z</time>
      </trkpt>
      <trkpt lat="49.15896" lon="1.59567">
        <ele>119.34153747559</ele>
        <time>2016-09-11T06:55:48.000Z</time>
      </trkpt>
      <trkpt lat="49.15897" lon="1.59555">
        <ele>119.54621887207</ele>
        <time>2016-09-11T06:55:50.000Z</time>
      </trkpt>
      <trkpt lat="49.15897" lon="1.59537">
        <ele>119.8681640625</ele>
        <time>2016-09-11T06:55:53.000Z</time>
      </trkpt>
      <trkpt lat="49.15898" lon="1.5952">
        <ele>120.30500793457</ele>
        <time>2016-09-11T06:55:56.000Z</time>
      </trkpt>
      <trkpt lat="49.15898" lon="1.59508">
        <ele>120.818359375</ele>
        <time>2016-09-11T06:55:58.000Z</time>
      </trkpt>
      <trkpt lat="49.15899" lon="1.5949">
        <ele>121.2801361084</ele>
        <time>2016-09-11T06:56:01.000Z</time>
      </trkpt>
      <trkpt lat="49.15899" lon="1.59478">
        <ele>121.66882324219</ele>
        <time>2016-09-11T06:56:03.000Z</time>
      </trkpt>
      <trkpt lat="49.15899" lon="1.59461">
        <ele>121.93730163574</ele>
        <time>2016-09-11T06:56:06.000Z</time>
      </trkpt>
      <trkpt lat="49.159" lon="1.59442">
        <ele>122.09187316895</ele>
        <time>2016-09-11T06:56:09.000Z</time>
      </trkpt>
      <trkpt lat="49.159" lon="1.59428">
        <ele>122.171875</ele>
        <time>2016-09-11T06:56:11.000Z</time>
      </trkpt>
      <trkpt lat="49.15904" lon="1.59407">
        <ele>122.18369293213</ele>
        <time>2016-09-11T06:56:14.000Z</time>
      </trkpt>
      <trkpt lat="49.15905" lon="1.59395">
        <ele>122.14410400391</ele>
        <time>2016-09-11T06:56:16.000Z</time>
      </trkpt>
      <trkpt lat="49.15906" lon="1.59383">
        <ele>122.06618499756</ele>
        <time>2016-09-11T06:56:18.000Z</time>
      </trkpt>
      <trkpt lat="49.15908" lon="1.59369">
        <ele>121.94062805176</ele>
        <time>2016-09-11T06:56:20.000Z</time>
      </trkpt>
      <trkpt lat="49.15907" lon="1.5935">
        <ele>121.71635437012</ele>
        <time>2016-09-11T06:56:23.000Z</time>
      </trkpt>
      <trkpt lat="49.15906" lon="1.59336">
        <ele>121.44189453125</ele>
        <time>2016-09-11T06:56:25.000Z</time>
      </trkpt>
      <trkpt lat="49.15906" lon="1.59317">
        <ele>121.04777526855</ele>
        <time>2016-09-11T06:56:28.000Z</time>
      </trkpt>
      <trkpt lat="49.15908" lon="1.59295">
        <ele>120.49996185303</ele>
        <time>2016-09-11T06:56:31.000Z</time>
      </trkpt>
      <trkpt lat="49.15911" lon="1.5928">
        <ele>119.86323547363</ele>
        <time>2016-09-11T06:56:33.000Z</time>
      </trkpt>
      <trkpt lat="49.15918" lon="1.59258">
        <ele>119.1229019165</ele>
        <time>2016-09-11T06:56:36.000Z</time>
      </trkpt>
      <trkpt lat="49.15919" lon="1.59236">
        <ele>118.27750396729</ele>
        <time>2016-09-11T06:56:39.000Z</time>
      </trkpt>
      <trkpt lat="49.15921" lon="1.59221">
        <ele>117.5001373291</ele>
        <time>2016-09-11T06:56:41.000Z</time>
      </trkpt>
      <trkpt lat="49.15923" lon="1.59199">
        <ele>116.76727294922</ele>
        <time>2016-09-11T06:56:44.000Z</time>
      </trkpt>
      <trkpt lat="49.15923" lon="1.59178">
        <ele>116.01612854004</ele>
        <time>2016-09-11T06:56:47.000Z</time>
      </trkpt>
      <trkpt lat="49.15924" lon="1.59164">
        <ele>115.36403656006</ele>
        <time>2016-09-11T06:56:49.000Z</time>
      </trkpt>
      <trkpt lat="49.15926" lon="1.59141">
        <ele>114.68041992188</ele>
        <time>2016-09-11T06:56:52.000Z</time>
      </trkpt>
      <trkpt lat="49.15926" lon="1.59124">
        <ele>113.94079589844</ele>
        <time>2016-09-11T06:56:54.000Z</time>
      </trkpt>
      <trkpt lat="49.15927" lon="1.59105">
        <ele>113.18087005615</ele>
        <time>2016-09-11T06:56:56.000Z</time>
      </trkpt>
      <trkpt lat="49.15925" lon="1.59078">
        <ele>112.31620788574</ele>
        <time>2016-09-11T06:56:59.000Z</time>
      </trkpt>
      <trkpt lat="49.1592" lon="1.59053">
        <ele>111.24452209473</ele>
        <time>2016-09-11T06:57:02.000Z</time>
      </trkpt>
      <trkpt lat="49.15914" lon="1.59036">
        <ele>110.12524414062</ele>
        <time>2016-09-11T06:57:04.000Z</time>
      </trkpt>
      <trkpt lat="49.15905" lon="1.59016">
        <ele>108.8021697998</ele>
        <time>2016-09-11T06:57:07.000Z</time>
      </trkpt>
      <trkpt lat="49.15895" lon="1.58999">
        <ele>107.27069091797</ele>
        <time>2016-09-11T06:57:10.000Z</time>
      </trkpt>
      <trkpt lat="49.15888" lon="1.58989">
        <ele>105.79557037354</ele>
        <time>2016-09-11T06:57:12.000Z</time>
      </trkpt>
      <trkpt lat="49.15883" lon="1.58979">
        <ele>104.43974304199</ele>
        <time>2016-09-11T06:57:14.000Z</time>
      </trkpt>
      <trkpt lat="49.15878" lon="1.58968">
        <ele>103.123878479</ele>
        <time>2016-09-11T06:57:16.000Z</time>
      </trkpt>
      <trkpt lat="49.15873" lon="1.58959">
        <ele>101.95825958252</ele>
        <time>2016-09-11T06:57:18.000Z</time>
      </trkpt>
      <trkpt lat="49.15866" lon="1.58946">
        <ele>100.87693023682</ele>
        <time>2016-09-11T06:57:21.000Z</time>
      </trkpt>
      <trkpt lat="49.1586" lon="1.58928">
        <ele>99.654922485352</ele>
        <time>2016-09-11T06:57:24.000Z</time>
      </trkpt>
      <trkpt lat="49.15856" lon="1.58917">
        <ele>98.372695922852</ele>
        <time>2016-09-11T06:57:26.000Z</time>
      </trkpt>
      <trkpt lat="49.15853" lon="1.58905">
        <ele>97.059692382812</ele>
        <time>2016-09-11T06:57:28.000Z</time>
      </trkpt>
      <trkpt lat="49.15846" lon="1.58885">
        <ele>95.530113220215</ele>
        <time>2016-09-11T06:57:31.000Z</time>
      </trkpt>
      <trkpt lat="49.15841" lon="1.58866">
        <ele>93.912490844727</ele>
        <time>2016-09-11T06:57:34.000Z</time>
      </trkpt>
      <trkpt lat="49.15837" lon="1.58848">
        <ele>92.26700592041</ele>
        <time>2016-09-11T06:57:37.000Z</time>
      </trkpt>
      <trkpt lat="49.15833" lon="1.58835">
        <ele>90.552360534668</ele>
        <time>2016-09-11T06:57:40.000Z</time>
      </trkpt>
      <trkpt lat="49.15831" lon="1.58821">
        <ele>88.867050170898</ele>
        <time>2016-09-11T06:57:43.000Z</time>
      </trkpt>
      <trkpt lat="49.15831" lon="1.58809">
        <ele>87.444839477539</ele>
        <time>2016-09-11T06:57:45.000Z</time>
      </trkpt>
      <trkpt lat="49.15829" lon="1.58796">
        <ele>86.23210144043</ele>
        <time>2016-09-11T06:57:47.000Z</time>
      </trkpt>
      <trkpt lat="49.15829" lon="1.58779">
        <ele>85.184371948242</ele>
        <time>2016-09-11T06:57:50.000Z</time>
      </trkpt>
      <trkpt lat="49.15829" lon="1.58762">
        <ele>84.262794494629</ele>
        <time>2016-09-11T06:57:53.000Z</time>
      </trkpt>
      <trkpt lat="49.15832" lon="1.58747">
        <ele>83.417442321777</ele>
        <time>2016-09-11T06:57:56.000Z</time>
      </trkpt>
      <trkpt lat="49.15836" lon="1.58731">
        <ele>82.644325256348</ele>
        <time>2016-09-11T06:57:59.000Z</time>
      </trkpt>
      <trkpt lat="49.15838" lon="1.5872">
        <ele>81.984573364258</ele>
        <time>2016-09-11T06:58:01.000Z</time>
      </trkpt>
      <trkpt lat="49.15843" lon="1.58701">
        <ele>81.3955078125</ele>
        <time>2016-09-11T06:58:04.000Z</time>
      </trkpt>
      <trkpt lat="49.15848" lon="1.58689">
        <ele>80.940536499023</ele>
        <time>2016-09-11T06:58:06.000Z</time>
      </trkpt>
      <trkpt lat="49.15859" lon="1.58679">
        <ele>80.614944458008</ele>
        <time>2016-09-11T06:58:09.000Z</time>
      </trkpt>
      <trkpt lat="49.15869" lon="1.58682">
        <ele>80.547546386719</ele>
        <time>2016-09-11T06:58:11.000Z</time>
      </trkpt>
      <trkpt lat="49.15879" lon="1.58692">
        <ele>80.858993530273</ele>
        <time>2016-09-11T06:58:14.000Z</time>
      </trkpt>
      <trkpt lat="49.15888" lon="1.58697">
        <ele>81.544288635254</ele>
        <time>2016-09-11T06:58:16.000Z</time>
      </trkpt>
      <trkpt lat="49.159" lon="1.58702">
        <ele>82.576499938965</ele>
        <time>2016-09-11T06:58:19.000Z</time>
      </trkpt>
      <trkpt lat="49.15907" lon="1.58705">
        <ele>83.797653198242</ele>
        <time>2016-09-11T06:58:21.000Z</time>
      </trkpt>
      <trkpt lat="49.15919" lon="1.58707">
        <ele>85.057510375977</ele>
        <time>2016-09-11T06:58:24.000Z</time>
      </trkpt>
      <trkpt lat="49.15936" lon="1.5871">
        <ele>86.021713256836</ele>
        <time>2016-09-11T06:58:27.000Z</time>
      </trkpt>
      <trkpt lat="49.15947" lon="1.58711">
        <ele>86.762954711914</ele>
        <time>2016-09-11T06:58:29.000Z</time>
      </trkpt>
      <trkpt lat="49.15963" lon="1.58713">
        <ele>87.227516174316</ele>
        <time>2016-09-11T06:58:32.000Z</time>
      </trkpt>
      <trkpt lat="49.15979" lon="1.58714">
        <ele>87.474792480469</ele>
        <time>2016-09-11T06:58:35.000Z</time>
      </trkpt>
      <trkpt lat="49.15989" lon="1.58715">
        <ele>87.514923095703</ele>
        <time>2016-09-11T06:58:37.000Z</time>
      </trkpt>
      <trkpt lat="49.16002" lon="1.58715">
        <ele>87.488143920898</ele>
        <time>2016-09-11T06:58:40.000Z</time>
      </trkpt>
      <trkpt lat="49.16015" lon="1.58716">
        <ele>87.393013000488</ele>
        <time>2016-09-11T06:58:43.000Z</time>
      </trkpt>
      <trkpt lat="49.16029" lon="1.58716">
        <ele>87.221969604492</ele>
        <time>2016-09-11T06:58:46.000Z</time>
      </trkpt>
      <trkpt lat="49.16045" lon="1.58716">
        <ele>86.990608215332</ele>
        <time>2016-09-11T06:58:49.000Z</time>
      </trkpt>
      <trkpt lat="49.16056" lon="1.58714">
        <ele>86.657279968262</ele>
        <time>2016-09-11T06:58:51.000Z</time>
      </trkpt>
      <trkpt lat="49.16072" lon="1.5871">
        <ele>86.196823120117</ele>
        <time>2016-09-11T06:58:54.000Z</time>
      </trkpt>
      <trkpt lat="49.16087" lon="1.58707">
        <ele>85.673080444336</ele>
        <time>2016-09-11T06:58:57.000Z</time>
      </trkpt>
      <trkpt lat="49.16098" lon="1.58704">
        <ele>85.20645904541</ele>
        <time>2016-09-11T06:58:59.000Z</time>
      </trkpt>
      <trkpt lat="49.16113" lon="1.58699">
        <ele>84.794654846191</ele>
        <time>2016-09-11T06:59:02.000Z</time>
      </trkpt>
      <trkpt lat="49.16129" lon="1.58694">
        <ele>84.422164916992</ele>
        <time>2016-09-11T06:59:05.000Z</time>
      </trkpt>
      <trkpt lat="49.16143" lon="1.58688">
        <ele>84.143714904785</ele>
        <time>2016-09-11T06:59:08.000Z</time>
      </trkpt>
      <trkpt lat="49.16153" lon="1.58685">
        <ele>83.91813659668</ele>
        <time>2016-09-11T06:59:10.000Z</time>
      </trkpt>
      <trkpt lat="49.16166" lon="1.58678">
        <ele>83.565826416016</ele>
        <time>2016-09-11T06:59:13.000Z</time>
      </trkpt>
      <trkpt lat="49.16175" lon="1.58673">
        <ele>83.146560668945</ele>
        <time>2016-09-11T06:59:15.000Z</time>
      </trkpt>
      <trkpt lat="49.16188" lon="1.58666">
        <ele>82.653526306152</ele>
        <time>2016-09-11T06:59:18.000Z</time>
      </trkpt>
      <trkpt lat="49.162" lon="1.58652">
        <ele>82.264434814453</ele>
        <time>2016-09-11T06:59:21.000Z</time>
      </trkpt>
      <trkpt lat="49.16206" lon="1.58643">
        <ele>81.939590454102</ele>
        <time>2016-09-11T06:59:23.000Z</time>
      </trkpt>
      <trkpt lat="49.16214" lon="1.58629">
        <ele>81.730224609375</ele>
        <time>2016-09-11T06:59:26.000Z</time>
      </trkpt>
      <trkpt lat="49.16218" lon="1.5862">
        <ele>81.603958129883</ele>
        <time>2016-09-11T06:59:28.000Z</time>
      </trkpt>
      <trkpt lat="49.16226" lon="1.58607">
        <ele>81.581703186035</ele>
        <time>2016-09-11T06:59:31.000Z</time>
      </trkpt>
      <trkpt lat="49.16233" lon="1.58594">
        <ele>81.489044189453</ele>
        <time>2016-09-11T06:59:34.000Z</time>
      </trkpt>
      <trkpt lat="49.16238" lon="1.58584">
        <ele>81.354583740234</ele>
        <time>2016-09-11T06:59:37.000Z</time>
      </trkpt>
      <trkpt lat="49.16242" lon="1.58576">
        <ele>81.261627197266</ele>
        <time>2016-09-11T06:59:39.000Z</time>
      </trkpt>
      <trkpt lat="49.16248" lon="1.58563">
        <ele>81.248336791992</ele>
        <time>2016-09-11T06:59:42.000Z</time>
      </trkpt>
      <trkpt lat="49.16253" lon="1.58555">
        <ele>81.324905395508</ele>
        <time>2016-09-11T06:59:44.000Z</time>
      </trkpt>
      <trkpt lat="49.1626" lon="1.58542">
        <ele>81.546096801758</ele>
        <time>2016-09-11T06:59:47.000Z</time>
      </trkpt>
      <trkpt lat="49.16264" lon="1.58533">
        <ele>81.875511169434</ele>
        <time>2016-09-11T06:59:49.000Z</time>
      </trkpt>
      <trkpt lat="49.1627" lon="1.58519">
        <ele>82.286514282227</ele>
        <time>2016-09-11T06:59:52.000Z</time>
      </trkpt>
      <trkpt lat="49.16275" lon="1.5851">
        <ele>82.713508605957</ele>
        <time>2016-09-11T06:59:54.000Z</time>
      </trkpt>
      <trkpt lat="49.1628" lon="1.58496">
        <ele>83.221687316895</ele>
        <time>2016-09-11T06:59:57.000Z</time>
      </trkpt>
      <trkpt lat="49.16284" lon="1.58482">
        <ele>83.821815490723</ele>
        <time>2016-09-11T07:00:00.000Z</time>
      </trkpt>
      <trkpt lat="49.16289" lon="1.58469">
        <ele>84.544479370117</ele>
        <time>2016-09-11T07:00:03.000Z</time>
      </trkpt>
      <trkpt lat="49.16292" lon="1.58458">
        <ele>85.309539794922</ele>
        <time>2016-09-11T07:00:06.000Z</time>
      </trkpt>
      <trkpt lat="49.16293" lon="1.58453">
        <ele>86.060363769531</ele>
        <time>2016-09-11T07:00:08.000Z</time>
      </trkpt>
      <trkpt lat="49.16295" lon="1.58448">
        <ele>86.742156982422</ele>
        <time>2016-09-11T07:00:10.000Z</time>
      </trkpt>
      <trkpt lat="49.16298" lon="1.5844">
        <ele>87.341156005859</ele>
        <time>2016-09-11T07:00:14.000Z</time>
      </trkpt>
      <trkpt lat="49.163" lon="1.58435">
        <ele>87.819580078125</ele>
        <time>2016-09-11T07:00:15.000Z</time>
      </trkpt>
      <trkpt lat="49.16303" lon="1.58428">
        <ele>88.260314941406</ele>
        <time>2016-09-11T07:00:18.000Z</time>
      </trkpt>
      <trkpt lat="49.16306" lon="1.58418">
        <ele>88.773345947266</ele>
        <time>2016-09-11T07:00:21.000Z</time>
      </trkpt>
      <trkpt lat="49.16308" lon="1.58411">
        <ele>89.287536621094</ele>
        <time>2016-09-11T07:00:23.000Z</time>
      </trkpt>
      <trkpt lat="49.16312" lon="1.58401">
        <ele>89.792343139648</ele>
        <time>2016-09-11T07:00:26.000Z</time>
      </trkpt>
      <trkpt lat="49.16314" lon="1.58395">
        <ele>90.284591674805</ele>
        <time>2016-09-11T07:00:28.000Z</time>
      </trkpt>
      <trkpt lat="49.16316" lon="1.5839">
        <ele>90.720138549805</ele>
        <time>2016-09-11T07:00:30.000Z</time>
      </trkpt>
      <trkpt lat="49.16318" lon="1.58383">
        <ele>91.075736999512</ele>
        <time>2016-09-11T07:00:32.000Z</time>
      </trkpt>
      <trkpt lat="49.16322" lon="1.58374">
        <ele>91.45378112793</ele>
        <time>2016-09-11T07:00:35.000Z</time>
      </trkpt>
      <trkpt lat="49.16324" lon="1.58367">
        <ele>91.791725158691</ele>
        <time>2016-09-11T07:00:37.000Z</time>
      </trkpt>
      <trkpt lat="49.16327" lon="1.58361">
        <ele>92.130302429199</ele>
        <time>2016-09-11T07:00:39.000Z</time>
      </trkpt>
      <trkpt lat="49.16331" lon="1.58351">
        <ele>92.505874633789</ele>
        <time>2016-09-11T07:00:42.000Z</time>
      </trkpt>
      <trkpt lat="49.16335" lon="1.58345">
        <ele>92.879417419434</ele>
        <time>2016-09-11T07:00:44.000Z</time>
      </trkpt>
      <trkpt lat="49.16339" lon="1.58334">
        <ele>93.246322631836</ele>
        <time>2016-09-11T07:00:47.000Z</time>
      </trkpt>
      <trkpt lat="49.16342" lon="1.58326">
        <ele>93.61833190918</ele>
        <time>2016-09-11T07:00:49.000Z</time>
      </trkpt>
      <trkpt lat="49.16348" lon="1.58313">
        <ele>94.033515930176</ele>
        <time>2016-09-11T07:00:52.000Z</time>
      </trkpt>
      <trkpt lat="49.16353" lon="1.58302">
        <ele>94.450386047363</ele>
        <time>2016-09-11T07:00:55.000Z</time>
      </trkpt>
      <trkpt lat="49.16357" lon="1.58295">
        <ele>94.868591308594</ele>
        <time>2016-09-11T07:00:57.000Z</time>
      </trkpt>
      <trkpt lat="49.16361" lon="1.58285">
        <ele>95.274932861328</ele>
        <time>2016-09-11T07:01:00.000Z</time>
      </trkpt>
      <trkpt lat="49.16364" lon="1.58279">
        <ele>95.662719726562</ele>
        <time>2016-09-11T07:01:02.000Z</time>
      </trkpt>
      <trkpt lat="49.16368" lon="1.58271">
        <ele>96.017822265625</ele>
        <time>2016-09-11T07:01:05.000Z</time>
      </trkpt>
      <trkpt lat="49.16371" lon="1.58264">
        <ele>96.330322265625</ele>
        <time>2016-09-11T07:01:07.000Z</time>
      </trkpt>
      <trkpt lat="49.16376" lon="1.58254">
        <ele>96.671356201172</ele>
        <time>2016-09-11T07:01:10.000Z</time>
      </trkpt>
      <trkpt lat="49.16381" lon="1.58244">
        <ele>97.033004760742</ele>
        <time>2016-09-11T07:01:13.000Z</time>
      </trkpt>
      <trkpt lat="49.16384" lon="1.58237">
        <ele>97.410758972168</ele>
        <time>2016-09-11T07:01:15.000Z</time>
      </trkpt>
      <trkpt lat="49.16387" lon="1.5823">
        <ele>97.77946472168</ele>
        <time>2016-09-11T07:01:17.000Z</time>
      </trkpt>
      <trkpt lat="49.16391" lon="1.58222">
        <ele>98.174911499023</ele>
        <time>2016-09-11T07:01:20.000Z</time>
      </trkpt>
      <trkpt lat="49.16394" lon="1.58213">
        <ele>98.559539794922</ele>
        <time>2016-09-11T07:01:23.000Z</time>
      </trkpt>
      <trkpt lat="49.16397" lon="1.58208">
        <ele>98.892501831055</ele>
        <time>2016-09-11T07:01:25.000Z</time>
      </trkpt>
      <trkpt lat="49.16401" lon="1.58198">
        <ele>99.232795715332</ele>
        <time>2016-09-11T07:01:28.000Z</time>
      </trkpt>
      <trkpt lat="49.16404" lon="1.58193">
        <ele>99.553527832031</ele>
        <time>2016-09-11T07:01:30.000Z</time>
      </trkpt>
      <trkpt lat="49.16406" lon="1.58187">
        <ele>99.837867736816</ele>
        <time>2016-09-11T07:01:32.000Z</time>
      </trkpt>
      <trkpt lat="49.1641" lon="1.58177">
        <ele>100.11576843262</ele>
        <time>2016-09-11T07:01:35.000Z</time>
      </trkpt>
      <trkpt lat="49.16413" lon="1.58171">
        <ele>100.38340759277</ele>
        <time>2016-09-11T07:01:37.000Z</time>
      </trkpt>
      <trkpt lat="49.16417" lon="1.58165">
        <ele>100.62596130371</ele>
        <time>2016-09-11T07:01:39.000Z</time>
      </trkpt>
      <trkpt lat="49.16422" lon="1.58158">
        <ele>100.92618560791</ele>
        <time>2016-09-11T07:01:42.000Z</time>
      </trkpt>
      <trkpt lat="49.16425" lon="1.58152">
        <ele>101.26161193848</ele>
        <time>2016-09-11T07:01:44.000Z</time>
      </trkpt>
      <trkpt lat="49.16429" lon="1.58145">
        <ele>101.61528015137</ele>
        <time>2016-09-11T07:01:46.000Z</time>
      </trkpt>
      <trkpt lat="49.16431" lon="1.58139">
        <ele>102.01477050781</ele>
        <time>2016-09-11T07:01:48.000Z</time>
      </trkpt>
      <trkpt lat="49.16435" lon="1.5813">
        <ele>102.48696136475</ele>
        <time>2016-09-11T07:01:51.000Z</time>
      </trkpt>
      <trkpt lat="49.16438" lon="1.58123">
        <ele>102.9373550415</ele>
        <time>2016-09-11T07:01:53.000Z</time>
      </trkpt>
      <trkpt lat="49.16442" lon="1.58112">
        <ele>103.43591308594</ele>
        <time>2016-09-11T07:01:56.000Z</time>
      </trkpt>
      <trkpt lat="49.16447" lon="1.58101">
        <ele>103.98001861572</ele>
        <time>2016-09-11T07:01:59.000Z</time>
      </trkpt>
      <trkpt lat="49.1645" lon="1.58094">
        <ele>104.50679016113</ele>
        <time>2016-09-11T07:02:01.000Z</time>
      </trkpt>
      <trkpt lat="49.16455" lon="1.58085">
        <ele>105.00301361084</ele>
        <time>2016-09-11T07:02:04.000Z</time>
      </trkpt>
      <trkpt lat="49.16458" lon="1.58077">
        <ele>105.5248260498</ele>
        <time>2016-09-11T07:02:07.000Z</time>
      </trkpt>
      <trkpt lat="49.1646" lon="1.58071">
        <ele>105.99167633057</ele>
        <time>2016-09-11T07:02:09.000Z</time>
      </trkpt>
      <trkpt lat="49.16463" lon="1.58065">
        <ele>106.38869476318</ele>
        <time>2016-09-11T07:02:11.000Z</time>
      </trkpt>
      <trkpt lat="49.16466" lon="1.58059">
        <ele>106.78177642822</ele>
        <time>2016-09-11T07:02:13.000Z</time>
      </trkpt>
      <trkpt lat="49.1647" lon="1.5805">
        <ele>107.1656036377</ele>
        <time>2016-09-11T07:02:16.000Z</time>
      </trkpt>
      <trkpt lat="49.16472" lon="1.58045">
        <ele>107.49605560303</ele>
        <time>2016-09-11T07:02:18.000Z</time>
      </trkpt>
      <trkpt lat="49.16476" lon="1.5804">
        <ele>107.77632141113</ele>
        <time>2016-09-11T07:02:20.000Z</time>
      </trkpt>
      <trkpt lat="49.16478" lon="1.58035">
        <ele>108.03096008301</ele>
        <time>2016-09-11T07:02:22.000Z</time>
      </trkpt>
      <trkpt lat="49.16483" lon="1.58027">
        <ele>108.26982116699</ele>
        <time>2016-09-11T07:02:25.000Z</time>
      </trkpt>
      <trkpt lat="49.16486" lon="1.58022">
        <ele>108.44648742676</ele>
        <time>2016-09-11T07:02:27.000Z</time>
      </trkpt>
      <trkpt lat="49.16489" lon="1.58017">
        <ele>108.59608459473</ele>
        <time>2016-09-11T07:02:29.000Z</time>
      </trkpt>
      <trkpt lat="49.16494" lon="1.58009">
        <ele>108.748878479</ele>
        <time>2016-09-11T07:02:32.000Z</time>
      </trkpt>
      <trkpt lat="49.16498" lon="1.58">
        <ele>108.88496398926</ele>
        <time>2016-09-11T07:02:35.000Z</time>
      </trkpt>
      <trkpt lat="49.16502" lon="1.57993">
        <ele>108.98502349854</ele>
        <time>2016-09-11T07:02:38.000Z</time>
      </trkpt>
      <trkpt lat="49.16507" lon="1.57987">
        <ele>109.07295227051</ele>
        <time>2016-09-11T07:02:41.000Z</time>
      </trkpt>
      <trkpt lat="49.1651" lon="1.57981">
        <ele>109.154296875</ele>
        <time>2016-09-11T07:02:43.000Z</time>
      </trkpt>
      <trkpt lat="49.16513" lon="1.57976">
        <ele>109.22828674316</ele>
        <time>2016-09-11T07:02:45.000Z</time>
      </trkpt>
      <trkpt lat="49.16518" lon="1.57968">
        <ele>109.31447601318</ele>
        <time>2016-09-11T07:02:48.000Z</time>
      </trkpt>
      <trkpt lat="49.16521" lon="1.57963">
        <ele>109.41426086426</ele>
        <time>2016-09-11T07:02:50.000Z</time>
      </trkpt>
      <trkpt lat="49.16525" lon="1.57958">
        <ele>109.52986907959</ele>
        <time>2016-09-11T07:02:52.000Z</time>
      </trkpt>
      <trkpt lat="49.1653" lon="1.57949">
        <ele>109.68193054199</ele>
        <time>2016-09-11T07:02:55.000Z</time>
      </trkpt>
      <trkpt lat="49.16533" lon="1.57944">
        <ele>109.85151672363</ele>
        <time>2016-09-11T07:02:57.000Z</time>
      </trkpt>
      <trkpt lat="49.16537" lon="1.57938">
        <ele>110.03157806396</ele>
        <time>2016-09-11T07:02:59.000Z</time>
      </trkpt>
      <trkpt lat="49.16541" lon="1.5793">
        <ele>110.25636291504</ele>
        <time>2016-09-11T07:03:02.000Z</time>
      </trkpt>
      <trkpt lat="49.16545" lon="1.57924">
        <ele>110.51086425781</ele>
        <time>2016-09-11T07:03:04.000Z</time>
      </trkpt>
      <trkpt lat="49.1655" lon="1.57915">
        <ele>110.80019378662</ele>
        <time>2016-09-11T07:03:07.000Z</time>
      </trkpt>
      <trkpt lat="49.16553" lon="1.57909">
        <ele>111.11032867432</ele>
        <time>2016-09-11T07:03:09.000Z</time>
      </trkpt>
      <trkpt lat="49.16559" lon="1.579">
        <ele>111.46378326416</ele>
        <time>2016-09-11T07:03:12.000Z</time>
      </trkpt>
      <trkpt lat="49.16563" lon="1.57892">
        <ele>111.84214782715</ele>
        <time>2016-09-11T07:03:15.000Z</time>
      </trkpt>
      <trkpt lat="49.16567" lon="1.57882">
        <ele>112.27247619629</ele>
        <time>2016-09-11T07:03:18.000Z</time>
      </trkpt>
      <trkpt lat="49.16571" lon="1.57875">
        <ele>112.69008636475</ele>
        <time>2016-09-11T07:03:20.000Z</time>
      </trkpt>
      <trkpt lat="49.16576" lon="1.57863">
        <ele>113.17836761475</ele>
        <time>2016-09-11T07:03:23.000Z</time>
      </trkpt>
      <trkpt lat="49.16579" lon="1.57856">
        <ele>113.6640625</ele>
        <time>2016-09-11T07:03:25.000Z</time>
      </trkpt>
      <trkpt lat="49.16583" lon="1.57849">
        <ele>114.13967132568</ele>
        <time>2016-09-11T07:03:27.000Z</time>
      </trkpt>
      <trkpt lat="49.16589" lon="1.57838">
        <ele>114.57139587402</ele>
        <time>2016-09-11T07:03:30.000Z</time>
      </trkpt>
      <trkpt lat="49.16595" lon="1.57827">
        <ele>115.02075195312</ele>
        <time>2016-09-11T07:03:33.000Z</time>
      </trkpt>
      <trkpt lat="49.166" lon="1.57816">
        <ele>115.4701385498</ele>
        <time>2016-09-11T07:03:36.000Z</time>
      </trkpt>
      <trkpt lat="49.16603" lon="1.57808">
        <ele>115.9220199585</ele>
        <time>2016-09-11T07:03:38.000Z</time>
      </trkpt>
      <trkpt lat="49.16607" lon="1.57801">
        <ele>116.376953125</ele>
        <time>2016-09-11T07:03:40.000Z</time>
      </trkpt>
      <trkpt lat="49.16613" lon="1.57789">
        <ele>116.88690185547</ele>
        <time>2016-09-11T07:03:43.000Z</time>
      </trkpt>
      <trkpt lat="49.16619" lon="1.57778">
        <ele>117.42358398438</ele>
        <time>2016-09-11T07:03:46.000Z</time>
      </trkpt>
      <trkpt lat="49.16625" lon="1.57766">
        <ele>117.96612548828</ele>
        <time>2016-09-11T07:03:49.000Z</time>
      </trkpt>
      <trkpt lat="49.16631" lon="1.57753">
        <ele>118.57248687744</ele>
        <time>2016-09-11T07:03:52.000Z</time>
      </trkpt>
      <trkpt lat="49.16636" lon="1.5774">
        <ele>119.16786956787</ele>
        <time>2016-09-11T07:03:55.000Z</time>
      </trkpt>
      <trkpt lat="49.16642" lon="1.57729">
        <ele>119.68884277344</ele>
        <time>2016-09-11T07:03:58.000Z</time>
      </trkpt>
      <trkpt lat="49.16646" lon="1.57721">
        <ele>120.1173324585</ele>
        <time>2016-09-11T07:04:00.000Z</time>
      </trkpt>
      <trkpt lat="49.1665" lon="1.57713">
        <ele>120.43766784668</ele>
        <time>2016-09-11T07:04:02.000Z</time>
      </trkpt>
      <trkpt lat="49.16655" lon="1.57706">
        <ele>120.61413574219</ele>
        <time>2016-09-11T07:04:04.000Z</time>
      </trkpt>
      <trkpt lat="49.16661" lon="1.577">
        <ele>120.70141601562</ele>
        <time>2016-09-11T07:04:06.000Z</time>
      </trkpt>
      <trkpt lat="49.16666" lon="1.57694">
        <ele>120.740234375</ele>
        <time>2016-09-11T07:04:08.000Z</time>
      </trkpt>
      <trkpt lat="49.16673" lon="1.57683">
        <ele>120.81266784668</ele>
        <time>2016-09-11T07:04:11.000Z</time>
      </trkpt>
      <trkpt lat="49.16676" lon="1.57675">
        <ele>120.90767669678</ele>
        <time>2016-09-11T07:04:13.000Z</time>
      </trkpt>
      <trkpt lat="49.1668" lon="1.57666">
        <ele>121.05200195312</ele>
        <time>2016-09-11T07:04:15.000Z</time>
      </trkpt>
      <trkpt lat="49.16683" lon="1.57658">
        <ele>121.21887207031</ele>
        <time>2016-09-11T07:04:17.000Z</time>
      </trkpt>
      <trkpt lat="49.16687" lon="1.57652">
        <ele>121.39479064941</ele>
        <time>2016-09-11T07:04:19.000Z</time>
      </trkpt>
      <trkpt lat="49.16692" lon="1.57642">
        <ele>121.50937652588</ele>
        <time>2016-09-11T07:04:22.000Z</time>
      </trkpt>
      <trkpt lat="49.167" lon="1.5763">
        <ele>121.561378479</ele>
        <time>2016-09-11T07:04:25.000Z</time>
      </trkpt>
      <trkpt lat="49.16704" lon="1.57622">
        <ele>121.55029296875</ele>
        <time>2016-09-11T07:04:27.000Z</time>
      </trkpt>
      <trkpt lat="49.16709" lon="1.57614">
        <ele>121.51956939697</ele>
        <time>2016-09-11T07:04:29.000Z</time>
      </trkpt>
      <trkpt lat="49.16713" lon="1.57606">
        <ele>121.47944641113</ele>
        <time>2016-09-11T07:04:31.000Z</time>
      </trkpt>
      <trkpt lat="49.16718" lon="1.57595">
        <ele>121.43180847168</ele>
        <time>2016-09-11T07:04:34.000Z</time>
      </trkpt>
      <trkpt lat="49.16722" lon="1.57587">
        <ele>121.38438415527</ele>
        <time>2016-09-11T07:04:36.000Z</time>
      </trkpt>
      <trkpt lat="49.16728" lon="1.57575">
        <ele>121.32155609131</ele>
        <time>2016-09-11T07:04:39.000Z</time>
      </trkpt>
      <trkpt lat="49.16733" lon="1.57568">
        <ele>121.25555419922</ele>
        <time>2016-09-11T07:04:41.000Z</time>
      </trkpt>
      <trkpt lat="49.16738" lon="1.5756">
        <ele>121.18281555176</ele>
        <time>2016-09-11T07:04:43.000Z</time>
      </trkpt>
      <trkpt lat="49.16745" lon="1.57547">
        <ele>121.12294006348</ele>
        <time>2016-09-11T07:04:46.000Z</time>
      </trkpt>
      <trkpt lat="49.16751" lon="1.57534">
        <ele>121.10353851318</ele>
        <time>2016-09-11T07:04:49.000Z</time>
      </trkpt>
      <trkpt lat="49.16755" lon="1.57525">
        <ele>121.13961029053</ele>
        <time>2016-09-11T07:04:51.000Z</time>
      </trkpt>
      <trkpt lat="49.16762" lon="1.57513">
        <ele>121.23527526855</ele>
        <time>2016-09-11T07:04:54.000Z</time>
      </trkpt>
      <trkpt lat="49.16768" lon="1.575">
        <ele>121.38716125488</ele>
        <time>2016-09-11T07:04:57.000Z</time>
      </trkpt>
      <trkpt lat="49.16774" lon="1.57487">
        <ele>121.54921722412</ele>
        <time>2016-09-11T07:05:00.000Z</time>
      </trkpt>
      <trkpt lat="49.16779" lon="1.57478">
        <ele>121.694190979</ele>
        <time>2016-09-11T07:05:02.000Z</time>
      </trkpt>
      <trkpt lat="49.16785" lon="1.57469">
        <ele>121.81526184082</ele>
        <time>2016-09-11T07:05:04.000Z</time>
      </trkpt>
      <trkpt lat="49.16789" lon="1.57461">
        <ele>121.90087890625</ele>
        <time>2016-09-11T07:05:06.000Z</time>
      </trkpt>
      <trkpt lat="49.16794" lon="1.57452">
        <ele>121.95485687256</ele>
        <time>2016-09-11T07:05:08.000Z</time>
      </trkpt>
      <trkpt lat="49.16801" lon="1.57438">
        <ele>122.01086425781</ele>
        <time>2016-09-11T07:05:11.000Z</time>
      </trkpt>
      <trkpt lat="49.16805" lon="1.57429">
        <ele>122.06701660156</ele>
        <time>2016-09-11T07:05:13.000Z</time>
      </trkpt>
      <trkpt lat="49.16811" lon="1.57416">
        <ele>122.12956237793</ele>
        <time>2016-09-11T07:05:16.000Z</time>
      </trkpt>
      <trkpt lat="49.16818" lon="1.57401">
        <ele>122.18925476074</ele>
        <time>2016-09-11T07:05:19.000Z</time>
      </trkpt>
      <trkpt lat="49.16823" lon="1.57392">
        <ele>122.24808502197</ele>
        <time>2016-09-11T07:05:21.000Z</time>
      </trkpt>
      <trkpt lat="49.1683" lon="1.57377">
        <ele>122.31605529785</ele>
        <time>2016-09-11T07:05:24.000Z</time>
      </trkpt>
      <trkpt lat="49.16837" lon="1.57362">
        <ele>122.39985656738</ele>
        <time>2016-09-11T07:05:27.000Z</time>
      </trkpt>
      <trkpt lat="49.16845" lon="1.57347">
        <ele>122.48696136475</ele>
        <time>2016-09-11T07:05:30.000Z</time>
      </trkpt>
      <trkpt lat="49.16852" lon="1.57332">
        <ele>122.58066558838</ele>
        <time>2016-09-11T07:05:33.000Z</time>
      </trkpt>
      <trkpt lat="49.16857" lon="1.57322">
        <ele>122.64274597168</ele>
        <time>2016-09-11T07:05:35.000Z</time>
      </trkpt>
      <trkpt lat="49.16864" lon="1.57308">
        <ele>122.65649414062</ele>
        <time>2016-09-11T07:05:38.000Z</time>
      </trkpt>
      <trkpt lat="49.16872" lon="1.57293">
        <ele>122.63487243652</ele>
        <time>2016-09-11T07:05:41.000Z</time>
      </trkpt>
      <trkpt lat="49.16877" lon="1.57282">
        <ele>122.59625244141</ele>
        <time>2016-09-11T07:05:43.000Z</time>
      </trkpt>
      <trkpt lat="49.16885" lon="1.57267">
        <ele>122.556640625</ele>
        <time>2016-09-11T07:05:46.000Z</time>
      </trkpt>
      <trkpt lat="49.16889" lon="1.57257">
        <ele>122.55242919922</ele>
        <time>2016-09-11T07:05:48.000Z</time>
      </trkpt>
      <trkpt lat="49.16896" lon="1.57242">
        <ele>122.59889984131</ele>
        <time>2016-09-11T07:05:51.000Z</time>
      </trkpt>
      <trkpt lat="49.16901" lon="1.57233">
        <ele>122.66963195801</ele>
        <time>2016-09-11T07:05:53.000Z</time>
      </trkpt>
      <trkpt lat="49.16909" lon="1.57219">
        <ele>122.75770568848</ele>
        <time>2016-09-11T07:05:56.000Z</time>
      </trkpt>
      <trkpt lat="49.16917" lon="1.57203">
        <ele>122.84471130371</ele>
        <time>2016-09-11T07:05:59.000Z</time>
      </trkpt>
      <trkpt lat="49.16924" lon="1.57189">
        <ele>122.93055725098</ele>
        <time>2016-09-11T07:06:02.000Z</time>
      </trkpt>
      <trkpt lat="49.16929" lon="1.5718">
        <ele>122.99959564209</ele>
        <time>2016-09-11T07:06:04.000Z</time>
      </trkpt>
      <trkpt lat="49.16934" lon="1.5717">
        <ele>123.06845855713</ele>
        <time>2016-09-11T07:06:06.000Z</time>
      </trkpt>
      <trkpt lat="49.16941" lon="1.57157">
        <ele>123.11967468262</ele>
        <time>2016-09-11T07:06:09.000Z</time>
      </trkpt>
      <trkpt lat="49.16951" lon="1.5715">
        <ele>123.17729187012</ele>
        <time>2016-09-11T07:06:12.000Z</time>
      </trkpt>
      <trkpt lat="49.16959" lon="1.57154">
        <ele>123.25081634521</ele>
        <time>2016-09-11T07:06:14.000Z</time>
      </trkpt>
      <trkpt lat="49.1697" lon="1.57173">
        <ele>123.34397888184</ele>
        <time>2016-09-11T07:06:17.000Z</time>
      </trkpt>
      <trkpt lat="49.16979" lon="1.57194">
        <ele>123.40466308594</ele>
        <time>2016-09-11T07:06:20.000Z</time>
      </trkpt>
      <trkpt lat="49.16986" lon="1.57208">
        <ele>123.44786071777</ele>
        <time>2016-09-11T07:06:22.000Z</time>
      </trkpt>
      <trkpt lat="49.16996" lon="1.57228">
        <ele>123.43827056885</ele>
        <time>2016-09-11T07:06:25.000Z</time>
      </trkpt>
      <trkpt lat="49.17002" lon="1.57242">
        <ele>123.36088562012</ele>
        <time>2016-09-11T07:06:27.000Z</time>
      </trkpt>
      <trkpt lat="49.17013" lon="1.57265">
        <ele>123.08070373535</ele>
        <time>2016-09-11T07:06:30.000Z</time>
      </trkpt>
      <trkpt lat="49.17027" lon="1.57286">
        <ele>122.62393951416</ele>
        <time>2016-09-11T07:06:33.000Z</time>
      </trkpt>
      <trkpt lat="49.17041" lon="1.57306">
        <ele>122.00498962402</ele>
        <time>2016-09-11T07:06:36.000Z</time>
      </trkpt>
      <trkpt lat="49.17053" lon="1.57332">
        <ele>121.23872375488</ele>
        <time>2016-09-11T07:06:39.000Z</time>
      </trkpt>
      <trkpt lat="49.17062" lon="1.57346">
        <ele>120.44898986816</ele>
        <time>2016-09-11T07:06:41.000Z</time>
      </trkpt>
      <trkpt lat="49.17075" lon="1.57369">
        <ele>119.745262146</ele>
        <time>2016-09-11T07:06:44.000Z</time>
      </trkpt>
      <trkpt lat="49.17088" lon="1.57395">
        <ele>119.15629577637</ele>
        <time>2016-09-11T07:06:47.000Z</time>
      </trkpt>
      <trkpt lat="49.17102" lon="1.57421">
        <ele>118.67734527588</ele>
        <time>2016-09-11T07:06:50.000Z</time>
      </trkpt>
      <trkpt lat="49.17117" lon="1.57446">
        <ele>118.29724121094</ele>
        <time>2016-09-11T07:06:53.000Z</time>
      </trkpt>
      <trkpt lat="49.17131" lon="1.57468">
        <ele>117.88603210449</ele>
        <time>2016-09-11T07:06:56.000Z</time>
      </trkpt>
      <trkpt lat="49.1714" lon="1.57483">
        <ele>117.48332214355</ele>
        <time>2016-09-11T07:06:58.000Z</time>
      </trkpt>
      <trkpt lat="49.17154" lon="1.57506">
        <ele>117.001953125</ele>
        <time>2016-09-11T07:07:01.000Z</time>
      </trkpt>
      <trkpt lat="49.17169" lon="1.57526">
        <ele>116.36842346191</ele>
        <time>2016-09-11T07:07:04.000Z</time>
      </trkpt>
      <trkpt lat="49.17184" lon="1.57538">
        <ele>115.71881103516</ele>
        <time>2016-09-11T07:07:07.000Z</time>
      </trkpt>
      <trkpt lat="49.17204" lon="1.57553">
        <ele>115.08436584473</ele>
        <time>2016-09-11T07:07:10.000Z</time>
      </trkpt>
      <trkpt lat="49.17218" lon="1.57564">
        <ele>114.49959564209</ele>
        <time>2016-09-11T07:07:12.000Z</time>
      </trkpt>
      <trkpt lat="49.17233" lon="1.57569">
        <ele>114.09922790527</ele>
        <time>2016-09-11T07:07:15.000Z</time>
      </trkpt>
      <trkpt lat="49.17246" lon="1.5758">
        <ele>113.93829345703</ele>
        <time>2016-09-11T07:07:17.000Z</time>
      </trkpt>
      <trkpt lat="49.17257" lon="1.57582">
        <ele>113.86982727051</ele>
        <time>2016-09-11T07:07:19.000Z</time>
      </trkpt>
      <trkpt lat="49.17278" lon="1.57594">
        <ele>113.76196289062</ele>
        <time>2016-09-11T07:07:22.000Z</time>
      </trkpt>
      <trkpt lat="49.17292" lon="1.57602">
        <ele>113.60343170166</ele>
        <time>2016-09-11T07:07:24.000Z</time>
      </trkpt>
      <trkpt lat="49.1731" lon="1.57615">
        <ele>113.31253814697</ele>
        <time>2016-09-11T07:07:27.000Z</time>
      </trkpt>
      <trkpt lat="49.17326" lon="1.57624">
        <ele>112.93674468994</ele>
        <time>2016-09-11T07:07:30.000Z</time>
      </trkpt>
      <trkpt lat="49.17337" lon="1.57626">
        <ele>112.55104064941</ele>
        <time>2016-09-11T07:07:32.000Z</time>
      </trkpt>
      <trkpt lat="49.17353" lon="1.57639">
        <ele>112.23271179199</ele>
        <time>2016-09-11T07:07:35.000Z</time>
      </trkpt>
      <trkpt lat="49.17365" lon="1.57645">
        <ele>111.9702911377</ele>
        <time>2016-09-11T07:07:37.000Z</time>
      </trkpt>
      <trkpt lat="49.17374" lon="1.57637">
        <ele>111.8653793335</ele>
        <time>2016-09-11T07:07:40.000Z</time>
      </trkpt>
      <trkpt lat="49.17385" lon="1.57644">
        <ele>111.79453277588</ele>
        <time>2016-09-11T07:07:42.000Z</time>
      </trkpt>
      <trkpt lat="49.17398" lon="1.57655">
        <ele>111.6706161499</ele>
        <time>2016-09-11T07:07:45.000Z</time>
      </trkpt>
      <trkpt lat="49.1741" lon="1.57664">
        <ele>111.54270935059</ele>
        <time>2016-09-11T07:07:47.000Z</time>
      </trkpt>
      <trkpt lat="49.17427" lon="1.57669">
        <ele>111.4536895752</ele>
        <time>2016-09-11T07:07:50.000Z</time>
      </trkpt>
      <trkpt lat="49.1744" lon="1.5768">
        <ele>111.3381729126</ele>
        <time>2016-09-11T07:07:53.000Z</time>
      </trkpt>
      <trkpt lat="49.1745" lon="1.57687">
        <ele>111.2742767334</ele>
        <time>2016-09-11T07:07:55.000Z</time>
      </trkpt>
      <trkpt lat="49.17461" lon="1.57699">
        <ele>111.2950592041</ele>
        <time>2016-09-11T07:07:58.000Z</time>
      </trkpt>
      <trkpt lat="49.17472" lon="1.57711">
        <ele>111.39931488037</ele>
        <time>2016-09-11T07:08:01.000Z</time>
      </trkpt>
      <trkpt lat="49.1748" lon="1.57719">
        <ele>111.50834655762</ele>
        <time>2016-09-11T07:08:03.000Z</time>
      </trkpt>
      <trkpt lat="49.17492" lon="1.57737">
        <ele>111.61949157715</ele>
        <time>2016-09-11T07:08:06.000Z</time>
      </trkpt>
      <trkpt lat="49.17498" lon="1.57745">
        <ele>111.7385635376</ele>
        <time>2016-09-11T07:08:08.000Z</time>
      </trkpt>
      <trkpt lat="49.17505" lon="1.57755">
        <ele>111.83046722412</ele>
        <time>2016-09-11T07:08:10.000Z</time>
      </trkpt>
      <trkpt lat="49.17513" lon="1.57764">
        <ele>111.87561035156</ele>
        <time>2016-09-11T07:08:12.000Z</time>
      </trkpt>
      <trkpt lat="49.17525" lon="1.57779">
        <ele>111.87249755859</ele>
        <time>2016-09-11T07:08:15.000Z</time>
      </trkpt>
      <trkpt lat="49.17537" lon="1.57796">
        <ele>111.81718444824</ele>
        <time>2016-09-11T07:08:18.000Z</time>
      </trkpt>
      <trkpt lat="49.17545" lon="1.57807">
        <ele>111.72395324707</ele>
        <time>2016-09-11T07:08:20.000Z</time>
      </trkpt>
      <trkpt lat="49.17553" lon="1.57818">
        <ele>111.63973236084</ele>
        <time>2016-09-11T07:08:22.000Z</time>
      </trkpt>
      <trkpt lat="49.17565" lon="1.57836">
        <ele>111.56441497803</ele>
        <time>2016-09-11T07:08:25.000Z</time>
      </trkpt>
      <trkpt lat="49.17577" lon="1.57856">
        <ele>111.47882080078</ele>
        <time>2016-09-11T07:08:28.000Z</time>
      </trkpt>
      <trkpt lat="49.17589" lon="1.57874">
        <ele>111.36452484131</ele>
        <time>2016-09-11T07:08:31.000Z</time>
      </trkpt>
      <trkpt lat="49.17601" lon="1.57891">
        <ele>111.17868804932</ele>
        <time>2016-09-11T07:08:34.000Z</time>
      </trkpt>
      <trkpt lat="49.1761" lon="1.57899">
        <ele>110.95944976807</ele>
        <time>2016-09-11T07:08:36.000Z</time>
      </trkpt>
      <trkpt lat="49.1762" lon="1.57912">
        <ele>110.68788909912</ele>
        <time>2016-09-11T07:08:38.000Z</time>
      </trkpt>
      <trkpt lat="49.17633" lon="1.57936">
        <ele>110.36605072021</ele>
        <time>2016-09-11T07:08:41.000Z</time>
      </trkpt>
      <trkpt lat="49.17641" lon="1.57952">
        <ele>110.05255126953</ele>
        <time>2016-09-11T07:08:43.000Z</time>
      </trkpt>
      <trkpt lat="49.17651" lon="1.57967">
        <ele>109.78818511963</ele>
        <time>2016-09-11T07:08:45.000Z</time>
      </trkpt>
      <trkpt lat="49.17666" lon="1.57988">
        <ele>109.53228759766</ele>
        <time>2016-09-11T07:08:48.000Z</time>
      </trkpt>
      <trkpt lat="49.17676" lon="1.58003">
        <ele>109.29750823975</ele>
        <time>2016-09-11T07:08:50.000Z</time>
      </trkpt>
      <trkpt lat="49.1769" lon="1.58025">
        <ele>109.0612411499</ele>
        <time>2016-09-11T07:08:53.000Z</time>
      </trkpt>
      <trkpt lat="49.17705" lon="1.58046">
        <ele>108.80184173584</ele>
        <time>2016-09-11T07:08:56.000Z</time>
      </trkpt>
      <trkpt lat="49.1772" lon="1.58067">
        <ele>108.52681732178</ele>
        <time>2016-09-11T07:08:59.000Z</time>
      </trkpt>
      <trkpt lat="49.17728" lon="1.58079">
        <ele>108.25791931152</ele>
        <time>2016-09-11T07:09:01.000Z</time>
      </trkpt>
      <trkpt lat="49.17735" lon="1.58095">
        <ele>108.03273010254</ele>
        <time>2016-09-11T07:09:03.000Z</time>
      </trkpt>
      <trkpt lat="49.17746" lon="1.58115">
        <ele>107.92338562012</ele>
        <time>2016-09-11T07:09:06.000Z</time>
      </trkpt>
      <trkpt lat="49.17753" lon="1.58128">
        <ele>107.88366699219</ele>
        <time>2016-09-11T07:09:08.000Z</time>
      </trkpt>
      <trkpt lat="49.17763" lon="1.58149">
        <ele>107.86374664307</ele>
        <time>2016-09-11T07:09:11.000Z</time>
      </trkpt>
      <trkpt lat="49.17774" lon="1.58172">
        <ele>107.83467102051</ele>
        <time>2016-09-11T07:09:14.000Z</time>
      </trkpt>
      <trkpt lat="49.17785" lon="1.58198">
        <ele>107.71513366699</ele>
        <time>2016-09-11T07:09:17.000Z</time>
      </trkpt>
      <trkpt lat="49.17792" lon="1.58215">
        <ele>107.50797271729</ele>
        <time>2016-09-11T07:09:19.000Z</time>
      </trkpt>
      <trkpt lat="49.17802" lon="1.58242">
        <ele>107.21280670166</ele>
        <time>2016-09-11T07:09:22.000Z</time>
      </trkpt>
      <trkpt lat="49.17813" lon="1.58269">
        <ele>106.85451507568</ele>
        <time>2016-09-11T07:09:25.000Z</time>
      </trkpt>
      <trkpt lat="49.17819" lon="1.58288">
        <ele>106.46765136719</ele>
        <time>2016-09-11T07:09:27.000Z</time>
      </trkpt>
      <trkpt lat="49.17827" lon="1.58315">
        <ele>106.08435058594</ele>
        <time>2016-09-11T07:09:30.000Z</time>
      </trkpt>
      <trkpt lat="49.17834" lon="1.5833">
        <ele>105.70896911621</ele>
        <time>2016-09-11T07:09:32.000Z</time>
      </trkpt>
      <trkpt lat="49.17839" lon="1.58348">
        <ele>105.40598297119</ele>
        <time>2016-09-11T07:09:34.000Z</time>
      </trkpt>
      <trkpt lat="49.17847" lon="1.58373">
        <ele>105.15405273438</ele>
        <time>2016-09-11T07:09:37.000Z</time>
      </trkpt>
      <trkpt lat="49.17859" lon="1.58401">
        <ele>104.85948181152</ele>
        <time>2016-09-11T07:09:40.000Z</time>
      </trkpt>
      <trkpt lat="49.1787" lon="1.58429">
        <ele>104.52030944824</ele>
        <time>2016-09-11T07:09:43.000Z</time>
      </trkpt>
      <trkpt lat="49.1788" lon="1.58457">
        <ele>104.13391113281</ele>
        <time>2016-09-11T07:09:46.000Z</time>
      </trkpt>
      <trkpt lat="49.17892" lon="1.58485">
        <ele>103.66947174072</ele>
        <time>2016-09-11T07:09:49.000Z</time>
      </trkpt>
      <trkpt lat="49.179" lon="1.58505">
        <ele>103.18330383301</ele>
        <time>2016-09-11T07:09:52.000Z</time>
      </trkpt>
      <trkpt lat="49.17912" lon="1.58527">
        <ele>102.69216156006</ele>
        <time>2016-09-11T07:09:55.000Z</time>
      </trkpt>
      <trkpt lat="49.17921" lon="1.5854">
        <ele>102.27020263672</ele>
        <time>2016-09-11T07:09:57.000Z</time>
      </trkpt>
      <trkpt lat="49.17934" lon="1.58563">
        <ele>101.88749694824</ele>
        <time>2016-09-11T07:10:00.000Z</time>
      </trkpt>
      <trkpt lat="49.17947" lon="1.58585">
        <ele>101.55861663818</ele>
        <time>2016-09-11T07:10:03.000Z</time>
      </trkpt>
      <trkpt lat="49.17953" lon="1.586">
        <ele>101.28863525391</ele>
        <time>2016-09-11T07:10:05.000Z</time>
      </trkpt>
      <trkpt lat="49.17967" lon="1.58619">
        <ele>101.14828491211</ele>
        <time>2016-09-11T07:10:08.000Z</time>
      </trkpt>
      <trkpt lat="49.17976" lon="1.58632">
        <ele>101.09810638428</ele>
        <time>2016-09-11T07:10:10.000Z</time>
      </trkpt>
      <trkpt lat="49.17988" lon="1.58659">
        <ele>101.1887588501</ele>
        <time>2016-09-11T07:10:13.000Z</time>
      </trkpt>
      <trkpt lat="49.17996" lon="1.58668">
        <ele>101.3733215332</ele>
        <time>2016-09-11T07:10:15.000Z</time>
      </trkpt>
      <trkpt lat="49.18005" lon="1.58693">
        <ele>101.65895080566</ele>
        <time>2016-09-11T07:10:18.000Z</time>
      </trkpt>
      <trkpt lat="49.18004" lon="1.58714">
        <ele>101.97080993652</ele>
        <time>2016-09-11T07:10:20.000Z</time>
      </trkpt>
      <trkpt lat="49.18" lon="1.5874">
        <ele>102.29871368408</ele>
        <time>2016-09-11T07:10:23.000Z</time>
      </trkpt>
      <trkpt lat="49.17992" lon="1.58762">
        <ele>102.54146575928</ele>
        <time>2016-09-11T07:10:26.000Z</time>
      </trkpt>
      <trkpt lat="49.17982" lon="1.58785">
        <ele>102.73508453369</ele>
        <time>2016-09-11T07:10:29.000Z</time>
      </trkpt>
      <trkpt lat="49.17984" lon="1.58801">
        <ele>102.88659667969</ele>
        <time>2016-09-11T07:10:31.000Z</time>
      </trkpt>
      <trkpt lat="49.17993" lon="1.58825">
        <ele>103.10383605957</ele>
        <time>2016-09-11T07:10:34.000Z</time>
      </trkpt>
      <trkpt lat="49.17995" lon="1.58842">
        <ele>103.32572937012</ele>
        <time>2016-09-11T07:10:36.000Z</time>
      </trkpt>
      <trkpt lat="49.17999" lon="1.58861">
        <ele>103.61470794678</ele>
        <time>2016-09-11T07:10:38.000Z</time>
      </trkpt>
      <trkpt lat="49.18008" lon="1.58878">
        <ele>104.01387023926</ele>
        <time>2016-09-11T07:10:40.000Z</time>
      </trkpt>
      <trkpt lat="49.18011" lon="1.58896">
        <ele>104.41448974609</ele>
        <time>2016-09-11T07:10:42.000Z</time>
      </trkpt>
      <trkpt lat="49.18019" lon="1.58915">
        <ele>104.80300140381</ele>
        <time>2016-09-11T07:10:45.000Z</time>
      </trkpt>
      <trkpt lat="49.18026" lon="1.58941">
        <ele>105.2174911499</ele>
        <time>2016-09-11T07:10:48.000Z</time>
      </trkpt>
      <trkpt lat="49.18031" lon="1.58958">
        <ele>105.60346984863</ele>
        <time>2016-09-11T07:10:50.000Z</time>
      </trkpt>
      <trkpt lat="49.18038" lon="1.58983">
        <ele>105.91448974609</ele>
        <time>2016-09-11T07:10:53.000Z</time>
      </trkpt>
      <trkpt lat="49.18041" lon="1.59008">
        <ele>106.16981506348</ele>
        <time>2016-09-11T07:10:56.000Z</time>
      </trkpt>
      <trkpt lat="49.18043" lon="1.59034">
        <ele>106.29595947266</ele>
        <time>2016-09-11T07:10:59.000Z</time>
      </trkpt>
      <trkpt lat="49.18046" lon="1.59059">
        <ele>106.31484222412</ele>
        <time>2016-09-11T07:11:02.000Z</time>
      </trkpt>
      <trkpt lat="49.18047" lon="1.59077">
        <ele>106.27642822266</ele>
        <time>2016-09-11T07:11:04.000Z</time>
      </trkpt>
      <trkpt lat="49.18049" lon="1.59104">
        <ele>106.18901062012</ele>
        <time>2016-09-11T07:11:07.000Z</time>
      </trkpt>
      <trkpt lat="49.1806" lon="1.59131">
        <ele>106.10066223145</ele>
        <time>2016-09-11T07:11:10.000Z</time>
      </trkpt>
      <trkpt lat="49.18066" lon="1.59144">
        <ele>106.03967285156</ele>
        <time>2016-09-11T07:11:12.000Z</time>
      </trkpt>
      <trkpt lat="49.18079" lon="1.5916">
        <ele>106.00814056396</ele>
        <time>2016-09-11T07:11:15.000Z</time>
      </trkpt>
      <trkpt lat="49.18091" lon="1.59176">
        <ele>106.04064941406</ele>
        <time>2016-09-11T07:11:18.000Z</time>
      </trkpt>
      <trkpt lat="49.18101" lon="1.59187">
        <ele>106.13203430176</ele>
        <time>2016-09-11T07:11:20.000Z</time>
      </trkpt>
      <trkpt lat="49.1811" lon="1.59197">
        <ele>106.26676940918</ele>
        <time>2016-09-11T07:11:22.000Z</time>
      </trkpt>
      <trkpt lat="49.18119" lon="1.59206">
        <ele>106.44510650635</ele>
        <time>2016-09-11T07:11:24.000Z</time>
      </trkpt>
      <trkpt lat="49.18126" lon="1.59216">
        <ele>106.66644287109</ele>
        <time>2016-09-11T07:11:26.000Z</time>
      </trkpt>
      <trkpt lat="49.18138" lon="1.5923">
        <ele>106.90785980225</ele>
        <time>2016-09-11T07:11:29.000Z</time>
      </trkpt>
      <trkpt lat="49.1815" lon="1.59243">
        <ele>107.15887451172</ele>
        <time>2016-09-11T07:11:32.000Z</time>
      </trkpt>
      <trkpt lat="49.18161" lon="1.59248">
        <ele>107.40634918213</ele>
        <time>2016-09-11T07:11:34.000Z</time>
      </trkpt>
      <trkpt lat="49.18166" lon="1.59254">
        <ele>107.62763977051</ele>
        <time>2016-09-11T07:11:36.000Z</time>
      </trkpt>
      <trkpt lat="49.18177" lon="1.5927">
        <ele>107.83609771729</ele>
        <time>2016-09-11T07:11:39.000Z</time>
      </trkpt>
      <trkpt lat="49.18186" lon="1.59279">
        <ele>108.01650238037</ele>
        <time>2016-09-11T07:11:41.000Z</time>
      </trkpt>
      <trkpt lat="49.18198" lon="1.59294">
        <ele>108.1868057251</ele>
        <time>2016-09-11T07:11:44.000Z</time>
      </trkpt>
      <trkpt lat="49.18206" lon="1.59305">
        <ele>108.36171722412</ele>
        <time>2016-09-11T07:11:47.000Z</time>
      </trkpt>
      <trkpt lat="49.18215" lon="1.59315">
        <ele>108.56829833984</ele>
        <time>2016-09-11T07:11:50.000Z</time>
      </trkpt>
      <trkpt lat="49.18226" lon="1.59327">
        <ele>108.81252288818</ele>
        <time>2016-09-11T07:11:53.000Z</time>
      </trkpt>
      <trkpt lat="49.18233" lon="1.59337">
        <ele>109.08232116699</ele>
        <time>2016-09-11T07:11:56.000Z</time>
      </trkpt>
      <trkpt lat="49.18242" lon="1.59348">
        <ele>109.37129974365</ele>
        <time>2016-09-11T07:11:58.000Z</time>
      </trkpt>
      <trkpt lat="49.1825" lon="1.59359">
        <ele>109.6792755127</ele>
        <time>2016-09-11T07:12:01.000Z</time>
      </trkpt>
      <trkpt lat="49.18258" lon="1.5937">
        <ele>110.05668640137</ele>
        <time>2016-09-11T07:12:04.000Z</time>
      </trkpt>
      <trkpt lat="49.18274" lon="1.59383">
        <ele>110.58332824707</ele>
        <time>2016-09-11T07:12:07.000Z</time>
      </trkpt>
      <trkpt lat="49.18275" lon="1.59387">
        <ele>111.08171081543</ele>
        <time>2016-09-11T07:12:09.000Z</time>
      </trkpt>
      <trkpt lat="49.18284" lon="1.59399">
        <ele>111.64166259766</ele>
        <time>2016-09-11T07:12:12.000Z</time>
      </trkpt>
      <trkpt lat="49.18293" lon="1.59407">
        <ele>112.27378082275</ele>
        <time>2016-09-11T07:12:15.000Z</time>
      </trkpt>
      <trkpt lat="49.18297" lon="1.59409">
        <ele>112.83660888672</ele>
        <time>2016-09-11T07:12:17.000Z</time>
      </trkpt>
      <trkpt lat="49.18305" lon="1.59424">
        <ele>113.30606842041</ele>
        <time>2016-09-11T07:12:20.000Z</time>
      </trkpt>
      <trkpt lat="49.18312" lon="1.59432">
        <ele>113.83575439453</ele>
        <time>2016-09-11T07:12:22.000Z</time>
      </trkpt>
      <trkpt lat="49.18322" lon="1.59442">
        <ele>114.34944915771</ele>
        <time>2016-09-11T07:12:25.000Z</time>
      </trkpt>
      <trkpt lat="49.18327" lon="1.59446">
        <ele>114.78525543213</ele>
        <time>2016-09-11T07:12:27.000Z</time>
      </trkpt>
      <trkpt lat="49.18335" lon="1.59452">
        <ele>115.26100158691</ele>
        <time>2016-09-11T07:12:30.000Z</time>
      </trkpt>
      <trkpt lat="49.18341" lon="1.59461">
        <ele>115.72221374512</ele>
        <time>2016-09-11T07:12:33.000Z</time>
      </trkpt>
      <trkpt lat="49.18345" lon="1.59472">
        <ele>116.16972351074</ele>
        <time>2016-09-11T07:12:36.000Z</time>
      </trkpt>
      <trkpt lat="49.1835" lon="1.59477">
        <ele>116.58589935303</ele>
        <time>2016-09-11T07:12:38.000Z</time>
      </trkpt>
      <trkpt lat="49.18355" lon="1.59481">
        <ele>117.02675628662</ele>
        <time>2016-09-11T07:12:41.000Z</time>
      </trkpt>
      <trkpt lat="49.18361" lon="1.59483">
        <ele>117.48307037354</ele>
        <time>2016-09-11T07:12:43.000Z</time>
      </trkpt>
      <trkpt lat="49.18369" lon="1.59486">
        <ele>117.96064758301</ele>
        <time>2016-09-11T07:12:45.000Z</time>
      </trkpt>
      <trkpt lat="49.18373" lon="1.5949">
        <ele>118.44069671631</ele>
        <time>2016-09-11T07:12:47.000Z</time>
      </trkpt>
      <trkpt lat="49.18377" lon="1.59498">
        <ele>118.88980865479</ele>
        <time>2016-09-11T07:12:50.000Z</time>
      </trkpt>
      <trkpt lat="49.18383" lon="1.59507">
        <ele>119.3719329834</ele>
        <time>2016-09-11T07:12:53.000Z</time>
      </trkpt>
      <trkpt lat="49.18387" lon="1.59513">
        <ele>119.84785461426</ele>
        <time>2016-09-11T07:12:56.000Z</time>
      </trkpt>
      <trkpt lat="49.18392" lon="1.59522">
        <ele>120.30859375</ele>
        <time>2016-09-11T07:12:59.000Z</time>
      </trkpt>
      <trkpt lat="49.18394" lon="1.59528">
        <ele>120.74900054932</ele>
        <time>2016-09-11T07:13:01.000Z</time>
      </trkpt>
      <trkpt lat="49.18398" lon="1.59539">
        <ele>121.23582458496</ele>
        <time>2016-09-11T07:13:04.000Z</time>
      </trkpt>
      <trkpt lat="49.18401" lon="1.59549">
        <ele>121.66947937012</ele>
        <time>2016-09-11T07:13:06.000Z</time>
      </trkpt>
      <trkpt lat="49.18405" lon="1.59562">
        <ele>122.10849761963</ele>
        <time>2016-09-11T07:13:09.000Z</time>
      </trkpt>
      <trkpt lat="49.18409" lon="1.59576">
        <ele>122.52565002441</ele>
        <time>2016-09-11T07:13:12.000Z</time>
      </trkpt>
      <trkpt lat="49.18412" lon="1.59585">
        <ele>122.94742584229</ele>
        <time>2016-09-11T07:13:14.000Z</time>
      </trkpt>
      <trkpt lat="49.18416" lon="1.59598">
        <ele>123.38680267334</ele>
        <time>2016-09-11T07:13:17.000Z</time>
      </trkpt>
      <trkpt lat="49.1842" lon="1.59611">
        <ele>123.87712097168</ele>
        <time>2016-09-11T07:13:20.000Z</time>
      </trkpt>
      <trkpt lat="49.18423" lon="1.59619">
        <ele>124.34417724609</ele>
        <time>2016-09-11T07:13:22.000Z</time>
      </trkpt>
      <trkpt lat="49.18425" lon="1.59627">
        <ele>124.78513336182</ele>
        <time>2016-09-11T07:13:24.000Z</time>
      </trkpt>
      <trkpt lat="49.18427" lon="1.59635">
        <ele>125.23435974121</ele>
        <time>2016-09-11T07:13:26.000Z</time>
      </trkpt>
      <trkpt lat="49.18431" lon="1.59646">
        <ele>125.67993164062</ele>
        <time>2016-09-11T07:13:29.000Z</time>
      </trkpt>
      <trkpt lat="49.18435" lon="1.59656">
        <ele>126.11932373047</ele>
        <time>2016-09-11T07:13:32.000Z</time>
      </trkpt>
      <trkpt lat="49.18439" lon="1.59666">
        <ele>126.57238769531</ele>
        <time>2016-09-11T07:13:35.000Z</time>
      </trkpt>
      <trkpt lat="49.18441" lon="1.59672">
        <ele>127.03858947754</ele>
        <time>2016-09-11T07:13:37.000Z</time>
      </trkpt>
      <trkpt lat="49.18444" lon="1.59682">
        <ele>127.5465927124</ele>
        <time>2016-09-11T07:13:40.000Z</time>
      </trkpt>
      <trkpt lat="49.18447" lon="1.59688">
        <ele>128.02160644531</ele>
        <time>2016-09-11T07:13:42.000Z</time>
      </trkpt>
      <trkpt lat="49.18451" lon="1.59698">
        <ele>128.51246643066</ele>
        <time>2016-09-11T07:13:45.000Z</time>
      </trkpt>
      <trkpt lat="49.18454" lon="1.59707">
        <ele>129.02462768555</ele>
        <time>2016-09-11T07:13:48.000Z</time>
      </trkpt>
      <trkpt lat="49.18457" lon="1.59716">
        <ele>129.56735229492</ele>
        <time>2016-09-11T07:13:51.000Z</time>
      </trkpt>
      <trkpt lat="49.18459" lon="1.59725">
        <ele>130.09826660156</ele>
        <time>2016-09-11T07:13:54.000Z</time>
      </trkpt>
      <trkpt lat="49.18461" lon="1.59731">
        <ele>130.61343383789</ele>
        <time>2016-09-11T07:13:56.000Z</time>
      </trkpt>
      <trkpt lat="49.18465" lon="1.5974">
        <ele>131.12715148926</ele>
        <time>2016-09-11T07:13:59.000Z</time>
      </trkpt>
      <trkpt lat="49.18467" lon="1.59746">
        <ele>131.58929443359</ele>
        <time>2016-09-11T07:14:01.000Z</time>
      </trkpt>
      <trkpt lat="49.18467" lon="1.59756">
        <ele>132.01541137695</ele>
        <time>2016-09-11T07:14:04.000Z</time>
      </trkpt>
      <trkpt lat="49.18465" lon="1.59762">
        <ele>132.3726348877</ele>
        <time>2016-09-11T07:14:06.000Z</time>
      </trkpt>
      <trkpt lat="49.18462" lon="1.59769">
        <ele>132.68334960938</ele>
        <time>2016-09-11T07:14:08.000Z</time>
      </trkpt>
      <trkpt lat="49.18457" lon="1.5978">
        <ele>132.89338684082</ele>
        <time>2016-09-11T07:14:11.000Z</time>
      </trkpt>
      <trkpt lat="49.18452" lon="1.59793">
        <ele>133.09948730469</ele>
        <time>2016-09-11T07:14:14.000Z</time>
      </trkpt>
      <trkpt lat="49.18449" lon="1.59802">
        <ele>133.28134155273</ele>
        <time>2016-09-11T07:14:16.000Z</time>
      </trkpt>
      <trkpt lat="49.18445" lon="1.59815">
        <ele>133.51068115234</ele>
        <time>2016-09-11T07:14:19.000Z</time>
      </trkpt>
      <trkpt lat="49.18441" lon="1.59824">
        <ele>133.78327941895</ele>
        <time>2016-09-11T07:14:21.000Z</time>
      </trkpt>
      <trkpt lat="49.18439" lon="1.59833">
        <ele>134.10842895508</ele>
        <time>2016-09-11T07:14:23.000Z</time>
      </trkpt>
      <trkpt lat="49.18436" lon="1.59844">
        <ele>134.38900756836</ele>
        <time>2016-09-11T07:14:25.000Z</time>
      </trkpt>
      <trkpt lat="49.18431" lon="1.5986">
        <ele>134.63479614258</ele>
        <time>2016-09-11T07:14:28.000Z</time>
      </trkpt>
      <trkpt lat="49.18428" lon="1.59872">
        <ele>134.81573486328</ele>
        <time>2016-09-11T07:14:30.000Z</time>
      </trkpt>
      <trkpt lat="49.18425" lon="1.59894">
        <ele>134.96011352539</ele>
        <time>2016-09-11T07:14:33.000Z</time>
      </trkpt>
      <trkpt lat="49.18422" lon="1.5991">
        <ele>135.04748535156</ele>
        <time>2016-09-11T07:14:35.000Z</time>
      </trkpt>
      <trkpt lat="49.18416" lon="1.59933">
        <ele>134.99398803711</ele>
        <time>2016-09-11T07:14:38.000Z</time>
      </trkpt>
      <trkpt lat="49.18413" lon="1.59947">
        <ele>134.85723876953</ele>
        <time>2016-09-11T07:14:40.000Z</time>
      </trkpt>
      <trkpt lat="49.18413" lon="1.59968">
        <ele>134.61225891113</ele>
        <time>2016-09-11T07:14:43.000Z</time>
      </trkpt>
      <trkpt lat="49.18427" lon="1.5998">
        <ele>134.36265563965</ele>
        <time>2016-09-11T07:14:46.000Z</time>
      </trkpt>
      <trkpt lat="49.18446" lon="1.59989">
        <ele>134.20506286621</ele>
        <time>2016-09-11T07:14:49.000Z</time>
      </trkpt>
      <trkpt lat="49.18468" lon="1.60002">
        <ele>134.23085021973</ele>
        <time>2016-09-11T07:14:52.000Z</time>
      </trkpt>
      <trkpt lat="49.18481" lon="1.60015">
        <ele>134.23973083496</ele>
        <time>2016-09-11T07:14:54.000Z</time>
      </trkpt>
      <trkpt lat="49.185" lon="1.60038">
        <ele>134.13641357422</ele>
        <time>2016-09-11T07:14:57.000Z</time>
      </trkpt>
      <trkpt lat="49.18523" lon="1.60063">
        <ele>133.45596313477</ele>
        <time>2016-09-11T07:15:00.000Z</time>
      </trkpt>
      <trkpt lat="49.18539" lon="1.60081">
        <ele>132.23307800293</ele>
        <time>2016-09-11T07:15:02.000Z</time>
      </trkpt>
      <trkpt lat="49.1856" lon="1.60103">
        <ele>130.36938476562</ele>
        <time>2016-09-11T07:15:05.000Z</time>
      </trkpt>
      <trkpt lat="49.18586" lon="1.60128">
        <ele>127.95610046387</ele>
        <time>2016-09-11T07:15:08.000Z</time>
      </trkpt>
      <trkpt lat="49.1861" lon="1.6016">
        <ele>125.26064300537</ele>
        <time>2016-09-11T07:15:11.000Z</time>
      </trkpt>
      <trkpt lat="49.18629" lon="1.60202">
        <ele>122.76760101318</ele>
        <time>2016-09-11T07:15:14.000Z</time>
      </trkpt>
      <trkpt lat="49.18641" lon="1.60229">
        <ele>120.48588562012</ele>
        <time>2016-09-11T07:15:16.000Z</time>
      </trkpt>
      <trkpt lat="49.18663" lon="1.60264">
        <ele>118.431640625</ele>
        <time>2016-09-11T07:15:19.000Z</time>
      </trkpt>
      <trkpt lat="49.18684" lon="1.60295">
        <ele>116.54160308838</ele>
        <time>2016-09-11T07:15:22.000Z</time>
      </trkpt>
      <trkpt lat="49.18702" lon="1.60322">
        <ele>114.73347473145</ele>
        <time>2016-09-11T07:15:25.000Z</time>
      </trkpt>
      <trkpt lat="49.18722" lon="1.60352">
        <ele>112.94178771973</ele>
        <time>2016-09-11T07:15:28.000Z</time>
      </trkpt>
      <trkpt lat="49.18734" lon="1.60372">
        <ele>111.2106552124</ele>
        <time>2016-09-11T07:15:30.000Z</time>
      </trkpt>
      <trkpt lat="49.18741" lon="1.60396">
        <ele>109.69068908691</ele>
        <time>2016-09-11T07:15:33.000Z</time>
      </trkpt>
      <trkpt lat="49.18734" lon="1.60409">
        <ele>108.57601165771</ele>
        <time>2016-09-11T07:15:35.000Z</time>
      </trkpt>
      <trkpt lat="49.18727" lon="1.60418">
        <ele>107.81916809082</ele>
        <time>2016-09-11T07:15:37.000Z</time>
      </trkpt>
      <trkpt lat="49.18711" lon="1.6043">
        <ele>107.37200927734</ele>
        <time>2016-09-11T07:15:40.000Z</time>
      </trkpt>
      <trkpt lat="49.18697" lon="1.60429">
        <ele>107.08929443359</ele>
        <time>2016-09-11T07:15:42.000Z</time>
      </trkpt>
      <trkpt lat="49.18685" lon="1.60443">
        <ele>106.91716003418</ele>
        <time>2016-09-11T07:15:45.000Z</time>
      </trkpt>
      <trkpt lat="49.18662" lon="1.60444">
        <ele>106.78413391113</ele>
        <time>2016-09-11T07:15:48.000Z</time>
      </trkpt>
      <trkpt lat="49.18651" lon="1.60453">
        <ele>106.62440490723</ele>
        <time>2016-09-11T07:15:50.000Z</time>
      </trkpt>
      <trkpt lat="49.18651" lon="1.60471">
        <ele>106.44883728027</ele>
        <time>2016-09-11T07:15:52.000Z</time>
      </trkpt>
      <trkpt lat="49.1866" lon="1.60495">
        <ele>106.25667572021</ele>
        <time>2016-09-11T07:15:55.000Z</time>
      </trkpt>
      <trkpt lat="49.18668" lon="1.6051">
        <ele>106.05090332031</ele>
        <time>2016-09-11T07:15:57.000Z</time>
      </trkpt>
      <trkpt lat="49.18674" lon="1.60522">
        <ele>105.77793121338</ele>
        <time>2016-09-11T07:15:59.000Z</time>
      </trkpt>
      <trkpt lat="49.18684" lon="1.60546">
        <ele>105.38578033447</ele>
        <time>2016-09-11T07:16:02.000Z</time>
      </trkpt>
      <trkpt lat="49.18695" lon="1.6057">
        <ele>104.83587646484</ele>
        <time>2016-09-11T07:16:05.000Z</time>
      </trkpt>
      <trkpt lat="49.18702" lon="1.60586">
        <ele>104.16717529297</ele>
        <time>2016-09-11T07:16:07.000Z</time>
      </trkpt>
      <trkpt lat="49.18709" lon="1.60615">
        <ele>103.45735931396</ele>
        <time>2016-09-11T07:16:10.000Z</time>
      </trkpt>
      <trkpt lat="49.18713" lon="1.60644">
        <ele>102.76127624512</ele>
        <time>2016-09-11T07:16:13.000Z</time>
      </trkpt>
      <trkpt lat="49.18717" lon="1.60666">
        <ele>102.19886779785</ele>
        <time>2016-09-11T07:16:15.000Z</time>
      </trkpt>
      <trkpt lat="49.18719" lon="1.60696">
        <ele>101.80363464355</ele>
        <time>2016-09-11T07:16:18.000Z</time>
      </trkpt>
      <trkpt lat="49.18723" lon="1.60726">
        <ele>101.51278686523</ele>
        <time>2016-09-11T07:16:21.000Z</time>
      </trkpt>
      <trkpt lat="49.18725" lon="1.60753">
        <ele>101.28581237793</ele>
        <time>2016-09-11T07:16:24.000Z</time>
      </trkpt>
      <trkpt lat="49.18727" lon="1.60773">
        <ele>101.10217285156</ele>
        <time>2016-09-11T07:16:26.000Z</time>
      </trkpt>
      <trkpt lat="49.18731" lon="1.60793">
        <ele>100.93943786621</ele>
        <time>2016-09-11T07:16:28.000Z</time>
      </trkpt>
      <trkpt lat="49.18734" lon="1.60821">
        <ele>100.75462341309</ele>
        <time>2016-09-11T07:16:31.000Z</time>
      </trkpt>
      <trkpt lat="49.18736" lon="1.60851">
        <ele>100.56372070312</ele>
        <time>2016-09-11T07:16:34.000Z</time>
      </trkpt>
      <trkpt lat="49.18738" lon="1.60879">
        <ele>100.38214111328</ele>
        <time>2016-09-11T07:16:37.000Z</time>
      </trkpt>
      <trkpt lat="49.18741" lon="1.60909">
        <ele>100.22526550293</ele>
        <time>2016-09-11T07:16:40.000Z</time>
      </trkpt>
      <trkpt lat="49.18745" lon="1.6094">
        <ele>100.0524520874</ele>
        <time>2016-09-11T07:16:43.000Z</time>
      </trkpt>
      <trkpt lat="49.18746" lon="1.6096">
        <ele>99.890243530273</ele>
        <time>2016-09-11T07:16:45.000Z</time>
      </trkpt>
      <trkpt lat="49.18748" lon="1.60988">
        <ele>99.696235656738</ele>
        <time>2016-09-11T07:16:48.000Z</time>
      </trkpt>
      <trkpt lat="49.18756" lon="1.61022">
        <ele>99.479995727539</ele>
        <time>2016-09-11T07:16:51.000Z</time>
      </trkpt>
      <trkpt lat="49.18759" lon="1.6104">
        <ele>99.267639160156</ele>
        <time>2016-09-11T07:16:53.000Z</time>
      </trkpt>
      <trkpt lat="49.18766" lon="1.61068">
        <ele>99.08952331543</ele>
        <time>2016-09-11T07:16:56.000Z</time>
      </trkpt>
      <trkpt lat="49.18767" lon="1.61087">
        <ele>98.933288574219</ele>
        <time>2016-09-11T07:16:58.000Z</time>
      </trkpt>
      <trkpt lat="49.18771" lon="1.61115">
        <ele>98.717262268066</ele>
        <time>2016-09-11T07:17:01.000Z</time>
      </trkpt>
      <trkpt lat="49.18772" lon="1.61134">
        <ele>98.45735168457</ele>
        <time>2016-09-11T07:17:03.000Z</time>
      </trkpt>
      <trkpt lat="49.18776" lon="1.61161">
        <ele>98.091636657715</ele>
        <time>2016-09-11T07:17:06.000Z</time>
      </trkpt>
      <trkpt lat="49.18779" lon="1.61181">
        <ele>97.744369506836</ele>
        <time>2016-09-11T07:17:08.000Z</time>
      </trkpt>
      <trkpt lat="49.18781" lon="1.61212">
        <ele>97.468994140625</ele>
        <time>2016-09-11T07:17:11.000Z</time>
      </trkpt>
      <trkpt lat="49.18784" lon="1.61228">
        <ele>97.33943939209</ele>
        <time>2016-09-11T07:17:13.000Z</time>
      </trkpt>
      <trkpt lat="49.18786" lon="1.61263">
        <ele>97.284744262695</ele>
        <time>2016-09-11T07:17:16.000Z</time>
      </trkpt>
      <trkpt lat="49.18787" lon="1.61284">
        <ele>97.290649414062</ele>
        <time>2016-09-11T07:17:18.000Z</time>
      </trkpt>
      <trkpt lat="49.1879" lon="1.61313">
        <ele>97.220230102539</ele>
        <time>2016-09-11T07:17:21.000Z</time>
      </trkpt>
      <trkpt lat="49.18793" lon="1.61332">
        <ele>97.051696777344</ele>
        <time>2016-09-11T07:17:23.000Z</time>
      </trkpt>
      <trkpt lat="49.18793" lon="1.61355">
        <ele>96.835304260254</ele>
        <time>2016-09-11T07:17:25.000Z</time>
      </trkpt>
      <trkpt lat="49.18794" lon="1.61371">
        <ele>96.604698181152</ele>
        <time>2016-09-11T07:17:27.000Z</time>
      </trkpt>
      <trkpt lat="49.188" lon="1.61405">
        <ele>96.38623046875</ele>
        <time>2016-09-11T07:17:30.000Z</time>
      </trkpt>
      <trkpt lat="49.18804" lon="1.61439">
        <ele>96.234901428223</ele>
        <time>2016-09-11T07:17:33.000Z</time>
      </trkpt>
      <trkpt lat="49.18806" lon="1.61467">
        <ele>96.134399414062</ele>
        <time>2016-09-11T07:17:36.000Z</time>
      </trkpt>
      <trkpt lat="49.1881" lon="1.61495">
        <ele>96.062576293945</ele>
        <time>2016-09-11T07:17:39.000Z</time>
      </trkpt>
      <trkpt lat="49.18814" lon="1.61513">
        <ele>95.981185913086</ele>
        <time>2016-09-11T07:17:41.000Z</time>
      </trkpt>
      <trkpt lat="49.18818" lon="1.61528">
        <ele>95.901840209961</ele>
        <time>2016-09-11T07:17:43.000Z</time>
      </trkpt>
      <trkpt lat="49.18823" lon="1.61552">
        <ele>95.77751159668</ele>
        <time>2016-09-11T07:17:46.000Z</time>
      </trkpt>
      <trkpt lat="49.18826" lon="1.61569">
        <ele>95.611610412598</ele>
        <time>2016-09-11T07:17:48.000Z</time>
      </trkpt>
      <trkpt lat="49.18831" lon="1.61585">
        <ele>95.416488647461</ele>
        <time>2016-09-11T07:17:50.000Z</time>
      </trkpt>
      <trkpt lat="49.18839" lon="1.61607">
        <ele>95.341583251953</ele>
        <time>2016-09-11T07:17:53.000Z</time>
      </trkpt>
      <trkpt lat="49.18846" lon="1.61629">
        <ele>95.411209106445</ele>
        <time>2016-09-11T07:17:56.000Z</time>
      </trkpt>
      <trkpt lat="49.18855" lon="1.61649">
        <ele>95.651908874512</ele>
        <time>2016-09-11T07:17:59.000Z</time>
      </trkpt>
      <trkpt lat="49.18861" lon="1.61662">
        <ele>96.009803771973</ele>
        <time>2016-09-11T07:18:01.000Z</time>
      </trkpt>
      <trkpt lat="49.18867" lon="1.61673">
        <ele>96.455184936523</ele>
        <time>2016-09-11T07:18:03.000Z</time>
      </trkpt>
      <trkpt lat="49.18872" lon="1.61687">
        <ele>96.865646362305</ele>
        <time>2016-09-11T07:18:05.000Z</time>
      </trkpt>
      <trkpt lat="49.18877" lon="1.61707">
        <ele>97.22412109375</ele>
        <time>2016-09-11T07:18:08.000Z</time>
      </trkpt>
      <trkpt lat="49.18883" lon="1.61727">
        <ele>97.521911621094</ele>
        <time>2016-09-11T07:18:11.000Z</time>
      </trkpt>
      <trkpt lat="49.18887" lon="1.61738">
        <ele>97.778160095215</ele>
        <time>2016-09-11T07:18:13.000Z</time>
      </trkpt>
      <trkpt lat="49.18893" lon="1.61757">
        <ele>98.020240783691</ele>
        <time>2016-09-11T07:18:16.000Z</time>
      </trkpt>
      <trkpt lat="49.18898" lon="1.61769">
        <ele>98.234130859375</ele>
        <time>2016-09-11T07:18:18.000Z</time>
      </trkpt>
      <trkpt lat="49.18902" lon="1.61782">
        <ele>98.417701721191</ele>
        <time>2016-09-11T07:18:20.000Z</time>
      </trkpt>
      <trkpt lat="49.18909" lon="1.618">
        <ele>98.578033447266</ele>
        <time>2016-09-11T07:18:23.000Z</time>
      </trkpt>
      <trkpt lat="49.18916" lon="1.61819">
        <ele>98.729095458984</ele>
        <time>2016-09-11T07:18:26.000Z</time>
      </trkpt>
      <trkpt lat="49.18921" lon="1.61831">
        <ele>98.846908569336</ele>
        <time>2016-09-11T07:18:28.000Z</time>
      </trkpt>
      <trkpt lat="49.18927" lon="1.6185">
        <ele>98.922950744629</ele>
        <time>2016-09-11T07:18:31.000Z</time>
      </trkpt>
      <trkpt lat="49.18932" lon="1.61864">
        <ele>98.970726013184</ele>
        <time>2016-09-11T07:18:33.000Z</time>
      </trkpt>
      <trkpt lat="49.18939" lon="1.61886">
        <ele>98.992721557617</ele>
        <time>2016-09-11T07:18:36.000Z</time>
      </trkpt>
      <trkpt lat="49.18944" lon="1.619">
        <ele>99.00170135498</ele>
        <time>2016-09-11T07:18:38.000Z</time>
      </trkpt>
      <trkpt lat="49.1895" lon="1.61921">
        <ele>99.028671264648</ele>
        <time>2016-09-11T07:18:41.000Z</time>
      </trkpt>
      <trkpt lat="49.18954" lon="1.61935">
        <ele>99.081069946289</ele>
        <time>2016-09-11T07:18:43.000Z</time>
      </trkpt>
      <trkpt lat="49.18958" lon="1.6195">
        <ele>99.144119262695</ele>
        <time>2016-09-11T07:18:45.000Z</time>
      </trkpt>
      <trkpt lat="49.18962" lon="1.61971">
        <ele>99.200157165527</ele>
        <time>2016-09-11T07:18:48.000Z</time>
      </trkpt>
      <trkpt lat="49.18966" lon="1.61992">
        <ele>99.24169921875</ele>
        <time>2016-09-11T07:18:51.000Z</time>
      </trkpt>
      <trkpt lat="49.18968" lon="1.62008">
        <ele>99.268043518066</ele>
        <time>2016-09-11T07:18:53.000Z</time>
      </trkpt>
      <trkpt lat="49.1897" lon="1.6203">
        <ele>99.346008300781</ele>
        <time>2016-09-11T07:18:56.000Z</time>
      </trkpt>
      <trkpt lat="49.18971" lon="1.62047">
        <ele>99.466186523438</ele>
        <time>2016-09-11T07:18:58.000Z</time>
      </trkpt>
      <trkpt lat="49.18973" lon="1.62061">
        <ele>99.631080627441</ele>
        <time>2016-09-11T07:19:00.000Z</time>
      </trkpt>
      <trkpt lat="49.18974" lon="1.62087">
        <ele>99.854759216309</ele>
        <time>2016-09-11T07:19:03.000Z</time>
      </trkpt>
      <trkpt lat="49.18974" lon="1.62101">
        <ele>100.05238342285</ele>
        <time>2016-09-11T07:19:05.000Z</time>
      </trkpt>
      <trkpt lat="49.18974" lon="1.62117">
        <ele>100.17797851562</ele>
        <time>2016-09-11T07:19:07.000Z</time>
      </trkpt>
      <trkpt lat="49.18974" lon="1.62141">
        <ele>100.23154449463</ele>
        <time>2016-09-11T07:19:10.000Z</time>
      </trkpt>
      <trkpt lat="49.18973" lon="1.62166">
        <ele>100.22011566162</ele>
        <time>2016-09-11T07:19:13.000Z</time>
      </trkpt>
      <trkpt lat="49.18972" lon="1.62182">
        <ele>100.16142272949</ele>
        <time>2016-09-11T07:19:15.000Z</time>
      </trkpt>
      <trkpt lat="49.18972" lon="1.62205">
        <ele>100.13340759277</ele>
        <time>2016-09-11T07:19:18.000Z</time>
      </trkpt>
      <trkpt lat="49.18971" lon="1.6223">
        <ele>100.12815856934</ele>
        <time>2016-09-11T07:19:21.000Z</time>
      </trkpt>
      <trkpt lat="49.18971" lon="1.62245">
        <ele>100.15592193604</ele>
        <time>2016-09-11T07:19:23.000Z</time>
      </trkpt>
      <trkpt lat="49.1897" lon="1.62269">
        <ele>100.17789459229</ele>
        <time>2016-09-11T07:19:26.000Z</time>
      </trkpt>
      <trkpt lat="49.18969" lon="1.62285">
        <ele>100.16181945801</ele>
        <time>2016-09-11T07:19:28.000Z</time>
      </trkpt>
      <trkpt lat="49.18969" lon="1.623">
        <ele>100.10221099854</ele>
        <time>2016-09-11T07:19:30.000Z</time>
      </trkpt>
      <trkpt lat="49.18969" lon="1.62326">
        <ele>99.991889953613</ele>
        <time>2016-09-11T07:19:33.000Z</time>
      </trkpt>
      <trkpt lat="49.18968" lon="1.6235">
        <ele>99.828048706055</ele>
        <time>2016-09-11T07:19:36.000Z</time>
      </trkpt>
      <trkpt lat="49.18967" lon="1.62376">
        <ele>99.642013549805</ele>
        <time>2016-09-11T07:19:39.000Z</time>
      </trkpt>
      <trkpt lat="49.18966" lon="1.62403">
        <ele>99.42276763916</ele>
        <time>2016-09-11T07:19:42.000Z</time>
      </trkpt>
      <trkpt lat="49.18965" lon="1.6242">
        <ele>99.210464477539</ele>
        <time>2016-09-11T07:19:44.000Z</time>
      </trkpt>
      <trkpt lat="49.18964" lon="1.62445">
        <ele>99.125877380371</ele>
        <time>2016-09-11T07:19:47.000Z</time>
      </trkpt>
      <trkpt lat="49.18964" lon="1.62474">
        <ele>99.190246582031</ele>
        <time>2016-09-11T07:19:50.000Z</time>
      </trkpt>
      <trkpt lat="49.18962" lon="1.62492">
        <ele>99.358459472656</ele>
        <time>2016-09-11T07:19:52.000Z</time>
      </trkpt>
      <trkpt lat="49.18961" lon="1.62519">
        <ele>99.58226776123</ele>
        <time>2016-09-11T07:19:55.000Z</time>
      </trkpt>
      <trkpt lat="49.1896" lon="1.62543">
        <ele>99.782936096191</ele>
        <time>2016-09-11T07:19:58.000Z</time>
      </trkpt>
      <trkpt lat="49.18959" lon="1.6256">
        <ele>99.869155883789</ele>
        <time>2016-09-11T07:20:00.000Z</time>
      </trkpt>
      <trkpt lat="49.18958" lon="1.62588">
        <ele>99.809707641602</ele>
        <time>2016-09-11T07:20:03.000Z</time>
      </trkpt>
      <trkpt lat="49.18957" lon="1.62616">
        <ele>99.690780639648</ele>
        <time>2016-09-11T07:20:06.000Z</time>
      </trkpt>
      <trkpt lat="49.18957" lon="1.62643">
        <ele>99.575744628906</ele>
        <time>2016-09-11T07:20:09.000Z</time>
      </trkpt>
      <trkpt lat="49.18956" lon="1.62672">
        <ele>99.489974975586</ele>
        <time>2016-09-11T07:20:12.000Z</time>
      </trkpt>
      <trkpt lat="49.18956" lon="1.62702">
        <ele>99.397872924805</ele>
        <time>2016-09-11T07:20:15.000Z</time>
      </trkpt>
      <trkpt lat="49.18956" lon="1.62722">
        <ele>99.318305969238</ele>
        <time>2016-09-11T07:20:17.000Z</time>
      </trkpt>
      <trkpt lat="49.18955" lon="1.62743">
        <ele>99.217224121094</ele>
        <time>2016-09-11T07:20:19.000Z</time>
      </trkpt>
      <trkpt lat="49.18954" lon="1.62773">
        <ele>99.347373962402</ele>
        <time>2016-09-11T07:20:22.000Z</time>
      </trkpt>
      <trkpt lat="49.18953" lon="1.62792">
        <ele>99.662124633789</ele>
        <time>2016-09-11T07:20:24.000Z</time>
      </trkpt>
      <trkpt lat="49.18953" lon="1.62822">
        <ele>100.32026672363</ele>
        <time>2016-09-11T07:20:27.000Z</time>
      </trkpt>
      <trkpt lat="49.18954" lon="1.62842">
        <ele>101.27382659912</ele>
        <time>2016-09-11T07:20:29.000Z</time>
      </trkpt>
      <trkpt lat="49.18955" lon="1.62866">
        <ele>102.64839172363</ele>
        <time>2016-09-11T07:20:32.000Z</time>
      </trkpt>
      <trkpt lat="49.18961" lon="1.62891">
        <ele>104.26069641113</ele>
        <time>2016-09-11T07:20:35.000Z</time>
      </trkpt>
      <trkpt lat="49.18959" lon="1.62907">
        <ele>105.94455718994</ele>
        <time>2016-09-11T07:20:38.000Z</time>
      </trkpt>
      <trkpt lat="49.18959" lon="1.62924">
        <ele>107.57419586182</ele>
        <time>2016-09-11T07:20:41.000Z</time>
      </trkpt>
      <trkpt lat="49.18962" lon="1.62934">
        <ele>109.14135742188</ele>
        <time>2016-09-11T07:20:43.000Z</time>
      </trkpt>
      <trkpt lat="49.18964" lon="1.62945">
        <ele>110.51340484619</ele>
        <time>2016-09-11T07:20:45.000Z</time>
      </trkpt>
      <trkpt lat="49.18969" lon="1.62958">
        <ele>111.67578125</ele>
        <time>2016-09-11T07:20:48.000Z</time>
      </trkpt>
      <trkpt lat="49.18972" lon="1.62974">
        <ele>112.87487792969</ele>
        <time>2016-09-11T07:20:51.000Z</time>
      </trkpt>
      <trkpt lat="49.18975" lon="1.62983">
        <ele>113.96346282959</ele>
        <time>2016-09-11T07:20:53.000Z</time>
      </trkpt>
      <trkpt lat="49.18977" lon="1.62994">
        <ele>115.03266906738</ele>
        <time>2016-09-11T07:20:56.000Z</time>
      </trkpt>
      <trkpt lat="49.1898" lon="1.63007">
        <ele>116.02648925781</ele>
        <time>2016-09-11T07:20:59.000Z</time>
      </trkpt>
      <trkpt lat="49.18981" lon="1.63016">
        <ele>116.80383300781</ele>
        <time>2016-09-11T07:21:01.000Z</time>
      </trkpt>
      <trkpt lat="49.1898" lon="1.63024">
        <ele>117.33390045166</ele>
        <time>2016-09-11T07:21:03.000Z</time>
      </trkpt>
      <trkpt lat="49.18981" lon="1.63034">
        <ele>117.75917816162</ele>
        <time>2016-09-11T07:21:05.000Z</time>
      </trkpt>
      <trkpt lat="49.18983" lon="1.63044">
        <ele>118.03952789307</ele>
        <time>2016-09-11T07:21:07.000Z</time>
      </trkpt>
      <trkpt lat="49.18987" lon="1.63056">
        <ele>118.2431640625</ele>
        <time>2016-09-11T07:21:10.000Z</time>
      </trkpt>
      <trkpt lat="49.18993" lon="1.63069">
        <ele>118.44563293457</ele>
        <time>2016-09-11T07:21:13.000Z</time>
      </trkpt>
      <trkpt lat="49.18996" lon="1.63076">
        <ele>118.63093566895</ele>
        <time>2016-09-11T07:21:15.000Z</time>
      </trkpt>
      <trkpt lat="49.18999" lon="1.63084">
        <ele>118.77823638916</ele>
        <time>2016-09-11T07:21:17.000Z</time>
      </trkpt>
      <trkpt lat="49.19002" lon="1.63094">
        <ele>118.80744934082</ele>
        <time>2016-09-11T07:21:19.000Z</time>
      </trkpt>
      <trkpt lat="49.19005" lon="1.63103">
        <ele>118.71026611328</ele>
        <time>2016-09-11T07:21:21.000Z</time>
      </trkpt>
      <trkpt lat="49.19008" lon="1.63115">
        <ele>118.46962738037</ele>
        <time>2016-09-11T07:21:24.000Z</time>
      </trkpt>
      <trkpt lat="49.19011" lon="1.6313">
        <ele>118.09023284912</ele>
        <time>2016-09-11T07:21:27.000Z</time>
      </trkpt>
      <trkpt lat="49.19011" lon="1.6317">
        <ele>117.4567489624</ele>
        <time>2016-09-11T07:21:31.000Z</time>
      </trkpt>
      <trkpt lat="49.19013" lon="1.63196">
        <ele>116.98432922363</ele>
        <time>2016-09-11T07:21:34.000Z</time>
      </trkpt>
      <trkpt lat="49.19015" lon="1.63212">
        <ele>116.63084411621</ele>
        <time>2016-09-11T07:21:36.000Z</time>
      </trkpt>
      <trkpt lat="49.19014" lon="1.63224">
        <ele>116.43648529053</ele>
        <time>2016-09-11T07:21:39.000Z</time>
      </trkpt>
      <trkpt lat="49.19018" lon="1.63241">
        <ele>116.38026428223</ele>
        <time>2016-09-11T07:21:42.000Z</time>
      </trkpt>
      <trkpt lat="49.19019" lon="1.63259">
        <ele>116.65322113037</ele>
        <time>2016-09-11T07:21:45.000Z</time>
      </trkpt>
      <trkpt lat="49.19021" lon="1.63277">
        <ele>116.94387054443</ele>
        <time>2016-09-11T07:21:48.000Z</time>
      </trkpt>
      <trkpt lat="49.19023" lon="1.63293">
        <ele>117.29972839355</ele>
        <time>2016-09-11T07:21:51.000Z</time>
      </trkpt>
      <trkpt lat="49.19028" lon="1.63312">
        <ele>117.67658996582</ele>
        <time>2016-09-11T07:21:54.000Z</time>
      </trkpt>
      <trkpt lat="49.19032" lon="1.63331">
        <ele>118.11692047119</ele>
        <time>2016-09-11T07:21:57.000Z</time>
      </trkpt>
      <trkpt lat="49.19035" lon="1.63344">
        <ele>118.37333679199</ele>
        <time>2016-09-11T07:21:59.000Z</time>
      </trkpt>
      <trkpt lat="49.1904" lon="1.63364">
        <ele>118.29479980469</ele>
        <time>2016-09-11T07:22:02.000Z</time>
      </trkpt>
      <trkpt lat="49.19044" lon="1.63378">
        <ele>117.95367431641</ele>
        <time>2016-09-11T07:22:04.000Z</time>
      </trkpt>
      <trkpt lat="49.1905" lon="1.63398">
        <ele>117.30993652344</ele>
        <time>2016-09-11T07:22:07.000Z</time>
      </trkpt>
      <trkpt lat="49.19067" lon="1.63397">
        <ele>116.42136383057</ele>
        <time>2016-09-11T07:22:10.000Z</time>
      </trkpt>
      <trkpt lat="49.19077" lon="1.63397">
        <ele>115.53507995605</ele>
        <time>2016-09-11T07:22:12.000Z</time>
      </trkpt>
      <trkpt lat="49.19088" lon="1.63396">
        <ele>114.88116455078</ele>
        <time>2016-09-11T07:22:14.000Z</time>
      </trkpt>
      <trkpt lat="49.19104" lon="1.63393">
        <ele>114.58770751953</ele>
        <time>2016-09-11T07:22:17.000Z</time>
      </trkpt>
      <trkpt lat="49.19117" lon="1.63397">
        <ele>114.67149353027</ele>
        <time>2016-09-11T07:22:19.000Z</time>
      </trkpt>
      <trkpt lat="49.19127" lon="1.63396">
        <ele>115.03293609619</ele>
        <time>2016-09-11T07:22:21.000Z</time>
      </trkpt>
      <trkpt lat="49.19137" lon="1.63396">
        <ele>115.62783050537</ele>
        <time>2016-09-11T07:22:23.000Z</time>
      </trkpt>
      <trkpt lat="49.19151" lon="1.63398">
        <ele>116.38108062744</ele>
        <time>2016-09-11T07:22:26.000Z</time>
      </trkpt>
      <trkpt lat="49.19163" lon="1.63393">
        <ele>117.07751464844</ele>
        <time>2016-09-11T07:22:29.000Z</time>
      </trkpt>
      <trkpt lat="49.19169" lon="1.63395">
        <ele>117.69663238525</ele>
        <time>2016-09-11T07:22:31.000Z</time>
      </trkpt>
      <trkpt lat="49.19178" lon="1.63389">
        <ele>118.30373382568</ele>
        <time>2016-09-11T07:22:34.000Z</time>
      </trkpt>
      <trkpt lat="49.1918" lon="1.63388">
        <ele>118.80808258057</ele>
        <time>2016-09-11T07:22:36.000Z</time>
      </trkpt>
      <trkpt lat="49.19184" lon="1.63389">
        <ele>119.21327972412</ele>
        <time>2016-09-11T07:22:39.000Z</time>
      </trkpt>
      <trkpt lat="49.19189" lon="1.63387">
        <ele>119.53051757812</ele>
        <time>2016-09-11T07:22:41.000Z</time>
      </trkpt>
      <trkpt lat="49.19194" lon="1.63384">
        <ele>119.81449890137</ele>
        <time>2016-09-11T07:22:43.000Z</time>
      </trkpt>
      <trkpt lat="49.192" lon="1.63382">
        <ele>120.06480407715</ele>
        <time>2016-09-11T07:22:46.000Z</time>
      </trkpt>
      <trkpt lat="49.19204" lon="1.6338">
        <ele>120.33925628662</ele>
        <time>2016-09-11T07:22:48.000Z</time>
      </trkpt>
      <trkpt lat="49.19207" lon="1.63378">
        <ele>120.57624816895</ele>
        <time>2016-09-11T07:22:50.000Z</time>
      </trkpt>
      <trkpt lat="49.1921" lon="1.63377">
        <ele>120.7924041748</ele>
        <time>2016-09-11T07:22:52.000Z</time>
      </trkpt>
      <trkpt lat="49.19215" lon="1.63376">
        <ele>121.016746521</ele>
        <time>2016-09-11T07:22:55.000Z</time>
      </trkpt>
      <trkpt lat="49.19225" lon="1.63377">
        <ele>121.29642486572</ele>
        <time>2016-09-11T07:22:58.000Z</time>
      </trkpt>
      <trkpt lat="49.19233" lon="1.63374">
        <ele>121.60536956787</ele>
        <time>2016-09-11T07:23:00.000Z</time>
      </trkpt>
      <trkpt lat="49.19241" lon="1.6337">
        <ele>121.96690368652</ele>
        <time>2016-09-11T07:23:02.000Z</time>
      </trkpt>
      <trkpt lat="49.19247" lon="1.63367">
        <ele>122.33945465088</ele>
        <time>2016-09-11T07:23:04.000Z</time>
      </trkpt>
      <trkpt lat="49.19257" lon="1.63364">
        <ele>122.79399108887</ele>
        <time>2016-09-11T07:23:07.000Z</time>
      </trkpt>
      <trkpt lat="49.19263" lon="1.63362">
        <ele>123.20137786865</ele>
        <time>2016-09-11T07:23:09.000Z</time>
      </trkpt>
      <trkpt lat="49.1927" lon="1.63357">
        <ele>123.59197998047</ele>
        <time>2016-09-11T07:23:12.000Z</time>
      </trkpt>
      <trkpt lat="49.19277" lon="1.63352">
        <ele>123.9715423584</ele>
        <time>2016-09-11T07:23:15.000Z</time>
      </trkpt>
      <trkpt lat="49.19283" lon="1.63347">
        <ele>124.34824371338</ele>
        <time>2016-09-11T07:23:18.000Z</time>
      </trkpt>
      <trkpt lat="49.19286" lon="1.63345">
        <ele>124.61424255371</ele>
        <time>2016-09-11T07:23:20.000Z</time>
      </trkpt>
      <trkpt lat="49.19291" lon="1.6334">
        <ele>124.84395599365</ele>
        <time>2016-09-11T07:23:23.000Z</time>
      </trkpt>
      <trkpt lat="49.19298" lon="1.63335">
        <ele>125.07651519775</ele>
        <time>2016-09-11T07:23:26.000Z</time>
      </trkpt>
      <trkpt lat="49.19302" lon="1.63331">
        <ele>125.25363922119</ele>
        <time>2016-09-11T07:23:28.000Z</time>
      </trkpt>
      <trkpt lat="49.1931" lon="1.63328">
        <ele>125.45245361328</ele>
        <time>2016-09-11T07:23:31.000Z</time>
      </trkpt>
      <trkpt lat="49.19315" lon="1.63326">
        <ele>125.68200683594</ele>
        <time>2016-09-11T07:23:33.000Z</time>
      </trkpt>
      <trkpt lat="49.19327" lon="1.63322">
        <ele>125.9737701416</ele>
        <time>2016-09-11T07:23:36.000Z</time>
      </trkpt>
      <trkpt lat="49.19336" lon="1.63316">
        <ele>126.21439361572</ele>
        <time>2016-09-11T07:23:38.000Z</time>
      </trkpt>
      <trkpt lat="49.19344" lon="1.63312">
        <ele>126.46389007568</ele>
        <time>2016-09-11T07:23:40.000Z</time>
      </trkpt>
      <trkpt lat="49.19351" lon="1.63309">
        <ele>126.68967437744</ele>
        <time>2016-09-11T07:23:42.000Z</time>
      </trkpt>
      <trkpt lat="49.1936" lon="1.63304">
        <ele>126.903175354</ele>
        <time>2016-09-11T07:23:45.000Z</time>
      </trkpt>
      <trkpt lat="49.19365" lon="1.63302">
        <ele>127.04892730713</ele>
        <time>2016-09-11T07:23:47.000Z</time>
      </trkpt>
      <trkpt lat="49.19371" lon="1.63298">
        <ele>127.22236633301</ele>
        <time>2016-09-11T07:23:49.000Z</time>
      </trkpt>
      <trkpt lat="49.19379" lon="1.63292">
        <ele>127.41666412354</ele>
        <time>2016-09-11T07:23:52.000Z</time>
      </trkpt>
      <trkpt lat="49.19385" lon="1.63288">
        <ele>127.61511230469</ele>
        <time>2016-09-11T07:23:55.000Z</time>
      </trkpt>
      <trkpt lat="49.19395" lon="1.63281">
        <ele>127.85083007812</ele>
        <time>2016-09-11T07:23:58.000Z</time>
      </trkpt>
      <trkpt lat="49.19404" lon="1.63276">
        <ele>128.1580657959</ele>
        <time>2016-09-11T07:24:01.000Z</time>
      </trkpt>
      <trkpt lat="49.19412" lon="1.63271">
        <ele>128.50912475586</ele>
        <time>2016-09-11T07:24:03.000Z</time>
      </trkpt>
      <trkpt lat="49.19417" lon="1.63267">
        <ele>128.87651062012</ele>
        <time>2016-09-11T07:24:05.000Z</time>
      </trkpt>
      <trkpt lat="49.1942" lon="1.63262">
        <ele>129.20811462402</ele>
        <time>2016-09-11T07:24:07.000Z</time>
      </trkpt>
      <trkpt lat="49.19425" lon="1.63255">
        <ele>129.48188781738</ele>
        <time>2016-09-11T07:24:09.000Z</time>
      </trkpt>
      <trkpt lat="49.1943" lon="1.63249">
        <ele>129.68614196777</ele>
        <time>2016-09-11T07:24:11.000Z</time>
      </trkpt>
      <trkpt lat="49.19438" lon="1.63241">
        <ele>129.89701843262</ele>
        <time>2016-09-11T07:24:14.000Z</time>
      </trkpt>
      <trkpt lat="49.19446" lon="1.6323">
        <ele>130.1634979248</ele>
        <time>2016-09-11T07:24:17.000Z</time>
      </trkpt>
      <trkpt lat="49.1945" lon="1.63224">
        <ele>130.47198486328</ele>
        <time>2016-09-11T07:24:19.000Z</time>
      </trkpt>
      <trkpt lat="49.19456" lon="1.63214">
        <ele>130.83024597168</ele>
        <time>2016-09-11T07:24:22.000Z</time>
      </trkpt>
      <trkpt lat="49.1946" lon="1.63206">
        <ele>131.21467590332</ele>
        <time>2016-09-11T07:24:24.000Z</time>
      </trkpt>
      <trkpt lat="49.19466" lon="1.63197">
        <ele>131.59672546387</ele>
        <time>2016-09-11T07:24:27.000Z</time>
      </trkpt>
      <trkpt lat="49.19473" lon="1.63181">
        <ele>131.96157836914</ele>
        <time>2016-09-11T07:24:30.000Z</time>
      </trkpt>
      <trkpt lat="49.19479" lon="1.63164">
        <ele>132.34509277344</ele>
        <time>2016-09-11T07:24:33.000Z</time>
      </trkpt>
      <trkpt lat="49.19484" lon="1.63153">
        <ele>132.69264221191</ele>
        <time>2016-09-11T07:24:36.000Z</time>
      </trkpt>
      <trkpt lat="49.19489" lon="1.63147">
        <ele>133.03318786621</ele>
        <time>2016-09-11T07:24:38.000Z</time>
      </trkpt>
      <trkpt lat="49.19495" lon="1.63144">
        <ele>133.37930297852</ele>
        <time>2016-09-11T07:24:40.000Z</time>
      </trkpt>
      <trkpt lat="49.19502" lon="1.63137">
        <ele>133.69055175781</ele>
        <time>2016-09-11T07:24:43.000Z</time>
      </trkpt>
      <trkpt lat="49.19505" lon="1.63123">
        <ele>133.88319396973</ele>
        <time>2016-09-11T07:24:45.000Z</time>
      </trkpt>
      <trkpt lat="49.19506" lon="1.63115">
        <ele>134.0192565918</ele>
        <time>2016-09-11T07:24:48.000Z</time>
      </trkpt>
      <trkpt lat="49.19472" lon="1.63116">
        <ele>133.54594421387</ele>
        <time>2016-09-11T07:24:53.000Z</time>
      </trkpt>
      <trkpt lat="49.1946" lon="1.63107">
        <ele>132.70690917969</ele>
        <time>2016-09-11T07:24:55.000Z</time>
      </trkpt>
      <trkpt lat="49.1944" lon="1.63088">
        <ele>131.31985473633</ele>
        <time>2016-09-11T07:24:58.000Z</time>
      </trkpt>
      <trkpt lat="49.19407" lon="1.63038">
        <ele>129.63626098633</ele>
        <time>2016-09-11T07:25:02.000Z</time>
      </trkpt>
      <trkpt lat="49.19384" lon="1.63017">
        <ele>128.3410949707</ele>
        <time>2016-09-11T07:25:05.000Z</time>
      </trkpt>
      <trkpt lat="49.19371" lon="1.63006">
        <ele>127.83864593506</ele>
        <time>2016-09-11T07:25:07.000Z</time>
      </trkpt>
      <trkpt lat="49.19362" lon="1.62996">
        <ele>127.79956054688</ele>
        <time>2016-09-11T07:25:10.000Z</time>
      </trkpt>
      <trkpt lat="49.19359" lon="1.62988">
        <ele>128.33866882324</ele>
        <time>2016-09-11T07:25:13.000Z</time>
      </trkpt>
      <trkpt lat="49.19354" lon="1.62985">
        <ele>129.31266784668</ele>
        <time>2016-09-11T07:25:16.000Z</time>
      </trkpt>
      <trkpt lat="49.19355" lon="1.6298">
        <ele>129.9299621582</ele>
        <time>2016-09-11T07:25:19.000Z</time>
      </trkpt>
      <trkpt lat="49.19352" lon="1.62977">
        <ele>130.38778686523</ele>
        <time>2016-09-11T07:25:21.000Z</time>
      </trkpt>
      <trkpt lat="49.19347" lon="1.62971">
        <ele>130.75877380371</ele>
        <time>2016-09-11T07:25:24.000Z</time>
      </trkpt>
      <trkpt lat="49.19343" lon="1.62966">
        <ele>131.1244354248</ele>
        <time>2016-09-11T07:25:26.000Z</time>
      </trkpt>
      <trkpt lat="49.19337" lon="1.62959">
        <ele>131.5387878418</ele>
        <time>2016-09-11T07:25:29.000Z</time>
      </trkpt>
      <trkpt lat="49.19334" lon="1.62954">
        <ele>132.03677368164</ele>
        <time>2016-09-11T07:25:31.000Z</time>
      </trkpt>
      <trkpt lat="49.19329" lon="1.62942">
        <ele>132.44430541992</ele>
        <time>2016-09-11T07:25:34.000Z</time>
      </trkpt>
      <trkpt lat="49.19327" lon="1.62933">
        <ele>132.75749206543</ele>
        <time>2016-09-11T07:25:36.000Z</time>
      </trkpt>
      <trkpt lat="49.19325" lon="1.62924">
        <ele>132.99723815918</ele>
        <time>2016-09-11T07:25:38.000Z</time>
      </trkpt>
      <trkpt lat="49.19321" lon="1.62912">
        <ele>133.05288696289</ele>
        <time>2016-09-11T07:25:41.000Z</time>
      </trkpt>
      <trkpt lat="49.1932" lon="1.62899">
        <ele>132.96200561523</ele>
        <time>2016-09-11T07:25:44.000Z</time>
      </trkpt>
      <trkpt lat="49.19316" lon="1.62883">
        <ele>132.78958129883</ele>
        <time>2016-09-11T07:25:47.000Z</time>
      </trkpt>
      <trkpt lat="49.19312" lon="1.62869">
        <ele>132.52439880371</ele>
        <time>2016-09-11T07:25:50.000Z</time>
      </trkpt>
      <trkpt lat="49.19308" lon="1.62858">
        <ele>132.2021484375</ele>
        <time>2016-09-11T07:25:53.000Z</time>
      </trkpt>
      <trkpt lat="49.19306" lon="1.62847">
        <ele>131.89836120605</ele>
        <time>2016-09-11T07:25:55.000Z</time>
      </trkpt>
      <trkpt lat="49.19303" lon="1.62833">
        <ele>131.6263885498</ele>
        <time>2016-09-11T07:25:58.000Z</time>
      </trkpt>
      <trkpt lat="49.19302" lon="1.62823">
        <ele>131.47219848633</ele>
        <time>2016-09-11T07:26:00.000Z</time>
      </trkpt>
      <trkpt lat="49.19301" lon="1.62808">
        <ele>131.4242401123</ele>
        <time>2016-09-11T07:26:03.000Z</time>
      </trkpt>
      <trkpt lat="49.193" lon="1.62799">
        <ele>131.4391784668</ele>
        <time>2016-09-11T07:26:05.000Z</time>
      </trkpt>
      <trkpt lat="49.19297" lon="1.62786">
        <ele>131.50024414062</ele>
        <time>2016-09-11T07:26:08.000Z</time>
      </trkpt>
      <trkpt lat="49.19297" lon="1.62775">
        <ele>131.60778808594</ele>
        <time>2016-09-11T07:26:10.000Z</time>
      </trkpt>
      <trkpt lat="49.19295" lon="1.62761">
        <ele>131.71908569336</ele>
        <time>2016-09-11T07:26:13.000Z</time>
      </trkpt>
      <trkpt lat="49.19292" lon="1.62743">
        <ele>131.80494689941</ele>
        <time>2016-09-11T07:26:16.000Z</time>
      </trkpt>
      <trkpt lat="49.1929" lon="1.62729">
        <ele>131.85339355469</ele>
        <time>2016-09-11T07:26:18.000Z</time>
      </trkpt>
      <trkpt lat="49.19288" lon="1.6271">
        <ele>131.85208129883</ele>
        <time>2016-09-11T07:26:21.000Z</time>
      </trkpt>
      <trkpt lat="49.19287" lon="1.62698">
        <ele>131.8120880127</ele>
        <time>2016-09-11T07:26:23.000Z</time>
      </trkpt>
      <trkpt lat="49.19286" lon="1.62677">
        <ele>131.72024536133</ele>
        <time>2016-09-11T07:26:26.000Z</time>
      </trkpt>
      <trkpt lat="49.19284" lon="1.62665">
        <ele>131.61068725586</ele>
        <time>2016-09-11T07:26:28.000Z</time>
      </trkpt>
      <trkpt lat="49.19283" lon="1.62651">
        <ele>131.52893066406</ele>
        <time>2016-09-11T07:26:30.000Z</time>
      </trkpt>
      <trkpt lat="49.19281" lon="1.62627">
        <ele>131.48818969727</ele>
        <time>2016-09-11T07:26:33.000Z</time>
      </trkpt>
      <trkpt lat="49.19279" lon="1.62605">
        <ele>131.48040771484</ele>
        <time>2016-09-11T07:26:36.000Z</time>
      </trkpt>
      <trkpt lat="49.19278" lon="1.62585">
        <ele>131.51509094238</ele>
        <time>2016-09-11T07:26:39.000Z</time>
      </trkpt>
      <trkpt lat="49.19275" lon="1.62568">
        <ele>131.7130279541</ele>
        <time>2016-09-11T07:26:41.000Z</time>
      </trkpt>
      <trkpt lat="49.1927" lon="1.62543">
        <ele>132.14360046387</ele>
        <time>2016-09-11T07:26:44.000Z</time>
      </trkpt>
      <trkpt lat="49.19266" lon="1.6252">
        <ele>132.78341674805</ele>
        <time>2016-09-11T07:26:47.000Z</time>
      </trkpt>
      <trkpt lat="49.19263" lon="1.62495">
        <ele>133.59809875488</ele>
        <time>2016-09-11T07:26:50.000Z</time>
      </trkpt>
      <trkpt lat="49.19258" lon="1.6247">
        <ele>134.36767578125</ele>
        <time>2016-09-11T07:26:53.000Z</time>
      </trkpt>
      <trkpt lat="49.19255" lon="1.62448">
        <ele>134.95321655273</ele>
        <time>2016-09-11T07:26:56.000Z</time>
      </trkpt>
      <trkpt lat="49.19254" lon="1.62426">
        <ele>135.25610351562</ele>
        <time>2016-09-11T07:26:59.000Z</time>
      </trkpt>
      <trkpt lat="49.1925" lon="1.62403">
        <ele>135.30795288086</ele>
        <time>2016-09-11T07:27:02.000Z</time>
      </trkpt>
      <trkpt lat="49.19247" lon="1.62376">
        <ele>135.08389282227</ele>
        <time>2016-09-11T07:27:05.000Z</time>
      </trkpt>
      <trkpt lat="49.19246" lon="1.62358">
        <ele>134.8483581543</ele>
        <time>2016-09-11T07:27:07.000Z</time>
      </trkpt>
      <trkpt lat="49.19244" lon="1.62332">
        <ele>134.5871887207</ele>
        <time>2016-09-11T07:27:10.000Z</time>
      </trkpt>
      <trkpt lat="49.19243" lon="1.62313">
        <ele>134.45838928223</ele>
        <time>2016-09-11T07:27:12.000Z</time>
      </trkpt>
      <trkpt lat="49.19242" lon="1.62287">
        <ele>134.46142578125</ele>
        <time>2016-09-11T07:27:15.000Z</time>
      </trkpt>
      <trkpt lat="49.19239" lon="1.62265">
        <ele>134.59875488281</ele>
        <time>2016-09-11T07:27:18.000Z</time>
      </trkpt>
      <trkpt lat="49.19237" lon="1.62243">
        <ele>134.78034973145</ele>
        <time>2016-09-11T07:27:21.000Z</time>
      </trkpt>
      <trkpt lat="49.19236" lon="1.62228">
        <ele>135.01193237305</ele>
        <time>2016-09-11T07:27:23.000Z</time>
      </trkpt>
      <trkpt lat="49.1924" lon="1.62218">
        <ele>135.25387573242</ele>
        <time>2016-09-11T07:27:26.000Z</time>
      </trkpt>
      <trkpt lat="49.19242" lon="1.62214">
        <ele>135.45840454102</ele>
        <time>2016-09-11T07:27:28.000Z</time>
      </trkpt>
      <trkpt lat="49.19244" lon="1.62199">
        <ele>135.66796875</ele>
        <time>2016-09-11T07:27:31.000Z</time>
      </trkpt>
      <trkpt lat="49.19245" lon="1.62186">
        <ele>135.8828125</ele>
        <time>2016-09-11T07:27:33.000Z</time>
      </trkpt>
      <trkpt lat="49.19247" lon="1.62171">
        <ele>136.162109375</ele>
        <time>2016-09-11T07:27:36.000Z</time>
      </trkpt>
      <trkpt lat="49.19249" lon="1.62153">
        <ele>136.31025695801</ele>
        <time>2016-09-11T07:27:39.000Z</time>
      </trkpt>
      <trkpt lat="49.19252" lon="1.62133">
        <ele>136.27758789062</ele>
        <time>2016-09-11T07:27:42.000Z</time>
      </trkpt>
      <trkpt lat="49.19254" lon="1.6212">
        <ele>136.11318969727</ele>
        <time>2016-09-11T07:27:45.000Z</time>
      </trkpt>
      <trkpt lat="49.19259" lon="1.62108">
        <ele>135.88693237305</ele>
        <time>2016-09-11T07:27:48.000Z</time>
      </trkpt>
      <trkpt lat="49.19271" lon="1.62092">
        <ele>135.57743835449</ele>
        <time>2016-09-11T07:27:51.000Z</time>
      </trkpt>
      <trkpt lat="49.19284" lon="1.62084">
        <ele>135.34066772461</ele>
        <time>2016-09-11T07:27:54.000Z</time>
      </trkpt>
      <trkpt lat="49.19293" lon="1.62077">
        <ele>135.27688598633</ele>
        <time>2016-09-11T07:27:57.000Z</time>
      </trkpt>
      <trkpt lat="49.19297" lon="1.62072">
        <ele>135.31819152832</ele>
        <time>2016-09-11T07:27:59.000Z</time>
      </trkpt>
      <trkpt lat="49.19302" lon="1.62062">
        <ele>135.46411132812</ele>
        <time>2016-09-11T07:28:01.000Z</time>
      </trkpt>
      <trkpt lat="49.19309" lon="1.62047">
        <ele>135.73083496094</ele>
        <time>2016-09-11T07:28:04.000Z</time>
      </trkpt>
      <trkpt lat="49.19313" lon="1.62039">
        <ele>136.01831054688</ele>
        <time>2016-09-11T07:28:06.000Z</time>
      </trkpt>
      <trkpt lat="49.1932" lon="1.62025">
        <ele>136.38475036621</ele>
        <time>2016-09-11T07:28:09.000Z</time>
      </trkpt>
      <trkpt lat="49.19331" lon="1.62001">
        <ele>137.00105285645</ele>
        <time>2016-09-11T07:28:12.000Z</time>
      </trkpt>
      <trkpt lat="49.19346" lon="1.61979">
        <ele>137.72323608398</ele>
        <time>2016-09-11T07:28:15.000Z</time>
      </trkpt>
      <trkpt lat="49.1936" lon="1.61958">
        <ele>138.4446105957</ele>
        <time>2016-09-11T07:28:18.000Z</time>
      </trkpt>
      <trkpt lat="49.19365" lon="1.61949">
        <ele>139.13806152344</ele>
        <time>2016-09-11T07:28:20.000Z</time>
      </trkpt>
      <trkpt lat="49.19371" lon="1.61938">
        <ele>139.73043823242</ele>
        <time>2016-09-11T07:28:22.000Z</time>
      </trkpt>
      <trkpt lat="49.19379" lon="1.61921">
        <ele>140.0910949707</ele>
        <time>2016-09-11T07:28:25.000Z</time>
      </trkpt>
      <trkpt lat="49.19387" lon="1.61907">
        <ele>140.2907409668</ele>
        <time>2016-09-11T07:28:28.000Z</time>
      </trkpt>
      <trkpt lat="49.19393" lon="1.61897">
        <ele>140.39933776855</ele>
        <time>2016-09-11T07:28:30.000Z</time>
      </trkpt>
      <trkpt lat="49.19402" lon="1.61884">
        <ele>140.49598693848</ele>
        <time>2016-09-11T07:28:33.000Z</time>
      </trkpt>
      <trkpt lat="49.19407" lon="1.61876">
        <ele>140.57705688477</ele>
        <time>2016-09-11T07:28:35.000Z</time>
      </trkpt>
      <trkpt lat="49.19415" lon="1.61861">
        <ele>140.65841674805</ele>
        <time>2016-09-11T07:28:38.000Z</time>
      </trkpt>
      <trkpt lat="49.19422" lon="1.61848">
        <ele>140.7608795166</ele>
        <time>2016-09-11T07:28:41.000Z</time>
      </trkpt>
      <trkpt lat="49.19428" lon="1.61835">
        <ele>140.88291931152</ele>
        <time>2016-09-11T07:28:43.000Z</time>
      </trkpt>
      <trkpt lat="49.19435" lon="1.61825">
        <ele>140.94094848633</ele>
        <time>2016-09-11T07:28:45.000Z</time>
      </trkpt>
      <trkpt lat="49.19442" lon="1.61816">
        <ele>140.93154907227</ele>
        <time>2016-09-11T07:28:48.000Z</time>
      </trkpt>
      <trkpt lat="49.19453" lon="1.6181">
        <ele>140.86727905273</ele>
        <time>2016-09-11T07:28:51.000Z</time>
      </trkpt>
      <trkpt lat="49.19487" lon="1.61804">
        <ele>140.81831359863</ele>
        <time>2016-09-11T07:28:55.000Z</time>
      </trkpt>
      <trkpt lat="49.19501" lon="1.61794">
        <ele>140.70185852051</ele>
        <time>2016-09-11T07:28:58.000Z</time>
      </trkpt>
      <trkpt lat="49.19509" lon="1.61786">
        <ele>140.55680847168</ele>
        <time>2016-09-11T07:29:00.000Z</time>
      </trkpt>
      <trkpt lat="49.19523" lon="1.61792">
        <ele>140.44442749023</ele>
        <time>2016-09-11T07:29:03.000Z</time>
      </trkpt>
      <trkpt lat="49.1953" lon="1.61793">
        <ele>140.31661987305</ele>
        <time>2016-09-11T07:29:05.000Z</time>
      </trkpt>
      <trkpt lat="49.19539" lon="1.61792">
        <ele>140.11990356445</ele>
        <time>2016-09-11T07:29:08.000Z</time>
      </trkpt>
      <trkpt lat="49.1954" lon="1.61794">
        <ele>139.97079467773</ele>
        <time>2016-09-11T07:29:11.000Z</time>
      </trkpt>
      <trkpt lat="49.1954" lon="1.61798">
        <ele>139.89978027344</ele>
        <time>2016-09-11T07:29:14.000Z</time>
      </trkpt>
      <trkpt lat="49.19541" lon="1.61803">
        <ele>139.84712219238</ele>
        <time>2016-09-11T07:29:16.000Z</time>
      </trkpt>
      <trkpt lat="49.19548" lon="1.61807">
        <ele>139.78643798828</ele>
        <time>2016-09-11T07:29:19.000Z</time>
      </trkpt>
      <trkpt lat="49.19553" lon="1.61804">
        <ele>139.73065185547</ele>
        <time>2016-09-11T07:29:21.000Z</time>
      </trkpt>
      <trkpt lat="49.19558" lon="1.61791">
        <ele>139.66424560547</ele>
        <time>2016-09-11T07:29:24.000Z</time>
      </trkpt>
      <trkpt lat="49.19558" lon="1.61779">
        <ele>139.60623168945</ele>
        <time>2016-09-11T07:29:26.000Z</time>
      </trkpt>
      <trkpt lat="49.19553" lon="1.61763">
        <ele>139.56063842773</ele>
        <time>2016-09-11T07:29:29.000Z</time>
      </trkpt>
      <trkpt lat="49.1954" lon="1.6175">
        <ele>139.52133178711</ele>
        <time>2016-09-11T07:29:32.000Z</time>
      </trkpt>
      <trkpt lat="49.19527" lon="1.61739">
        <ele>139.27267456055</ele>
        <time>2016-09-11T07:29:35.000Z</time>
      </trkpt>
      <trkpt lat="49.19516" lon="1.61726">
        <ele>138.73657226562</ele>
        <time>2016-09-11T07:29:37.000Z</time>
      </trkpt>
      <trkpt lat="49.19501" lon="1.61707">
        <ele>137.7102355957</ele>
        <time>2016-09-11T07:29:40.000Z</time>
      </trkpt>
      <trkpt lat="49.1949" lon="1.61694">
        <ele>136.31524658203</ele>
        <time>2016-09-11T07:29:43.000Z</time>
      </trkpt>
      <trkpt lat="49.19489" lon="1.61686">
        <ele>134.77317810059</ele>
        <time>2016-09-11T07:29:45.000Z</time>
      </trkpt>
      <trkpt lat="49.19496" lon="1.61676">
        <ele>133.29830932617</ele>
        <time>2016-09-11T07:29:48.000Z</time>
      </trkpt>
      <trkpt lat="49.19512" lon="1.61673">
        <ele>132.21176147461</ele>
        <time>2016-09-11T07:29:51.000Z</time>
      </trkpt>
      <trkpt lat="49.19524" lon="1.61672">
        <ele>131.71754455566</ele>
        <time>2016-09-11T07:29:53.000Z</time>
      </trkpt>
      <trkpt lat="49.19537" lon="1.61669">
        <ele>131.6728515625</ele>
        <time>2016-09-11T07:29:55.000Z</time>
      </trkpt>
      <trkpt lat="49.19554" lon="1.61658">
        <ele>131.75485229492</ele>
        <time>2016-09-11T07:29:58.000Z</time>
      </trkpt>
      <trkpt lat="49.19562" lon="1.61653">
        <ele>131.99978637695</ele>
        <time>2016-09-11T07:30:00.000Z</time>
      </trkpt>
      <trkpt lat="49.19572" lon="1.61643">
        <ele>132.07084655762</ele>
        <time>2016-09-11T07:30:03.000Z</time>
      </trkpt>
      <trkpt lat="49.19579" lon="1.61641">
        <ele>132.06698608398</ele>
        <time>2016-09-11T07:30:05.000Z</time>
      </trkpt>
      <trkpt lat="49.19585" lon="1.6163">
        <ele>131.83395385742</ele>
        <time>2016-09-11T07:30:08.000Z</time>
      </trkpt>
      <trkpt lat="49.19593" lon="1.61625">
        <ele>131.64860534668</ele>
        <time>2016-09-11T07:30:11.000Z</time>
      </trkpt>
      <trkpt lat="49.19598" lon="1.61623">
        <ele>131.52568054199</ele>
        <time>2016-09-11T07:30:13.000Z</time>
      </trkpt>
      <trkpt lat="49.19603" lon="1.61623">
        <ele>131.57287597656</ele>
        <time>2016-09-11T07:30:16.000Z</time>
      </trkpt>
      <trkpt lat="49.19609" lon="1.61619">
        <ele>131.61856079102</ele>
        <time>2016-09-11T07:30:19.000Z</time>
      </trkpt>
      <trkpt lat="49.19616" lon="1.61611">
        <ele>131.78974914551</ele>
        <time>2016-09-11T07:30:21.000Z</time>
      </trkpt>
      <trkpt lat="49.1963" lon="1.61598">
        <ele>132.06645202637</ele>
        <time>2016-09-11T07:30:24.000Z</time>
      </trkpt>
      <trkpt lat="49.1964" lon="1.61586">
        <ele>132.36302185059</ele>
        <time>2016-09-11T07:30:27.000Z</time>
      </trkpt>
      <trkpt lat="49.19644" lon="1.61566">
        <ele>132.34323120117</ele>
        <time>2016-09-11T07:30:30.000Z</time>
      </trkpt>
      <trkpt lat="49.19647" lon="1.61554">
        <ele>132.17892456055</ele>
        <time>2016-09-11T07:30:32.000Z</time>
      </trkpt>
      <trkpt lat="49.19651" lon="1.61548">
        <ele>132.0354309082</ele>
        <time>2016-09-11T07:30:34.000Z</time>
      </trkpt>
      <trkpt lat="49.19659" lon="1.61539">
        <ele>131.87380981445</ele>
        <time>2016-09-11T07:30:37.000Z</time>
      </trkpt>
      <trkpt lat="49.1967" lon="1.61527">
        <ele>131.72640991211</ele>
        <time>2016-09-11T07:30:40.000Z</time>
      </trkpt>
      <trkpt lat="49.19683" lon="1.61499">
        <ele>131.78897094727</ele>
        <time>2016-09-11T07:30:43.000Z</time>
      </trkpt>
      <trkpt lat="49.19687" lon="1.61478">
        <ele>131.74038696289</ele>
        <time>2016-09-11T07:30:46.000Z</time>
      </trkpt>
      <trkpt lat="49.19693" lon="1.61459">
        <ele>131.55860900879</ele>
        <time>2016-09-11T07:30:48.000Z</time>
      </trkpt>
      <trkpt lat="49.19702" lon="1.61434">
        <ele>131.21022033691</ele>
        <time>2016-09-11T07:30:51.000Z</time>
      </trkpt>
      <trkpt lat="49.19704" lon="1.61424">
        <ele>130.71827697754</ele>
        <time>2016-09-11T07:30:53.000Z</time>
      </trkpt>
      <trkpt lat="49.19709" lon="1.61409">
        <ele>130.27079772949</ele>
        <time>2016-09-11T07:30:56.000Z</time>
      </trkpt>
      <trkpt lat="49.19714" lon="1.61394">
        <ele>130.18869018555</ele>
        <time>2016-09-11T07:30:58.000Z</time>
      </trkpt>
      <trkpt lat="49.19722" lon="1.61379">
        <ele>130.4801940918</ele>
        <time>2016-09-11T07:31:01.000Z</time>
      </trkpt>
      <trkpt lat="49.19728" lon="1.61368">
        <ele>131.05506896973</ele>
        <time>2016-09-11T07:31:03.000Z</time>
      </trkpt>
      <trkpt lat="49.19738" lon="1.61353">
        <ele>132.02348327637</ele>
        <time>2016-09-11T07:31:06.000Z</time>
      </trkpt>
      <trkpt lat="49.19746" lon="1.6134">
        <ele>133.29829406738</ele>
        <time>2016-09-11T07:31:09.000Z</time>
      </trkpt>
      <trkpt lat="49.19752" lon="1.61331">
        <ele>134.56869506836</ele>
        <time>2016-09-11T07:31:11.000Z</time>
      </trkpt>
      <trkpt lat="49.19755" lon="1.61322">
        <ele>135.53213500977</ele>
        <time>2016-09-11T07:31:13.000Z</time>
      </trkpt>
      <trkpt lat="49.19759" lon="1.61308">
        <ele>136.17590332031</ele>
        <time>2016-09-11T07:31:16.000Z</time>
      </trkpt>
      <trkpt lat="49.19763" lon="1.61297">
        <ele>136.40809631348</ele>
        <time>2016-09-11T07:31:18.000Z</time>
      </trkpt>
      <trkpt lat="49.19767" lon="1.61283">
        <ele>136.22421264648</ele>
        <time>2016-09-11T07:31:21.000Z</time>
      </trkpt>
      <trkpt lat="49.19771" lon="1.61276">
        <ele>135.89596557617</ele>
        <time>2016-09-11T07:31:23.000Z</time>
      </trkpt>
      <trkpt lat="49.19776" lon="1.61273">
        <ele>135.69561767578</ele>
        <time>2016-09-11T07:31:25.000Z</time>
      </trkpt>
      <trkpt lat="49.19784" lon="1.61272">
        <ele>135.7661895752</ele>
        <time>2016-09-11T07:31:28.000Z</time>
      </trkpt>
      <trkpt lat="49.1979" lon="1.61272">
        <ele>136.05093383789</ele>
        <time>2016-09-11T07:31:30.000Z</time>
      </trkpt>
      <trkpt lat="49.198" lon="1.61273">
        <ele>136.68115234375</ele>
        <time>2016-09-11T07:31:33.000Z</time>
      </trkpt>
      <trkpt lat="49.19806" lon="1.61271">
        <ele>137.41084289551</ele>
        <time>2016-09-11T07:31:35.000Z</time>
      </trkpt>
      <trkpt lat="49.19814" lon="1.61269">
        <ele>138.25094604492</ele>
        <time>2016-09-11T07:31:38.000Z</time>
      </trkpt>
      <trkpt lat="49.19827" lon="1.61274">
        <ele>139.27835083008</ele>
        <time>2016-09-11T07:31:41.000Z</time>
      </trkpt>
      <trkpt lat="49.19837" lon="1.61274">
        <ele>140.30760192871</ele>
        <time>2016-09-11T07:31:44.000Z</time>
      </trkpt>
      <trkpt lat="49.19849" lon="1.61277">
        <ele>141.06730651855</ele>
        <time>2016-09-11T07:31:47.000Z</time>
      </trkpt>
      <trkpt lat="49.19855" lon="1.61285">
        <ele>141.77658081055</ele>
        <time>2016-09-11T07:31:49.000Z</time>
      </trkpt>
      <trkpt lat="49.19864" lon="1.61299">
        <ele>142.35643005371</ele>
        <time>2016-09-11T07:31:52.000Z</time>
      </trkpt>
      <trkpt lat="49.19871" lon="1.61309">
        <ele>142.61206054688</ele>
        <time>2016-09-11T07:31:55.000Z</time>
      </trkpt>
      <trkpt lat="49.19877" lon="1.61316">
        <ele>142.7109375</ele>
        <time>2016-09-11T07:31:57.000Z</time>
      </trkpt>
      <trkpt lat="49.19884" lon="1.61326">
        <ele>142.79788208008</ele>
        <time>2016-09-11T07:31:59.000Z</time>
      </trkpt>
      <trkpt lat="49.19895" lon="1.61342">
        <ele>142.68165588379</ele>
        <time>2016-09-11T07:32:02.000Z</time>
      </trkpt>
      <trkpt lat="49.19901" lon="1.61351">
        <ele>142.36750793457</ele>
        <time>2016-09-11T07:32:04.000Z</time>
      </trkpt>
      <trkpt lat="49.1991" lon="1.61364">
        <ele>141.83145141602</ele>
        <time>2016-09-11T07:32:07.000Z</time>
      </trkpt>
      <trkpt lat="49.19916" lon="1.61372">
        <ele>141.18072509766</ele>
        <time>2016-09-11T07:32:09.000Z</time>
      </trkpt>
      <trkpt lat="49.19926" lon="1.61384">
        <ele>140.42367553711</ele>
        <time>2016-09-11T07:32:12.000Z</time>
      </trkpt>
      <trkpt lat="49.19934" lon="1.61395">
        <ele>139.71685791016</ele>
        <time>2016-09-11T07:32:15.000Z</time>
      </trkpt>
      <trkpt lat="49.19941" lon="1.61403">
        <ele>139.08142089844</ele>
        <time>2016-09-11T07:32:17.000Z</time>
      </trkpt>
      <trkpt lat="49.19947" lon="1.61412">
        <ele>138.58282470703</ele>
        <time>2016-09-11T07:32:19.000Z</time>
      </trkpt>
      <trkpt lat="49.19956" lon="1.61425">
        <ele>138.16482543945</ele>
        <time>2016-09-11T07:32:22.000Z</time>
      </trkpt>
      <trkpt lat="49.19962" lon="1.61434">
        <ele>137.86051940918</ele>
        <time>2016-09-11T07:32:24.000Z</time>
      </trkpt>
      <trkpt lat="49.19969" lon="1.61442">
        <ele>137.64488220215</ele>
        <time>2016-09-11T07:32:26.000Z</time>
      </trkpt>
      <trkpt lat="49.19975" lon="1.61452">
        <ele>137.48487854004</ele>
        <time>2016-09-11T07:32:28.000Z</time>
      </trkpt>
      <trkpt lat="49.19981" lon="1.61461">
        <ele>137.3759765625</ele>
        <time>2016-09-11T07:32:30.000Z</time>
      </trkpt>
      <trkpt lat="49.19992" lon="1.61475">
        <ele>137.2900390625</ele>
        <time>2016-09-11T07:32:33.000Z</time>
      </trkpt>
      <trkpt lat="49.19999" lon="1.61483">
        <ele>137.203125</ele>
        <time>2016-09-11T07:32:35.000Z</time>
      </trkpt>
      <trkpt lat="49.20005" lon="1.61492">
        <ele>137.1162109375</ele>
        <time>2016-09-11T07:32:37.000Z</time>
      </trkpt>
      <trkpt lat="49.20015" lon="1.61505">
        <ele>137.01953125</ele>
        <time>2016-09-11T07:32:40.000Z</time>
      </trkpt>
      <trkpt lat="49.20023" lon="1.61513">
        <ele>136.919921875</ele>
        <time>2016-09-11T07:32:42.000Z</time>
      </trkpt>
      <trkpt lat="49.20035" lon="1.61526">
        <ele>136.81640625</ele>
        <time>2016-09-11T07:32:45.000Z</time>
      </trkpt>
      <trkpt lat="49.20048" lon="1.61538">
        <ele>136.6982421875</ele>
        <time>2016-09-11T07:32:48.000Z</time>
      </trkpt>
      <trkpt lat="49.20059" lon="1.61549">
        <ele>136.5673828125</ele>
        <time>2016-09-11T07:32:51.000Z</time>
      </trkpt>
      <trkpt lat="49.2007" lon="1.61559">
        <ele>136.435546875</ele>
        <time>2016-09-11T07:32:54.000Z</time>
      </trkpt>
      <trkpt lat="49.20079" lon="1.61567">
        <ele>136.3017578125</ele>
        <time>2016-09-11T07:32:56.000Z</time>
      </trkpt>
      <trkpt lat="49.20089" lon="1.61581">
        <ele>136.15653991699</ele>
        <time>2016-09-11T07:32:59.000Z</time>
      </trkpt>
      <trkpt lat="49.20095" lon="1.61588">
        <ele>136.01376342773</ele>
        <time>2016-09-11T07:33:01.000Z</time>
      </trkpt>
      <trkpt lat="49.20103" lon="1.61596">
        <ele>135.86416625977</ele>
        <time>2016-09-11T07:33:03.000Z</time>
      </trkpt>
      <trkpt lat="49.20114" lon="1.61613">
        <ele>135.68623352051</ele>
        <time>2016-09-11T07:33:06.000Z</time>
      </trkpt>
      <trkpt lat="49.20124" lon="1.61629">
        <ele>135.48095703125</ele>
        <time>2016-09-11T07:33:09.000Z</time>
      </trkpt>
      <trkpt lat="49.20134" lon="1.61646">
        <ele>135.267578125</ele>
        <time>2016-09-11T07:33:12.000Z</time>
      </trkpt>
      <trkpt lat="49.20144" lon="1.61664">
        <ele>135.03515625</ele>
        <time>2016-09-11T07:33:15.000Z</time>
      </trkpt>
      <trkpt lat="49.2015" lon="1.61677">
        <ele>134.82418823242</ele>
        <time>2016-09-11T07:33:17.000Z</time>
      </trkpt>
      <trkpt lat="49.2016" lon="1.61695">
        <ele>134.6668548584</ele>
        <time>2016-09-11T07:33:20.000Z</time>
      </trkpt>
      <trkpt lat="49.20169" lon="1.61714">
        <ele>134.56192016602</ele>
        <time>2016-09-11T07:33:23.000Z</time>
      </trkpt>
      <trkpt lat="49.20179" lon="1.61735">
        <ele>134.50895690918</ele>
        <time>2016-09-11T07:33:26.000Z</time>
      </trkpt>
      <trkpt lat="49.20185" lon="1.61749">
        <ele>134.50639343262</ele>
        <time>2016-09-11T07:33:28.000Z</time>
      </trkpt>
      <trkpt lat="49.20194" lon="1.61769">
        <ele>134.44686889648</ele>
        <time>2016-09-11T07:33:31.000Z</time>
      </trkpt>
      <trkpt lat="49.20204" lon="1.61791">
        <ele>134.31594848633</ele>
        <time>2016-09-11T07:33:34.000Z</time>
      </trkpt>
      <trkpt lat="49.20214" lon="1.61812">
        <ele>134.1233215332</ele>
        <time>2016-09-11T07:33:37.000Z</time>
      </trkpt>
      <trkpt lat="49.20221" lon="1.61827">
        <ele>133.89407348633</ele>
        <time>2016-09-11T07:33:39.000Z</time>
      </trkpt>
      <trkpt lat="49.20231" lon="1.61849">
        <ele>133.62393188477</ele>
        <time>2016-09-11T07:33:42.000Z</time>
      </trkpt>
      <trkpt lat="49.20237" lon="1.61864">
        <ele>133.40739440918</ele>
        <time>2016-09-11T07:33:44.000Z</time>
      </trkpt>
      <trkpt lat="49.20246" lon="1.61884">
        <ele>133.24655151367</ele>
        <time>2016-09-11T07:33:47.000Z</time>
      </trkpt>
      <trkpt lat="49.20252" lon="1.61898">
        <ele>133.13664245605</ele>
        <time>2016-09-11T07:33:49.000Z</time>
      </trkpt>
      <trkpt lat="49.20261" lon="1.61917">
        <ele>133.06146240234</ele>
        <time>2016-09-11T07:33:52.000Z</time>
      </trkpt>
      <trkpt lat="49.20267" lon="1.6193">
        <ele>133.02998352051</ele>
        <time>2016-09-11T07:33:54.000Z</time>
      </trkpt>
      <trkpt lat="49.20273" lon="1.61942">
        <ele>133.0260925293</ele>
        <time>2016-09-11T07:33:56.000Z</time>
      </trkpt>
      <trkpt lat="49.20283" lon="1.61963">
        <ele>133.06640625</ele>
        <time>2016-09-11T07:33:59.000Z</time>
      </trkpt>
      <trkpt lat="49.20291" lon="1.61979">
        <ele>133.14064025879</ele>
        <time>2016-09-11T07:34:01.000Z</time>
      </trkpt>
      <trkpt lat="49.20298" lon="1.61995">
        <ele>133.24749755859</ele>
        <time>2016-09-11T07:34:03.000Z</time>
      </trkpt>
      <trkpt lat="49.20309" lon="1.62018">
        <ele>133.34080505371</ele>
        <time>2016-09-11T07:34:06.000Z</time>
      </trkpt>
      <trkpt lat="49.20316" lon="1.62033">
        <ele>133.40353393555</ele>
        <time>2016-09-11T07:34:08.000Z</time>
      </trkpt>
      <trkpt lat="49.20322" lon="1.62045">
        <ele>133.42399597168</ele>
        <time>2016-09-11T07:34:10.000Z</time>
      </trkpt>
      <trkpt lat="49.20329" lon="1.62059">
        <ele>133.39820861816</ele>
        <time>2016-09-11T07:34:12.000Z</time>
      </trkpt>
      <trkpt lat="49.20337" lon="1.6208">
        <ele>133.29019165039</ele>
        <time>2016-09-11T07:34:15.000Z</time>
      </trkpt>
      <trkpt lat="49.20343" lon="1.62094">
        <ele>133.12185668945</ele>
        <time>2016-09-11T07:34:17.000Z</time>
      </trkpt>
      <trkpt lat="49.20352" lon="1.62115">
        <ele>132.87748718262</ele>
        <time>2016-09-11T07:34:20.000Z</time>
      </trkpt>
      <trkpt lat="49.20358" lon="1.62131">
        <ele>132.59339904785</ele>
        <time>2016-09-11T07:34:22.000Z</time>
      </trkpt>
      <trkpt lat="49.20362" lon="1.62145">
        <ele>132.28379821777</ele>
        <time>2016-09-11T07:34:24.000Z</time>
      </trkpt>
      <trkpt lat="49.20368" lon="1.62168">
        <ele>131.96740722656</ele>
        <time>2016-09-11T07:34:27.000Z</time>
      </trkpt>
      <trkpt lat="49.20374" lon="1.62184">
        <ele>131.71366882324</ele>
        <time>2016-09-11T07:34:29.000Z</time>
      </trkpt>
      <trkpt lat="49.20379" lon="1.62199">
        <ele>131.55285644531</ele>
        <time>2016-09-11T07:34:31.000Z</time>
      </trkpt>
      <trkpt lat="49.20384" lon="1.62213">
        <ele>131.44874572754</ele>
        <time>2016-09-11T07:34:33.000Z</time>
      </trkpt>
      <trkpt lat="49.20392" lon="1.62236">
        <ele>131.40168762207</ele>
        <time>2016-09-11T07:34:36.000Z</time>
      </trkpt>
      <trkpt lat="49.20401" lon="1.62261">
        <ele>131.40287780762</ele>
        <time>2016-09-11T07:34:39.000Z</time>
      </trkpt>
      <trkpt lat="49.20409" lon="1.62285">
        <ele>131.33486938477</ele>
        <time>2016-09-11T07:34:42.000Z</time>
      </trkpt>
      <trkpt lat="49.20415" lon="1.62302">
        <ele>131.20736694336</ele>
        <time>2016-09-11T07:34:44.000Z</time>
      </trkpt>
      <trkpt lat="49.20423" lon="1.62328">
        <ele>130.95565795898</ele>
        <time>2016-09-11T07:34:47.000Z</time>
      </trkpt>
      <trkpt lat="49.20428" lon="1.62343">
        <ele>130.66825866699</ele>
        <time>2016-09-11T07:34:49.000Z</time>
      </trkpt>
      <trkpt lat="49.20433" lon="1.62359">
        <ele>130.39683532715</ele>
        <time>2016-09-11T07:34:51.000Z</time>
      </trkpt>
      <trkpt lat="49.20437" lon="1.62375">
        <ele>130.21223449707</ele>
        <time>2016-09-11T07:34:53.000Z</time>
      </trkpt>
      <trkpt lat="49.20446" lon="1.624">
        <ele>130.12040710449</ele>
        <time>2016-09-11T07:34:56.000Z</time>
      </trkpt>
      <trkpt lat="49.20451" lon="1.62416">
        <ele>130.17764282227</ele>
        <time>2016-09-11T07:34:58.000Z</time>
      </trkpt>
      <trkpt lat="49.20458" lon="1.62431">
        <ele>130.27308654785</ele>
        <time>2016-09-11T07:35:00.000Z</time>
      </trkpt>
      <trkpt lat="49.20469" lon="1.62456">
        <ele>130.38485717773</ele>
        <time>2016-09-11T07:35:03.000Z</time>
      </trkpt>
      <trkpt lat="49.20477" lon="1.62481">
        <ele>130.50343322754</ele>
        <time>2016-09-11T07:35:06.000Z</time>
      </trkpt>
      <trkpt lat="49.20481" lon="1.625">
        <ele>130.60005187988</ele>
        <time>2016-09-11T07:35:08.000Z</time>
      </trkpt>
      <trkpt lat="49.20487" lon="1.62519">
        <ele>130.62612915039</ele>
        <time>2016-09-11T07:35:10.000Z</time>
      </trkpt>
      <trkpt lat="49.20497" lon="1.62547">
        <ele>130.60040283203</ele>
        <time>2016-09-11T07:35:13.000Z</time>
      </trkpt>
      <trkpt lat="49.20507" lon="1.62575">
        <ele>130.47885131836</ele>
        <time>2016-09-11T07:35:16.000Z</time>
      </trkpt>
      <trkpt lat="49.20512" lon="1.62594">
        <ele>130.23196411133</ele>
        <time>2016-09-11T07:35:18.000Z</time>
      </trkpt>
      <trkpt lat="49.2052" lon="1.62613">
        <ele>129.83686828613</ele>
        <time>2016-09-11T07:35:20.000Z</time>
      </trkpt>
      <trkpt lat="49.20529" lon="1.62644">
        <ele>129.26997375488</ele>
        <time>2016-09-11T07:35:23.000Z</time>
      </trkpt>
      <trkpt lat="49.20535" lon="1.62667">
        <ele>128.59722900391</ele>
        <time>2016-09-11T07:35:25.000Z</time>
      </trkpt>
      <trkpt lat="49.20543" lon="1.627">
        <ele>127.79514312744</ele>
        <time>2016-09-11T07:35:28.000Z</time>
      </trkpt>
      <trkpt lat="49.20549" lon="1.62722">
        <ele>127.00169372559</ele>
        <time>2016-09-11T07:35:30.000Z</time>
      </trkpt>
      <trkpt lat="49.20554" lon="1.62744">
        <ele>126.26100158691</ele>
        <time>2016-09-11T07:35:32.000Z</time>
      </trkpt>
      <trkpt lat="49.20561" lon="1.62777">
        <ele>125.65734863281</ele>
        <time>2016-09-11T07:35:35.000Z</time>
      </trkpt>
      <trkpt lat="49.20567" lon="1.62797">
        <ele>125.17657470703</ele>
        <time>2016-09-11T07:35:37.000Z</time>
      </trkpt>
      <trkpt lat="49.20573" lon="1.6282">
        <ele>124.89128112793</ele>
        <time>2016-09-11T07:35:39.000Z</time>
      </trkpt>
      <trkpt lat="49.20581" lon="1.62851">
        <ele>124.749168396</ele>
        <time>2016-09-11T07:35:42.000Z</time>
      </trkpt>
      <trkpt lat="49.20587" lon="1.62867">
        <ele>124.7283782959</ele>
        <time>2016-09-11T07:35:44.000Z</time>
      </trkpt>
      <trkpt lat="49.20594" lon="1.62895">
        <ele>124.78397369385</ele>
        <time>2016-09-11T07:35:47.000Z</time>
      </trkpt>
      <trkpt lat="49.20599" lon="1.62915">
        <ele>124.8638458252</ele>
        <time>2016-09-11T07:35:49.000Z</time>
      </trkpt>
      <trkpt lat="49.20605" lon="1.62945">
        <ele>124.86569976807</ele>
        <time>2016-09-11T07:35:52.000Z</time>
      </trkpt>
      <trkpt lat="49.20611" lon="1.62978">
        <ele>124.75813293457</ele>
        <time>2016-09-11T07:35:55.000Z</time>
      </trkpt>
      <trkpt lat="49.20617" lon="1.63001">
        <ele>124.60241699219</ele>
        <time>2016-09-11T07:35:57.000Z</time>
      </trkpt>
      <trkpt lat="49.20625" lon="1.63035">
        <ele>124.42105865479</ele>
        <time>2016-09-11T07:36:00.000Z</time>
      </trkpt>
      <trkpt lat="49.20628" lon="1.63054">
        <ele>124.2257232666</ele>
        <time>2016-09-11T07:36:02.000Z</time>
      </trkpt>
      <trkpt lat="49.2063" lon="1.63078">
        <ele>124.10130310059</ele>
        <time>2016-09-11T07:36:04.000Z</time>
      </trkpt>
      <trkpt lat="49.20634" lon="1.63112">
        <ele>124.05941009521</ele>
        <time>2016-09-11T07:36:07.000Z</time>
      </trkpt>
      <trkpt lat="49.20638" lon="1.63129">
        <ele>124.09777832031</ele>
        <time>2016-09-11T07:36:09.000Z</time>
      </trkpt>
      <trkpt lat="49.20645" lon="1.63156">
        <ele>124.31343078613</ele>
        <time>2016-09-11T07:36:12.000Z</time>
      </trkpt>
      <trkpt lat="49.20658" lon="1.63178">
        <ele>124.85868835449</ele>
        <time>2016-09-11T07:36:15.000Z</time>
      </trkpt>
      <trkpt lat="49.20663" lon="1.63195">
        <ele>125.48983001709</ele>
        <time>2016-09-11T07:36:17.000Z</time>
      </trkpt>
      <trkpt lat="49.20669" lon="1.63224">
        <ele>126.18803405762</ele>
        <time>2016-09-11T07:36:20.000Z</time>
      </trkpt>
      <trkpt lat="49.20671" lon="1.63241">
        <ele>126.81983947754</ele>
        <time>2016-09-11T07:36:22.000Z</time>
      </trkpt>
      <trkpt lat="49.20676" lon="1.63266">
        <ele>127.20281982422</ele>
        <time>2016-09-11T07:36:25.000Z</time>
      </trkpt>
      <trkpt lat="49.20684" lon="1.63293">
        <ele>127.14515686035</ele>
        <time>2016-09-11T07:36:28.000Z</time>
      </trkpt>
      <trkpt lat="49.20689" lon="1.6332">
        <ele>126.8853302002</ele>
        <time>2016-09-11T07:36:31.000Z</time>
      </trkpt>
      <trkpt lat="49.20695" lon="1.6334">
        <ele>126.50505065918</ele>
        <time>2016-09-11T07:36:33.000Z</time>
      </trkpt>
      <trkpt lat="49.207" lon="1.6335">
        <ele>126.12922668457</ele>
        <time>2016-09-11T07:36:36.000Z</time>
      </trkpt>
      <trkpt lat="49.20703" lon="1.63356">
        <ele>125.82875061035</ele>
        <time>2016-09-11T07:36:38.000Z</time>
      </trkpt>
      <trkpt lat="49.20709" lon="1.63381">
        <ele>125.465675354</ele>
        <time>2016-09-11T07:36:41.000Z</time>
      </trkpt>
      <trkpt lat="49.20716" lon="1.63402">
        <ele>125.12780761719</ele>
        <time>2016-09-11T07:36:44.000Z</time>
      </trkpt>
      <trkpt lat="49.20722" lon="1.6343">
        <ele>124.76702880859</ele>
        <time>2016-09-11T07:36:47.000Z</time>
      </trkpt>
      <trkpt lat="49.20728" lon="1.63448">
        <ele>124.51153564453</ele>
        <time>2016-09-11T07:36:49.000Z</time>
      </trkpt>
      <trkpt lat="49.20734" lon="1.63472">
        <ele>124.3974609375</ele>
        <time>2016-09-11T07:36:52.000Z</time>
      </trkpt>
      <trkpt lat="49.20739" lon="1.63495">
        <ele>124.575050354</ele>
        <time>2016-09-11T07:36:55.000Z</time>
      </trkpt>
      <trkpt lat="49.20743" lon="1.63509">
        <ele>124.94750976562</ele>
        <time>2016-09-11T07:36:57.000Z</time>
      </trkpt>
      <trkpt lat="49.20747" lon="1.63524">
        <ele>125.50605773926</ele>
        <time>2016-09-11T07:36:59.000Z</time>
      </trkpt>
      <trkpt lat="49.20752" lon="1.63539">
        <ele>126.07489013672</ele>
        <time>2016-09-11T07:37:01.000Z</time>
      </trkpt>
      <trkpt lat="49.20756" lon="1.63559">
        <ele>126.60720062256</ele>
        <time>2016-09-11T07:37:04.000Z</time>
      </trkpt>
      <trkpt lat="49.20761" lon="1.63577">
        <ele>127.18965148926</ele>
        <time>2016-09-11T07:37:07.000Z</time>
      </trkpt>
      <trkpt lat="49.20767" lon="1.63594">
        <ele>127.82021331787</ele>
        <time>2016-09-11T07:37:10.000Z</time>
      </trkpt>
      <trkpt lat="49.20773" lon="1.6361">
        <ele>128.45700073242</ele>
        <time>2016-09-11T07:37:13.000Z</time>
      </trkpt>
      <trkpt lat="49.20778" lon="1.63619">
        <ele>129.09271240234</ele>
        <time>2016-09-11T07:37:15.000Z</time>
      </trkpt>
      <trkpt lat="49.20783" lon="1.63629">
        <ele>129.76635742188</ele>
        <time>2016-09-11T07:37:17.000Z</time>
      </trkpt>
      <trkpt lat="49.20791" lon="1.63644">
        <ele>130.48678588867</ele>
        <time>2016-09-11T07:37:20.000Z</time>
      </trkpt>
      <trkpt lat="49.20795" lon="1.63652">
        <ele>131.18371582031</ele>
        <time>2016-09-11T07:37:22.000Z</time>
      </trkpt>
      <trkpt lat="49.20801" lon="1.63662">
        <ele>131.89770507812</ele>
        <time>2016-09-11T07:37:25.000Z</time>
      </trkpt>
      <trkpt lat="49.20805" lon="1.63668">
        <ele>132.58950805664</ele>
        <time>2016-09-11T07:37:27.000Z</time>
      </trkpt>
      <trkpt lat="49.20811" lon="1.63679">
        <ele>133.38343811035</ele>
        <time>2016-09-11T07:37:30.000Z</time>
      </trkpt>
      <trkpt lat="49.20816" lon="1.63687">
        <ele>134.16972351074</ele>
        <time>2016-09-11T07:37:32.000Z</time>
      </trkpt>
      <trkpt lat="49.20821" lon="1.63693">
        <ele>135.00947570801</ele>
        <time>2016-09-11T07:37:34.000Z</time>
      </trkpt>
      <trkpt lat="49.20828" lon="1.63703">
        <ele>135.94847106934</ele>
        <time>2016-09-11T07:37:37.000Z</time>
      </trkpt>
      <trkpt lat="49.20833" lon="1.63712">
        <ele>136.9899597168</ele>
        <time>2016-09-11T07:37:39.000Z</time>
      </trkpt>
      <trkpt lat="49.20841" lon="1.63726">
        <ele>138.0417175293</ele>
        <time>2016-09-11T07:37:42.000Z</time>
      </trkpt>
      <trkpt lat="49.20847" lon="1.6374">
        <ele>139.08683776855</ele>
        <time>2016-09-11T07:37:45.000Z</time>
      </trkpt>
      <trkpt lat="49.20853" lon="1.63753">
        <ele>140.13528442383</ele>
        <time>2016-09-11T07:37:48.000Z</time>
      </trkpt>
      <trkpt lat="49.20857" lon="1.63763">
        <ele>140.99752807617</ele>
        <time>2016-09-11T07:37:50.000Z</time>
      </trkpt>
      <trkpt lat="49.20863" lon="1.6378">
        <ele>141.75918579102</ele>
        <time>2016-09-11T07:37:53.000Z</time>
      </trkpt>
      <trkpt lat="49.20872" lon="1.63801">
        <ele>142.43244934082</ele>
        <time>2016-09-11T07:37:56.000Z</time>
      </trkpt>
      <trkpt lat="49.20881" lon="1.63824">
        <ele>143.03515625</ele>
        <time>2016-09-11T07:37:59.000Z</time>
      </trkpt>
      <trkpt lat="49.20885" lon="1.63838">
        <ele>143.5046081543</ele>
        <time>2016-09-11T07:38:01.000Z</time>
      </trkpt>
      <trkpt lat="49.2089" lon="1.63856">
        <ele>143.83807373047</ele>
        <time>2016-09-11T07:38:03.000Z</time>
      </trkpt>
      <trkpt lat="49.20895" lon="1.63882">
        <ele>143.95469665527</ele>
        <time>2016-09-11T07:38:06.000Z</time>
      </trkpt>
      <trkpt lat="49.209" lon="1.63904">
        <ele>143.83979797363</ele>
        <time>2016-09-11T07:38:09.000Z</time>
      </trkpt>
      <trkpt lat="49.20909" lon="1.63924">
        <ele>143.56144714355</ele>
        <time>2016-09-11T07:38:12.000Z</time>
      </trkpt>
      <trkpt lat="49.20917" lon="1.63944">
        <ele>143.15516662598</ele>
        <time>2016-09-11T07:38:15.000Z</time>
      </trkpt>
      <trkpt lat="49.20921" lon="1.63958">
        <ele>142.72702026367</ele>
        <time>2016-09-11T07:38:17.000Z</time>
      </trkpt>
      <trkpt lat="49.20929" lon="1.63973">
        <ele>142.40054321289</ele>
        <time>2016-09-11T07:38:20.000Z</time>
      </trkpt>
      <trkpt lat="49.20935" lon="1.63984">
        <ele>142.17170715332</ele>
        <time>2016-09-11T07:38:22.000Z</time>
      </trkpt>
      <trkpt lat="49.20945" lon="1.63997">
        <ele>142.03598022461</ele>
        <time>2016-09-11T07:38:25.000Z</time>
      </trkpt>
      <trkpt lat="49.20954" lon="1.64011">
        <ele>141.9645690918</ele>
        <time>2016-09-11T07:38:28.000Z</time>
      </trkpt>
      <trkpt lat="49.2096" lon="1.64019">
        <ele>141.94677734375</ele>
        <time>2016-09-11T07:38:30.000Z</time>
      </trkpt>
      <trkpt lat="49.20968" lon="1.64032">
        <ele>141.90396118164</ele>
        <time>2016-09-11T07:38:33.000Z</time>
      </trkpt>
      <trkpt lat="49.20975" lon="1.64045">
        <ele>141.77824401855</ele>
        <time>2016-09-11T07:38:36.000Z</time>
      </trkpt>
      <trkpt lat="49.20982" lon="1.64058">
        <ele>141.52244567871</ele>
        <time>2016-09-11T07:38:39.000Z</time>
      </trkpt>
      <trkpt lat="49.20986" lon="1.64065">
        <ele>141.2744140625</ele>
        <time>2016-09-11T07:38:41.000Z</time>
      </trkpt>
      <trkpt lat="49.20991" lon="1.64071">
        <ele>141.08541870117</ele>
        <time>2016-09-11T07:38:43.000Z</time>
      </trkpt>
      <trkpt lat="49.20997" lon="1.64081">
        <ele>140.92851257324</ele>
        <time>2016-09-11T07:38:46.000Z</time>
      </trkpt>
      <trkpt lat="49.21002" lon="1.6409">
        <ele>140.83329772949</ele>
        <time>2016-09-11T07:38:48.000Z</time>
      </trkpt>
      <trkpt lat="49.21008" lon="1.64104">
        <ele>140.82968139648</ele>
        <time>2016-09-11T07:38:51.000Z</time>
      </trkpt>
      <trkpt lat="49.21014" lon="1.6412">
        <ele>140.8101348877</ele>
        <time>2016-09-11T07:38:54.000Z</time>
      </trkpt>
      <trkpt lat="49.21021" lon="1.64138">
        <ele>140.77783203125</ele>
        <time>2016-09-11T07:38:57.000Z</time>
      </trkpt>
      <trkpt lat="49.21025" lon="1.64149">
        <ele>140.75761413574</ele>
        <time>2016-09-11T07:38:59.000Z</time>
      </trkpt>
      <trkpt lat="49.21029" lon="1.6416">
        <ele>140.75103759766</ele>
        <time>2016-09-11T07:39:01.000Z</time>
      </trkpt>
      <trkpt lat="49.21035" lon="1.64176">
        <ele>140.75839233398</ele>
        <time>2016-09-11T07:39:04.000Z</time>
      </trkpt>
      <trkpt lat="49.21042" lon="1.64192">
        <ele>140.86149597168</ele>
        <time>2016-09-11T07:39:07.000Z</time>
      </trkpt>
      <trkpt lat="49.21049" lon="1.64206">
        <ele>141.01452636719</ele>
        <time>2016-09-11T07:39:10.000Z</time>
      </trkpt>
      <trkpt lat="49.21056" lon="1.64222">
        <ele>141.15653991699</ele>
        <time>2016-09-11T07:39:13.000Z</time>
      </trkpt>
      <trkpt lat="49.21062" lon="1.64238">
        <ele>141.25126647949</ele>
        <time>2016-09-11T07:39:16.000Z</time>
      </trkpt>
      <trkpt lat="49.21066" lon="1.64249">
        <ele>141.27401733398</ele>
        <time>2016-09-11T07:39:18.000Z</time>
      </trkpt>
      <trkpt lat="49.21071" lon="1.64261">
        <ele>141.21975708008</ele>
        <time>2016-09-11T07:39:20.000Z</time>
      </trkpt>
      <trkpt lat="49.21078" lon="1.64277">
        <ele>141.0924987793</ele>
        <time>2016-09-11T07:39:23.000Z</time>
      </trkpt>
      <trkpt lat="49.21083" lon="1.64287">
        <ele>140.9603729248</ele>
        <time>2016-09-11T07:39:25.000Z</time>
      </trkpt>
      <trkpt lat="49.21088" lon="1.64297">
        <ele>140.76754760742</ele>
        <time>2016-09-11T07:39:27.000Z</time>
      </trkpt>
      <trkpt lat="49.21095" lon="1.64314">
        <ele>140.43087768555</ele>
        <time>2016-09-11T07:39:30.000Z</time>
      </trkpt>
      <trkpt lat="49.21099" lon="1.64324">
        <ele>139.99385070801</ele>
        <time>2016-09-11T07:39:32.000Z</time>
      </trkpt>
      <trkpt lat="49.21102" lon="1.64341">
        <ele>139.38452148438</ele>
        <time>2016-09-11T07:39:35.000Z</time>
      </trkpt>
      <trkpt lat="49.21073" lon="1.64362">
        <ele>138.3258972168</ele>
        <time>2016-09-11T07:39:39.000Z</time>
      </trkpt>
      <trkpt lat="49.21051" lon="1.64371">
        <ele>136.94825744629</ele>
        <time>2016-09-11T07:39:42.000Z</time>
      </trkpt>
      <trkpt lat="49.21035" lon="1.6438">
        <ele>135.44679260254</ele>
        <time>2016-09-11T07:39:44.000Z</time>
      </trkpt>
      <trkpt lat="49.21016" lon="1.64389">
        <ele>133.70909118652</ele>
        <time>2016-09-11T07:39:46.000Z</time>
      </trkpt>
      <trkpt lat="49.20984" lon="1.64409">
        <ele>131.46252441406</ele>
        <time>2016-09-11T07:39:49.000Z</time>
      </trkpt>
      <trkpt lat="49.2095" lon="1.64448">
        <ele>128.66897583008</ele>
        <time>2016-09-11T07:39:52.000Z</time>
      </trkpt>
      <trkpt lat="49.20927" lon="1.64468">
        <ele>125.73476409912</ele>
        <time>2016-09-11T07:39:54.000Z</time>
      </trkpt>
      <trkpt lat="49.20906" lon="1.64488">
        <ele>122.67616271973</ele>
        <time>2016-09-11T07:39:56.000Z</time>
      </trkpt>
      <trkpt lat="49.20875" lon="1.64515">
        <ele>119.44372558594</ele>
        <time>2016-09-11T07:39:59.000Z</time>
      </trkpt>
      <trkpt lat="49.2084" lon="1.64539">
        <ele>116.42541503906</ele>
        <time>2016-09-11T07:40:02.000Z</time>
      </trkpt>
      <trkpt lat="49.20819" lon="1.64554">
        <ele>114.13177490234</ele>
        <time>2016-09-11T07:40:04.000Z</time>
      </trkpt>
      <trkpt lat="49.2079" lon="1.6458">
        <ele>112.06540679932</ele>
        <time>2016-09-11T07:40:07.000Z</time>
      </trkpt>
      <trkpt lat="49.20771" lon="1.64597">
        <ele>110.2698135376</ele>
        <time>2016-09-11T07:40:09.000Z</time>
      </trkpt>
      <trkpt lat="49.20746" lon="1.64628">
        <ele>108.8839263916</ele>
        <time>2016-09-11T07:40:12.000Z</time>
      </trkpt>
      <trkpt lat="49.2073" lon="1.64648">
        <ele>107.9907989502</ele>
        <time>2016-09-11T07:40:14.000Z</time>
      </trkpt>
      <trkpt lat="49.20709" lon="1.64674">
        <ele>107.47236633301</ele>
        <time>2016-09-11T07:40:17.000Z</time>
      </trkpt>
      <trkpt lat="49.20693" lon="1.64692">
        <ele>107.47431945801</ele>
        <time>2016-09-11T07:40:19.000Z</time>
      </trkpt>
      <trkpt lat="49.20681" lon="1.64709">
        <ele>107.82204437256</ele>
        <time>2016-09-11T07:40:21.000Z</time>
      </trkpt>
      <trkpt lat="49.20665" lon="1.64738">
        <ele>108.62854003906</ele>
        <time>2016-09-11T07:40:24.000Z</time>
      </trkpt>
      <trkpt lat="49.20649" lon="1.64759">
        <ele>109.56762695312</ele>
        <time>2016-09-11T07:40:27.000Z</time>
      </trkpt>
      <trkpt lat="49.20638" lon="1.64777">
        <ele>110.57234191895</ele>
        <time>2016-09-11T07:40:29.000Z</time>
      </trkpt>
      <trkpt lat="49.20624" lon="1.64798">
        <ele>111.46759033203</ele>
        <time>2016-09-11T07:40:32.000Z</time>
      </trkpt>
      <trkpt lat="49.20611" lon="1.64815">
        <ele>112.14530181885</ele>
        <time>2016-09-11T07:40:34.000Z</time>
      </trkpt>
      <trkpt lat="49.20596" lon="1.64837">
        <ele>112.338722229</ele>
        <time>2016-09-11T07:40:37.000Z</time>
      </trkpt>
      <trkpt lat="49.20583" lon="1.64857">
        <ele>112.20944976807</ele>
        <time>2016-09-11T07:40:40.000Z</time>
      </trkpt>
      <trkpt lat="49.20579" lon="1.64872">
        <ele>111.9803237915</ele>
        <time>2016-09-11T07:40:42.000Z</time>
      </trkpt>
      <trkpt lat="49.20573" lon="1.64887">
        <ele>111.67797851562</ele>
        <time>2016-09-11T07:40:44.000Z</time>
      </trkpt>
      <trkpt lat="49.20572" lon="1.64898">
        <ele>111.48069000244</ele>
        <time>2016-09-11T07:40:46.000Z</time>
      </trkpt>
      <trkpt lat="49.20564" lon="1.64922">
        <ele>111.39687347412</ele>
        <time>2016-09-11T07:40:49.000Z</time>
      </trkpt>
      <trkpt lat="49.20552" lon="1.64945">
        <ele>111.33842468262</ele>
        <time>2016-09-11T07:40:52.000Z</time>
      </trkpt>
      <trkpt lat="49.20544" lon="1.64964">
        <ele>111.12147521973</ele>
        <time>2016-09-11T07:40:54.000Z</time>
      </trkpt>
      <trkpt lat="49.20537" lon="1.64992">
        <ele>110.87644195557</ele>
        <time>2016-09-11T07:40:57.000Z</time>
      </trkpt>
      <trkpt lat="49.20522" lon="1.65021">
        <ele>110.2244644165</ele>
        <time>2016-09-11T07:41:00.000Z</time>
      </trkpt>
      <trkpt lat="49.20514" lon="1.65045">
        <ele>109.39420318604</ele>
        <time>2016-09-11T07:41:03.000Z</time>
      </trkpt>
      <trkpt lat="49.20506" lon="1.65065">
        <ele>108.53961181641</ele>
        <time>2016-09-11T07:41:05.000Z</time>
      </trkpt>
      <trkpt lat="49.20495" lon="1.6509">
        <ele>107.66921234131</ele>
        <time>2016-09-11T07:41:07.000Z</time>
      </trkpt>
      <trkpt lat="49.20482" lon="1.65122">
        <ele>106.83994293213</ele>
        <time>2016-09-11T07:41:10.000Z</time>
      </trkpt>
      <trkpt lat="49.20469" lon="1.65145">
        <ele>106.19142150879</ele>
        <time>2016-09-11T07:41:12.000Z</time>
      </trkpt>
      <trkpt lat="49.20469" lon="1.65173">
        <ele>105.91468811035</ele>
        <time>2016-09-11T07:41:14.000Z</time>
      </trkpt>
      <trkpt lat="49.20451" lon="1.65201">
        <ele>105.50260162354</ele>
        <time>2016-09-11T07:41:17.000Z</time>
      </trkpt>
      <trkpt lat="49.20443" lon="1.6522">
        <ele>105.10301208496</ele>
        <time>2016-09-11T07:41:19.000Z</time>
      </trkpt>
      <trkpt lat="49.20428" lon="1.65236">
        <ele>104.36517333984</ele>
        <time>2016-09-11T07:41:21.000Z</time>
      </trkpt>
      <trkpt lat="49.20417" lon="1.65256">
        <ele>103.55373382568</ele>
        <time>2016-09-11T07:41:23.000Z</time>
      </trkpt>
      <trkpt lat="49.20401" lon="1.65282">
        <ele>102.26808166504</ele>
        <time>2016-09-11T07:41:26.000Z</time>
      </trkpt>
      <trkpt lat="49.20382" lon="1.65306">
        <ele>100.96408843994</ele>
        <time>2016-09-11T07:41:29.000Z</time>
      </trkpt>
      <trkpt lat="49.20364" lon="1.65333">
        <ele>99.506469726562</ele>
        <time>2016-09-11T07:41:32.000Z</time>
      </trkpt>
      <trkpt lat="49.20344" lon="1.6536">
        <ele>98.002731323242</ele>
        <time>2016-09-11T07:41:35.000Z</time>
      </trkpt>
      <trkpt lat="49.20326" lon="1.65386">
        <ele>96.448280334473</ele>
        <time>2016-09-11T07:41:38.000Z</time>
      </trkpt>
      <trkpt lat="49.20306" lon="1.65413">
        <ele>94.875335693359</ele>
        <time>2016-09-11T07:41:41.000Z</time>
      </trkpt>
      <trkpt lat="49.20295" lon="1.65431">
        <ele>93.469543457031</ele>
        <time>2016-09-11T07:41:43.000Z</time>
      </trkpt>
      <trkpt lat="49.20274" lon="1.65461">
        <ele>92.01594543457</ele>
        <time>2016-09-11T07:41:46.000Z</time>
      </trkpt>
      <trkpt lat="49.20251" lon="1.65492">
        <ele>90.660537719727</ele>
        <time>2016-09-11T07:41:49.000Z</time>
      </trkpt>
      <trkpt lat="49.2023" lon="1.65524">
        <ele>89.17919921875</ele>
        <time>2016-09-11T07:41:52.000Z</time>
      </trkpt>
      <trkpt lat="49.20207" lon="1.65559">
        <ele>87.619331359863</ele>
        <time>2016-09-11T07:41:55.000Z</time>
      </trkpt>
      <trkpt lat="49.20193" lon="1.65582">
        <ele>86.001083374023</ele>
        <time>2016-09-11T07:41:57.000Z</time>
      </trkpt>
      <trkpt lat="49.20176" lon="1.65616">
        <ele>84.47526550293</ele>
        <time>2016-09-11T07:42:00.000Z</time>
      </trkpt>
      <trkpt lat="49.20164" lon="1.65641">
        <ele>83.081329345703</ele>
        <time>2016-09-11T07:42:02.000Z</time>
      </trkpt>
      <trkpt lat="49.20145" lon="1.65679">
        <ele>81.680946350098</ele>
        <time>2016-09-11T07:42:05.000Z</time>
      </trkpt>
      <trkpt lat="49.20132" lon="1.65719">
        <ele>80.397331237793</ele>
        <time>2016-09-11T07:42:08.000Z</time>
      </trkpt>
      <trkpt lat="49.20115" lon="1.6576">
        <ele>78.934036254883</ele>
        <time>2016-09-11T07:42:11.000Z</time>
      </trkpt>
      <trkpt lat="49.2011" lon="1.65802">
        <ele>77.365287780762</ele>
        <time>2016-09-11T07:42:14.000Z</time>
      </trkpt>
      <trkpt lat="49.20114" lon="1.65825">
        <ele>75.935989379883</ele>
        <time>2016-09-11T07:42:16.000Z</time>
      </trkpt>
      <trkpt lat="49.2011" lon="1.65842">
        <ele>74.723281860352</ele>
        <time>2016-09-11T07:42:18.000Z</time>
      </trkpt>
      <trkpt lat="49.20098" lon="1.65852">
        <ele>73.42350769043</ele>
        <time>2016-09-11T07:42:20.000Z</time>
      </trkpt>
      <trkpt lat="49.2008" lon="1.65837">
        <ele>72.232139587402</ele>
        <time>2016-09-11T07:42:23.000Z</time>
      </trkpt>
      <trkpt lat="49.20065" lon="1.65814">
        <ele>71.123428344727</ele>
        <time>2016-09-11T07:42:26.000Z</time>
      </trkpt>
      <trkpt lat="49.20049" lon="1.65788">
        <ele>69.73316192627</ele>
        <time>2016-09-11T07:42:29.000Z</time>
      </trkpt>
      <trkpt lat="49.20044" lon="1.65764">
        <ele>68.492553710938</ele>
        <time>2016-09-11T07:42:31.000Z</time>
      </trkpt>
      <trkpt lat="49.20046" lon="1.65728">
        <ele>67.645606994629</ele>
        <time>2016-09-11T07:42:34.000Z</time>
      </trkpt>
      <trkpt lat="49.20049" lon="1.65701">
        <ele>67.081748962402</ele>
        <time>2016-09-11T07:42:36.000Z</time>
      </trkpt>
      <trkpt lat="49.2005" lon="1.65663">
        <ele>66.693046569824</ele>
        <time>2016-09-11T07:42:39.000Z</time>
      </trkpt>
      <trkpt lat="49.2005" lon="1.65624">
        <ele>66.570053100586</ele>
        <time>2016-09-11T07:42:42.000Z</time>
      </trkpt>
      <trkpt lat="49.2005" lon="1.65598">
        <ele>66.491134643555</ele>
        <time>2016-09-11T07:42:44.000Z</time>
      </trkpt>
      <trkpt lat="49.20051" lon="1.65577">
        <ele>66.390434265137</ele>
        <time>2016-09-11T07:42:46.000Z</time>
      </trkpt>
      <trkpt lat="49.20047" lon="1.65557">
        <ele>66.246620178223</ele>
        <time>2016-09-11T07:42:49.000Z</time>
      </trkpt>
      <trkpt lat="49.20034" lon="1.65561">
        <ele>65.988143920898</ele>
        <time>2016-09-11T07:42:52.000Z</time>
      </trkpt>
      <trkpt lat="49.20025" lon="1.65572">
        <ele>65.58708190918</ele>
        <time>2016-09-11T07:42:54.000Z</time>
      </trkpt>
      <trkpt lat="49.20012" lon="1.65592">
        <ele>64.91552734375</ele>
        <time>2016-09-11T07:42:57.000Z</time>
      </trkpt>
      <trkpt lat="49.19999" lon="1.65608">
        <ele>64.025032043457</ele>
        <time>2016-09-11T07:43:00.000Z</time>
      </trkpt>
      <trkpt lat="49.19989" lon="1.6562">
        <ele>63.283355712891</ele>
        <time>2016-09-11T07:43:02.000Z</time>
      </trkpt>
      <trkpt lat="49.19979" lon="1.65631">
        <ele>62.77738571167</ele>
        <time>2016-09-11T07:43:04.000Z</time>
      </trkpt>
      <trkpt lat="49.19967" lon="1.65647">
        <ele>62.477344512939</ele>
        <time>2016-09-11T07:43:07.000Z</time>
      </trkpt>
      <trkpt lat="49.19958" lon="1.65658">
        <ele>62.451232910156</ele>
        <time>2016-09-11T07:43:09.000Z</time>
      </trkpt>
      <trkpt lat="49.19947" lon="1.65675">
        <ele>62.618095397949</ele>
        <time>2016-09-11T07:43:12.000Z</time>
      </trkpt>
      <trkpt lat="49.19939" lon="1.65687">
        <ele>62.653064727783</ele>
        <time>2016-09-11T07:43:14.000Z</time>
      </trkpt>
      <trkpt lat="49.19936" lon="1.65703">
        <ele>62.530067443848</ele>
        <time>2016-09-11T07:43:16.000Z</time>
      </trkpt>
      <trkpt lat="49.19929" lon="1.65726">
        <ele>62.197273254395</ele>
        <time>2016-09-11T07:43:19.000Z</time>
      </trkpt>
      <trkpt lat="49.19923" lon="1.65749">
        <ele>61.659229278564</ele>
        <time>2016-09-11T07:43:22.000Z</time>
      </trkpt>
      <trkpt lat="49.19918" lon="1.65771">
        <ele>61.230934143066</ele>
        <time>2016-09-11T07:43:25.000Z</time>
      </trkpt>
      <trkpt lat="49.19916" lon="1.65785">
        <ele>60.920825958252</ele>
        <time>2016-09-11T07:43:27.000Z</time>
      </trkpt>
      <trkpt lat="49.19913" lon="1.65798">
        <ele>60.865501403809</ele>
        <time>2016-09-11T07:43:29.000Z</time>
      </trkpt>
      <trkpt lat="49.19911" lon="1.65815">
        <ele>61.134895324707</ele>
        <time>2016-09-11T07:43:32.000Z</time>
      </trkpt>
      <trkpt lat="49.19907" lon="1.6583">
        <ele>61.794799804688</ele>
        <time>2016-09-11T07:43:35.000Z</time>
      </trkpt>
      <trkpt lat="49.19906" lon="1.65839">
        <ele>62.425659179688</ele>
        <time>2016-09-11T07:43:37.000Z</time>
      </trkpt>
      <trkpt lat="49.19903" lon="1.65854">
        <ele>63.078296661377</ele>
        <time>2016-09-11T07:43:40.000Z</time>
      </trkpt>
      <trkpt lat="49.19901" lon="1.65869">
        <ele>63.639625549316</ele>
        <time>2016-09-11T07:43:43.000Z</time>
      </trkpt>
      <trkpt lat="49.19899" lon="1.65878">
        <ele>64.104972839355</ele>
        <time>2016-09-11T07:43:45.000Z</time>
      </trkpt>
      <trkpt lat="49.19897" lon="1.65892">
        <ele>64.4501953125</ele>
        <time>2016-09-11T07:43:48.000Z</time>
      </trkpt>
      <trkpt lat="49.19896" lon="1.65901">
        <ele>64.767578125</ele>
        <time>2016-09-11T07:43:50.000Z</time>
      </trkpt>
      <trkpt lat="49.19895" lon="1.65915">
        <ele>65.0087890625</ele>
        <time>2016-09-11T07:43:53.000Z</time>
      </trkpt>
      <trkpt lat="49.19894" lon="1.65929">
        <ele>65.206115722656</ele>
        <time>2016-09-11T07:43:56.000Z</time>
      </trkpt>
      <trkpt lat="49.19893" lon="1.65943">
        <ele>65.374435424805</ele>
        <time>2016-09-11T07:43:59.000Z</time>
      </trkpt>
      <trkpt lat="49.19892" lon="1.65952">
        <ele>65.503929138184</ele>
        <time>2016-09-11T07:44:01.000Z</time>
      </trkpt>
      <trkpt lat="49.19891" lon="1.65966">
        <ele>65.661880493164</ele>
        <time>2016-09-11T07:44:04.000Z</time>
      </trkpt>
      <trkpt lat="49.1989" lon="1.65975">
        <ele>65.82266998291</ele>
        <time>2016-09-11T07:44:06.000Z</time>
      </trkpt>
      <trkpt lat="49.19889" lon="1.65984">
        <ele>65.993347167969</ele>
        <time>2016-09-11T07:44:08.000Z</time>
      </trkpt>
      <trkpt lat="49.19888" lon="1.65996">
        <ele>66.14501953125</ele>
        <time>2016-09-11T07:44:11.000Z</time>
      </trkpt>
      <trkpt lat="49.19888" lon="1.66005">
        <ele>66.348068237305</ele>
        <time>2016-09-11T07:44:13.000Z</time>
      </trkpt>
      <trkpt lat="49.19887" lon="1.66016">
        <ele>66.640586853027</ele>
        <time>2016-09-11T07:44:16.000Z</time>
      </trkpt>
      <trkpt lat="49.19886" lon="1.66024">
        <ele>66.995079040527</ele>
        <time>2016-09-11T07:44:18.000Z</time>
      </trkpt>
      <trkpt lat="49.19886" lon="1.66031">
        <ele>67.406517028809</ele>
        <time>2016-09-11T07:44:20.000Z</time>
      </trkpt>
      <trkpt lat="49.19886" lon="1.66041">
        <ele>67.9140625</ele>
        <time>2016-09-11T07:44:23.000Z</time>
      </trkpt>
      <trkpt lat="49.19885" lon="1.66051">
        <ele>68.4482421875</ele>
        <time>2016-09-11T07:44:26.000Z</time>
      </trkpt>
      <trkpt lat="49.19885" lon="1.6606">
        <ele>68.941772460938</ele>
        <time>2016-09-11T07:44:29.000Z</time>
      </trkpt>
      <trkpt lat="49.19884" lon="1.66069">
        <ele>69.462646484375</ele>
        <time>2016-09-11T07:44:32.000Z</time>
      </trkpt>
      <trkpt lat="49.19884" lon="1.66077">
        <ele>69.98193359375</ele>
        <time>2016-09-11T07:44:35.000Z</time>
      </trkpt>
      <trkpt lat="49.19884" lon="1.66087">
        <ele>70.490745544434</ele>
        <time>2016-09-11T07:44:38.000Z</time>
      </trkpt>
      <trkpt lat="49.19883" lon="1.66096">
        <ele>70.983772277832</ele>
        <time>2016-09-11T07:44:41.000Z</time>
      </trkpt>
      <trkpt lat="49.19882" lon="1.66105">
        <ele>71.495132446289</ele>
        <time>2016-09-11T07:44:44.000Z</time>
      </trkpt>
      <trkpt lat="49.19881" lon="1.66114">
        <ele>71.981567382812</ele>
        <time>2016-09-11T07:44:47.000Z</time>
      </trkpt>
      <trkpt lat="49.1988" lon="1.66124">
        <ele>72.51203918457</ele>
        <time>2016-09-11T07:44:50.000Z</time>
      </trkpt>
      <trkpt lat="49.1988" lon="1.66133">
        <ele>73.018058776855</ele>
        <time>2016-09-11T07:44:53.000Z</time>
      </trkpt>
      <trkpt lat="49.19879" lon="1.66143">
        <ele>73.582595825195</ele>
        <time>2016-09-11T07:44:56.000Z</time>
      </trkpt>
      <trkpt lat="49.19875" lon="1.66148">
        <ele>74.216255187988</ele>
        <time>2016-09-11T07:44:59.000Z</time>
      </trkpt>
      <trkpt lat="49.19871" lon="1.66146">
        <ele>74.904014587402</ele>
        <time>2016-09-11T07:45:01.000Z</time>
      </trkpt>
      <trkpt lat="49.19868" lon="1.6614">
        <ele>75.544387817383</ele>
        <time>2016-09-11T07:45:03.000Z</time>
      </trkpt>
      <trkpt lat="49.19864" lon="1.6613">
        <ele>76.165977478027</ele>
        <time>2016-09-11T07:45:06.000Z</time>
      </trkpt>
      <trkpt lat="49.1986" lon="1.66121">
        <ele>76.708778381348</ele>
        <time>2016-09-11T07:45:09.000Z</time>
      </trkpt>
      <trkpt lat="49.19857" lon="1.66114">
        <ele>77.146453857422</ele>
        <time>2016-09-11T07:45:12.000Z</time>
      </trkpt>
      <trkpt lat="49.19852" lon="1.66108">
        <ele>77.555847167969</ele>
        <time>2016-09-11T07:45:15.000Z</time>
      </trkpt>
      <trkpt lat="49.19849" lon="1.66104">
        <ele>77.973831176758</ele>
        <time>2016-09-11T07:45:17.000Z</time>
      </trkpt>
      <trkpt lat="49.19847" lon="1.661">
        <ele>78.396919250488</ele>
        <time>2016-09-11T07:45:19.000Z</time>
      </trkpt>
      <trkpt lat="49.19842" lon="1.66095">
        <ele>78.897026062012</ele>
        <time>2016-09-11T07:45:22.000Z</time>
      </trkpt>
      <trkpt lat="49.19836" lon="1.66091">
        <ele>79.494842529297</ele>
        <time>2016-09-11T07:45:25.000Z</time>
      </trkpt>
      <trkpt lat="49.19832" lon="1.6609">
        <ele>80.084922790527</ele>
        <time>2016-09-11T07:45:27.000Z</time>
      </trkpt>
      <trkpt lat="49.19826" lon="1.66088">
        <ele>80.658889770508</ele>
        <time>2016-09-11T07:45:30.000Z</time>
      </trkpt>
      <trkpt lat="49.19822" lon="1.66087">
        <ele>81.22826385498</ele>
        <time>2016-09-11T07:45:32.000Z</time>
      </trkpt>
      <trkpt lat="49.19818" lon="1.66085">
        <ele>81.697769165039</ele>
        <time>2016-09-11T07:45:34.000Z</time>
      </trkpt>
      <trkpt lat="49.19813" lon="1.66081">
        <ele>82.045547485352</ele>
        <time>2016-09-11T07:45:37.000Z</time>
      </trkpt>
      <trkpt lat="49.19807" lon="1.6608">
        <ele>82.370132446289</ele>
        <time>2016-09-11T07:45:40.000Z</time>
      </trkpt>
      <trkpt lat="49.19801" lon="1.66078">
        <ele>82.705154418945</ele>
        <time>2016-09-11T07:45:43.000Z</time>
      </trkpt>
      <trkpt lat="49.19796" lon="1.66076">
        <ele>83.06413269043</ele>
        <time>2016-09-11T07:45:46.000Z</time>
      </trkpt>
      <trkpt lat="49.1979" lon="1.66075">
        <ele>83.469848632812</ele>
        <time>2016-09-11T07:45:49.000Z</time>
      </trkpt>
      <trkpt lat="49.19786" lon="1.66075">
        <ele>83.891418457031</ele>
        <time>2016-09-11T07:45:51.000Z</time>
      </trkpt>
      <trkpt lat="49.1978" lon="1.66075">
        <ele>84.335159301758</ele>
        <time>2016-09-11T07:45:54.000Z</time>
      </trkpt>
      <trkpt lat="49.19776" lon="1.66076">
        <ele>84.763771057129</ele>
        <time>2016-09-11T07:45:56.000Z</time>
      </trkpt>
      <trkpt lat="49.19771" lon="1.66078">
        <ele>85.195693969727</ele>
        <time>2016-09-11T07:45:58.000Z</time>
      </trkpt>
      <trkpt lat="49.19764" lon="1.66081">
        <ele>85.684768676758</ele>
        <time>2016-09-11T07:46:01.000Z</time>
      </trkpt>
      <trkpt lat="49.19757" lon="1.66082">
        <ele>86.20768737793</ele>
        <time>2016-09-11T07:46:03.000Z</time>
      </trkpt>
      <trkpt lat="49.19748" lon="1.6608">
        <ele>86.736602783203</ele>
        <time>2016-09-11T07:46:06.000Z</time>
      </trkpt>
      <trkpt lat="49.19741" lon="1.66077">
        <ele>87.188079833984</ele>
        <time>2016-09-11T07:46:08.000Z</time>
      </trkpt>
      <trkpt lat="49.19731" lon="1.66076">
        <ele>87.557083129883</ele>
        <time>2016-09-11T07:46:11.000Z</time>
      </trkpt>
      <trkpt lat="49.19719" lon="1.6608">
        <ele>87.794502258301</ele>
        <time>2016-09-11T07:46:14.000Z</time>
      </trkpt>
      <trkpt lat="49.19706" lon="1.66088">
        <ele>87.904151916504</ele>
        <time>2016-09-11T07:46:17.000Z</time>
      </trkpt>
      <trkpt lat="49.19699" lon="1.661">
        <ele>87.822631835938</ele>
        <time>2016-09-11T07:46:19.000Z</time>
      </trkpt>
      <trkpt lat="49.19693" lon="1.66117">
        <ele>87.627807617188</ele>
        <time>2016-09-11T07:46:21.000Z</time>
      </trkpt>
      <trkpt lat="49.19691" lon="1.66147">
        <ele>87.21891784668</ele>
        <time>2016-09-11T07:46:24.000Z</time>
      </trkpt>
      <trkpt lat="49.19691" lon="1.6618">
        <ele>86.520729064941</ele>
        <time>2016-09-11T07:46:27.000Z</time>
      </trkpt>
      <trkpt lat="49.19691" lon="1.662">
        <ele>85.607360839844</ele>
        <time>2016-09-11T07:46:29.000Z</time>
      </trkpt>
      <trkpt lat="49.19691" lon="1.66221">
        <ele>84.540283203125</ele>
        <time>2016-09-11T07:46:31.000Z</time>
      </trkpt>
      <trkpt lat="49.19696" lon="1.66255">
        <ele>83.208648681641</ele>
        <time>2016-09-11T07:46:34.000Z</time>
      </trkpt>
      <trkpt lat="49.19698" lon="1.66282">
        <ele>81.651206970215</ele>
        <time>2016-09-11T07:46:37.000Z</time>
      </trkpt>
      <trkpt lat="49.1969" lon="1.6629">
        <ele>80.191909790039</ele>
        <time>2016-09-11T07:46:39.000Z</time>
      </trkpt>
      <trkpt lat="49.1968" lon="1.66295">
        <ele>78.845611572266</ele>
        <time>2016-09-11T07:46:41.000Z</time>
      </trkpt>
      <trkpt lat="49.19667" lon="1.66292">
        <ele>77.708740234375</ele>
        <time>2016-09-11T07:46:43.000Z</time>
      </trkpt>
      <trkpt lat="49.19628" lon="1.66288">
        <ele>76.550331115723</ele>
        <time>2016-09-11T07:46:47.000Z</time>
      </trkpt>
      <trkpt lat="49.19602" lon="1.66287">
        <ele>75.535140991211</ele>
        <time>2016-09-11T07:46:50.000Z</time>
      </trkpt>
      <trkpt lat="49.19574" lon="1.66278">
        <ele>74.429458618164</ele>
        <time>2016-09-11T07:46:53.000Z</time>
      </trkpt>
      <trkpt lat="49.19546" lon="1.66269">
        <ele>73.052711486816</ele>
        <time>2016-09-11T07:46:56.000Z</time>
      </trkpt>
      <trkpt lat="49.19518" lon="1.66262">
        <ele>71.259475708008</ele>
        <time>2016-09-11T07:46:59.000Z</time>
      </trkpt>
      <trkpt lat="49.19497" lon="1.66258">
        <ele>69.564712524414</ele>
        <time>2016-09-11T07:47:01.000Z</time>
      </trkpt>
      <trkpt lat="49.19464" lon="1.6625">
        <ele>67.843528747559</ele>
        <time>2016-09-11T07:47:04.000Z</time>
      </trkpt>
      <trkpt lat="49.19443" lon="1.66246">
        <ele>66.162208557129</ele>
        <time>2016-09-11T07:47:06.000Z</time>
      </trkpt>
      <trkpt lat="49.19423" lon="1.66241">
        <ele>64.68147277832</ele>
        <time>2016-09-11T07:47:08.000Z</time>
      </trkpt>
      <trkpt lat="49.19404" lon="1.66238">
        <ele>63.506519317627</ele>
        <time>2016-09-11T07:47:10.000Z</time>
      </trkpt>
      <trkpt lat="49.19376" lon="1.66235">
        <ele>62.487800598145</ele>
        <time>2016-09-11T07:47:13.000Z</time>
      </trkpt>
      <trkpt lat="49.19358" lon="1.66233">
        <ele>61.697887420654</ele>
        <time>2016-09-11T07:47:15.000Z</time>
      </trkpt>
      <trkpt lat="49.19333" lon="1.66227">
        <ele>61.029041290283</ele>
        <time>2016-09-11T07:47:18.000Z</time>
      </trkpt>
      <trkpt lat="49.19315" lon="1.66223">
        <ele>60.455707550049</ele>
        <time>2016-09-11T07:47:20.000Z</time>
      </trkpt>
      <trkpt lat="49.19298" lon="1.66217">
        <ele>59.921089172363</ele>
        <time>2016-09-11T07:47:22.000Z</time>
      </trkpt>
      <trkpt lat="49.19281" lon="1.66213">
        <ele>59.421161651611</ele>
        <time>2016-09-11T07:47:24.000Z</time>
      </trkpt>
      <trkpt lat="49.19255" lon="1.66208">
        <ele>58.792030334473</ele>
        <time>2016-09-11T07:47:27.000Z</time>
      </trkpt>
      <trkpt lat="49.19228" lon="1.66203">
        <ele>58.031379699707</ele>
        <time>2016-09-11T07:47:30.000Z</time>
      </trkpt>
      <trkpt lat="49.19211" lon="1.66204">
        <ele>57.158081054688</ele>
        <time>2016-09-11T07:47:32.000Z</time>
      </trkpt>
      <trkpt lat="49.19185" lon="1.66198">
        <ele>56.142539978027</ele>
        <time>2016-09-11T07:47:35.000Z</time>
      </trkpt>
      <trkpt lat="49.1916" lon="1.6619">
        <ele>55.032665252686</ele>
        <time>2016-09-11T07:47:38.000Z</time>
      </trkpt>
      <trkpt lat="49.19145" lon="1.66187">
        <ele>54.009368896484</ele>
        <time>2016-09-11T07:47:40.000Z</time>
      </trkpt>
      <trkpt lat="49.1912" lon="1.66176">
        <ele>53.053203582764</ele>
        <time>2016-09-11T07:47:43.000Z</time>
      </trkpt>
      <trkpt lat="49.19103" lon="1.66171">
        <ele>52.192024230957</ele>
        <time>2016-09-11T07:47:45.000Z</time>
      </trkpt>
      <trkpt lat="49.19078" lon="1.66159">
        <ele>51.390403747559</ele>
        <time>2016-09-11T07:47:48.000Z</time>
      </trkpt>
      <trkpt lat="49.1906" lon="1.66148">
        <ele>50.629272460938</ele>
        <time>2016-09-11T07:47:50.000Z</time>
      </trkpt>
      <trkpt lat="49.19032" lon="1.66131">
        <ele>49.751914978027</ele>
        <time>2016-09-11T07:47:53.000Z</time>
      </trkpt>
      <trkpt lat="49.19012" lon="1.66125">
        <ele>48.839378356934</ele>
        <time>2016-09-11T07:47:55.000Z</time>
      </trkpt>
      <trkpt lat="49.18988" lon="1.66112">
        <ele>48.011341094971</ele>
        <time>2016-09-11T07:47:58.000Z</time>
      </trkpt>
      <trkpt lat="49.18969" lon="1.661">
        <ele>47.505348205566</ele>
        <time>2016-09-11T07:48:01.000Z</time>
      </trkpt>
      <trkpt lat="49.1896" lon="1.66091">
        <ele>47.257713317871</ele>
        <time>2016-09-11T07:48:03.000Z</time>
      </trkpt>
      <trkpt lat="49.18948" lon="1.66071">
        <ele>47.408458709717</ele>
        <time>2016-09-11T07:48:06.000Z</time>
      </trkpt>
      <trkpt lat="49.18941" lon="1.66063">
        <ele>47.835266113281</ele>
        <time>2016-09-11T07:48:08.000Z</time>
      </trkpt>
      <trkpt lat="49.18933" lon="1.66061">
        <ele>48.342468261719</ele>
        <time>2016-09-11T07:48:10.000Z</time>
      </trkpt>
      <trkpt lat="49.18921" lon="1.66057">
        <ele>48.776794433594</ele>
        <time>2016-09-11T07:48:13.000Z</time>
      </trkpt>
      <trkpt lat="49.18914" lon="1.66048">
        <ele>49.221103668213</ele>
        <time>2016-09-11T07:48:16.000Z</time>
      </trkpt>
      <trkpt lat="49.18905" lon="1.66043">
        <ele>49.635936737061</ele>
        <time>2016-09-11T07:48:19.000Z</time>
      </trkpt>
      <trkpt lat="49.18896" lon="1.66036">
        <ele>50.115814208984</ele>
        <time>2016-09-11T07:48:22.000Z</time>
      </trkpt>
      <trkpt lat="49.18888" lon="1.66031">
        <ele>50.659912109375</ele>
        <time>2016-09-11T07:48:25.000Z</time>
      </trkpt>
      <trkpt lat="49.18882" lon="1.66027">
        <ele>51.213012695312</ele>
        <time>2016-09-11T07:48:27.000Z</time>
      </trkpt>
      <trkpt lat="49.18875" lon="1.66021">
        <ele>51.783191680908</ele>
        <time>2016-09-11T07:48:30.000Z</time>
      </trkpt>
      <trkpt lat="49.18871" lon="1.66017">
        <ele>52.312614440918</ele>
        <time>2016-09-11T07:48:32.000Z</time>
      </trkpt>
      <trkpt lat="49.18866" lon="1.66013">
        <ele>52.785327911377</ele>
        <time>2016-09-11T07:48:34.000Z</time>
      </trkpt>
      <trkpt lat="49.18858" lon="1.66006">
        <ele>53.279590606689</ele>
        <time>2016-09-11T07:48:37.000Z</time>
      </trkpt>
      <trkpt lat="49.18851" lon="1.65999">
        <ele>53.812591552734</ele>
        <time>2016-09-11T07:48:40.000Z</time>
      </trkpt>
      <trkpt lat="49.18847" lon="1.65996">
        <ele>54.297660827637</ele>
        <time>2016-09-11T07:48:42.000Z</time>
      </trkpt>
      <trkpt lat="49.18842" lon="1.65992">
        <ele>54.772529602051</ele>
        <time>2016-09-11T07:48:44.000Z</time>
      </trkpt>
      <trkpt lat="49.18835" lon="1.65988">
        <ele>55.25736618042</ele>
        <time>2016-09-11T07:48:47.000Z</time>
      </trkpt>
      <trkpt lat="49.1883" lon="1.65986">
        <ele>55.629112243652</ele>
        <time>2016-09-11T07:48:49.000Z</time>
      </trkpt>
      <trkpt lat="49.18823" lon="1.65979">
        <ele>55.911975860596</ele>
        <time>2016-09-11T07:48:52.000Z</time>
      </trkpt>
      <trkpt lat="49.18818" lon="1.65976">
        <ele>56.154335021973</ele>
        <time>2016-09-11T07:48:54.000Z</time>
      </trkpt>
      <trkpt lat="49.1881" lon="1.65973">
        <ele>56.367469787598</ele>
        <time>2016-09-11T07:48:57.000Z</time>
      </trkpt>
      <trkpt lat="49.18801" lon="1.6597">
        <ele>56.532066345215</ele>
        <time>2016-09-11T07:49:00.000Z</time>
      </trkpt>
      <trkpt lat="49.18794" lon="1.65967">
        <ele>56.719646453857</ele>
        <time>2016-09-11T07:49:03.000Z</time>
      </trkpt>
      <trkpt lat="49.18789" lon="1.65965">
        <ele>56.910301208496</ele>
        <time>2016-09-11T07:49:05.000Z</time>
      </trkpt>
      <trkpt lat="49.18781" lon="1.65961">
        <ele>57.138122558594</ele>
        <time>2016-09-11T07:49:08.000Z</time>
      </trkpt>
      <trkpt lat="49.18773" lon="1.65958">
        <ele>57.394660949707</ele>
        <time>2016-09-11T07:49:11.000Z</time>
      </trkpt>
      <trkpt lat="49.18768" lon="1.65956">
        <ele>57.655170440674</ele>
        <time>2016-09-11T07:49:13.000Z</time>
      </trkpt>
      <trkpt lat="49.1876" lon="1.65953">
        <ele>57.942253112793</ele>
        <time>2016-09-11T07:49:16.000Z</time>
      </trkpt>
      <trkpt lat="49.18755" lon="1.6595">
        <ele>58.245819091797</ele>
        <time>2016-09-11T07:49:18.000Z</time>
      </trkpt>
      <trkpt lat="49.18747" lon="1.65947">
        <ele>58.556571960449</ele>
        <time>2016-09-11T07:49:21.000Z</time>
      </trkpt>
      <trkpt lat="49.1874" lon="1.65943">
        <ele>58.854869842529</ele>
        <time>2016-09-11T07:49:24.000Z</time>
      </trkpt>
      <trkpt lat="49.18734" lon="1.6594">
        <ele>59.146076202393</ele>
        <time>2016-09-11T07:49:26.000Z</time>
      </trkpt>
      <trkpt lat="49.18726" lon="1.65937">
        <ele>59.41918182373</ele>
        <time>2016-09-11T07:49:29.000Z</time>
      </trkpt>
      <trkpt lat="49.18718" lon="1.65934">
        <ele>59.693244934082</ele>
        <time>2016-09-11T07:49:32.000Z</time>
      </trkpt>
      <trkpt lat="49.18709" lon="1.6593">
        <ele>59.960163116455</ele>
        <time>2016-09-11T07:49:35.000Z</time>
      </trkpt>
      <trkpt lat="49.187" lon="1.65926">
        <ele>60.2412109375</ele>
        <time>2016-09-11T07:49:38.000Z</time>
      </trkpt>
      <trkpt lat="49.18692" lon="1.65923">
        <ele>60.550804138184</ele>
        <time>2016-09-11T07:49:41.000Z</time>
      </trkpt>
      <trkpt lat="49.18683" lon="1.65918">
        <ele>60.894763946533</ele>
        <time>2016-09-11T07:49:44.000Z</time>
      </trkpt>
      <trkpt lat="49.18674" lon="1.65914">
        <ele>61.266288757324</ele>
        <time>2016-09-11T07:49:47.000Z</time>
      </trkpt>
      <trkpt lat="49.18665" lon="1.6591">
        <ele>61.650501251221</ele>
        <time>2016-09-11T07:49:50.000Z</time>
      </trkpt>
      <trkpt lat="49.18655" lon="1.65905">
        <ele>61.986927032471</ele>
        <time>2016-09-11T07:49:53.000Z</time>
      </trkpt>
      <trkpt lat="49.18646" lon="1.65901">
        <ele>62.274974822998</ele>
        <time>2016-09-11T07:49:56.000Z</time>
      </trkpt>
      <trkpt lat="49.1864" lon="1.65898">
        <ele>62.485584259033</ele>
        <time>2016-09-11T07:49:58.000Z</time>
      </trkpt>
      <trkpt lat="49.18633" lon="1.65894">
        <ele>62.631286621094</ele>
        <time>2016-09-11T07:50:00.000Z</time>
      </trkpt>
      <trkpt lat="49.18627" lon="1.65891">
        <ele>62.716735839844</ele>
        <time>2016-09-11T07:50:02.000Z</time>
      </trkpt>
      <trkpt lat="49.18618" lon="1.65887">
        <ele>62.800537109375</ele>
        <time>2016-09-11T07:50:05.000Z</time>
      </trkpt>
      <trkpt lat="49.18612" lon="1.65884">
        <ele>62.879638671875</ele>
        <time>2016-09-11T07:50:07.000Z</time>
      </trkpt>
      <trkpt lat="49.18602" lon="1.65879">
        <ele>62.964233398438</ele>
        <time>2016-09-11T07:50:10.000Z</time>
      </trkpt>
      <trkpt lat="49.18592" lon="1.65875">
        <ele>63.046813964844</ele>
        <time>2016-09-11T07:50:13.000Z</time>
      </trkpt>
      <trkpt lat="49.18584" lon="1.65871">
        <ele>63.131286621094</ele>
        <time>2016-09-11T07:50:15.000Z</time>
      </trkpt>
      <trkpt lat="49.18573" lon="1.65866">
        <ele>63.249656677246</ele>
        <time>2016-09-11T07:50:18.000Z</time>
      </trkpt>
      <trkpt lat="49.18566" lon="1.65862">
        <ele>63.394031524658</ele>
        <time>2016-09-11T07:50:20.000Z</time>
      </trkpt>
      <trkpt lat="49.1856" lon="1.65857">
        <ele>63.567394256592</ele>
        <time>2016-09-11T07:50:22.000Z</time>
      </trkpt>
      <trkpt lat="49.18552" lon="1.65852">
        <ele>63.778053283691</ele>
        <time>2016-09-11T07:50:25.000Z</time>
      </trkpt>
      <trkpt lat="49.18548" lon="1.65849">
        <ele>64.006713867188</ele>
        <time>2016-09-11T07:50:27.000Z</time>
      </trkpt>
      <trkpt lat="49.18548" lon="1.65839">
        <ele>64.321166992188</ele>
        <time>2016-09-11T07:50:30.000Z</time>
      </trkpt>
      <trkpt lat="49.18554" lon="1.65835">
        <ele>64.673095703125</ele>
        <time>2016-09-11T07:50:32.000Z</time>
      </trkpt>
      <trkpt lat="49.18559" lon="1.65832">
        <ele>65.031433105469</ele>
        <time>2016-09-11T07:50:34.000Z</time>
      </trkpt>
      <trkpt lat="49.18567" lon="1.65826">
        <ele>65.440002441406</ele>
        <time>2016-09-11T07:50:37.000Z</time>
      </trkpt>
      <trkpt lat="49.18571" lon="1.65822">
        <ele>65.890258789062</ele>
        <time>2016-09-11T07:50:39.000Z</time>
      </trkpt>
      <trkpt lat="49.18577" lon="1.65815">
        <ele>66.315124511719</ele>
        <time>2016-09-11T07:50:42.000Z</time>
      </trkpt>
      <trkpt lat="49.18581" lon="1.6581">
        <ele>66.737731933594</ele>
        <time>2016-09-11T07:50:44.000Z</time>
      </trkpt>
      <trkpt lat="49.18586" lon="1.65803">
        <ele>67.22501373291</ele>
        <time>2016-09-11T07:50:47.000Z</time>
      </trkpt>
      <trkpt lat="49.1859" lon="1.65798">
        <ele>67.690101623535</ele>
        <time>2016-09-11T07:50:49.000Z</time>
      </trkpt>
      <trkpt lat="49.18595" lon="1.65791">
        <ele>68.198081970215</ele>
        <time>2016-09-11T07:50:52.000Z</time>
      </trkpt>
      <trkpt lat="49.186" lon="1.65785">
        <ele>68.702224731445</ele>
        <time>2016-09-11T07:50:55.000Z</time>
      </trkpt>
      <trkpt lat="49.18603" lon="1.65781">
        <ele>69.199165344238</ele>
        <time>2016-09-11T07:50:57.000Z</time>
      </trkpt>
      <trkpt lat="49.18608" lon="1.65774">
        <ele>69.679565429688</ele>
        <time>2016-09-11T07:51:00.000Z</time>
      </trkpt>
      <trkpt lat="49.18612" lon="1.65768">
        <ele>70.17423248291</ele>
        <time>2016-09-11T07:51:03.000Z</time>
      </trkpt>
      <trkpt lat="49.18615" lon="1.65762">
        <ele>70.63801574707</ele>
        <time>2016-09-11T07:51:06.000Z</time>
      </trkpt>
      <trkpt lat="49.18619" lon="1.65757">
        <ele>71.075119018555</ele>
        <time>2016-09-11T07:51:09.000Z</time>
      </trkpt>
      <trkpt lat="49.18621" lon="1.65753">
        <ele>71.500534057617</ele>
        <time>2016-09-11T07:51:11.000Z</time>
      </trkpt>
      <trkpt lat="49.18625" lon="1.65748">
        <ele>71.908424377441</ele>
        <time>2016-09-11T07:51:14.000Z</time>
      </trkpt>
      <trkpt lat="49.18629" lon="1.65742">
        <ele>72.321739196777</ele>
        <time>2016-09-11T07:51:17.000Z</time>
      </trkpt>
      <trkpt lat="49.18631" lon="1.65738">
        <ele>72.705947875977</ele>
        <time>2016-09-11T07:51:19.000Z</time>
      </trkpt>
      <trkpt lat="49.18634" lon="1.65732">
        <ele>73.086372375488</ele>
        <time>2016-09-11T07:51:22.000Z</time>
      </trkpt>
      <trkpt lat="49.18638" lon="1.65727">
        <ele>73.487670898438</ele>
        <time>2016-09-11T07:51:25.000Z</time>
      </trkpt>
      <trkpt lat="49.18641" lon="1.65723">
        <ele>73.846542358398</ele>
        <time>2016-09-11T07:51:27.000Z</time>
      </trkpt>
      <trkpt lat="49.18644" lon="1.65717">
        <ele>74.179382324219</ele>
        <time>2016-09-11T07:51:30.000Z</time>
      </trkpt>
      <trkpt lat="49.18647" lon="1.65712">
        <ele>74.507232666016</ele>
        <time>2016-09-11T07:51:32.000Z</time>
      </trkpt>
      <trkpt lat="49.18648" lon="1.65703">
        <ele>74.860946655273</ele>
        <time>2016-09-11T07:51:35.000Z</time>
      </trkpt>
      <trkpt lat="49.18648" lon="1.65696">
        <ele>75.225784301758</ele>
        <time>2016-09-11T07:51:38.000Z</time>
      </trkpt>
      <trkpt lat="49.18647" lon="1.6569">
        <ele>75.629981994629</ele>
        <time>2016-09-11T07:51:41.000Z</time>
      </trkpt>
      <trkpt lat="49.18647" lon="1.65683">
        <ele>76.0419921875</ele>
        <time>2016-09-11T07:51:44.000Z</time>
      </trkpt>
      <trkpt lat="49.18647" lon="1.65679">
        <ele>76.45849609375</ele>
        <time>2016-09-11T07:51:46.000Z</time>
      </trkpt>
      <trkpt lat="49.18646" lon="1.65673">
        <ele>76.853164672852</ele>
        <time>2016-09-11T07:51:49.000Z</time>
      </trkpt>
      <trkpt lat="49.18645" lon="1.65666">
        <ele>77.257339477539</ele>
        <time>2016-09-11T07:51:52.000Z</time>
      </trkpt>
      <trkpt lat="49.18645" lon="1.65661">
        <ele>77.673538208008</ele>
        <time>2016-09-11T07:51:54.000Z</time>
      </trkpt>
      <trkpt lat="49.18644" lon="1.65653">
        <ele>78.145889282227</ele>
        <time>2016-09-11T07:51:57.000Z</time>
      </trkpt>
      <trkpt lat="49.18643" lon="1.65645">
        <ele>78.691970825195</ele>
        <time>2016-09-11T07:52:00.000Z</time>
      </trkpt>
      <trkpt lat="49.18642" lon="1.6564">
        <ele>79.241119384766</ele>
        <time>2016-09-11T07:52:02.000Z</time>
      </trkpt>
      <trkpt lat="49.18642" lon="1.65636">
        <ele>79.779357910156</ele>
        <time>2016-09-11T07:52:04.000Z</time>
      </trkpt>
      <trkpt lat="49.18641" lon="1.65628">
        <ele>80.359954833984</ele>
        <time>2016-09-11T07:52:07.000Z</time>
      </trkpt>
      <trkpt lat="49.18639" lon="1.65624">
        <ele>80.894683837891</ele>
        <time>2016-09-11T07:52:09.000Z</time>
      </trkpt>
      <trkpt lat="49.18638" lon="1.65619">
        <ele>81.384185791016</ele>
        <time>2016-09-11T07:52:11.000Z</time>
      </trkpt>
      <trkpt lat="49.18636" lon="1.65613">
        <ele>81.904205322266</ele>
        <time>2016-09-11T07:52:14.000Z</time>
      </trkpt>
      <trkpt lat="49.18634" lon="1.65607">
        <ele>82.468688964844</ele>
        <time>2016-09-11T07:52:17.000Z</time>
      </trkpt>
      <trkpt lat="49.18633" lon="1.65603">
        <ele>82.974853515625</ele>
        <time>2016-09-11T07:52:19.000Z</time>
      </trkpt>
      <trkpt lat="49.18632" lon="1.65599">
        <ele>83.467132568359</ele>
        <time>2016-09-11T07:52:21.000Z</time>
      </trkpt>
      <trkpt lat="49.1863" lon="1.65594">
        <ele>83.973571777344</ele>
        <time>2016-09-11T07:52:24.000Z</time>
      </trkpt>
      <trkpt lat="49.18628" lon="1.65588">
        <ele>84.465484619141</ele>
        <time>2016-09-11T07:52:27.000Z</time>
      </trkpt>
      <trkpt lat="49.18627" lon="1.65585">
        <ele>84.89697265625</ele>
        <time>2016-09-11T07:52:29.000Z</time>
      </trkpt>
      <trkpt lat="49.18625" lon="1.6558">
        <ele>85.349815368652</ele>
        <time>2016-09-11T07:52:32.000Z</time>
      </trkpt>
      <trkpt lat="49.18623" lon="1.65575">
        <ele>85.823890686035</ele>
        <time>2016-09-11T07:52:35.000Z</time>
      </trkpt>
      <trkpt lat="49.18622" lon="1.65571">
        <ele>86.25617980957</ele>
        <time>2016-09-11T07:52:37.000Z</time>
      </trkpt>
      <trkpt lat="49.18621" lon="1.65568">
        <ele>86.648414611816</ele>
        <time>2016-09-11T07:52:39.000Z</time>
      </trkpt>
      <trkpt lat="49.18621" lon="1.65563">
        <ele>87.046401977539</ele>
        <time>2016-09-11T07:52:42.000Z</time>
      </trkpt>
      <trkpt lat="49.18621" lon="1.65558">
        <ele>87.426475524902</ele>
        <time>2016-09-11T07:52:45.000Z</time>
      </trkpt>
      <trkpt lat="49.1862" lon="1.65554">
        <ele>87.776336669922</ele>
        <time>2016-09-11T07:52:47.000Z</time>
      </trkpt>
      <trkpt lat="49.18619" lon="1.6555">
        <ele>88.141502380371</ele>
        <time>2016-09-11T07:52:49.000Z</time>
      </trkpt>
      <trkpt lat="49.18617" lon="1.65544">
        <ele>88.548873901367</ele>
        <time>2016-09-11T07:52:52.000Z</time>
      </trkpt>
      <trkpt lat="49.18615" lon="1.6554">
        <ele>88.951126098633</ele>
        <time>2016-09-11T07:52:54.000Z</time>
      </trkpt>
      <trkpt lat="49.18613" lon="1.65537">
        <ele>89.339744567871</ele>
        <time>2016-09-11T07:52:56.000Z</time>
      </trkpt>
      <trkpt lat="49.18611" lon="1.65532">
        <ele>89.757751464844</ele>
        <time>2016-09-11T07:52:59.000Z</time>
      </trkpt>
      <trkpt lat="49.18609" lon="1.65528">
        <ele>90.170570373535</ele>
        <time>2016-09-11T07:53:01.000Z</time>
      </trkpt>
      <trkpt lat="49.18607" lon="1.65523">
        <ele>90.574317932129</ele>
        <time>2016-09-11T07:53:04.000Z</time>
      </trkpt>
      <trkpt lat="49.18605" lon="1.6552">
        <ele>90.964225769043</ele>
        <time>2016-09-11T07:53:06.000Z</time>
      </trkpt>
      <trkpt lat="49.18602" lon="1.65516">
        <ele>91.37134552002</ele>
        <time>2016-09-11T07:53:09.000Z</time>
      </trkpt>
      <trkpt lat="49.18599" lon="1.65512">
        <ele>91.756629943848</ele>
        <time>2016-09-11T07:53:12.000Z</time>
      </trkpt>
      <trkpt lat="49.18595" lon="1.65509">
        <ele>92.148506164551</ele>
        <time>2016-09-11T07:53:15.000Z</time>
      </trkpt>
      <trkpt lat="49.18592" lon="1.65505">
        <ele>92.52262878418</ele>
        <time>2016-09-11T07:53:18.000Z</time>
      </trkpt>
      <trkpt lat="49.18589" lon="1.65503">
        <ele>92.893882751465</ele>
        <time>2016-09-11T07:53:20.000Z</time>
      </trkpt>
      <trkpt lat="49.18586" lon="1.65501">
        <ele>93.236366271973</ele>
        <time>2016-09-11T07:53:22.000Z</time>
      </trkpt>
      <trkpt lat="49.18582" lon="1.65497">
        <ele>93.568222045898</ele>
        <time>2016-09-11T07:53:25.000Z</time>
      </trkpt>
      <trkpt lat="49.18579" lon="1.65494">
        <ele>93.862754821777</ele>
        <time>2016-09-11T07:53:28.000Z</time>
      </trkpt>
      <trkpt lat="49.18575" lon="1.65491">
        <ele>94.116996765137</ele>
        <time>2016-09-11T07:53:31.000Z</time>
      </trkpt>
      <trkpt lat="49.18572" lon="1.65488">
        <ele>94.349464416504</ele>
        <time>2016-09-11T07:53:33.000Z</time>
      </trkpt>
      <trkpt lat="49.18567" lon="1.65483">
        <ele>94.562759399414</ele>
        <time>2016-09-11T07:53:36.000Z</time>
      </trkpt>
      <trkpt lat="49.18565" lon="1.65481">
        <ele>94.734313964844</ele>
        <time>2016-09-11T07:53:38.000Z</time>
      </trkpt>
      <trkpt lat="49.18562" lon="1.65478">
        <ele>94.898170471191</ele>
        <time>2016-09-11T07:53:40.000Z</time>
      </trkpt>
      <trkpt lat="49.18558" lon="1.65473">
        <ele>95.070686340332</ele>
        <time>2016-09-11T07:53:43.000Z</time>
      </trkpt>
      <trkpt lat="49.18555" lon="1.6547">
        <ele>95.236526489258</ele>
        <time>2016-09-11T07:53:45.000Z</time>
      </trkpt>
      <trkpt lat="49.18552" lon="1.65467">
        <ele>95.39778137207</ele>
        <time>2016-09-11T07:53:47.000Z</time>
      </trkpt>
      <trkpt lat="49.18547" lon="1.65461">
        <ele>95.582992553711</ele>
        <time>2016-09-11T07:53:50.000Z</time>
      </trkpt>
      <trkpt lat="49.18542" lon="1.65455">
        <ele>95.794784545898</ele>
        <time>2016-09-11T07:53:53.000Z</time>
      </trkpt>
      <trkpt lat="49.18538" lon="1.65449">
        <ele>96.017219543457</ele>
        <time>2016-09-11T07:53:56.000Z</time>
      </trkpt>
      <trkpt lat="49.18535" lon="1.65445">
        <ele>96.239303588867</ele>
        <time>2016-09-11T07:53:58.000Z</time>
      </trkpt>
      <trkpt lat="49.1853" lon="1.65439">
        <ele>96.476997375488</ele>
        <time>2016-09-11T07:54:01.000Z</time>
      </trkpt>
      <trkpt lat="49.18526" lon="1.65432">
        <ele>96.729568481445</ele>
        <time>2016-09-11T07:54:04.000Z</time>
      </trkpt>
      <trkpt lat="49.18521" lon="1.65423">
        <ele>96.995445251465</ele>
        <time>2016-09-11T07:54:07.000Z</time>
      </trkpt>
      <trkpt lat="49.18519" lon="1.65417">
        <ele>97.259239196777</ele>
        <time>2016-09-11T07:54:09.000Z</time>
      </trkpt>
      <trkpt lat="49.18514" lon="1.65409">
        <ele>97.60563659668</ele>
        <time>2016-09-11T07:54:12.000Z</time>
      </trkpt>
      <trkpt lat="49.18513" lon="1.65402">
        <ele>98.019554138184</ele>
        <time>2016-09-11T07:54:15.000Z</time>
      </trkpt>
      <trkpt lat="49.18512" lon="1.65393">
        <ele>98.535140991211</ele>
        <time>2016-09-11T07:54:18.000Z</time>
      </trkpt>
      <trkpt lat="49.18512" lon="1.65387">
        <ele>99.096450805664</ele>
        <time>2016-09-11T07:54:20.000Z</time>
      </trkpt>
      <trkpt lat="49.1851" lon="1.65376">
        <ele>99.790420532227</ele>
        <time>2016-09-11T07:54:23.000Z</time>
      </trkpt>
      <trkpt lat="49.18509" lon="1.65365">
        <ele>100.56531524658</ele>
        <time>2016-09-11T07:54:26.000Z</time>
      </trkpt>
      <trkpt lat="49.18509" lon="1.65354">
        <ele>101.44073486328</ele>
        <time>2016-09-11T07:54:29.000Z</time>
      </trkpt>
      <trkpt lat="49.18508" lon="1.65347">
        <ele>102.28206634521</ele>
        <time>2016-09-11T07:54:31.000Z</time>
      </trkpt>
      <trkpt lat="49.18509" lon="1.65337">
        <ele>103.18957519531</ele>
        <time>2016-09-11T07:54:34.000Z</time>
      </trkpt>
      <trkpt lat="49.1851" lon="1.65331">
        <ele>104.01564788818</ele>
        <time>2016-09-11T07:54:36.000Z</time>
      </trkpt>
      <trkpt lat="49.1851" lon="1.65323">
        <ele>104.73240661621</ele>
        <time>2016-09-11T07:54:39.000Z</time>
      </trkpt>
      <trkpt lat="49.18509" lon="1.65318">
        <ele>105.27363586426</ele>
        <time>2016-09-11T07:54:41.000Z</time>
      </trkpt>
      <trkpt lat="49.18508" lon="1.65312">
        <ele>105.73582458496</ele>
        <time>2016-09-11T07:54:43.000Z</time>
      </trkpt>
      <trkpt lat="49.18508" lon="1.65307">
        <ele>106.06904602051</ele>
        <time>2016-09-11T07:54:45.000Z</time>
      </trkpt>
      <trkpt lat="49.18508" lon="1.65298">
        <ele>106.38130950928</ele>
        <time>2016-09-11T07:54:48.000Z</time>
      </trkpt>
      <trkpt lat="49.18507" lon="1.65288">
        <ele>106.6999130249</ele>
        <time>2016-09-11T07:54:51.000Z</time>
      </trkpt>
      <trkpt lat="49.18507" lon="1.65276">
        <ele>107.09465026855</ele>
        <time>2016-09-11T07:54:54.000Z</time>
      </trkpt>
      <trkpt lat="49.18506" lon="1.6527">
        <ele>107.49664306641</ele>
        <time>2016-09-11T07:54:56.000Z</time>
      </trkpt>
      <trkpt lat="49.18505" lon="1.6526">
        <ele>107.93144226074</ele>
        <time>2016-09-11T07:54:59.000Z</time>
      </trkpt>
      <trkpt lat="49.18504" lon="1.65254">
        <ele>108.31742095947</ele>
        <time>2016-09-11T07:55:01.000Z</time>
      </trkpt>
      <trkpt lat="49.18503" lon="1.65248">
        <ele>108.65869140625</ele>
        <time>2016-09-11T07:55:03.000Z</time>
      </trkpt>
      <trkpt lat="49.18505" lon="1.65237">
        <ele>108.92971038818</ele>
        <time>2016-09-11T07:55:06.000Z</time>
      </trkpt>
      <trkpt lat="49.18505" lon="1.65227">
        <ele>109.1642074585</ele>
        <time>2016-09-11T07:55:08.000Z</time>
      </trkpt>
      <trkpt lat="49.18504" lon="1.65214">
        <ele>109.3321762085</ele>
        <time>2016-09-11T07:55:11.000Z</time>
      </trkpt>
      <trkpt lat="49.18504" lon="1.65206">
        <ele>109.47812652588</ele>
        <time>2016-09-11T07:55:13.000Z</time>
      </trkpt>
      <trkpt lat="49.18504" lon="1.65193">
        <ele>109.61428070068</ele>
        <time>2016-09-11T07:55:16.000Z</time>
      </trkpt>
      <trkpt lat="49.18504" lon="1.65185">
        <ele>109.72585296631</ele>
        <time>2016-09-11T07:55:18.000Z</time>
      </trkpt>
      <trkpt lat="49.18504" lon="1.65177">
        <ele>109.83410644531</ele>
        <time>2016-09-11T07:55:20.000Z</time>
      </trkpt>
      <trkpt lat="49.18504" lon="1.65167">
        <ele>109.95070648193</ele>
        <time>2016-09-11T07:55:23.000Z</time>
      </trkpt>
      <trkpt lat="49.18504" lon="1.65161">
        <ele>110.09150695801</ele>
        <time>2016-09-11T07:55:25.000Z</time>
      </trkpt>
      <trkpt lat="49.18503" lon="1.6515">
        <ele>110.27160644531</ele>
        <time>2016-09-11T07:55:28.000Z</time>
      </trkpt>
      <trkpt lat="49.18503" lon="1.6514">
        <ele>110.49543762207</ele>
        <time>2016-09-11T07:55:30.000Z</time>
      </trkpt>
      <trkpt lat="49.18502" lon="1.65126">
        <ele>110.79508972168</ele>
        <time>2016-09-11T07:55:33.000Z</time>
      </trkpt>
      <trkpt lat="49.18501" lon="1.65118">
        <ele>111.11862945557</ele>
        <time>2016-09-11T07:55:35.000Z</time>
      </trkpt>
      <trkpt lat="49.18498" lon="1.65108">
        <ele>111.39514160156</ele>
        <time>2016-09-11T07:55:38.000Z</time>
      </trkpt>
      <trkpt lat="49.18495" lon="1.65096">
        <ele>111.6109161377</ele>
        <time>2016-09-11T07:55:41.000Z</time>
      </trkpt>
      <trkpt lat="49.18494" lon="1.65087">
        <ele>111.78419494629</ele>
        <time>2016-09-11T07:55:43.000Z</time>
      </trkpt>
      <trkpt lat="49.18495" lon="1.6507">
        <ele>112.01682281494</ele>
        <time>2016-09-11T07:55:46.000Z</time>
      </trkpt>
      <trkpt lat="49.18497" lon="1.6506">
        <ele>112.32902526855</ele>
        <time>2016-09-11T07:55:48.000Z</time>
      </trkpt>
      <trkpt lat="49.18498" lon="1.65043">
        <ele>112.79443359375</ele>
        <time>2016-09-11T07:55:51.000Z</time>
      </trkpt>
      <trkpt lat="49.18496" lon="1.6502">
        <ele>113.36678314209</ele>
        <time>2016-09-11T07:55:54.000Z</time>
      </trkpt>
      <trkpt lat="49.18495" lon="1.65006">
        <ele>113.97431945801</ele>
        <time>2016-09-11T07:55:56.000Z</time>
      </trkpt>
      <trkpt lat="49.18494" lon="1.64997">
        <ele>114.48215484619</ele>
        <time>2016-09-11T07:55:58.000Z</time>
      </trkpt>
      <trkpt lat="49.18495" lon="1.6498">
        <ele>115.00168609619</ele>
        <time>2016-09-11T07:56:01.000Z</time>
      </trkpt>
      <trkpt lat="49.18498" lon="1.6497">
        <ele>115.52610015869</ele>
        <time>2016-09-11T07:56:03.000Z</time>
      </trkpt>
      <trkpt lat="49.18499" lon="1.64958">
        <ele>116.07011413574</ele>
        <time>2016-09-11T07:56:05.000Z</time>
      </trkpt>
      <trkpt lat="49.18502" lon="1.6494">
        <ele>116.73112487793</ele>
        <time>2016-09-11T07:56:08.000Z</time>
      </trkpt>
      <trkpt lat="49.18504" lon="1.64925">
        <ele>117.45922851562</ele>
        <time>2016-09-11T07:56:11.000Z</time>
      </trkpt>
      <trkpt lat="49.18504" lon="1.64914">
        <ele>118.12077331543</ele>
        <time>2016-09-11T07:56:13.000Z</time>
      </trkpt>
      <trkpt lat="49.18505" lon="1.64903">
        <ele>118.66435241699</ele>
        <time>2016-09-11T07:56:15.000Z</time>
      </trkpt>
      <trkpt lat="49.18504" lon="1.64887">
        <ele>119.09838867188</ele>
        <time>2016-09-11T07:56:18.000Z</time>
      </trkpt>
      <trkpt lat="49.18504" lon="1.64875">
        <ele>119.38249206543</ele>
        <time>2016-09-11T07:56:20.000Z</time>
      </trkpt>
      <trkpt lat="49.18503" lon="1.64861">
        <ele>119.57165527344</ele>
        <time>2016-09-11T07:56:22.000Z</time>
      </trkpt>
      <trkpt lat="49.18504" lon="1.64849">
        <ele>119.71877288818</ele>
        <time>2016-09-11T07:56:24.000Z</time>
      </trkpt>
      <trkpt lat="49.18505" lon="1.6483">
        <ele>119.88289642334</ele>
        <time>2016-09-11T07:56:27.000Z</time>
      </trkpt>
      <trkpt lat="49.18506" lon="1.64807">
        <ele>119.98844146729</ele>
        <time>2016-09-11T07:56:30.000Z</time>
      </trkpt>
      <trkpt lat="49.18509" lon="1.64792">
        <ele>120.073097229</ele>
        <time>2016-09-11T07:56:32.000Z</time>
      </trkpt>
      <trkpt lat="49.18515" lon="1.6477">
        <ele>120.18389892578</ele>
        <time>2016-09-11T07:56:35.000Z</time>
      </trkpt>
      <trkpt lat="49.18517" lon="1.64753">
        <ele>120.27352142334</ele>
        <time>2016-09-11T07:56:37.000Z</time>
      </trkpt>
      <trkpt lat="49.18519" lon="1.6473">
        <ele>120.34901428223</ele>
        <time>2016-09-11T07:56:40.000Z</time>
      </trkpt>
      <trkpt lat="49.1852" lon="1.64713">
        <ele>120.4939956665</ele>
        <time>2016-09-11T07:56:43.000Z</time>
      </trkpt>
      <trkpt lat="49.18521" lon="1.647">
        <ele>120.64904785156</ele>
        <time>2016-09-11T07:56:45.000Z</time>
      </trkpt>
      <trkpt lat="49.18523" lon="1.64682">
        <ele>120.7924041748</ele>
        <time>2016-09-11T07:56:48.000Z</time>
      </trkpt>
      <trkpt lat="49.18523" lon="1.64672">
        <ele>120.94383239746</ele>
        <time>2016-09-11T07:56:50.000Z</time>
      </trkpt>
      <trkpt lat="49.18523" lon="1.64657">
        <ele>121.08933258057</ele>
        <time>2016-09-11T07:56:53.000Z</time>
      </trkpt>
      <trkpt lat="49.18523" lon="1.6464">
        <ele>121.26393127441</ele>
        <time>2016-09-11T07:56:56.000Z</time>
      </trkpt>
      <trkpt lat="49.18524" lon="1.64629">
        <ele>121.4757232666</ele>
        <time>2016-09-11T07:56:58.000Z</time>
      </trkpt>
      <trkpt lat="49.18526" lon="1.64617">
        <ele>121.72542572021</ele>
        <time>2016-09-11T07:57:01.000Z</time>
      </trkpt>
      <trkpt lat="49.18526" lon="1.64602">
        <ele>122.00126647949</ele>
        <time>2016-09-11T07:57:04.000Z</time>
      </trkpt>
      <trkpt lat="49.18526" lon="1.6459">
        <ele>122.27563476562</ele>
        <time>2016-09-11T07:57:07.000Z</time>
      </trkpt>
      <trkpt lat="49.18525" lon="1.64583">
        <ele>122.4939956665</ele>
        <time>2016-09-11T07:57:09.000Z</time>
      </trkpt>
      <trkpt lat="49.18525" lon="1.64569">
        <ele>122.71229553223</ele>
        <time>2016-09-11T07:57:12.000Z</time>
      </trkpt>
      <trkpt lat="49.18526" lon="1.6456">
        <ele>122.90760803223</ele>
        <time>2016-09-11T07:57:14.000Z</time>
      </trkpt>
      <trkpt lat="49.18526" lon="1.64552">
        <ele>123.0968170166</ele>
        <time>2016-09-11T07:57:16.000Z</time>
      </trkpt>
      <trkpt lat="49.18526" lon="1.64538">
        <ele>123.30953216553</ele>
        <time>2016-09-11T07:57:19.000Z</time>
      </trkpt>
      <trkpt lat="49.18525" lon="1.6452">
        <ele>123.5630645752</ele>
        <time>2016-09-11T07:57:22.000Z</time>
      </trkpt>
      <trkpt lat="49.18526" lon="1.64509">
        <ele>123.8224029541</ele>
        <time>2016-09-11T07:57:24.000Z</time>
      </trkpt>
      <trkpt lat="49.18526" lon="1.64503">
        <ele>124.06359863281</ele>
        <time>2016-09-11T07:57:26.000Z</time>
      </trkpt>
      <trkpt lat="49.18527" lon="1.64491">
        <ele>124.27732086182</ele>
        <time>2016-09-11T07:57:29.000Z</time>
      </trkpt>
      <trkpt lat="49.18529" lon="1.64482">
        <ele>124.46181488037</ele>
        <time>2016-09-11T07:57:31.000Z</time>
      </trkpt>
      <trkpt lat="49.1853" lon="1.6447">
        <ele>124.61264801025</ele>
        <time>2016-09-11T07:57:34.000Z</time>
      </trkpt>
      <trkpt lat="49.1853" lon="1.64461">
        <ele>124.71324157715</ele>
        <time>2016-09-11T07:57:36.000Z</time>
      </trkpt>
      <trkpt lat="49.18531" lon="1.64452">
        <ele>124.79117584229</ele>
        <time>2016-09-11T07:57:38.000Z</time>
      </trkpt>
      <trkpt lat="49.18532" lon="1.64436">
        <ele>124.87313079834</ele>
        <time>2016-09-11T07:57:41.000Z</time>
      </trkpt>
      <trkpt lat="49.18533" lon="1.64419">
        <ele>124.95524597168</ele>
        <time>2016-09-11T07:57:44.000Z</time>
      </trkpt>
      <trkpt lat="49.18532" lon="1.64407">
        <ele>125.00266265869</ele>
        <time>2016-09-11T07:57:46.000Z</time>
      </trkpt>
      <trkpt lat="49.18533" lon="1.64389">
        <ele>125.03279876709</ele>
        <time>2016-09-11T07:57:49.000Z</time>
      </trkpt>
      <trkpt lat="49.18533" lon="1.64378">
        <ele>125.04502105713</ele>
        <time>2016-09-11T07:57:51.000Z</time>
      </trkpt>
      <trkpt lat="49.18534" lon="1.64359">
        <ele>125.02709960938</ele>
        <time>2016-09-11T07:57:54.000Z</time>
      </trkpt>
      <trkpt lat="49.18534" lon="1.64346">
        <ele>124.9891204834</ele>
        <time>2016-09-11T07:57:56.000Z</time>
      </trkpt>
      <trkpt lat="49.18539" lon="1.64327">
        <ele>125.03072357178</ele>
        <time>2016-09-11T07:57:59.000Z</time>
      </trkpt>
      <trkpt lat="49.18541" lon="1.64307">
        <ele>125.07991027832</ele>
        <time>2016-09-11T07:58:02.000Z</time>
      </trkpt>
      <trkpt lat="49.18539" lon="1.64286">
        <ele>125.09324645996</ele>
        <time>2016-09-11T07:58:05.000Z</time>
      </trkpt>
      <trkpt lat="49.18537" lon="1.64273">
        <ele>125.08142089844</ele>
        <time>2016-09-11T07:58:07.000Z</time>
      </trkpt>
      <trkpt lat="49.18536" lon="1.64256">
        <ele>125.046043396</ele>
        <time>2016-09-11T07:58:10.000Z</time>
      </trkpt>
      <trkpt lat="49.18535" lon="1.64237">
        <ele>124.80522155762</ele>
        <time>2016-09-11T07:58:13.000Z</time>
      </trkpt>
      <trkpt lat="49.18533" lon="1.64224">
        <ele>124.42509460449</ele>
        <time>2016-09-11T07:58:15.000Z</time>
      </trkpt>
      <trkpt lat="49.18529" lon="1.64205">
        <ele>123.86340332031</ele>
        <time>2016-09-11T07:58:18.000Z</time>
      </trkpt>
      <trkpt lat="49.18526" lon="1.64186">
        <ele>123.12019348145</ele>
        <time>2016-09-11T07:58:21.000Z</time>
      </trkpt>
      <trkpt lat="49.18523" lon="1.64174">
        <ele>122.25036621094</ele>
        <time>2016-09-11T07:58:23.000Z</time>
      </trkpt>
      <trkpt lat="49.18519" lon="1.64163">
        <ele>121.40742492676</ele>
        <time>2016-09-11T07:58:25.000Z</time>
      </trkpt>
      <trkpt lat="49.18513" lon="1.64152">
        <ele>120.61806488037</ele>
        <time>2016-09-11T07:58:27.000Z</time>
      </trkpt>
      <trkpt lat="49.18502" lon="1.64137">
        <ele>119.91237640381</ele>
        <time>2016-09-11T07:58:30.000Z</time>
      </trkpt>
      <trkpt lat="49.18491" lon="1.64126">
        <ele>119.21627044678</ele>
        <time>2016-09-11T07:58:32.000Z</time>
      </trkpt>
      <trkpt lat="49.18474" lon="1.64108">
        <ele>118.35697174072</ele>
        <time>2016-09-11T07:58:35.000Z</time>
      </trkpt>
      <trkpt lat="49.18455" lon="1.64086">
        <ele>117.3365020752</ele>
        <time>2016-09-11T07:58:38.000Z</time>
      </trkpt>
      <trkpt lat="49.18438" lon="1.64066">
        <ele>116.38020324707</ele>
        <time>2016-09-11T07:58:41.000Z</time>
      </trkpt>
      <trkpt lat="49.18427" lon="1.64056">
        <ele>115.55310058594</ele>
        <time>2016-09-11T07:58:43.000Z</time>
      </trkpt>
      <trkpt lat="49.18417" lon="1.64044">
        <ele>114.98439025879</ele>
        <time>2016-09-11T07:58:45.000Z</time>
      </trkpt>
      <trkpt lat="49.18403" lon="1.64033">
        <ele>114.84299468994</ele>
        <time>2016-09-11T07:58:48.000Z</time>
      </trkpt>
      <trkpt lat="49.18392" lon="1.64021">
        <ele>115.10430908203</ele>
        <time>2016-09-11T07:58:51.000Z</time>
      </trkpt>
      <trkpt lat="49.18385" lon="1.64014">
        <ele>115.45164489746</ele>
        <time>2016-09-11T07:58:53.000Z</time>
      </trkpt>
      <trkpt lat="49.18376" lon="1.64003">
        <ele>115.90019226074</ele>
        <time>2016-09-11T07:58:56.000Z</time>
      </trkpt>
      <trkpt lat="49.18364" lon="1.63993">
        <ele>116.29421234131</ele>
        <time>2016-09-11T07:58:59.000Z</time>
      </trkpt>
      <trkpt lat="49.18358" lon="1.63984">
        <ele>116.54988861084</ele>
        <time>2016-09-11T07:59:01.000Z</time>
      </trkpt>
      <trkpt lat="49.18349" lon="1.63971">
        <ele>116.63957214355</ele>
        <time>2016-09-11T07:59:04.000Z</time>
      </trkpt>
      <trkpt lat="49.1834" lon="1.63959">
        <ele>116.61061096191</ele>
        <time>2016-09-11T07:59:07.000Z</time>
      </trkpt>
      <trkpt lat="49.18333" lon="1.63952">
        <ele>116.44158935547</ele>
        <time>2016-09-11T07:59:09.000Z</time>
      </trkpt>
      <trkpt lat="49.18324" lon="1.6394">
        <ele>116.215965271</ele>
        <time>2016-09-11T07:59:12.000Z</time>
      </trkpt>
      <trkpt lat="49.18314" lon="1.63927">
        <ele>115.94492340088</ele>
        <time>2016-09-11T07:59:15.000Z</time>
      </trkpt>
      <trkpt lat="49.18308" lon="1.63919">
        <ele>115.66520690918</ele>
        <time>2016-09-11T07:59:18.000Z</time>
      </trkpt>
      <trkpt lat="49.18308" lon="1.63917">
        <ele>115.44018554688</ele>
        <time>2016-09-11T07:59:21.000Z</time>
      </trkpt>
      <trkpt lat="49.18311" lon="1.63919">
        <ele>115.2798614502</ele>
        <time>2016-09-11T07:59:31.000Z</time>
      </trkpt>
      <trkpt lat="49.18309" lon="1.6392">
        <ele>115.16760253906</ele>
        <time>2016-09-11T07:59:33.000Z</time>
      </trkpt>
      <trkpt lat="49.18304" lon="1.63926">
        <ele>115.09938812256</ele>
        <time>2016-09-11T07:59:36.000Z</time>
      </trkpt>
      <trkpt lat="49.18303" lon="1.63928">
        <ele>115.07224273682</ele>
        <time>2016-09-11T07:59:38.000Z</time>
      </trkpt>
      <trkpt lat="49.18305" lon="1.63929">
        <ele>115.05861663818</ele>
        <time>2016-09-11T07:59:44.000Z</time>
      </trkpt>
      <trkpt lat="49.18304" lon="1.63931">
        <ele>115.02529144287</ele>
        <time>2016-09-11T07:59:47.000Z</time>
      </trkpt>
      <trkpt lat="49.18301" lon="1.63933">
        <ele>114.98195648193</ele>
        <time>2016-09-11T07:59:49.000Z</time>
      </trkpt>
      <trkpt lat="49.18293" lon="1.63934">
        <ele>114.91502380371</ele>
        <time>2016-09-11T07:59:52.000Z</time>
      </trkpt>
      <trkpt lat="49.18287" lon="1.63935">
        <ele>114.8102645874</ele>
        <time>2016-09-11T07:59:55.000Z</time>
      </trkpt>
      <trkpt lat="49.18285" lon="1.63937">
        <ele>114.6854019165</ele>
        <time>2016-09-11T07:59:58.000Z</time>
      </trkpt>
      <trkpt lat="49.18285" lon="1.63939">
        <ele>114.56394195557</ele>
        <time>2016-09-11T08:00:00.000Z</time>
      </trkpt>
      <trkpt lat="49.18285" lon="1.63941">
        <ele>114.46557617188</ele>
        <time>2016-09-11T08:00:02.000Z</time>
      </trkpt>
      <trkpt lat="49.18283" lon="1.63942">
        <ele>114.40837097168</ele>
        <time>2016-09-11T08:00:04.000Z</time>
      </trkpt>
      <trkpt lat="49.18281" lon="1.63943">
        <ele>114.38150787354</ele>
        <time>2016-09-11T08:00:07.000Z</time>
      </trkpt>
      <trkpt lat="49.1828" lon="1.63946">
        <ele>114.36444091797</ele>
        <time>2016-09-11T08:00:09.000Z</time>
      </trkpt>
      <trkpt lat="49.18281" lon="1.63946">
        <ele>114.35182952881</ele>
        <time>2016-09-11T08:00:12.000Z</time>
      </trkpt>
      <trkpt lat="49.1828" lon="1.63947">
        <ele>114.33555603027</ele>
        <time>2016-09-11T08:00:15.000Z</time>
      </trkpt>
      <trkpt lat="49.1828" lon="1.63945">
        <ele>114.31937408447</ele>
        <time>2016-09-11T08:00:18.000Z</time>
      </trkpt>
      <trkpt lat="49.1828" lon="1.63943">
        <ele>114.31457519531</ele>
        <time>2016-09-11T08:00:20.000Z</time>
      </trkpt>
      <trkpt lat="49.1828" lon="1.63943">
        <ele>114.31457519531</ele>
        <time>2016-09-11T08:00:30.000Z</time>
      </trkpt>
      <trkpt lat="49.1828" lon="1.63946">
        <ele>114.31457519531</ele>
        <time>2016-09-11T08:00:38.000Z</time>
      </trkpt>
      <trkpt lat="49.18281" lon="1.63944">
        <ele>114.31154632568</ele>
        <time>2016-09-11T08:00:41.000Z</time>
      </trkpt>
      <trkpt lat="49.18281" lon="1.63944">
        <ele>114.31154632568</ele>
        <time>2016-09-11T08:00:51.000Z</time>
      </trkpt>
      <trkpt lat="49.1828" lon="1.63943">
        <ele>114.30442810059</ele>
        <time>2016-09-11T08:01:01.000Z</time>
      </trkpt>
      <trkpt lat="49.1828" lon="1.63945">
        <ele>114.30174255371</ele>
        <time>2016-09-11T08:01:03.000Z</time>
      </trkpt>
      <trkpt lat="49.1828" lon="1.63947">
        <ele>114.3053817749</ele>
        <time>2016-09-11T08:01:05.000Z</time>
      </trkpt>
      <trkpt lat="49.18281" lon="1.63948">
        <ele>114.31109619141</ele>
        <time>2016-09-11T08:01:14.000Z</time>
      </trkpt>
      <trkpt lat="49.18281" lon="1.63946">
        <ele>114.3138885498</ele>
        <time>2016-09-11T08:01:17.000Z</time>
      </trkpt>
      <trkpt lat="49.18282" lon="1.63945">
        <ele>114.32453918457</ele>
        <time>2016-09-11T08:01:22.000Z</time>
      </trkpt>
      <trkpt lat="49.1828" lon="1.63944">
        <ele>114.323097229</ele>
        <time>2016-09-11T08:01:27.000Z</time>
      </trkpt>
      <trkpt lat="49.18279" lon="1.63942">
        <ele>114.309715271</ele>
        <time>2016-09-11T08:01:29.000Z</time>
      </trkpt>
      <trkpt lat="49.18279" lon="1.63942">
        <ele>114.309715271</ele>
        <time>2016-09-11T08:01:39.000Z</time>
      </trkpt>
      <trkpt lat="49.1828" lon="1.63943">
        <ele>114.29499816895</ele>
        <time>2016-09-11T08:01:40.000Z</time>
      </trkpt>
      <trkpt lat="49.1828" lon="1.63943">
        <ele>114.29499816895</ele>
        <time>2016-09-11T08:01:50.000Z</time>
      </trkpt>
      <trkpt lat="49.1828" lon="1.63945">
        <ele>114.28541564941</ele>
        <time>2016-09-11T08:03:12.000Z</time>
      </trkpt>
      <trkpt lat="49.18279" lon="1.63946">
        <ele>114.26918029785</ele>
        <time>2016-09-11T08:03:14.000Z</time>
      </trkpt>
      <trkpt lat="49.18277" lon="1.63945">
        <ele>114.25490570068</ele>
        <time>2016-09-11T08:03:16.000Z</time>
      </trkpt>
      <trkpt lat="49.18277" lon="1.63945">
        <ele>114.25490570068</ele>
        <time>2016-09-11T08:03:26.000Z</time>
      </trkpt>
      <trkpt lat="49.18277" lon="1.63942">
        <ele>114.24220275879</ele>
        <time>2016-09-11T08:04:28.000Z</time>
      </trkpt>
      <trkpt lat="49.18277" lon="1.63942">
        <ele>114.24220275879</ele>
        <time>2016-09-11T08:04:38.000Z</time>
      </trkpt>
      <trkpt lat="49.18276" lon="1.63944">
        <ele>114.22263336182</ele>
        <time>2016-09-11T08:04:47.000Z</time>
      </trkpt>
      <trkpt lat="49.18277" lon="1.63944">
        <ele>114.20213317871</ele>
        <time>2016-09-11T08:04:50.000Z</time>
      </trkpt>
      <trkpt lat="49.18279" lon="1.63944">
        <ele>114.19919586182</ele>
        <time>2016-09-11T08:04:54.000Z</time>
      </trkpt>
      <trkpt lat="49.18279" lon="1.63944">
        <ele>114.19919586182</ele>
        <time>2016-09-11T08:05:04.000Z</time>
      </trkpt>
      <trkpt lat="49.1828" lon="1.63944">
        <ele>114.21903991699</ele>
        <time>2016-09-11T08:05:29.000Z</time>
      </trkpt>
      <trkpt lat="49.1828" lon="1.63946">
        <ele>114.24577331543</ele>
        <time>2016-09-11T08:05:32.000Z</time>
      </trkpt>
      <trkpt lat="49.1828" lon="1.63944">
        <ele>114.27270507812</ele>
        <time>2016-09-11T08:05:35.000Z</time>
      </trkpt>
      <trkpt lat="49.18282" lon="1.63942">
        <ele>114.30088806152</ele>
        <time>2016-09-11T08:05:38.000Z</time>
      </trkpt>
      <trkpt lat="49.18283" lon="1.6394">
        <ele>114.32153320312</ele>
        <time>2016-09-11T08:05:41.000Z</time>
      </trkpt>
      <trkpt lat="49.18286" lon="1.6394">
        <ele>114.35038757324</ele>
        <time>2016-09-11T08:05:43.000Z</time>
      </trkpt>
      <trkpt lat="49.18287" lon="1.6394">
        <ele>114.3893661499</ele>
        <time>2016-09-11T08:05:46.000Z</time>
      </trkpt>
      <trkpt lat="49.18285" lon="1.63941">
        <ele>114.41648864746</ele>
        <time>2016-09-11T08:06:04.000Z</time>
      </trkpt>
      <trkpt lat="49.18286" lon="1.63941">
        <ele>114.44245910645</ele>
        <time>2016-09-11T08:06:06.000Z</time>
      </trkpt>
      <trkpt lat="49.18289" lon="1.6394">
        <ele>114.48435211182</ele>
        <time>2016-09-11T08:06:09.000Z</time>
      </trkpt>
      <trkpt lat="49.1829" lon="1.63937">
        <ele>114.509765625</ele>
        <time>2016-09-11T08:06:11.000Z</time>
      </trkpt>
      <trkpt lat="49.18288" lon="1.63938">
        <ele>114.5103302002</ele>
        <time>2016-09-11T08:06:27.000Z</time>
      </trkpt>
      <trkpt lat="49.18288" lon="1.63938">
        <ele>114.5103302002</ele>
        <time>2016-09-11T08:06:47.000Z</time>
      </trkpt>
      <trkpt lat="49.18286" lon="1.63941">
        <ele>114.51279449463</ele>
        <time>2016-09-11T08:08:23.000Z</time>
      </trkpt>
      <trkpt lat="49.18286" lon="1.63941">
        <ele>114.51279449463</ele>
        <time>2016-09-11T08:08:43.000Z</time>
      </trkpt>
      <trkpt lat="49.18286" lon="1.63939">
        <ele>114.50738525391</ele>
        <time>2016-09-11T08:10:38.000Z</time>
      </trkpt>
      <trkpt lat="49.18287" lon="1.63936">
        <ele>114.4842300415</ele>
        <time>2016-09-11T08:10:40.000Z</time>
      </trkpt>
      <trkpt lat="49.18287" lon="1.63935">
        <ele>114.4596786499</ele>
        <time>2016-09-11T08:10:43.000Z</time>
      </trkpt>
      <trkpt lat="49.18285" lon="1.63937">
        <ele>114.43631744385</ele>
        <time>2016-09-11T08:11:00.000Z</time>
      </trkpt>
      <trkpt lat="49.18281" lon="1.63939">
        <ele>114.40138244629</ele>
        <time>2016-09-11T08:11:03.000Z</time>
      </trkpt>
      <trkpt lat="49.18278" lon="1.63943">
        <ele>114.35457611084</ele>
        <time>2016-09-11T08:11:05.000Z</time>
      </trkpt>
      <trkpt lat="49.18275" lon="1.63949">
        <ele>114.30310058594</ele>
        <time>2016-09-11T08:11:07.000Z</time>
      </trkpt>
      <trkpt lat="49.18272" lon="1.63958">
        <ele>114.24085998535</ele>
        <time>2016-09-11T08:11:10.000Z</time>
      </trkpt>
      <trkpt lat="49.18264" lon="1.6396">
        <ele>114.15287780762</ele>
        <time>2016-09-11T08:11:13.000Z</time>
      </trkpt>
      <trkpt lat="49.18254" lon="1.63956">
        <ele>114.01181793213</ele>
        <time>2016-09-11T08:11:16.000Z</time>
      </trkpt>
      <trkpt lat="49.18246" lon="1.63954">
        <ele>113.87229156494</ele>
        <time>2016-09-11T08:11:18.000Z</time>
      </trkpt>
      <trkpt lat="49.18235" lon="1.63951">
        <ele>113.7593536377</ele>
        <time>2016-09-11T08:11:21.000Z</time>
      </trkpt>
      <trkpt lat="49.18225" lon="1.6395">
        <ele>113.68365478516</ele>
        <time>2016-09-11T08:11:23.000Z</time>
      </trkpt>
      <trkpt lat="49.18212" lon="1.63952">
        <ele>113.69537353516</ele>
        <time>2016-09-11T08:11:26.000Z</time>
      </trkpt>
      <trkpt lat="49.18199" lon="1.63941">
        <ele>113.74350738525</ele>
        <time>2016-09-11T08:11:29.000Z</time>
      </trkpt>
      <trkpt lat="49.18185" lon="1.63935">
        <ele>113.79106140137</ele>
        <time>2016-09-11T08:11:32.000Z</time>
      </trkpt>
      <trkpt lat="49.18177" lon="1.63939">
        <ele>113.85646820068</ele>
        <time>2016-09-11T08:11:34.000Z</time>
      </trkpt>
      <trkpt lat="49.18168" lon="1.63946">
        <ele>113.98443603516</ele>
        <time>2016-09-11T08:11:37.000Z</time>
      </trkpt>
      <trkpt lat="49.18159" lon="1.63949">
        <ele>114.07698059082</ele>
        <time>2016-09-11T08:11:39.000Z</time>
      </trkpt>
      <trkpt lat="49.18153" lon="1.63956">
        <ele>114.2693939209</ele>
        <time>2016-09-11T08:11:42.000Z</time>
      </trkpt>
      <trkpt lat="49.18144" lon="1.63966">
        <ele>114.58589172363</ele>
        <time>2016-09-11T08:11:45.000Z</time>
      </trkpt>
      <trkpt lat="49.18139" lon="1.63971">
        <ele>114.93369293213</ele>
        <time>2016-09-11T08:11:47.000Z</time>
      </trkpt>
      <trkpt lat="49.18129" lon="1.63982">
        <ele>115.35964202881</ele>
        <time>2016-09-11T08:11:50.000Z</time>
      </trkpt>
      <trkpt lat="49.18122" lon="1.63995">
        <ele>116.00373840332</ele>
        <time>2016-09-11T08:11:53.000Z</time>
      </trkpt>
      <trkpt lat="49.18117" lon="1.64005">
        <ele>116.69776916504</ele>
        <time>2016-09-11T08:11:55.000Z</time>
      </trkpt>
      <trkpt lat="49.18111" lon="1.64019">
        <ele>117.35725402832</ele>
        <time>2016-09-11T08:11:58.000Z</time>
      </trkpt>
      <trkpt lat="49.18106" lon="1.64029">
        <ele>118.02085113525</ele>
        <time>2016-09-11T08:12:00.000Z</time>
      </trkpt>
      <trkpt lat="49.181" lon="1.64044">
        <ele>118.64601135254</ele>
        <time>2016-09-11T08:12:03.000Z</time>
      </trkpt>
      <trkpt lat="49.18095" lon="1.64052">
        <ele>119.1417388916</ele>
        <time>2016-09-11T08:12:05.000Z</time>
      </trkpt>
      <trkpt lat="49.1809" lon="1.64061">
        <ele>119.63436126709</ele>
        <time>2016-09-11T08:12:07.000Z</time>
      </trkpt>
      <trkpt lat="49.18084" lon="1.64077">
        <ele>120.26359558105</ele>
        <time>2016-09-11T08:12:10.000Z</time>
      </trkpt>
      <trkpt lat="49.18076" lon="1.64095">
        <ele>120.78639221191</ele>
        <time>2016-09-11T08:12:13.000Z</time>
      </trkpt>
      <trkpt lat="49.18067" lon="1.64113">
        <ele>121.13140869141</ele>
        <time>2016-09-11T08:12:16.000Z</time>
      </trkpt>
      <trkpt lat="49.18061" lon="1.64124">
        <ele>121.37864685059</ele>
        <time>2016-09-11T08:12:18.000Z</time>
      </trkpt>
      <trkpt lat="49.18053" lon="1.64141">
        <ele>121.56457519531</ele>
        <time>2016-09-11T08:12:21.000Z</time>
      </trkpt>
      <trkpt lat="49.18047" lon="1.64156">
        <ele>121.62526702881</ele>
        <time>2016-09-11T08:12:24.000Z</time>
      </trkpt>
      <trkpt lat="49.18043" lon="1.64166">
        <ele>121.78340911865</ele>
        <time>2016-09-11T08:12:26.000Z</time>
      </trkpt>
      <trkpt lat="49.18036" lon="1.6418">
        <ele>122.07120513916</ele>
        <time>2016-09-11T08:12:29.000Z</time>
      </trkpt>
      <trkpt lat="49.18029" lon="1.64189">
        <ele>122.45141601562</ele>
        <time>2016-09-11T08:12:32.000Z</time>
      </trkpt>
      <trkpt lat="49.18024" lon="1.64199">
        <ele>122.87065124512</ele>
        <time>2016-09-11T08:12:34.000Z</time>
      </trkpt>
      <trkpt lat="49.18018" lon="1.64215">
        <ele>123.34647369385</ele>
        <time>2016-09-11T08:12:37.000Z</time>
      </trkpt>
      <trkpt lat="49.18012" lon="1.6423">
        <ele>123.91607666016</ele>
        <time>2016-09-11T08:12:40.000Z</time>
      </trkpt>
      <trkpt lat="49.18008" lon="1.6424">
        <ele>124.52671051025</ele>
        <time>2016-09-11T08:12:42.000Z</time>
      </trkpt>
      <trkpt lat="49.18002" lon="1.64255">
        <ele>125.26148986816</ele>
        <time>2016-09-11T08:12:45.000Z</time>
      </trkpt>
      <trkpt lat="49.17995" lon="1.6427">
        <ele>126.12292480469</ele>
        <time>2016-09-11T08:12:48.000Z</time>
      </trkpt>
      <trkpt lat="49.1799" lon="1.64279">
        <ele>126.94050598145</ele>
        <time>2016-09-11T08:12:50.000Z</time>
      </trkpt>
      <trkpt lat="49.17982" lon="1.6429">
        <ele>127.73824310303</ele>
        <time>2016-09-11T08:12:53.000Z</time>
      </trkpt>
      <trkpt lat="49.17973" lon="1.64297">
        <ele>128.51153564453</ele>
        <time>2016-09-11T08:12:56.000Z</time>
      </trkpt>
      <trkpt lat="49.17968" lon="1.64299">
        <ele>129.11373901367</ele>
        <time>2016-09-11T08:12:58.000Z</time>
      </trkpt>
      <trkpt lat="49.1796" lon="1.64304">
        <ele>129.57897949219</ele>
        <time>2016-09-11T08:13:01.000Z</time>
      </trkpt>
      <trkpt lat="49.17954" lon="1.64307">
        <ele>130.0064239502</ele>
        <time>2016-09-11T08:13:03.000Z</time>
      </trkpt>
      <trkpt lat="49.17945" lon="1.64313">
        <ele>130.38629150391</ele>
        <time>2016-09-11T08:13:06.000Z</time>
      </trkpt>
      <trkpt lat="49.17936" lon="1.64316">
        <ele>130.7512512207</ele>
        <time>2016-09-11T08:13:09.000Z</time>
      </trkpt>
      <trkpt lat="49.1793" lon="1.64319">
        <ele>131.12768554688</ele>
        <time>2016-09-11T08:13:11.000Z</time>
      </trkpt>
      <trkpt lat="49.1792" lon="1.64327">
        <ele>131.55810546875</ele>
        <time>2016-09-11T08:13:14.000Z</time>
      </trkpt>
      <trkpt lat="49.17908" lon="1.64332">
        <ele>131.93032836914</ele>
        <time>2016-09-11T08:13:17.000Z</time>
      </trkpt>
      <trkpt lat="49.17897" lon="1.64338">
        <ele>132.1325378418</ele>
        <time>2016-09-11T08:13:19.000Z</time>
      </trkpt>
      <trkpt lat="49.17889" lon="1.64343">
        <ele>132.19328308105</ele>
        <time>2016-09-11T08:13:21.000Z</time>
      </trkpt>
      <trkpt lat="49.17882" lon="1.64346">
        <ele>132.13887023926</ele>
        <time>2016-09-11T08:13:23.000Z</time>
      </trkpt>
      <trkpt lat="49.17873" lon="1.64359">
        <ele>131.94268798828</ele>
        <time>2016-09-11T08:13:26.000Z</time>
      </trkpt>
      <trkpt lat="49.17862" lon="1.64375">
        <ele>131.74310302734</ele>
        <time>2016-09-11T08:13:29.000Z</time>
      </trkpt>
      <trkpt lat="49.17857" lon="1.64385">
        <ele>131.64212036133</ele>
        <time>2016-09-11T08:13:31.000Z</time>
      </trkpt>
      <trkpt lat="49.17851" lon="1.64398">
        <ele>131.63549804688</ele>
        <time>2016-09-11T08:13:34.000Z</time>
      </trkpt>
      <trkpt lat="49.17845" lon="1.64412">
        <ele>131.73991394043</ele>
        <time>2016-09-11T08:13:37.000Z</time>
      </trkpt>
      <trkpt lat="49.1784" lon="1.64421">
        <ele>131.88444519043</ele>
        <time>2016-09-11T08:13:39.000Z</time>
      </trkpt>
      <trkpt lat="49.17833" lon="1.64437">
        <ele>132.06678771973</ele>
        <time>2016-09-11T08:13:42.000Z</time>
      </trkpt>
      <trkpt lat="49.17829" lon="1.64448">
        <ele>132.20414733887</ele>
        <time>2016-09-11T08:13:44.000Z</time>
      </trkpt>
      <trkpt lat="49.17822" lon="1.64462">
        <ele>132.25988769531</ele>
        <time>2016-09-11T08:13:47.000Z</time>
      </trkpt>
      <trkpt lat="49.17818" lon="1.64474">
        <ele>132.27163696289</ele>
        <time>2016-09-11T08:13:49.000Z</time>
      </trkpt>
      <trkpt lat="49.17814" lon="1.64493">
        <ele>132.29840087891</ele>
        <time>2016-09-11T08:13:52.000Z</time>
      </trkpt>
      <trkpt lat="49.17812" lon="1.64506">
        <ele>132.34884643555</ele>
        <time>2016-09-11T08:13:54.000Z</time>
      </trkpt>
      <trkpt lat="49.1781" lon="1.64518">
        <ele>132.48210144043</ele>
        <time>2016-09-11T08:13:56.000Z</time>
      </trkpt>
      <trkpt lat="49.17805" lon="1.64534">
        <ele>132.7015838623</ele>
        <time>2016-09-11T08:13:59.000Z</time>
      </trkpt>
      <trkpt lat="49.178" lon="1.64545">
        <ele>132.91079711914</ele>
        <time>2016-09-11T08:14:01.000Z</time>
      </trkpt>
      <trkpt lat="49.17794" lon="1.64555">
        <ele>133.07247924805</ele>
        <time>2016-09-11T08:14:03.000Z</time>
      </trkpt>
      <trkpt lat="49.17789" lon="1.64566">
        <ele>133.17182922363</ele>
        <time>2016-09-11T08:14:05.000Z</time>
      </trkpt>
      <trkpt lat="49.17782" lon="1.64584">
        <ele>133.22973632812</ele>
        <time>2016-09-11T08:14:08.000Z</time>
      </trkpt>
      <trkpt lat="49.17775" lon="1.64607">
        <ele>133.13093566895</ele>
        <time>2016-09-11T08:14:11.000Z</time>
      </trkpt>
      <trkpt lat="49.17767" lon="1.64624">
        <ele>132.91012573242</ele>
        <time>2016-09-11T08:14:14.000Z</time>
      </trkpt>
      <trkpt lat="49.17764" lon="1.64637">
        <ele>132.64472961426</ele>
        <time>2016-09-11T08:14:16.000Z</time>
      </trkpt>
      <trkpt lat="49.17757" lon="1.64647">
        <ele>132.29904174805</ele>
        <time>2016-09-11T08:14:18.000Z</time>
      </trkpt>
      <trkpt lat="49.17755" lon="1.64659">
        <ele>131.89666748047</ele>
        <time>2016-09-11T08:14:20.000Z</time>
      </trkpt>
      <trkpt lat="49.17748" lon="1.64681">
        <ele>131.65074157715</ele>
        <time>2016-09-11T08:14:23.000Z</time>
      </trkpt>
      <trkpt lat="49.17738" lon="1.64701">
        <ele>131.54618835449</ele>
        <time>2016-09-11T08:14:26.000Z</time>
      </trkpt>
      <trkpt lat="49.17735" lon="1.64721">
        <ele>131.60879516602</ele>
        <time>2016-09-11T08:14:28.000Z</time>
      </trkpt>
      <trkpt lat="49.17727" lon="1.64738">
        <ele>131.76396179199</ele>
        <time>2016-09-11T08:14:30.000Z</time>
      </trkpt>
      <trkpt lat="49.17717" lon="1.64762">
        <ele>131.93151855469</ele>
        <time>2016-09-11T08:14:33.000Z</time>
      </trkpt>
      <trkpt lat="49.17709" lon="1.64781">
        <ele>132.033203125</ele>
        <time>2016-09-11T08:14:35.000Z</time>
      </trkpt>
      <trkpt lat="49.17701" lon="1.64798">
        <ele>132.06497192383</ele>
        <time>2016-09-11T08:14:37.000Z</time>
      </trkpt>
      <trkpt lat="49.17689" lon="1.64818">
        <ele>131.89993286133</ele>
        <time>2016-09-11T08:14:40.000Z</time>
      </trkpt>
      <trkpt lat="49.17683" lon="1.64837">
        <ele>131.7444152832</ele>
        <time>2016-09-11T08:14:42.000Z</time>
      </trkpt>
      <trkpt lat="49.17673" lon="1.64862">
        <ele>131.61253356934</ele>
        <time>2016-09-11T08:14:45.000Z</time>
      </trkpt>
      <trkpt lat="49.17664" lon="1.64882">
        <ele>131.5108795166</ele>
        <time>2016-09-11T08:14:48.000Z</time>
      </trkpt>
      <trkpt lat="49.17654" lon="1.64906">
        <ele>131.48461914062</ele>
        <time>2016-09-11T08:14:51.000Z</time>
      </trkpt>
      <trkpt lat="49.17646" lon="1.64927">
        <ele>131.60238647461</ele>
        <time>2016-09-11T08:14:54.000Z</time>
      </trkpt>
      <trkpt lat="49.17635" lon="1.64947">
        <ele>131.69929504395</ele>
        <time>2016-09-11T08:14:57.000Z</time>
      </trkpt>
      <trkpt lat="49.1763" lon="1.64961">
        <ele>131.84461975098</ele>
        <time>2016-09-11T08:14:59.000Z</time>
      </trkpt>
      <trkpt lat="49.17622" lon="1.64983">
        <ele>132.0617980957</ele>
        <time>2016-09-11T08:15:02.000Z</time>
      </trkpt>
      <trkpt lat="49.17617" lon="1.64997">
        <ele>132.30911254883</ele>
        <time>2016-09-11T08:15:04.000Z</time>
      </trkpt>
      <trkpt lat="49.17608" lon="1.65019">
        <ele>132.4171295166</ele>
        <time>2016-09-11T08:15:07.000Z</time>
      </trkpt>
      <trkpt lat="49.176" lon="1.65046">
        <ele>132.47023010254</ele>
        <time>2016-09-11T08:15:10.000Z</time>
      </trkpt>
      <trkpt lat="49.17594" lon="1.65066">
        <ele>132.45443725586</ele>
        <time>2016-09-11T08:15:12.000Z</time>
      </trkpt>
      <trkpt lat="49.17587" lon="1.65082">
        <ele>132.35537719727</ele>
        <time>2016-09-11T08:15:14.000Z</time>
      </trkpt>
      <trkpt lat="49.17574" lon="1.65107">
        <ele>132.05229187012</ele>
        <time>2016-09-11T08:15:17.000Z</time>
      </trkpt>
      <trkpt lat="49.17563" lon="1.65138">
        <ele>131.7087097168</ele>
        <time>2016-09-11T08:15:20.000Z</time>
      </trkpt>
      <trkpt lat="49.17553" lon="1.65172">
        <ele>131.38082885742</ele>
        <time>2016-09-11T08:15:23.000Z</time>
      </trkpt>
      <trkpt lat="49.17546" lon="1.65193">
        <ele>131.06246948242</ele>
        <time>2016-09-11T08:15:25.000Z</time>
      </trkpt>
      <trkpt lat="49.17534" lon="1.6522">
        <ele>130.70254516602</ele>
        <time>2016-09-11T08:15:28.000Z</time>
      </trkpt>
      <trkpt lat="49.17528" lon="1.6524">
        <ele>130.47866821289</ele>
        <time>2016-09-11T08:15:30.000Z</time>
      </trkpt>
      <trkpt lat="49.17524" lon="1.65257">
        <ele>130.32919311523</ele>
        <time>2016-09-11T08:15:32.000Z</time>
      </trkpt>
      <trkpt lat="49.17523" lon="1.65277">
        <ele>130.15211486816</ele>
        <time>2016-09-11T08:15:34.000Z</time>
      </trkpt>
      <trkpt lat="49.17525" lon="1.65299">
        <ele>129.9387512207</ele>
        <time>2016-09-11T08:15:37.000Z</time>
      </trkpt>
      <trkpt lat="49.17521" lon="1.6532">
        <ele>129.6701965332</ele>
        <time>2016-09-11T08:15:40.000Z</time>
      </trkpt>
      <trkpt lat="49.17515" lon="1.65328">
        <ele>129.34523010254</ele>
        <time>2016-09-11T08:15:42.000Z</time>
      </trkpt>
      <trkpt lat="49.17505" lon="1.65344">
        <ele>128.89018249512</ele>
        <time>2016-09-11T08:15:45.000Z</time>
      </trkpt>
      <trkpt lat="49.175" lon="1.65358">
        <ele>128.36947631836</ele>
        <time>2016-09-11T08:15:47.000Z</time>
      </trkpt>
      <trkpt lat="49.1749" lon="1.65375">
        <ele>127.71598052979</ele>
        <time>2016-09-11T08:15:50.000Z</time>
      </trkpt>
      <trkpt lat="49.17483" lon="1.65387">
        <ele>127.06758117676</ele>
        <time>2016-09-11T08:15:52.000Z</time>
      </trkpt>
      <trkpt lat="49.17472" lon="1.65407">
        <ele>126.37880706787</ele>
        <time>2016-09-11T08:15:55.000Z</time>
      </trkpt>
      <trkpt lat="49.17461" lon="1.65426">
        <ele>125.82762145996</ele>
        <time>2016-09-11T08:15:58.000Z</time>
      </trkpt>
      <trkpt lat="49.17453" lon="1.6544">
        <ele>125.40849304199</ele>
        <time>2016-09-11T08:16:00.000Z</time>
      </trkpt>
      <trkpt lat="49.17446" lon="1.65454">
        <ele>125.17082214355</ele>
        <time>2016-09-11T08:16:02.000Z</time>
      </trkpt>
      <trkpt lat="49.17439" lon="1.65469">
        <ele>125.03157043457</ele>
        <time>2016-09-11T08:16:04.000Z</time>
      </trkpt>
      <trkpt lat="49.17429" lon="1.65489">
        <ele>125</ele>
        <time>2016-09-11T08:16:07.000Z</time>
      </trkpt>
      <trkpt lat="49.17418" lon="1.65508">
        <ele>124.98168945312</ele>
        <time>2016-09-11T08:16:10.000Z</time>
      </trkpt>
      <trkpt lat="49.17408" lon="1.65527">
        <ele>124.93027496338</ele>
        <time>2016-09-11T08:16:13.000Z</time>
      </trkpt>
      <trkpt lat="49.17398" lon="1.65548">
        <ele>124.86543273926</ele>
        <time>2016-09-11T08:16:16.000Z</time>
      </trkpt>
      <trkpt lat="49.17392" lon="1.65561">
        <ele>124.80670166016</ele>
        <time>2016-09-11T08:16:18.000Z</time>
      </trkpt>
      <trkpt lat="49.17381" lon="1.65578">
        <ele>124.78082275391</ele>
        <time>2016-09-11T08:16:21.000Z</time>
      </trkpt>
      <trkpt lat="49.17374" lon="1.65589">
        <ele>124.79753112793</ele>
        <time>2016-09-11T08:16:23.000Z</time>
      </trkpt>
      <trkpt lat="49.17366" lon="1.656">
        <ele>124.87553405762</ele>
        <time>2016-09-11T08:16:25.000Z</time>
      </trkpt>
      <trkpt lat="49.17355" lon="1.65615">
        <ele>125.01567077637</ele>
        <time>2016-09-11T08:16:28.000Z</time>
      </trkpt>
      <trkpt lat="49.17346" lon="1.65626">
        <ele>125.19676208496</ele>
        <time>2016-09-11T08:16:31.000Z</time>
      </trkpt>
      <trkpt lat="49.17336" lon="1.65637">
        <ele>125.40303039551</ele>
        <time>2016-09-11T08:16:34.000Z</time>
      </trkpt>
      <trkpt lat="49.17327" lon="1.65649">
        <ele>125.53088378906</ele>
        <time>2016-09-11T08:16:37.000Z</time>
      </trkpt>
      <trkpt lat="49.1732" lon="1.65659">
        <ele>125.55918121338</ele>
        <time>2016-09-11T08:16:39.000Z</time>
      </trkpt>
      <trkpt lat="49.1731" lon="1.65669">
        <ele>125.4615020752</ele>
        <time>2016-09-11T08:16:42.000Z</time>
      </trkpt>
      <trkpt lat="49.17299" lon="1.65682">
        <ele>125.24519348145</ele>
        <time>2016-09-11T08:16:45.000Z</time>
      </trkpt>
      <trkpt lat="49.1729" lon="1.65687">
        <ele>124.89817047119</ele>
        <time>2016-09-11T08:16:47.000Z</time>
      </trkpt>
      <trkpt lat="49.1728" lon="1.65704">
        <ele>124.54911804199</ele>
        <time>2016-09-11T08:16:50.000Z</time>
      </trkpt>
      <trkpt lat="49.17272" lon="1.6572">
        <ele>124.23114013672</ele>
        <time>2016-09-11T08:16:53.000Z</time>
      </trkpt>
      <trkpt lat="49.17262" lon="1.65733">
        <ele>123.9287109375</ele>
        <time>2016-09-11T08:16:56.000Z</time>
      </trkpt>
      <trkpt lat="49.17251" lon="1.65747">
        <ele>123.6287612915</ele>
        <time>2016-09-11T08:16:59.000Z</time>
      </trkpt>
      <trkpt lat="49.17241" lon="1.6576">
        <ele>123.40417480469</ele>
        <time>2016-09-11T08:17:02.000Z</time>
      </trkpt>
      <trkpt lat="49.17229" lon="1.65773">
        <ele>123.25358581543</ele>
        <time>2016-09-11T08:17:05.000Z</time>
      </trkpt>
      <trkpt lat="49.17219" lon="1.65785">
        <ele>123.17765808105</ele>
        <time>2016-09-11T08:17:08.000Z</time>
      </trkpt>
      <trkpt lat="49.17212" lon="1.65793">
        <ele>123.18586730957</ele>
        <time>2016-09-11T08:17:10.000Z</time>
      </trkpt>
      <trkpt lat="49.17205" lon="1.65801">
        <ele>123.28830718994</ele>
        <time>2016-09-11T08:17:12.000Z</time>
      </trkpt>
      <trkpt lat="49.17194" lon="1.65813">
        <ele>123.43222808838</ele>
        <time>2016-09-11T08:17:15.000Z</time>
      </trkpt>
      <trkpt lat="49.17187" lon="1.6582">
        <ele>123.58237457275</ele>
        <time>2016-09-11T08:17:17.000Z</time>
      </trkpt>
      <trkpt lat="49.17176" lon="1.65829">
        <ele>123.72462463379</ele>
        <time>2016-09-11T08:17:20.000Z</time>
      </trkpt>
      <trkpt lat="49.17165" lon="1.65839">
        <ele>123.83929443359</ele>
        <time>2016-09-11T08:17:23.000Z</time>
      </trkpt>
      <trkpt lat="49.17155" lon="1.65853">
        <ele>123.86535644531</ele>
        <time>2016-09-11T08:17:26.000Z</time>
      </trkpt>
      <trkpt lat="49.17147" lon="1.6586">
        <ele>123.78900146484</ele>
        <time>2016-09-11T08:17:28.000Z</time>
      </trkpt>
      <trkpt lat="49.17136" lon="1.65868">
        <ele>123.60400390625</ele>
        <time>2016-09-11T08:17:31.000Z</time>
      </trkpt>
      <trkpt lat="49.17124" lon="1.65875">
        <ele>123.28729248047</ele>
        <time>2016-09-11T08:17:34.000Z</time>
      </trkpt>
      <trkpt lat="49.17112" lon="1.65885">
        <ele>122.88291168213</ele>
        <time>2016-09-11T08:17:37.000Z</time>
      </trkpt>
      <trkpt lat="49.17101" lon="1.65882">
        <ele>122.43215179443</ele>
        <time>2016-09-11T08:17:39.000Z</time>
      </trkpt>
      <trkpt lat="49.17087" lon="1.65891">
        <ele>121.92612457275</ele>
        <time>2016-09-11T08:17:42.000Z</time>
      </trkpt>
      <trkpt lat="49.17078" lon="1.65897">
        <ele>121.381980896</ele>
        <time>2016-09-11T08:17:44.000Z</time>
      </trkpt>
      <trkpt lat="49.17069" lon="1.65905">
        <ele>120.79560852051</ele>
        <time>2016-09-11T08:17:46.000Z</time>
      </trkpt>
      <trkpt lat="49.17054" lon="1.65917">
        <ele>120.10705566406</ele>
        <time>2016-09-11T08:17:49.000Z</time>
      </trkpt>
      <trkpt lat="49.17039" lon="1.65929">
        <ele>119.21466064453</ele>
        <time>2016-09-11T08:17:52.000Z</time>
      </trkpt>
      <trkpt lat="49.17025" lon="1.6594">
        <ele>118.18277740479</ele>
        <time>2016-09-11T08:17:55.000Z</time>
      </trkpt>
      <trkpt lat="49.17009" lon="1.65953">
        <ele>116.98307800293</ele>
        <time>2016-09-11T08:17:58.000Z</time>
      </trkpt>
      <trkpt lat="49.16998" lon="1.65963">
        <ele>115.73289489746</ele>
        <time>2016-09-11T08:18:00.000Z</time>
      </trkpt>
      <trkpt lat="49.16981" lon="1.65983">
        <ele>114.27976226807</ele>
        <time>2016-09-11T08:18:03.000Z</time>
      </trkpt>
      <trkpt lat="49.16963" lon="1.66008">
        <ele>112.7347869873</ele>
        <time>2016-09-11T08:18:06.000Z</time>
      </trkpt>
      <trkpt lat="49.16944" lon="1.66035">
        <ele>110.98626708984</ele>
        <time>2016-09-11T08:18:09.000Z</time>
      </trkpt>
      <trkpt lat="49.16927" lon="1.6607">
        <ele>109.12284851074</ele>
        <time>2016-09-11T08:18:12.000Z</time>
      </trkpt>
      <trkpt lat="49.16916" lon="1.66087">
        <ele>107.18245697021</ele>
        <time>2016-09-11T08:18:14.000Z</time>
      </trkpt>
      <trkpt lat="49.16896" lon="1.66099">
        <ele>104.80328369141</ele>
        <time>2016-09-11T08:18:17.000Z</time>
      </trkpt>
      <trkpt lat="49.1688" lon="1.66114">
        <ele>102.04145812988</ele>
        <time>2016-09-11T08:18:20.000Z</time>
      </trkpt>
      <trkpt lat="49.16865" lon="1.66114">
        <ele>99.29126739502</ele>
        <time>2016-09-11T08:18:22.000Z</time>
      </trkpt>
      <trkpt lat="49.16845" lon="1.66115">
        <ele>96.264488220215</ele>
        <time>2016-09-11T08:18:25.000Z</time>
      </trkpt>
      <trkpt lat="49.1682" lon="1.66115">
        <ele>92.736343383789</ele>
        <time>2016-09-11T08:18:28.000Z</time>
      </trkpt>
      <trkpt lat="49.16801" lon="1.66114">
        <ele>89.498809814453</ele>
        <time>2016-09-11T08:18:30.000Z</time>
      </trkpt>
      <trkpt lat="49.16767" lon="1.66114">
        <ele>86.020202636719</ele>
        <time>2016-09-11T08:18:33.000Z</time>
      </trkpt>
      <trkpt lat="49.16737" lon="1.66113">
        <ele>82.308799743652</ele>
        <time>2016-09-11T08:18:36.000Z</time>
      </trkpt>
      <trkpt lat="49.16719" lon="1.66112">
        <ele>79.042335510254</ele>
        <time>2016-09-11T08:18:39.000Z</time>
      </trkpt>
      <trkpt lat="49.16713" lon="1.66103">
        <ele>76.512435913086</ele>
        <time>2016-09-11T08:18:42.000Z</time>
      </trkpt>
      <trkpt lat="49.16718" lon="1.66092">
        <ele>74.67537689209</ele>
        <time>2016-09-11T08:18:45.000Z</time>
      </trkpt>
      <trkpt lat="49.16719" lon="1.66081">
        <ele>73.943519592285</ele>
        <time>2016-09-11T08:18:47.000Z</time>
      </trkpt>
      <trkpt lat="49.16723" lon="1.66065">
        <ele>73.900512695312</ele>
        <time>2016-09-11T08:18:50.000Z</time>
      </trkpt>
      <trkpt lat="49.16729" lon="1.66042">
        <ele>74.162391662598</ele>
        <time>2016-09-11T08:18:53.000Z</time>
      </trkpt>
      <trkpt lat="49.16732" lon="1.66026">
        <ele>74.494285583496</ele>
        <time>2016-09-11T08:18:55.000Z</time>
      </trkpt>
      <trkpt lat="49.16738" lon="1.66003">
        <ele>74.790161132812</ele>
        <time>2016-09-11T08:18:58.000Z</time>
      </trkpt>
      <trkpt lat="49.16744" lon="1.65978">
        <ele>74.942443847656</ele>
        <time>2016-09-11T08:19:01.000Z</time>
      </trkpt>
      <trkpt lat="49.16748" lon="1.65959">
        <ele>75.021072387695</ele>
        <time>2016-09-11T08:19:04.000Z</time>
      </trkpt>
      <trkpt lat="49.1675" lon="1.65958">
        <ele>75.066062927246</ele>
        <time>2016-09-11T08:19:16.000Z</time>
      </trkpt>
      <trkpt lat="49.16753" lon="1.65948">
        <ele>75.090309143066</ele>
        <time>2016-09-11T08:19:19.000Z</time>
      </trkpt>
      <trkpt lat="49.16755" lon="1.6594">
        <ele>75.023643493652</ele>
        <time>2016-09-11T08:19:21.000Z</time>
      </trkpt>
      <trkpt lat="49.16756" lon="1.65929">
        <ele>74.992881774902</ele>
        <time>2016-09-11T08:19:23.000Z</time>
      </trkpt>
      <trkpt lat="49.16743" lon="1.65914">
        <ele>74.396896362305</ele>
        <time>2016-09-11T08:19:26.000Z</time>
      </trkpt>
      <trkpt lat="49.16733" lon="1.65904">
        <ele>73.295600891113</ele>
        <time>2016-09-11T08:19:28.000Z</time>
      </trkpt>
      <trkpt lat="49.1672" lon="1.65893">
        <ele>71.671188354492</ele>
        <time>2016-09-11T08:19:30.000Z</time>
      </trkpt>
      <trkpt lat="49.16698" lon="1.65873">
        <ele>69.127944946289</ele>
        <time>2016-09-11T08:19:33.000Z</time>
      </trkpt>
      <trkpt lat="49.16683" lon="1.65858">
        <ele>66.047409057617</ele>
        <time>2016-09-11T08:19:35.000Z</time>
      </trkpt>
      <trkpt lat="49.16664" lon="1.65839">
        <ele>62.867942810059</ele>
        <time>2016-09-11T08:19:38.000Z</time>
      </trkpt>
      <trkpt lat="49.16644" lon="1.65819">
        <ele>59.398548126221</ele>
        <time>2016-09-11T08:19:41.000Z</time>
      </trkpt>
      <trkpt lat="49.16625" lon="1.65801">
        <ele>55.801414489746</ele>
        <time>2016-09-11T08:19:44.000Z</time>
      </trkpt>
      <trkpt lat="49.16614" lon="1.65789">
        <ele>52.755176544189</ele>
        <time>2016-09-11T08:19:46.000Z</time>
      </trkpt>
      <trkpt lat="49.16605" lon="1.65778">
        <ele>50.003189086914</ele>
        <time>2016-09-11T08:19:48.000Z</time>
      </trkpt>
      <trkpt lat="49.1659" lon="1.65761">
        <ele>47.59642791748</ele>
        <time>2016-09-11T08:19:51.000Z</time>
      </trkpt>
      <trkpt lat="49.16579" lon="1.65748">
        <ele>45.789276123047</ele>
        <time>2016-09-11T08:19:53.000Z</time>
      </trkpt>
      <trkpt lat="49.16568" lon="1.65738">
        <ele>44.685894012451</ele>
        <time>2016-09-11T08:19:56.000Z</time>
      </trkpt>
      <trkpt lat="49.16563" lon="1.65731">
        <ele>43.970867156982</ele>
        <time>2016-09-11T08:19:59.000Z</time>
      </trkpt>
      <trkpt lat="49.16565" lon="1.65722">
        <ele>43.522800445557</ele>
        <time>2016-09-11T08:20:01.000Z</time>
      </trkpt>
      <trkpt lat="49.16569" lon="1.65709">
        <ele>43.446544647217</ele>
        <time>2016-09-11T08:20:04.000Z</time>
      </trkpt>
      <trkpt lat="49.1657" lon="1.65699">
        <ele>43.534183502197</ele>
        <time>2016-09-11T08:20:06.000Z</time>
      </trkpt>
      <trkpt lat="49.16569" lon="1.65682">
        <ele>43.576522827148</ele>
        <time>2016-09-11T08:20:09.000Z</time>
      </trkpt>
      <trkpt lat="49.16563" lon="1.65669">
        <ele>43.650512695312</ele>
        <time>2016-09-11T08:20:12.000Z</time>
      </trkpt>
      <trkpt lat="49.1655" lon="1.65663">
        <ele>43.870460510254</ele>
        <time>2016-09-11T08:20:15.000Z</time>
      </trkpt>
      <trkpt lat="49.16537" lon="1.65661">
        <ele>44.231250762939</ele>
        <time>2016-09-11T08:20:18.000Z</time>
      </trkpt>
      <trkpt lat="49.1653" lon="1.65661">
        <ele>44.659461975098</ele>
        <time>2016-09-11T08:20:20.000Z</time>
      </trkpt>
      <trkpt lat="49.16521" lon="1.6566">
        <ele>45.156272888184</ele>
        <time>2016-09-11T08:20:23.000Z</time>
      </trkpt>
      <trkpt lat="49.16517" lon="1.65659">
        <ele>45.622974395752</ele>
        <time>2016-09-11T08:20:25.000Z</time>
      </trkpt>
      <trkpt lat="49.16509" lon="1.65656">
        <ele>46.033508300781</ele>
        <time>2016-09-11T08:20:28.000Z</time>
      </trkpt>
      <trkpt lat="49.16503" lon="1.65653">
        <ele>46.376056671143</ele>
        <time>2016-09-11T08:20:31.000Z</time>
      </trkpt>
      <trkpt lat="49.16494" lon="1.6565">
        <ele>46.817890167236</ele>
        <time>2016-09-11T08:20:34.000Z</time>
      </trkpt>
      <trkpt lat="49.16486" lon="1.65649">
        <ele>47.354827880859</ele>
        <time>2016-09-11T08:20:37.000Z</time>
      </trkpt>
      <trkpt lat="49.1648" lon="1.65648">
        <ele>47.966285705566</ele>
        <time>2016-09-11T08:20:40.000Z</time>
      </trkpt>
      <trkpt lat="49.16475" lon="1.65648">
        <ele>48.602256774902</ele>
        <time>2016-09-11T08:20:42.000Z</time>
      </trkpt>
      <trkpt lat="49.16469" lon="1.65646">
        <ele>49.315483093262</ele>
        <time>2016-09-11T08:20:45.000Z</time>
      </trkpt>
      <trkpt lat="49.16462" lon="1.65645">
        <ele>50.006233215332</ele>
        <time>2016-09-11T08:20:48.000Z</time>
      </trkpt>
      <trkpt lat="49.16457" lon="1.65645">
        <ele>50.629295349121</ele>
        <time>2016-09-11T08:20:50.000Z</time>
      </trkpt>
      <trkpt lat="49.16449" lon="1.65645">
        <ele>51.301918029785</ele>
        <time>2016-09-11T08:20:53.000Z</time>
      </trkpt>
      <trkpt lat="49.16441" lon="1.65646">
        <ele>52.038555145264</ele>
        <time>2016-09-11T08:20:56.000Z</time>
      </trkpt>
      <trkpt lat="49.16434" lon="1.65647">
        <ele>52.800098419189</ele>
        <time>2016-09-11T08:20:59.000Z</time>
      </trkpt>
      <trkpt lat="49.16429" lon="1.65648">
        <ele>53.526863098145</ele>
        <time>2016-09-11T08:21:01.000Z</time>
      </trkpt>
      <trkpt lat="49.16423" lon="1.6565">
        <ele>54.29691696167</ele>
        <time>2016-09-11T08:21:04.000Z</time>
      </trkpt>
      <trkpt lat="49.16418" lon="1.65652">
        <ele>55.000610351562</ele>
        <time>2016-09-11T08:21:06.000Z</time>
      </trkpt>
      <trkpt lat="49.16412" lon="1.65654">
        <ele>55.631053924561</ele>
        <time>2016-09-11T08:21:09.000Z</time>
      </trkpt>
      <trkpt lat="49.16407" lon="1.65656">
        <ele>56.159324645996</ele>
        <time>2016-09-11T08:21:12.000Z</time>
      </trkpt>
      <trkpt lat="49.16403" lon="1.65657">
        <ele>56.614196777344</ele>
        <time>2016-09-11T08:21:14.000Z</time>
      </trkpt>
      <trkpt lat="49.16398" lon="1.65659">
        <ele>56.965648651123</ele>
        <time>2016-09-11T08:21:17.000Z</time>
      </trkpt>
      <trkpt lat="49.16394" lon="1.65662">
        <ele>57.254432678223</ele>
        <time>2016-09-11T08:21:19.000Z</time>
      </trkpt>
      <trkpt lat="49.16391" lon="1.65663">
        <ele>57.477611541748</ele>
        <time>2016-09-11T08:21:21.000Z</time>
      </trkpt>
      <trkpt lat="49.16386" lon="1.65662">
        <ele>57.67635345459</ele>
        <time>2016-09-11T08:21:24.000Z</time>
      </trkpt>
      <trkpt lat="49.16382" lon="1.65663">
        <ele>57.864868164062</ele>
        <time>2016-09-11T08:21:26.000Z</time>
      </trkpt>
      <trkpt lat="49.16377" lon="1.65664">
        <ele>58.042827606201</ele>
        <time>2016-09-11T08:21:29.000Z</time>
      </trkpt>
      <trkpt lat="49.16373" lon="1.65662">
        <ele>58.210906982422</ele>
        <time>2016-09-11T08:21:31.000Z</time>
      </trkpt>
      <trkpt lat="49.1637" lon="1.65661">
        <ele>58.375389099121</ele>
        <time>2016-09-11T08:21:33.000Z</time>
      </trkpt>
      <trkpt lat="49.16364" lon="1.6566">
        <ele>58.543975830078</ele>
        <time>2016-09-11T08:21:36.000Z</time>
      </trkpt>
      <trkpt lat="49.1636" lon="1.65657">
        <ele>58.719623565674</ele>
        <time>2016-09-11T08:21:38.000Z</time>
      </trkpt>
      <trkpt lat="49.16356" lon="1.65654">
        <ele>58.89574432373</ele>
        <time>2016-09-11T08:21:40.000Z</time>
      </trkpt>
      <trkpt lat="49.1635" lon="1.6565">
        <ele>59.110401153564</ele>
        <time>2016-09-11T08:21:43.000Z</time>
      </trkpt>
      <trkpt lat="49.16344" lon="1.65647">
        <ele>59.364845275879</ele>
        <time>2016-09-11T08:21:46.000Z</time>
      </trkpt>
      <trkpt lat="49.16338" lon="1.65645">
        <ele>59.647338867188</ele>
        <time>2016-09-11T08:21:49.000Z</time>
      </trkpt>
      <trkpt lat="49.16333" lon="1.65643">
        <ele>59.950813293457</ele>
        <time>2016-09-11T08:21:51.000Z</time>
      </trkpt>
      <trkpt lat="49.16327" lon="1.65641">
        <ele>60.313915252686</ele>
        <time>2016-09-11T08:21:54.000Z</time>
      </trkpt>
      <trkpt lat="49.16321" lon="1.6564">
        <ele>60.711936950684</ele>
        <time>2016-09-11T08:21:57.000Z</time>
      </trkpt>
      <trkpt lat="49.16316" lon="1.65638">
        <ele>61.114692687988</ele>
        <time>2016-09-11T08:21:59.000Z</time>
      </trkpt>
      <trkpt lat="49.16311" lon="1.65637">
        <ele>61.526073455811</ele>
        <time>2016-09-11T08:22:01.000Z</time>
      </trkpt>
      <trkpt lat="49.16306" lon="1.65635">
        <ele>61.973499298096</ele>
        <time>2016-09-11T08:22:03.000Z</time>
      </trkpt>
      <trkpt lat="49.16299" lon="1.65632">
        <ele>62.423400878906</ele>
        <time>2016-09-11T08:22:06.000Z</time>
      </trkpt>
      <trkpt lat="49.16291" lon="1.65629">
        <ele>62.895355224609</ele>
        <time>2016-09-11T08:22:09.000Z</time>
      </trkpt>
      <trkpt lat="49.16286" lon="1.65627">
        <ele>63.376476287842</ele>
        <time>2016-09-11T08:22:11.000Z</time>
      </trkpt>
      <trkpt lat="49.16279" lon="1.65624">
        <ele>63.883697509766</ele>
        <time>2016-09-11T08:22:14.000Z</time>
      </trkpt>
      <trkpt lat="49.16272" lon="1.65621">
        <ele>64.401100158691</ele>
        <time>2016-09-11T08:22:17.000Z</time>
      </trkpt>
      <trkpt lat="49.16267" lon="1.65619">
        <ele>64.884323120117</ele>
        <time>2016-09-11T08:22:19.000Z</time>
      </trkpt>
      <trkpt lat="49.1626" lon="1.65616">
        <ele>65.356132507324</ele>
        <time>2016-09-11T08:22:22.000Z</time>
      </trkpt>
      <trkpt lat="49.16255" lon="1.65613">
        <ele>65.808921813965</ele>
        <time>2016-09-11T08:22:24.000Z</time>
      </trkpt>
      <trkpt lat="49.16248" lon="1.65609">
        <ele>66.229537963867</ele>
        <time>2016-09-11T08:22:27.000Z</time>
      </trkpt>
      <trkpt lat="49.16244" lon="1.65608">
        <ele>66.551795959473</ele>
        <time>2016-09-11T08:22:29.000Z</time>
      </trkpt>
      <trkpt lat="49.16237" lon="1.65605">
        <ele>66.818176269531</ele>
        <time>2016-09-11T08:22:32.000Z</time>
      </trkpt>
      <trkpt lat="49.1623" lon="1.65601">
        <ele>67.003349304199</ele>
        <time>2016-09-11T08:22:35.000Z</time>
      </trkpt>
      <trkpt lat="49.16226" lon="1.656">
        <ele>67.146369934082</ele>
        <time>2016-09-11T08:22:37.000Z</time>
      </trkpt>
      <trkpt lat="49.16219" lon="1.65596">
        <ele>67.268890380859</ele>
        <time>2016-09-11T08:22:40.000Z</time>
      </trkpt>
      <trkpt lat="49.16215" lon="1.65594">
        <ele>67.418113708496</ele>
        <time>2016-09-11T08:22:42.000Z</time>
      </trkpt>
      <trkpt lat="49.16209" lon="1.65593">
        <ele>67.59464263916</ele>
        <time>2016-09-11T08:22:45.000Z</time>
      </trkpt>
      <trkpt lat="49.16202" lon="1.65591">
        <ele>67.793334960938</ele>
        <time>2016-09-11T08:22:48.000Z</time>
      </trkpt>
      <trkpt lat="49.16195" lon="1.65589">
        <ele>68.038047790527</ele>
        <time>2016-09-11T08:22:51.000Z</time>
      </trkpt>
      <trkpt lat="49.16191" lon="1.65587">
        <ele>68.278633117676</ele>
        <time>2016-09-11T08:22:53.000Z</time>
      </trkpt>
      <trkpt lat="49.16187" lon="1.65586">
        <ele>68.530578613281</ele>
        <time>2016-09-11T08:22:55.000Z</time>
      </trkpt>
      <trkpt lat="49.1618" lon="1.65586">
        <ele>68.780838012695</ele>
        <time>2016-09-11T08:22:58.000Z</time>
      </trkpt>
      <trkpt lat="49.16176" lon="1.65585">
        <ele>69.033470153809</ele>
        <time>2016-09-11T08:23:00.000Z</time>
      </trkpt>
      <trkpt lat="49.16172" lon="1.65582">
        <ele>69.286735534668</ele>
        <time>2016-09-11T08:23:02.000Z</time>
      </trkpt>
      <trkpt lat="49.16167" lon="1.65579">
        <ele>69.53784942627</ele>
        <time>2016-09-11T08:23:04.000Z</time>
      </trkpt>
      <trkpt lat="49.16162" lon="1.65576">
        <ele>69.74536895752</ele>
        <time>2016-09-11T08:23:07.000Z</time>
      </trkpt>
      <trkpt lat="49.16157" lon="1.65572">
        <ele>69.911399841309</ele>
        <time>2016-09-11T08:23:10.000Z</time>
      </trkpt>
      <trkpt lat="49.16151" lon="1.65563">
        <ele>70.046279907227</ele>
        <time>2016-09-11T08:23:13.000Z</time>
      </trkpt>
      <trkpt lat="49.16146" lon="1.65554">
        <ele>70.133743286133</ele>
        <time>2016-09-11T08:23:16.000Z</time>
      </trkpt>
      <trkpt lat="49.16142" lon="1.65549">
        <ele>70.188354492188</ele>
        <time>2016-09-11T08:23:18.000Z</time>
      </trkpt>
      <trkpt lat="49.16137" lon="1.65542">
        <ele>70.265319824219</ele>
        <time>2016-09-11T08:23:21.000Z</time>
      </trkpt>
      <trkpt lat="49.16132" lon="1.65536">
        <ele>70.359603881836</ele>
        <time>2016-09-11T08:23:24.000Z</time>
      </trkpt>
      <trkpt lat="49.16128" lon="1.65531">
        <ele>70.448173522949</ele>
        <time>2016-09-11T08:23:26.000Z</time>
      </trkpt>
      <trkpt lat="49.16124" lon="1.65522">
        <ele>70.55973815918</ele>
        <time>2016-09-11T08:23:29.000Z</time>
      </trkpt>
      <trkpt lat="49.16121" lon="1.65512">
        <ele>70.707382202148</ele>
        <time>2016-09-11T08:23:32.000Z</time>
      </trkpt>
      <trkpt lat="49.16118" lon="1.65502">
        <ele>70.88557434082</ele>
        <time>2016-09-11T08:23:35.000Z</time>
      </trkpt>
      <trkpt lat="49.16116" lon="1.65492">
        <ele>71.101760864258</ele>
        <time>2016-09-11T08:23:38.000Z</time>
      </trkpt>
      <trkpt lat="49.16114" lon="1.65485">
        <ele>71.33715057373</ele>
        <time>2016-09-11T08:23:40.000Z</time>
      </trkpt>
      <trkpt lat="49.16112" lon="1.65474">
        <ele>71.584671020508</ele>
        <time>2016-09-11T08:23:43.000Z</time>
      </trkpt>
      <trkpt lat="49.16111" lon="1.65467">
        <ele>71.818328857422</ele>
        <time>2016-09-11T08:23:45.000Z</time>
      </trkpt>
      <trkpt lat="49.16109" lon="1.65456">
        <ele>72.05583190918</ele>
        <time>2016-09-11T08:23:48.000Z</time>
      </trkpt>
      <trkpt lat="49.16108" lon="1.65445">
        <ele>72.291519165039</ele>
        <time>2016-09-11T08:23:51.000Z</time>
      </trkpt>
      <trkpt lat="49.16106" lon="1.65438">
        <ele>72.522727966309</ele>
        <time>2016-09-11T08:23:53.000Z</time>
      </trkpt>
      <trkpt lat="49.16105" lon="1.65431">
        <ele>72.730194091797</ele>
        <time>2016-09-11T08:23:55.000Z</time>
      </trkpt>
      <trkpt lat="49.16103" lon="1.65425">
        <ele>72.929466247559</ele>
        <time>2016-09-11T08:23:57.000Z</time>
      </trkpt>
      <trkpt lat="49.16101" lon="1.65415">
        <ele>73.119186401367</ele>
        <time>2016-09-11T08:24:00.000Z</time>
      </trkpt>
      <trkpt lat="49.16098" lon="1.65404">
        <ele>73.326736450195</ele>
        <time>2016-09-11T08:24:03.000Z</time>
      </trkpt>
      <trkpt lat="49.16096" lon="1.65394">
        <ele>73.572387695312</ele>
        <time>2016-09-11T08:24:06.000Z</time>
      </trkpt>
      <trkpt lat="49.16095" lon="1.65386">
        <ele>73.830978393555</ele>
        <time>2016-09-11T08:24:08.000Z</time>
      </trkpt>
      <trkpt lat="49.16092" lon="1.65376">
        <ele>74.126358032227</ele>
        <time>2016-09-11T08:24:11.000Z</time>
      </trkpt>
      <trkpt lat="49.1609" lon="1.65369">
        <ele>74.417755126953</ele>
        <time>2016-09-11T08:24:13.000Z</time>
      </trkpt>
      <trkpt lat="49.16087" lon="1.65359">
        <ele>74.694511413574</ele>
        <time>2016-09-11T08:24:16.000Z</time>
      </trkpt>
      <trkpt lat="49.16086" lon="1.65351">
        <ele>74.943214416504</ele>
        <time>2016-09-11T08:24:18.000Z</time>
      </trkpt>
      <trkpt lat="49.16083" lon="1.6534">
        <ele>75.213302612305</ele>
        <time>2016-09-11T08:24:21.000Z</time>
      </trkpt>
      <trkpt lat="49.1608" lon="1.65331">
        <ele>75.465492248535</ele>
        <time>2016-09-11T08:24:23.000Z</time>
      </trkpt>
      <trkpt lat="49.16077" lon="1.65318">
        <ele>75.776878356934</ele>
        <time>2016-09-11T08:24:26.000Z</time>
      </trkpt>
      <trkpt lat="49.16073" lon="1.6531">
        <ele>76.093589782715</ele>
        <time>2016-09-11T08:24:28.000Z</time>
      </trkpt>
      <trkpt lat="49.1607" lon="1.65302">
        <ele>76.423851013184</ele>
        <time>2016-09-11T08:24:30.000Z</time>
      </trkpt>
      <trkpt lat="49.16066" lon="1.65294">
        <ele>76.740943908691</ele>
        <time>2016-09-11T08:24:32.000Z</time>
      </trkpt>
      <trkpt lat="49.16062" lon="1.65287">
        <ele>77.06184387207</ele>
        <time>2016-09-11T08:24:34.000Z</time>
      </trkpt>
      <trkpt lat="49.16056" lon="1.65276">
        <ele>77.357620239258</ele>
        <time>2016-09-11T08:24:37.000Z</time>
      </trkpt>
      <trkpt lat="49.1605" lon="1.65266">
        <ele>77.669425964355</ele>
        <time>2016-09-11T08:24:40.000Z</time>
      </trkpt>
      <trkpt lat="49.16043" lon="1.65255">
        <ele>78.006362915039</ele>
        <time>2016-09-11T08:24:43.000Z</time>
      </trkpt>
      <trkpt lat="49.16039" lon="1.65248">
        <ele>78.340560913086</ele>
        <time>2016-09-11T08:24:45.000Z</time>
      </trkpt>
      <trkpt lat="49.16034" lon="1.65241">
        <ele>78.66015625</ele>
        <time>2016-09-11T08:24:47.000Z</time>
      </trkpt>
      <trkpt lat="49.16026" lon="1.65231">
        <ele>78.96070098877</ele>
        <time>2016-09-11T08:24:50.000Z</time>
      </trkpt>
      <trkpt lat="49.16021" lon="1.65224">
        <ele>79.22225189209</ele>
        <time>2016-09-11T08:24:52.000Z</time>
      </trkpt>
      <trkpt lat="49.16013" lon="1.65214">
        <ele>79.464492797852</ele>
        <time>2016-09-11T08:24:55.000Z</time>
      </trkpt>
      <trkpt lat="49.16008" lon="1.65207">
        <ele>79.702575683594</ele>
        <time>2016-09-11T08:24:57.000Z</time>
      </trkpt>
      <trkpt lat="49.16002" lon="1.65197">
        <ele>79.976455688477</ele>
        <time>2016-09-11T08:25:00.000Z</time>
      </trkpt>
      <trkpt lat="49.15995" lon="1.65187">
        <ele>80.268432617188</ele>
        <time>2016-09-11T08:25:03.000Z</time>
      </trkpt>
      <trkpt lat="49.15992" lon="1.6518">
        <ele>80.572441101074</ele>
        <time>2016-09-11T08:25:05.000Z</time>
      </trkpt>
      <trkpt lat="49.15988" lon="1.65169">
        <ele>80.895362854004</ele>
        <time>2016-09-11T08:25:08.000Z</time>
      </trkpt>
      <trkpt lat="49.15982" lon="1.65158">
        <ele>81.216743469238</ele>
        <time>2016-09-11T08:25:11.000Z</time>
      </trkpt>
      <trkpt lat="49.15978" lon="1.6515">
        <ele>81.487503051758</ele>
        <time>2016-09-11T08:25:13.000Z</time>
      </trkpt>
      <trkpt lat="49.1597" lon="1.65138">
        <ele>81.71817779541</ele>
        <time>2016-09-11T08:25:16.000Z</time>
      </trkpt>
      <trkpt lat="49.15965" lon="1.6513">
        <ele>81.926734924316</ele>
        <time>2016-09-11T08:25:18.000Z</time>
      </trkpt>
      <trkpt lat="49.15956" lon="1.65117">
        <ele>82.10009765625</ele>
        <time>2016-09-11T08:25:21.000Z</time>
      </trkpt>
      <trkpt lat="49.15948" lon="1.65105">
        <ele>82.276794433594</ele>
        <time>2016-09-11T08:25:24.000Z</time>
      </trkpt>
      <trkpt lat="49.15943" lon="1.65097">
        <ele>82.467636108398</ele>
        <time>2016-09-11T08:25:26.000Z</time>
      </trkpt>
      <trkpt lat="49.15938" lon="1.65089">
        <ele>82.664978027344</ele>
        <time>2016-09-11T08:25:28.000Z</time>
      </trkpt>
      <trkpt lat="49.1593" lon="1.65077">
        <ele>82.897689819336</ele>
        <time>2016-09-11T08:25:31.000Z</time>
      </trkpt>
      <trkpt lat="49.15923" lon="1.65065">
        <ele>83.153938293457</ele>
        <time>2016-09-11T08:25:34.000Z</time>
      </trkpt>
      <trkpt lat="49.15918" lon="1.65053">
        <ele>83.437942504883</ele>
        <time>2016-09-11T08:25:37.000Z</time>
      </trkpt>
      <trkpt lat="49.15913" lon="1.65041">
        <ele>83.794204711914</ele>
        <time>2016-09-11T08:25:40.000Z</time>
      </trkpt>
      <trkpt lat="49.15908" lon="1.65029">
        <ele>84.221809387207</ele>
        <time>2016-09-11T08:25:43.000Z</time>
      </trkpt>
      <trkpt lat="49.15903" lon="1.65018">
        <ele>84.703468322754</ele>
        <time>2016-09-11T08:25:46.000Z</time>
      </trkpt>
      <trkpt lat="49.15901" lon="1.65011">
        <ele>85.188278198242</ele>
        <time>2016-09-11T08:25:48.000Z</time>
      </trkpt>
      <trkpt lat="49.15897" lon="1.65">
        <ele>85.709129333496</ele>
        <time>2016-09-11T08:25:51.000Z</time>
      </trkpt>
      <trkpt lat="49.15892" lon="1.6499">
        <ele>86.246299743652</ele>
        <time>2016-09-11T08:25:54.000Z</time>
      </trkpt>
      <trkpt lat="49.15889" lon="1.64981">
        <ele>86.784255981445</ele>
        <time>2016-09-11T08:25:57.000Z</time>
      </trkpt>
      <trkpt lat="49.15886" lon="1.64975">
        <ele>87.288734436035</ele>
        <time>2016-09-11T08:25:59.000Z</time>
      </trkpt>
      <trkpt lat="49.15884" lon="1.64969">
        <ele>87.796737670898</ele>
        <time>2016-09-11T08:26:01.000Z</time>
      </trkpt>
      <trkpt lat="49.15881" lon="1.64962">
        <ele>88.309844970703</ele>
        <time>2016-09-11T08:26:04.000Z</time>
      </trkpt>
      <trkpt lat="49.15878" lon="1.64954">
        <ele>88.806785583496</ele>
        <time>2016-09-11T08:26:07.000Z</time>
      </trkpt>
      <trkpt lat="49.15875" lon="1.64949">
        <ele>89.270401000977</ele>
        <time>2016-09-11T08:26:09.000Z</time>
      </trkpt>
      <trkpt lat="49.15872" lon="1.64942">
        <ele>89.762008666992</ele>
        <time>2016-09-11T08:26:12.000Z</time>
      </trkpt>
      <trkpt lat="49.1587" lon="1.64938">
        <ele>90.254592895508</ele>
        <time>2016-09-11T08:26:14.000Z</time>
      </trkpt>
      <trkpt lat="49.15869" lon="1.64933">
        <ele>90.702743530273</ele>
        <time>2016-09-11T08:26:16.000Z</time>
      </trkpt>
      <trkpt lat="49.15866" lon="1.64926">
        <ele>91.16365814209</ele>
        <time>2016-09-11T08:26:19.000Z</time>
      </trkpt>
      <trkpt lat="49.15862" lon="1.64919">
        <ele>91.676177978516</ele>
        <time>2016-09-11T08:26:22.000Z</time>
      </trkpt>
      <trkpt lat="49.1586" lon="1.64914">
        <ele>92.158843994141</ele>
        <time>2016-09-11T08:26:24.000Z</time>
      </trkpt>
      <trkpt lat="49.15857" lon="1.64907">
        <ele>92.68229675293</ele>
        <time>2016-09-11T08:26:27.000Z</time>
      </trkpt>
      <trkpt lat="49.15855" lon="1.64903">
        <ele>93.212539672852</ele>
        <time>2016-09-11T08:26:29.000Z</time>
      </trkpt>
      <trkpt lat="49.15854" lon="1.64898">
        <ele>93.69425201416</ele>
        <time>2016-09-11T08:26:31.000Z</time>
      </trkpt>
      <trkpt lat="49.1585" lon="1.64891">
        <ele>94.167984008789</ele>
        <time>2016-09-11T08:26:34.000Z</time>
      </trkpt>
      <trkpt lat="49.15848" lon="1.64886">
        <ele>94.633499145508</ele>
        <time>2016-09-11T08:26:36.000Z</time>
      </trkpt>
      <trkpt lat="49.15846" lon="1.64882">
        <ele>95.046524047852</ele>
        <time>2016-09-11T08:26:38.000Z</time>
      </trkpt>
      <trkpt lat="49.15844" lon="1.64876">
        <ele>95.471336364746</ele>
        <time>2016-09-11T08:26:41.000Z</time>
      </trkpt>
      <trkpt lat="49.15842" lon="1.6487">
        <ele>95.909439086914</ele>
        <time>2016-09-11T08:26:44.000Z</time>
      </trkpt>
      <trkpt lat="49.15841" lon="1.64866">
        <ele>96.271644592285</ele>
        <time>2016-09-11T08:26:46.000Z</time>
      </trkpt>
      <trkpt lat="49.15839" lon="1.64861">
        <ele>96.639099121094</ele>
        <time>2016-09-11T08:26:49.000Z</time>
      </trkpt>
      <trkpt lat="49.15837" lon="1.64855">
        <ele>97.021553039551</ele>
        <time>2016-09-11T08:26:52.000Z</time>
      </trkpt>
      <trkpt lat="49.15834" lon="1.6485">
        <ele>97.388107299805</ele>
        <time>2016-09-11T08:26:55.000Z</time>
      </trkpt>
      <trkpt lat="49.15831" lon="1.64845">
        <ele>97.759376525879</ele>
        <time>2016-09-11T08:26:58.000Z</time>
      </trkpt>
      <trkpt lat="49.15829" lon="1.64841">
        <ele>98.145217895508</ele>
        <time>2016-09-11T08:27:00.000Z</time>
      </trkpt>
      <trkpt lat="49.15826" lon="1.64836">
        <ele>98.549407958984</ele>
        <time>2016-09-11T08:27:03.000Z</time>
      </trkpt>
      <trkpt lat="49.15823" lon="1.64831">
        <ele>98.987930297852</ele>
        <time>2016-09-11T08:27:06.000Z</time>
      </trkpt>
      <trkpt lat="49.1582" lon="1.64827">
        <ele>99.440017700195</ele>
        <time>2016-09-11T08:27:08.000Z</time>
      </trkpt>
      <trkpt lat="49.15819" lon="1.64824">
        <ele>99.878746032715</ele>
        <time>2016-09-11T08:27:10.000Z</time>
      </trkpt>
      <trkpt lat="49.15817" lon="1.6482">
        <ele>100.3338394165</ele>
        <time>2016-09-11T08:27:12.000Z</time>
      </trkpt>
      <trkpt lat="49.15814" lon="1.64815">
        <ele>100.81158447266</ele>
        <time>2016-09-11T08:27:15.000Z</time>
      </trkpt>
      <trkpt lat="49.15812" lon="1.64811">
        <ele>101.26628112793</ele>
        <time>2016-09-11T08:27:17.000Z</time>
      </trkpt>
      <trkpt lat="49.1581" lon="1.64807">
        <ele>101.70902252197</ele>
        <time>2016-09-11T08:27:19.000Z</time>
      </trkpt>
      <trkpt lat="49.15808" lon="1.64804">
        <ele>102.16239929199</ele>
        <time>2016-09-11T08:27:21.000Z</time>
      </trkpt>
      <trkpt lat="49.15805" lon="1.64798">
        <ele>102.67752838135</ele>
        <time>2016-09-11T08:27:24.000Z</time>
      </trkpt>
      <trkpt lat="49.15802" lon="1.64792">
        <ele>103.21022033691</ele>
        <time>2016-09-11T08:27:27.000Z</time>
      </trkpt>
      <trkpt lat="49.15798" lon="1.64787">
        <ele>103.7893447876</ele>
        <time>2016-09-11T08:27:30.000Z</time>
      </trkpt>
      <trkpt lat="49.15797" lon="1.64783">
        <ele>104.37626647949</ele>
        <time>2016-09-11T08:27:32.000Z</time>
      </trkpt>
      <trkpt lat="49.15795" lon="1.64779">
        <ele>104.96769714355</ele>
        <time>2016-09-11T08:27:34.000Z</time>
      </trkpt>
      <trkpt lat="49.15792" lon="1.64773">
        <ele>105.54404449463</ele>
        <time>2016-09-11T08:27:37.000Z</time>
      </trkpt>
      <trkpt lat="49.1579" lon="1.6477">
        <ele>106.07205963135</ele>
        <time>2016-09-11T08:27:39.000Z</time>
      </trkpt>
      <trkpt lat="49.15787" lon="1.64764">
        <ele>106.6000213623</ele>
        <time>2016-09-11T08:27:42.000Z</time>
      </trkpt>
      <trkpt lat="49.15784" lon="1.64759">
        <ele>107.16920471191</ele>
        <time>2016-09-11T08:27:45.000Z</time>
      </trkpt>
      <trkpt lat="49.15783" lon="1.64755">
        <ele>107.73435211182</ele>
        <time>2016-09-11T08:27:47.000Z</time>
      </trkpt>
      <trkpt lat="49.1578" lon="1.6475">
        <ele>108.30255126953</ele>
        <time>2016-09-11T08:27:50.000Z</time>
      </trkpt>
      <trkpt lat="49.15779" lon="1.64746">
        <ele>108.84892272949</ele>
        <time>2016-09-11T08:27:52.000Z</time>
      </trkpt>
      <trkpt lat="49.15777" lon="1.64743">
        <ele>109.3288192749</ele>
        <time>2016-09-11T08:27:54.000Z</time>
      </trkpt>
      <trkpt lat="49.15775" lon="1.64737">
        <ele>109.77461242676</ele>
        <time>2016-09-11T08:27:57.000Z</time>
      </trkpt>
      <trkpt lat="49.15773" lon="1.64732">
        <ele>110.223777771</ele>
        <time>2016-09-11T08:28:00.000Z</time>
      </trkpt>
      <trkpt lat="49.15772" lon="1.64728">
        <ele>110.59721374512</ele>
        <time>2016-09-11T08:28:02.000Z</time>
      </trkpt>
      <trkpt lat="49.15771" lon="1.64723">
        <ele>110.9845199585</ele>
        <time>2016-09-11T08:28:05.000Z</time>
      </trkpt>
      <trkpt lat="49.1577" lon="1.64719">
        <ele>111.34893798828</ele>
        <time>2016-09-11T08:28:07.000Z</time>
      </trkpt>
      <trkpt lat="49.15769" lon="1.64715">
        <ele>111.68426513672</ele>
        <time>2016-09-11T08:28:09.000Z</time>
      </trkpt>
      <trkpt lat="49.15768" lon="1.64709">
        <ele>112.00852966309</ele>
        <time>2016-09-11T08:28:12.000Z</time>
      </trkpt>
      <trkpt lat="49.15766" lon="1.64703">
        <ele>112.37260437012</ele>
        <time>2016-09-11T08:28:15.000Z</time>
      </trkpt>
      <trkpt lat="49.15765" lon="1.64699">
        <ele>112.71241760254</ele>
        <time>2016-09-11T08:28:17.000Z</time>
      </trkpt>
      <trkpt lat="49.15763" lon="1.64695">
        <ele>113.06614685059</ele>
        <time>2016-09-11T08:28:19.000Z</time>
      </trkpt>
      <trkpt lat="49.15762" lon="1.6469">
        <ele>113.43165588379</ele>
        <time>2016-09-11T08:28:22.000Z</time>
      </trkpt>
      <trkpt lat="49.1576" lon="1.64684">
        <ele>113.80133056641</ele>
        <time>2016-09-11T08:28:25.000Z</time>
      </trkpt>
      <trkpt lat="49.15758" lon="1.64678">
        <ele>114.16194152832</ele>
        <time>2016-09-11T08:28:28.000Z</time>
      </trkpt>
      <trkpt lat="49.15756" lon="1.64673">
        <ele>114.54103851318</ele>
        <time>2016-09-11T08:28:31.000Z</time>
      </trkpt>
      <trkpt lat="49.15755" lon="1.64669">
        <ele>114.9109954834</ele>
        <time>2016-09-11T08:28:33.000Z</time>
      </trkpt>
      <trkpt lat="49.15753" lon="1.64663">
        <ele>115.31666564941</ele>
        <time>2016-09-11T08:28:36.000Z</time>
      </trkpt>
      <trkpt lat="49.15751" lon="1.64657">
        <ele>115.77053070068</ele>
        <time>2016-09-11T08:28:39.000Z</time>
      </trkpt>
      <trkpt lat="49.15749" lon="1.64653">
        <ele>116.21928405762</ele>
        <time>2016-09-11T08:28:41.000Z</time>
      </trkpt>
      <trkpt lat="49.15747" lon="1.64647">
        <ele>116.71339416504</ele>
        <time>2016-09-11T08:28:44.000Z</time>
      </trkpt>
      <trkpt lat="49.15745" lon="1.64641">
        <ele>117.2744140625</ele>
        <time>2016-09-11T08:28:47.000Z</time>
      </trkpt>
      <trkpt lat="49.15742" lon="1.64635">
        <ele>117.8567276001</ele>
        <time>2016-09-11T08:28:50.000Z</time>
      </trkpt>
      <trkpt lat="49.15741" lon="1.64631">
        <ele>118.39902496338</ele>
        <time>2016-09-11T08:28:52.000Z</time>
      </trkpt>
      <trkpt lat="49.15739" lon="1.64625">
        <ele>118.9933013916</ele>
        <time>2016-09-11T08:28:55.000Z</time>
      </trkpt>
      <trkpt lat="49.15738" lon="1.64619">
        <ele>119.59455871582</ele>
        <time>2016-09-11T08:28:58.000Z</time>
      </trkpt>
      <trkpt lat="49.15737" lon="1.64613">
        <ele>120.21051025391</ele>
        <time>2016-09-11T08:29:01.000Z</time>
      </trkpt>
      <trkpt lat="49.15736" lon="1.64607">
        <ele>120.83017730713</ele>
        <time>2016-09-11T08:29:04.000Z</time>
      </trkpt>
      <trkpt lat="49.15734" lon="1.64603">
        <ele>121.4541015625</ele>
        <time>2016-09-11T08:29:06.000Z</time>
      </trkpt>
      <trkpt lat="49.15734" lon="1.64598">
        <ele>122.04550933838</ele>
        <time>2016-09-11T08:29:08.000Z</time>
      </trkpt>
      <trkpt lat="49.15734" lon="1.6459">
        <ele>122.66180419922</ele>
        <time>2016-09-11T08:29:11.000Z</time>
      </trkpt>
      <trkpt lat="49.15735" lon="1.64582">
        <ele>123.28116607666</ele>
        <time>2016-09-11T08:29:14.000Z</time>
      </trkpt>
      <trkpt lat="49.15735" lon="1.64577">
        <ele>123.86025238037</ele>
        <time>2016-09-11T08:29:16.000Z</time>
      </trkpt>
      <trkpt lat="49.15736" lon="1.64569">
        <ele>124.48124694824</ele>
        <time>2016-09-11T08:29:19.000Z</time>
      </trkpt>
      <trkpt lat="49.15737" lon="1.64561">
        <ele>125.1502532959</ele>
        <time>2016-09-11T08:29:22.000Z</time>
      </trkpt>
      <trkpt lat="49.15738" lon="1.64553">
        <ele>125.80126953125</ele>
        <time>2016-09-11T08:29:25.000Z</time>
      </trkpt>
      <trkpt lat="49.15739" lon="1.64546">
        <ele>126.44437408447</ele>
        <time>2016-09-11T08:29:28.000Z</time>
      </trkpt>
      <trkpt lat="49.1574" lon="1.64542">
        <ele>127.06992340088</ele>
        <time>2016-09-11T08:29:30.000Z</time>
      </trkpt>
      <trkpt lat="49.15741" lon="1.64534">
        <ele>127.68910980225</ele>
        <time>2016-09-11T08:29:33.000Z</time>
      </trkpt>
      <trkpt lat="49.15741" lon="1.6453">
        <ele>128.25338745117</ele>
        <time>2016-09-11T08:29:35.000Z</time>
      </trkpt>
      <trkpt lat="49.15742" lon="1.64525">
        <ele>128.7645111084</ele>
        <time>2016-09-11T08:29:37.000Z</time>
      </trkpt>
      <trkpt lat="49.15742" lon="1.64519">
        <ele>129.27812194824</ele>
        <time>2016-09-11T08:29:40.000Z</time>
      </trkpt>
      <trkpt lat="49.15743" lon="1.64514">
        <ele>129.80102539062</ele>
        <time>2016-09-11T08:29:42.000Z</time>
      </trkpt>
      <trkpt lat="49.15743" lon="1.64508">
        <ele>130.32255554199</ele>
        <time>2016-09-11T08:29:45.000Z</time>
      </trkpt>
      <trkpt lat="49.15744" lon="1.64503">
        <ele>130.84967041016</ele>
        <time>2016-09-11T08:29:47.000Z</time>
      </trkpt>
      <trkpt lat="49.15744" lon="1.64495">
        <ele>131.3703918457</ele>
        <time>2016-09-11T08:29:50.000Z</time>
      </trkpt>
      <trkpt lat="49.15745" lon="1.64488">
        <ele>131.78703308105</ele>
        <time>2016-09-11T08:29:53.000Z</time>
      </trkpt>
      <trkpt lat="49.15745" lon="1.64484">
        <ele>132.13772583008</ele>
        <time>2016-09-11T08:29:55.000Z</time>
      </trkpt>
      <trkpt lat="49.15744" lon="1.64479">
        <ele>132.37940979004</ele>
        <time>2016-09-11T08:29:57.000Z</time>
      </trkpt>
      <trkpt lat="49.15743" lon="1.64472">
        <ele>132.56062316895</ele>
        <time>2016-09-11T08:30:00.000Z</time>
      </trkpt>
      <trkpt lat="49.15742" lon="1.64465">
        <ele>132.70016479492</ele>
        <time>2016-09-11T08:30:03.000Z</time>
      </trkpt>
      <trkpt lat="49.15741" lon="1.64458">
        <ele>132.84671020508</ele>
        <time>2016-09-11T08:30:06.000Z</time>
      </trkpt>
      <trkpt lat="49.15738" lon="1.64451">
        <ele>133.00814819336</ele>
        <time>2016-09-11T08:30:09.000Z</time>
      </trkpt>
      <trkpt lat="49.15737" lon="1.64446">
        <ele>133.16920471191</ele>
        <time>2016-09-11T08:30:11.000Z</time>
      </trkpt>
      <trkpt lat="49.15734" lon="1.64439">
        <ele>133.32746887207</ele>
        <time>2016-09-11T08:30:14.000Z</time>
      </trkpt>
      <trkpt lat="49.15731" lon="1.64431">
        <ele>133.48147583008</ele>
        <time>2016-09-11T08:30:17.000Z</time>
      </trkpt>
      <trkpt lat="49.15729" lon="1.64425">
        <ele>133.61924743652</ele>
        <time>2016-09-11T08:30:19.000Z</time>
      </trkpt>
      <trkpt lat="49.15726" lon="1.64417">
        <ele>133.74789428711</ele>
        <time>2016-09-11T08:30:22.000Z</time>
      </trkpt>
      <trkpt lat="49.15724" lon="1.64411">
        <ele>133.87780761719</ele>
        <time>2016-09-11T08:30:24.000Z</time>
      </trkpt>
      <trkpt lat="49.15722" lon="1.64405">
        <ele>133.99765014648</ele>
        <time>2016-09-11T08:30:26.000Z</time>
      </trkpt>
      <trkpt lat="49.15718" lon="1.64397">
        <ele>134.12718200684</ele>
        <time>2016-09-11T08:30:29.000Z</time>
      </trkpt>
      <trkpt lat="49.15714" lon="1.64389">
        <ele>134.2791595459</ele>
        <time>2016-09-11T08:30:32.000Z</time>
      </trkpt>
      <trkpt lat="49.1571" lon="1.6438">
        <ele>134.44985961914</ele>
        <time>2016-09-11T08:30:35.000Z</time>
      </trkpt>
      <trkpt lat="49.15707" lon="1.64373">
        <ele>134.64212036133</ele>
        <time>2016-09-11T08:30:38.000Z</time>
      </trkpt>
      <trkpt lat="49.15704" lon="1.64367">
        <ele>134.84564208984</ele>
        <time>2016-09-11T08:30:40.000Z</time>
      </trkpt>
      <trkpt lat="49.157" lon="1.6436">
        <ele>135.06246948242</ele>
        <time>2016-09-11T08:30:43.000Z</time>
      </trkpt>
      <trkpt lat="49.15696" lon="1.64351">
        <ele>135.30006408691</ele>
        <time>2016-09-11T08:30:46.000Z</time>
      </trkpt>
      <trkpt lat="49.15693" lon="1.64345">
        <ele>135.53552246094</ele>
        <time>2016-09-11T08:30:48.000Z</time>
      </trkpt>
      <trkpt lat="49.15689" lon="1.64336">
        <ele>135.79399108887</ele>
        <time>2016-09-11T08:30:51.000Z</time>
      </trkpt>
      <trkpt lat="49.15685" lon="1.64328">
        <ele>136.04988098145</ele>
        <time>2016-09-11T08:30:54.000Z</time>
      </trkpt>
      <trkpt lat="49.15682" lon="1.64321">
        <ele>136.25466918945</ele>
        <time>2016-09-11T08:30:56.000Z</time>
      </trkpt>
      <trkpt lat="49.15678" lon="1.64312">
        <ele>136.40072631836</ele>
        <time>2016-09-11T08:30:59.000Z</time>
      </trkpt>
      <trkpt lat="49.15673" lon="1.64301">
        <ele>136.49761962891</ele>
        <time>2016-09-11T08:31:02.000Z</time>
      </trkpt>
      <trkpt lat="49.15668" lon="1.6429">
        <ele>136.51789855957</ele>
        <time>2016-09-11T08:31:05.000Z</time>
      </trkpt>
      <trkpt lat="49.15663" lon="1.64279">
        <ele>136.46774291992</ele>
        <time>2016-09-11T08:31:08.000Z</time>
      </trkpt>
      <trkpt lat="49.1566" lon="1.64271">
        <ele>136.38540649414</ele>
        <time>2016-09-11T08:31:10.000Z</time>
      </trkpt>
      <trkpt lat="49.15655" lon="1.64259">
        <ele>136.26155090332</ele>
        <time>2016-09-11T08:31:13.000Z</time>
      </trkpt>
      <trkpt lat="49.15651" lon="1.64251">
        <ele>136.12242126465</ele>
        <time>2016-09-11T08:31:15.000Z</time>
      </trkpt>
      <trkpt lat="49.15645" lon="1.64239">
        <ele>135.99757385254</ele>
        <time>2016-09-11T08:31:18.000Z</time>
      </trkpt>
      <trkpt lat="49.15641" lon="1.6423">
        <ele>135.91418457031</ele>
        <time>2016-09-11T08:31:20.000Z</time>
      </trkpt>
      <trkpt lat="49.15635" lon="1.64217">
        <ele>135.86245727539</ele>
        <time>2016-09-11T08:31:23.000Z</time>
      </trkpt>
      <trkpt lat="49.15628" lon="1.64202">
        <ele>135.84577941895</ele>
        <time>2016-09-11T08:31:26.000Z</time>
      </trkpt>
      <trkpt lat="49.15624" lon="1.64192">
        <ele>135.84616088867</ele>
        <time>2016-09-11T08:31:28.000Z</time>
      </trkpt>
      <trkpt lat="49.15617" lon="1.64176">
        <ele>135.82952880859</ele>
        <time>2016-09-11T08:31:31.000Z</time>
      </trkpt>
      <trkpt lat="49.1561" lon="1.64158">
        <ele>135.75735473633</ele>
        <time>2016-09-11T08:31:34.000Z</time>
      </trkpt>
      <trkpt lat="49.15604" lon="1.64139">
        <ele>135.58358764648</ele>
        <time>2016-09-11T08:31:37.000Z</time>
      </trkpt>
      <trkpt lat="49.15598" lon="1.64117">
        <ele>135.28746032715</ele>
        <time>2016-09-11T08:31:40.000Z</time>
      </trkpt>
      <trkpt lat="49.15594" lon="1.64093">
        <ele>134.86866760254</ele>
        <time>2016-09-11T08:31:43.000Z</time>
      </trkpt>
      <trkpt lat="49.15588" lon="1.64069">
        <ele>134.35562133789</ele>
        <time>2016-09-11T08:31:46.000Z</time>
      </trkpt>
      <trkpt lat="49.15583" lon="1.64043">
        <ele>133.84446716309</ele>
        <time>2016-09-11T08:31:49.000Z</time>
      </trkpt>
      <trkpt lat="49.15577" lon="1.64016">
        <ele>133.32681274414</ele>
        <time>2016-09-11T08:31:52.000Z</time>
      </trkpt>
      <trkpt lat="49.15575" lon="1.63998">
        <ele>132.8839263916</ele>
        <time>2016-09-11T08:31:54.000Z</time>
      </trkpt>
      <trkpt lat="49.15569" lon="1.63969">
        <ele>132.42631530762</ele>
        <time>2016-09-11T08:31:57.000Z</time>
      </trkpt>
      <trkpt lat="49.15564" lon="1.63941">
        <ele>131.94033813477</ele>
        <time>2016-09-11T08:32:00.000Z</time>
      </trkpt>
      <trkpt lat="49.15558" lon="1.63911">
        <ele>131.3701171875</ele>
        <time>2016-09-11T08:32:03.000Z</time>
      </trkpt>
      <trkpt lat="49.15552" lon="1.6388">
        <ele>130.84967041016</ele>
        <time>2016-09-11T08:32:06.000Z</time>
      </trkpt>
      <trkpt lat="49.15548" lon="1.6386">
        <ele>130.34201049805</ele>
        <time>2016-09-11T08:32:08.000Z</time>
      </trkpt>
      <trkpt lat="49.15544" lon="1.63839">
        <ele>129.90753173828</ele>
        <time>2016-09-11T08:32:10.000Z</time>
      </trkpt>
      <trkpt lat="49.15538" lon="1.63807">
        <ele>129.76358032227</ele>
        <time>2016-09-11T08:32:13.000Z</time>
      </trkpt>
      <trkpt lat="49.15535" lon="1.63787">
        <ele>129.89093017578</ele>
        <time>2016-09-11T08:32:15.000Z</time>
      </trkpt>
      <trkpt lat="49.15533" lon="1.63766">
        <ele>130.26473999023</ele>
        <time>2016-09-11T08:32:17.000Z</time>
      </trkpt>
      <trkpt lat="49.15529" lon="1.63734">
        <ele>130.79104614258</ele>
        <time>2016-09-11T08:32:20.000Z</time>
      </trkpt>
      <trkpt lat="49.15527" lon="1.63717">
        <ele>131.38688659668</ele>
        <time>2016-09-11T08:32:22.000Z</time>
      </trkpt>
      <trkpt lat="49.15524" lon="1.6369">
        <ele>131.87455749512</ele>
        <time>2016-09-11T08:32:25.000Z</time>
      </trkpt>
      <trkpt lat="49.15517" lon="1.63662">
        <ele>132.11019897461</ele>
        <time>2016-09-11T08:32:28.000Z</time>
      </trkpt>
      <trkpt lat="49.15514" lon="1.63644">
        <ele>132.08351135254</ele>
        <time>2016-09-11T08:32:30.000Z</time>
      </trkpt>
      <trkpt lat="49.1551" lon="1.63615">
        <ele>131.84524536133</ele>
        <time>2016-09-11T08:32:33.000Z</time>
      </trkpt>
      <trkpt lat="49.15505" lon="1.63598">
        <ele>131.49905395508</ele>
        <time>2016-09-11T08:32:35.000Z</time>
      </trkpt>
      <trkpt lat="49.15503" lon="1.63577">
        <ele>131.05731201172</ele>
        <time>2016-09-11T08:32:37.000Z</time>
      </trkpt>
      <trkpt lat="49.15501" lon="1.6356">
        <ele>130.59701538086</ele>
        <time>2016-09-11T08:32:39.000Z</time>
      </trkpt>
      <trkpt lat="49.15498" lon="1.6354">
        <ele>130.03552246094</ele>
        <time>2016-09-11T08:32:42.000Z</time>
      </trkpt>
      <trkpt lat="49.15495" lon="1.63522">
        <ele>129.43377685547</ele>
        <time>2016-09-11T08:32:44.000Z</time>
      </trkpt>
      <trkpt lat="49.15486" lon="1.63499">
        <ele>128.68852233887</ele>
        <time>2016-09-11T08:32:47.000Z</time>
      </trkpt>
      <trkpt lat="49.15477" lon="1.63486">
        <ele>127.80635070801</ele>
        <time>2016-09-11T08:32:49.000Z</time>
      </trkpt>
      <trkpt lat="49.1547" lon="1.63475">
        <ele>126.92580413818</ele>
        <time>2016-09-11T08:32:51.000Z</time>
      </trkpt>
      <trkpt lat="49.15458" lon="1.63458">
        <ele>126.07023620605</ele>
        <time>2016-09-11T08:32:54.000Z</time>
      </trkpt>
      <trkpt lat="49.15449" lon="1.63446">
        <ele>125.2935333252</ele>
        <time>2016-09-11T08:32:56.000Z</time>
      </trkpt>
      <trkpt lat="49.15437" lon="1.63431">
        <ele>124.73232269287</ele>
        <time>2016-09-11T08:32:59.000Z</time>
      </trkpt>
      <trkpt lat="49.15428" lon="1.63419">
        <ele>124.37278747559</ele>
        <time>2016-09-11T08:33:01.000Z</time>
      </trkpt>
      <trkpt lat="49.15416" lon="1.63402">
        <ele>124.19575500488</ele>
        <time>2016-09-11T08:33:04.000Z</time>
      </trkpt>
      <trkpt lat="49.15408" lon="1.63387">
        <ele>124.20170593262</ele>
        <time>2016-09-11T08:33:07.000Z</time>
      </trkpt>
      <trkpt lat="49.15395" lon="1.63375">
        <ele>124.26527404785</ele>
        <time>2016-09-11T08:33:10.000Z</time>
      </trkpt>
      <trkpt lat="49.15383" lon="1.63362">
        <ele>124.39475250244</ele>
        <time>2016-09-11T08:33:13.000Z</time>
      </trkpt>
      <trkpt lat="49.15376" lon="1.63352">
        <ele>124.54872894287</ele>
        <time>2016-09-11T08:33:15.000Z</time>
      </trkpt>
      <trkpt lat="49.15367" lon="1.63339">
        <ele>124.72145080566</ele>
        <time>2016-09-11T08:33:18.000Z</time>
      </trkpt>
      <trkpt lat="49.15359" lon="1.6333">
        <ele>124.90034484863</ele>
        <time>2016-09-11T08:33:20.000Z</time>
      </trkpt>
      <trkpt lat="49.15348" lon="1.63318">
        <ele>125.12400054932</ele>
        <time>2016-09-11T08:33:23.000Z</time>
      </trkpt>
      <trkpt lat="49.1534" lon="1.6331">
        <ele>125.36346435547</ele>
        <time>2016-09-11T08:33:25.000Z</time>
      </trkpt>
      <trkpt lat="49.1533" lon="1.63299">
        <ele>125.62322998047</ele>
        <time>2016-09-11T08:33:28.000Z</time>
      </trkpt>
      <trkpt lat="49.15319" lon="1.63289">
        <ele>125.84169006348</ele>
        <time>2016-09-11T08:33:31.000Z</time>
      </trkpt>
      <trkpt lat="49.15313" lon="1.63281">
        <ele>126.05480957031</ele>
        <time>2016-09-11T08:33:33.000Z</time>
      </trkpt>
      <trkpt lat="49.15307" lon="1.63273">
        <ele>126.26821136475</ele>
        <time>2016-09-11T08:33:35.000Z</time>
      </trkpt>
      <trkpt lat="49.15297" lon="1.63262">
        <ele>126.50478363037</ele>
        <time>2016-09-11T08:33:38.000Z</time>
      </trkpt>
      <trkpt lat="49.1529" lon="1.63255">
        <ele>126.72752380371</ele>
        <time>2016-09-11T08:33:40.000Z</time>
      </trkpt>
      <trkpt lat="49.15285" lon="1.63248">
        <ele>126.96528625488</ele>
        <time>2016-09-11T08:33:42.000Z</time>
      </trkpt>
      <trkpt lat="49.15277" lon="1.63239">
        <ele>127.20548248291</ele>
        <time>2016-09-11T08:33:45.000Z</time>
      </trkpt>
      <trkpt lat="49.15272" lon="1.63232">
        <ele>127.43000793457</ele>
        <time>2016-09-11T08:33:47.000Z</time>
      </trkpt>
      <trkpt lat="49.15264" lon="1.63222">
        <ele>127.63883972168</ele>
        <time>2016-09-11T08:33:50.000Z</time>
      </trkpt>
      <trkpt lat="49.15258" lon="1.63215">
        <ele>127.84324645996</ele>
        <time>2016-09-11T08:33:52.000Z</time>
      </trkpt>
      <trkpt lat="49.1525" lon="1.63205">
        <ele>128.07659912109</ele>
        <time>2016-09-11T08:33:55.000Z</time>
      </trkpt>
      <trkpt lat="49.15242" lon="1.63194">
        <ele>128.31588745117</ele>
        <time>2016-09-11T08:33:58.000Z</time>
      </trkpt>
      <trkpt lat="49.15234" lon="1.63185">
        <ele>128.57096862793</ele>
        <time>2016-09-11T08:34:01.000Z</time>
      </trkpt>
      <trkpt lat="49.15226" lon="1.63175">
        <ele>128.83003234863</ele>
        <time>2016-09-11T08:34:04.000Z</time>
      </trkpt>
      <trkpt lat="49.1522" lon="1.63169">
        <ele>129.08592224121</ele>
        <time>2016-09-11T08:34:06.000Z</time>
      </trkpt>
      <trkpt lat="49.15216" lon="1.63163">
        <ele>129.32513427734</ele>
        <time>2016-09-11T08:34:08.000Z</time>
      </trkpt>
      <trkpt lat="49.15208" lon="1.63154">
        <ele>129.61424255371</ele>
        <time>2016-09-11T08:34:11.000Z</time>
      </trkpt>
      <trkpt lat="49.15203" lon="1.63147">
        <ele>129.92361450195</ele>
        <time>2016-09-11T08:34:13.000Z</time>
      </trkpt>
      <trkpt lat="49.15198" lon="1.63141">
        <ele>130.24299621582</ele>
        <time>2016-09-11T08:34:15.000Z</time>
      </trkpt>
      <trkpt lat="49.15193" lon="1.63135">
        <ele>130.58004760742</ele>
        <time>2016-09-11T08:34:17.000Z</time>
      </trkpt>
      <trkpt lat="49.15186" lon="1.63127">
        <ele>130.9426574707</ele>
        <time>2016-09-11T08:34:20.000Z</time>
      </trkpt>
      <trkpt lat="49.15179" lon="1.63118">
        <ele>131.30111694336</ele>
        <time>2016-09-11T08:34:23.000Z</time>
      </trkpt>
      <trkpt lat="49.15173" lon="1.63113">
        <ele>131.64303588867</ele>
        <time>2016-09-11T08:34:25.000Z</time>
      </trkpt>
      <trkpt lat="49.15166" lon="1.63104">
        <ele>132.00894165039</ele>
        <time>2016-09-11T08:34:28.000Z</time>
      </trkpt>
      <trkpt lat="49.15162" lon="1.63098">
        <ele>132.37142944336</ele>
        <time>2016-09-11T08:34:30.000Z</time>
      </trkpt>
      <trkpt lat="49.15155" lon="1.63089">
        <ele>132.7451171875</ele>
        <time>2016-09-11T08:34:33.000Z</time>
      </trkpt>
      <trkpt lat="49.15149" lon="1.63079">
        <ele>133.12222290039</ele>
        <time>2016-09-11T08:34:36.000Z</time>
      </trkpt>
      <trkpt lat="49.15141" lon="1.6307">
        <ele>133.51399230957</ele>
        <time>2016-09-11T08:34:39.000Z</time>
      </trkpt>
      <trkpt lat="49.15132" lon="1.6306">
        <ele>133.89135742188</ele>
        <time>2016-09-11T08:34:42.000Z</time>
      </trkpt>
      <trkpt lat="49.15123" lon="1.6305">
        <ele>134.30570983887</ele>
        <time>2016-09-11T08:34:45.000Z</time>
      </trkpt>
      <trkpt lat="49.15118" lon="1.63043">
        <ele>134.69277954102</ele>
        <time>2016-09-11T08:34:47.000Z</time>
      </trkpt>
      <trkpt lat="49.1511" lon="1.63033">
        <ele>135.09526062012</ele>
        <time>2016-09-11T08:34:50.000Z</time>
      </trkpt>
      <trkpt lat="49.15102" lon="1.63022">
        <ele>135.55017089844</ele>
        <time>2016-09-11T08:34:53.000Z</time>
      </trkpt>
      <trkpt lat="49.15096" lon="1.63016">
        <ele>136.01126098633</ele>
        <time>2016-09-11T08:34:55.000Z</time>
      </trkpt>
      <trkpt lat="49.15088" lon="1.63006">
        <ele>136.50932312012</ele>
        <time>2016-09-11T08:34:58.000Z</time>
      </trkpt>
      <trkpt lat="49.15079" lon="1.62994">
        <ele>137.07040405273</ele>
        <time>2016-09-11T08:35:01.000Z</time>
      </trkpt>
      <trkpt lat="49.15071" lon="1.62983">
        <ele>137.61991882324</ele>
        <time>2016-09-11T08:35:04.000Z</time>
      </trkpt>
      <trkpt lat="49.15062" lon="1.62973">
        <ele>138.13745117188</ele>
        <time>2016-09-11T08:35:07.000Z</time>
      </trkpt>
      <trkpt lat="49.15055" lon="1.62967">
        <ele>138.62066650391</ele>
        <time>2016-09-11T08:35:09.000Z</time>
      </trkpt>
      <trkpt lat="49.15049" lon="1.62958">
        <ele>139.04386901855</ele>
        <time>2016-09-11T08:35:12.000Z</time>
      </trkpt>
      <trkpt lat="49.15042" lon="1.62948">
        <ele>139.40872192383</ele>
        <time>2016-09-11T08:35:15.000Z</time>
      </trkpt>
      <trkpt lat="49.15037" lon="1.62941">
        <ele>139.72123718262</ele>
        <time>2016-09-11T08:35:17.000Z</time>
      </trkpt>
      <trkpt lat="49.15031" lon="1.62934">
        <ele>139.99258422852</ele>
        <time>2016-09-11T08:35:19.000Z</time>
      </trkpt>
      <trkpt lat="49.15023" lon="1.62925">
        <ele>140.26956176758</ele>
        <time>2016-09-11T08:35:22.000Z</time>
      </trkpt>
      <trkpt lat="49.15015" lon="1.62915">
        <ele>140.53305053711</ele>
        <time>2016-09-11T08:35:25.000Z</time>
      </trkpt>
      <trkpt lat="49.15007" lon="1.62905">
        <ele>140.79502868652</ele>
        <time>2016-09-11T08:35:28.000Z</time>
      </trkpt>
      <trkpt lat="49.15" lon="1.62896">
        <ele>141.08895874023</ele>
        <time>2016-09-11T08:35:31.000Z</time>
      </trkpt>
      <trkpt lat="49.14995" lon="1.62889">
        <ele>141.4280090332</ele>
        <time>2016-09-11T08:35:33.000Z</time>
      </trkpt>
      <trkpt lat="49.14987" lon="1.6288">
        <ele>141.83541870117</ele>
        <time>2016-09-11T08:35:36.000Z</time>
      </trkpt>
      <trkpt lat="49.14981" lon="1.62874">
        <ele>142.26690673828</ele>
        <time>2016-09-11T08:35:38.000Z</time>
      </trkpt>
      <trkpt lat="49.14975" lon="1.62868">
        <ele>142.7081451416</ele>
        <time>2016-09-11T08:35:40.000Z</time>
      </trkpt>
      <trkpt lat="49.14967" lon="1.62858">
        <ele>143.18035888672</ele>
        <time>2016-09-11T08:35:43.000Z</time>
      </trkpt>
      <trkpt lat="49.14959" lon="1.62848">
        <ele>143.67277526855</ele>
        <time>2016-09-11T08:35:46.000Z</time>
      </trkpt>
      <trkpt lat="49.14952" lon="1.6284">
        <ele>144.10859680176</ele>
        <time>2016-09-11T08:35:48.000Z</time>
      </trkpt>
      <trkpt lat="49.14944" lon="1.62829">
        <ele>144.55078125</ele>
        <time>2016-09-11T08:35:51.000Z</time>
      </trkpt>
      <trkpt lat="49.14935" lon="1.62818">
        <ele>144.98951721191</ele>
        <time>2016-09-11T08:35:54.000Z</time>
      </trkpt>
      <trkpt lat="49.14927" lon="1.62808">
        <ele>145.38650512695</ele>
        <time>2016-09-11T08:35:57.000Z</time>
      </trkpt>
      <trkpt lat="49.14921" lon="1.62802">
        <ele>145.71379089355</ele>
        <time>2016-09-11T08:35:59.000Z</time>
      </trkpt>
      <trkpt lat="49.14916" lon="1.62796">
        <ele>146.00793457031</ele>
        <time>2016-09-11T08:36:01.000Z</time>
      </trkpt>
      <trkpt lat="49.14911" lon="1.62789">
        <ele>146.23880004883</ele>
        <time>2016-09-11T08:36:03.000Z</time>
      </trkpt>
      <trkpt lat="49.14905" lon="1.62782">
        <ele>146.41630554199</ele>
        <time>2016-09-11T08:36:05.000Z</time>
      </trkpt>
      <trkpt lat="49.14895" lon="1.62772">
        <ele>146.5573425293</ele>
        <time>2016-09-11T08:36:08.000Z</time>
      </trkpt>
      <trkpt lat="49.14886" lon="1.6276">
        <ele>146.68453979492</ele>
        <time>2016-09-11T08:36:11.000Z</time>
      </trkpt>
      <trkpt lat="49.14877" lon="1.62748">
        <ele>146.79518127441</ele>
        <time>2016-09-11T08:36:14.000Z</time>
      </trkpt>
      <trkpt lat="49.14868" lon="1.62737">
        <ele>146.90454101562</ele>
        <time>2016-09-11T08:36:17.000Z</time>
      </trkpt>
      <trkpt lat="49.14862" lon="1.6273">
        <ele>147.01699829102</ele>
        <time>2016-09-11T08:36:19.000Z</time>
      </trkpt>
      <trkpt lat="49.14852" lon="1.62719">
        <ele>147.1535949707</ele>
        <time>2016-09-11T08:36:22.000Z</time>
      </trkpt>
      <trkpt lat="49.14843" lon="1.62707">
        <ele>147.34101867676</ele>
        <time>2016-09-11T08:36:25.000Z</time>
      </trkpt>
      <trkpt lat="49.14836" lon="1.62699">
        <ele>147.57270812988</ele>
        <time>2016-09-11T08:36:27.000Z</time>
      </trkpt>
      <trkpt lat="49.14827" lon="1.62686">
        <ele>147.81913757324</ele>
        <time>2016-09-11T08:36:30.000Z</time>
      </trkpt>
      <trkpt lat="49.14817" lon="1.62675">
        <ele>148.02799987793</ele>
        <time>2016-09-11T08:36:33.000Z</time>
      </trkpt>
      <trkpt lat="49.14809" lon="1.62666">
        <ele>148.15447998047</ele>
        <time>2016-09-11T08:36:36.000Z</time>
      </trkpt>
      <trkpt lat="49.14804" lon="1.62659">
        <ele>148.1589050293</ele>
        <time>2016-09-11T08:36:38.000Z</time>
      </trkpt>
      <trkpt lat="49.14799" lon="1.62652">
        <ele>148.06369018555</ele>
        <time>2016-09-11T08:36:40.000Z</time>
      </trkpt>
      <trkpt lat="49.14794" lon="1.62646">
        <ele>147.90658569336</ele>
        <time>2016-09-11T08:36:42.000Z</time>
      </trkpt>
      <trkpt lat="49.14787" lon="1.62639">
        <ele>147.73068237305</ele>
        <time>2016-09-11T08:36:45.000Z</time>
      </trkpt>
      <trkpt lat="49.14779" lon="1.6263">
        <ele>147.56964111328</ele>
        <time>2016-09-11T08:36:48.000Z</time>
      </trkpt>
      <trkpt lat="49.14774" lon="1.62619">
        <ele>147.46141052246</ele>
        <time>2016-09-11T08:36:51.000Z</time>
      </trkpt>
      <trkpt lat="49.14771" lon="1.6261">
        <ele>147.40910339355</ele>
        <time>2016-09-11T08:36:53.000Z</time>
      </trkpt>
      <trkpt lat="49.14767" lon="1.62599">
        <ele>147.41061401367</ele>
        <time>2016-09-11T08:36:55.000Z</time>
      </trkpt>
      <trkpt lat="49.14761" lon="1.62584">
        <ele>147.50337219238</ele>
        <time>2016-09-11T08:36:58.000Z</time>
      </trkpt>
      <trkpt lat="49.14755" lon="1.62568">
        <ele>147.55180358887</ele>
        <time>2016-09-11T08:37:01.000Z</time>
      </trkpt>
      <trkpt lat="49.14748" lon="1.62549">
        <ele>147.50840759277</ele>
        <time>2016-09-11T08:37:04.000Z</time>
      </trkpt>
      <trkpt lat="49.1474" lon="1.62529">
        <ele>147.32107543945</ele>
        <time>2016-09-11T08:37:07.000Z</time>
      </trkpt>
      <trkpt lat="49.14733" lon="1.62509">
        <ele>147.0005645752</ele>
        <time>2016-09-11T08:37:10.000Z</time>
      </trkpt>
      <trkpt lat="49.14729" lon="1.62496">
        <ele>146.5630645752</ele>
        <time>2016-09-11T08:37:12.000Z</time>
      </trkpt>
      <trkpt lat="49.14724" lon="1.62479">
        <ele>146.12138366699</ele>
        <time>2016-09-11T08:37:14.000Z</time>
      </trkpt>
      <trkpt lat="49.14719" lon="1.62466">
        <ele>145.71813964844</ele>
        <time>2016-09-11T08:37:16.000Z</time>
      </trkpt>
      <trkpt lat="49.14711" lon="1.62446">
        <ele>145.38821411133</ele>
        <time>2016-09-11T08:37:19.000Z</time>
      </trkpt>
      <trkpt lat="49.14702" lon="1.62426">
        <ele>145.12971496582</ele>
        <time>2016-09-11T08:37:22.000Z</time>
      </trkpt>
      <trkpt lat="49.14696" lon="1.62411">
        <ele>144.88806152344</ele>
        <time>2016-09-11T08:37:24.000Z</time>
      </trkpt>
      <trkpt lat="49.1469" lon="1.62394">
        <ele>144.59939575195</ele>
        <time>2016-09-11T08:37:26.000Z</time>
      </trkpt>
      <trkpt lat="49.1469" lon="1.6238">
        <ele>144.25415039062</ele>
        <time>2016-09-11T08:37:28.000Z</time>
      </trkpt>
      <trkpt lat="49.14676" lon="1.62356">
        <ele>143.82504272461</ele>
        <time>2016-09-11T08:37:31.000Z</time>
      </trkpt>
      <trkpt lat="49.14669" lon="1.62339">
        <ele>143.32598876953</ele>
        <time>2016-09-11T08:37:33.000Z</time>
      </trkpt>
      <trkpt lat="49.14666" lon="1.62311">
        <ele>142.67720031738</ele>
        <time>2016-09-11T08:37:36.000Z</time>
      </trkpt>
      <trkpt lat="49.14666" lon="1.62295">
        <ele>142.0209197998</ele>
        <time>2016-09-11T08:37:38.000Z</time>
      </trkpt>
      <trkpt lat="49.14661" lon="1.62268">
        <ele>141.30659484863</ele>
        <time>2016-09-11T08:37:41.000Z</time>
      </trkpt>
      <trkpt lat="49.14647" lon="1.62249">
        <ele>140.70355224609</ele>
        <time>2016-09-11T08:37:44.000Z</time>
      </trkpt>
      <trkpt lat="49.14653" lon="1.62225">
        <ele>140.04891967773</ele>
        <time>2016-09-11T08:37:47.000Z</time>
      </trkpt>
      <trkpt lat="49.14662" lon="1.62209">
        <ele>139.44203186035</ele>
        <time>2016-09-11T08:37:49.000Z</time>
      </trkpt>
      <trkpt lat="49.14674" lon="1.62182">
        <ele>138.71670532227</ele>
        <time>2016-09-11T08:37:52.000Z</time>
      </trkpt>
      <trkpt lat="49.14681" lon="1.62156">
        <ele>137.84605407715</ele>
        <time>2016-09-11T08:37:55.000Z</time>
      </trkpt>
      <trkpt lat="49.14676" lon="1.6212">
        <ele>136.60757446289</ele>
        <time>2016-09-11T08:37:58.000Z</time>
      </trkpt>
      <trkpt lat="49.14674" lon="1.62092">
        <ele>135.20210266113</ele>
        <time>2016-09-11T08:38:00.000Z</time>
      </trkpt>
      <trkpt lat="49.14671" lon="1.62048">
        <ele>133.31552124023</ele>
        <time>2016-09-11T08:38:03.000Z</time>
      </trkpt>
      <trkpt lat="49.14667" lon="1.62024">
        <ele>131.30989074707</ele>
        <time>2016-09-11T08:38:05.000Z</time>
      </trkpt>
      <trkpt lat="49.14666" lon="1.61996">
        <ele>129.20315551758</ele>
        <time>2016-09-11T08:38:08.000Z</time>
      </trkpt>
      <trkpt lat="49.14681" lon="1.61976">
        <ele>127.09199523926</ele>
        <time>2016-09-11T08:38:11.000Z</time>
      </trkpt>
      <trkpt lat="49.14707" lon="1.61956">
        <ele>124.77824401855</ele>
        <time>2016-09-11T08:38:14.000Z</time>
      </trkpt>
      <trkpt lat="49.14719" lon="1.61939">
        <ele>122.81209564209</ele>
        <time>2016-09-11T08:38:16.000Z</time>
      </trkpt>
      <trkpt lat="49.14734" lon="1.61927">
        <ele>120.89725494385</ele>
        <time>2016-09-11T08:38:18.000Z</time>
      </trkpt>
      <trkpt lat="49.14755" lon="1.6191">
        <ele>119.06674957275</ele>
        <time>2016-09-11T08:38:21.000Z</time>
      </trkpt>
      <trkpt lat="49.14776" lon="1.61895">
        <ele>117.51057434082</ele>
        <time>2016-09-11T08:38:24.000Z</time>
      </trkpt>
      <trkpt lat="49.14789" lon="1.61881">
        <ele>116.38453674316</ele>
        <time>2016-09-11T08:38:26.000Z</time>
      </trkpt>
      <trkpt lat="49.14809" lon="1.61861">
        <ele>115.39253234863</ele>
        <time>2016-09-11T08:38:29.000Z</time>
      </trkpt>
      <trkpt lat="49.14821" lon="1.61848">
        <ele>114.61364746094</ele>
        <time>2016-09-11T08:38:31.000Z</time>
      </trkpt>
      <trkpt lat="49.14839" lon="1.61829">
        <ele>114.06060791016</ele>
        <time>2016-09-11T08:38:34.000Z</time>
      </trkpt>
      <trkpt lat="49.14851" lon="1.61816">
        <ele>113.62251281738</ele>
        <time>2016-09-11T08:38:36.000Z</time>
      </trkpt>
      <trkpt lat="49.14867" lon="1.61798">
        <ele>113.24906921387</ele>
        <time>2016-09-11T08:38:39.000Z</time>
      </trkpt>
      <trkpt lat="49.14878" lon="1.61786">
        <ele>112.98779296875</ele>
        <time>2016-09-11T08:38:41.000Z</time>
      </trkpt>
      <trkpt lat="49.14894" lon="1.61767">
        <ele>112.75966644287</ele>
        <time>2016-09-11T08:38:44.000Z</time>
      </trkpt>
      <trkpt lat="49.14911" lon="1.61749">
        <ele>112.55442047119</ele>
        <time>2016-09-11T08:38:47.000Z</time>
      </trkpt>
      <trkpt lat="49.14928" lon="1.61734">
        <ele>112.25917053223</ele>
        <time>2016-09-11T08:38:50.000Z</time>
      </trkpt>
      <trkpt lat="49.14941" lon="1.61712">
        <ele>111.85639953613</ele>
        <time>2016-09-11T08:38:53.000Z</time>
      </trkpt>
      <trkpt lat="49.1495" lon="1.61695">
        <ele>111.38139343262</ele>
        <time>2016-09-11T08:38:55.000Z</time>
      </trkpt>
      <trkpt lat="49.1496" lon="1.6167">
        <ele>110.818359375</ele>
        <time>2016-09-11T08:38:58.000Z</time>
      </trkpt>
      <trkpt lat="49.14971" lon="1.61636">
        <ele>110.21752929688</ele>
        <time>2016-09-11T08:39:01.000Z</time>
      </trkpt>
      <trkpt lat="49.14981" lon="1.61605">
        <ele>109.61889648438</ele>
        <time>2016-09-11T08:39:04.000Z</time>
      </trkpt>
      <trkpt lat="49.14987" lon="1.61585">
        <ele>109.095703125</ele>
        <time>2016-09-11T08:39:06.000Z</time>
      </trkpt>
      <trkpt lat="49.14997" lon="1.61554">
        <ele>108.57878112793</ele>
        <time>2016-09-11T08:39:09.000Z</time>
      </trkpt>
      <trkpt lat="49.15007" lon="1.61536">
        <ele>108.12001800537</ele>
        <time>2016-09-11T08:39:11.000Z</time>
      </trkpt>
      <trkpt lat="49.15025" lon="1.61509">
        <ele>107.62795257568</ele>
        <time>2016-09-11T08:39:14.000Z</time>
      </trkpt>
      <trkpt lat="49.15036" lon="1.61496">
        <ele>107.15538024902</ele>
        <time>2016-09-11T08:39:16.000Z</time>
      </trkpt>
      <trkpt lat="49.1505" lon="1.61485">
        <ele>106.67921447754</ele>
        <time>2016-09-11T08:39:18.000Z</time>
      </trkpt>
      <trkpt lat="49.1507" lon="1.6147">
        <ele>106.20627593994</ele>
        <time>2016-09-11T08:39:21.000Z</time>
      </trkpt>
      <trkpt lat="49.15088" lon="1.61455">
        <ele>105.71981048584</ele>
        <time>2016-09-11T08:39:24.000Z</time>
      </trkpt>
      <trkpt lat="49.15094" lon="1.61448">
        <ele>105.34238433838</ele>
        <time>2016-09-11T08:39:26.000Z</time>
      </trkpt>
      <trkpt lat="49.15092" lon="1.61439">
        <ele>105.05702972412</ele>
        <time>2016-09-11T08:39:28.000Z</time>
      </trkpt>
      <trkpt lat="49.15088" lon="1.61427">
        <ele>104.86152648926</ele>
        <time>2016-09-11T08:39:31.000Z</time>
      </trkpt>
      <trkpt lat="49.15083" lon="1.61419">
        <ele>104.79707336426</ele>
        <time>2016-09-11T08:39:33.000Z</time>
      </trkpt>
      <trkpt lat="49.15071" lon="1.61401">
        <ele>104.88906097412</ele>
        <time>2016-09-11T08:39:37.000Z</time>
      </trkpt>
      <trkpt lat="49.15063" lon="1.61385">
        <ele>105.05820465088</ele>
        <time>2016-09-11T08:39:40.000Z</time>
      </trkpt>
      <trkpt lat="49.15058" lon="1.61375">
        <ele>105.24003601074</ele>
        <time>2016-09-11T08:39:42.000Z</time>
      </trkpt>
      <trkpt lat="49.15049" lon="1.61362">
        <ele>105.443359375</ele>
        <time>2016-09-11T08:39:45.000Z</time>
      </trkpt>
      <trkpt lat="49.15043" lon="1.61346">
        <ele>105.634765625</ele>
        <time>2016-09-11T08:39:48.000Z</time>
      </trkpt>
      <trkpt lat="49.15039" lon="1.61336">
        <ele>105.7890625</ele>
        <time>2016-09-11T08:39:50.000Z</time>
      </trkpt>
      <trkpt lat="49.15034" lon="1.6132">
        <ele>106.08103179932</ele>
        <time>2016-09-11T08:39:53.000Z</time>
      </trkpt>
      <trkpt lat="49.15029" lon="1.61311">
        <ele>106.46842956543</ele>
        <time>2016-09-11T08:39:55.000Z</time>
      </trkpt>
      <trkpt lat="49.15026" lon="1.61302">
        <ele>106.91972351074</ele>
        <time>2016-09-11T08:39:57.000Z</time>
      </trkpt>
      <trkpt lat="49.15022" lon="1.61291">
        <ele>107.47951507568</ele>
        <time>2016-09-11T08:40:00.000Z</time>
      </trkpt>
      <trkpt lat="49.15016" lon="1.6128">
        <ele>108.15573883057</ele>
        <time>2016-09-11T08:40:03.000Z</time>
      </trkpt>
      <trkpt lat="49.1501" lon="1.61268">
        <ele>108.78764343262</ele>
        <time>2016-09-11T08:40:06.000Z</time>
      </trkpt>
      <trkpt lat="49.15006" lon="1.61257">
        <ele>109.403465271</ele>
        <time>2016-09-11T08:40:09.000Z</time>
      </trkpt>
      <trkpt lat="49.15" lon="1.61243">
        <ele>110.04734802246</ele>
        <time>2016-09-11T08:40:12.000Z</time>
      </trkpt>
      <trkpt lat="49.14994" lon="1.61229">
        <ele>110.66899108887</ele>
        <time>2016-09-11T08:40:15.000Z</time>
      </trkpt>
      <trkpt lat="49.1499" lon="1.61217">
        <ele>111.24404144287</ele>
        <time>2016-09-11T08:40:18.000Z</time>
      </trkpt>
      <trkpt lat="49.14984" lon="1.61206">
        <ele>111.74733734131</ele>
        <time>2016-09-11T08:40:21.000Z</time>
      </trkpt>
      <trkpt lat="49.1498" lon="1.61199">
        <ele>112.17893218994</ele>
        <time>2016-09-11T08:40:23.000Z</time>
      </trkpt>
      <trkpt lat="49.14974" lon="1.61186">
        <ele>112.526512146</ele>
        <time>2016-09-11T08:40:26.000Z</time>
      </trkpt>
      <trkpt lat="49.1497" lon="1.61177">
        <ele>112.79089355469</ele>
        <time>2016-09-11T08:40:28.000Z</time>
      </trkpt>
      <trkpt lat="49.14965" lon="1.61164">
        <ele>113.01161193848</ele>
        <time>2016-09-11T08:40:31.000Z</time>
      </trkpt>
      <trkpt lat="49.14959" lon="1.61151">
        <ele>113.19486999512</ele>
        <time>2016-09-11T08:40:34.000Z</time>
      </trkpt>
      <trkpt lat="49.14954" lon="1.61136">
        <ele>113.37538909912</ele>
        <time>2016-09-11T08:40:37.000Z</time>
      </trkpt>
      <trkpt lat="49.14955" lon="1.61127">
        <ele>113.56805419922</ele>
        <time>2016-09-11T08:40:39.000Z</time>
      </trkpt>
      <trkpt lat="49.1496" lon="1.61114">
        <ele>113.86503601074</ele>
        <time>2016-09-11T08:40:42.000Z</time>
      </trkpt>
      <trkpt lat="49.14965" lon="1.61104">
        <ele>114.23722839355</ele>
        <time>2016-09-11T08:40:45.000Z</time>
      </trkpt>
      <trkpt lat="49.1497" lon="1.61096">
        <ele>114.68455505371</ele>
        <time>2016-09-11T08:40:47.000Z</time>
      </trkpt>
      <trkpt lat="49.14976" lon="1.61083">
        <ele>115.25417327881</ele>
        <time>2016-09-11T08:40:50.000Z</time>
      </trkpt>
      <trkpt lat="49.14982" lon="1.61067">
        <ele>115.8909072876</ele>
        <time>2016-09-11T08:40:53.000Z</time>
      </trkpt>
      <trkpt lat="49.14987" lon="1.61056">
        <ele>116.50777435303</ele>
        <time>2016-09-11T08:40:55.000Z</time>
      </trkpt>
      <trkpt lat="49.14996" lon="1.61041">
        <ele>117.19677734375</ele>
        <time>2016-09-11T08:40:58.000Z</time>
      </trkpt>
      <trkpt lat="49.15003" lon="1.61029">
        <ele>117.90377044678</ele>
        <time>2016-09-11T08:41:00.000Z</time>
      </trkpt>
      <trkpt lat="49.15009" lon="1.61011">
        <ele>118.54518890381</ele>
        <time>2016-09-11T08:41:03.000Z</time>
      </trkpt>
      <trkpt lat="49.15019" lon="1.60998">
        <ele>119.0994644165</ele>
        <time>2016-09-11T08:41:06.000Z</time>
      </trkpt>
      <trkpt lat="49.15028" lon="1.60997">
        <ele>119.53712463379</ele>
        <time>2016-09-11T08:41:08.000Z</time>
      </trkpt>
      <trkpt lat="49.15039" lon="1.61003">
        <ele>119.77980041504</ele>
        <time>2016-09-11T08:41:11.000Z</time>
      </trkpt>
      <trkpt lat="49.15054" lon="1.61024">
        <ele>119.80268859863</ele>
        <time>2016-09-11T08:41:14.000Z</time>
      </trkpt>
      <trkpt lat="49.1506" lon="1.61032">
        <ele>119.70210266113</ele>
        <time>2016-09-11T08:41:17.000Z</time>
      </trkpt>
      <trkpt lat="49.15074" lon="1.61039">
        <ele>119.5186920166</ele>
        <time>2016-09-11T08:41:20.000Z</time>
      </trkpt>
      <trkpt lat="49.15084" lon="1.61049">
        <ele>119.29211425781</ele>
        <time>2016-09-11T08:41:23.000Z</time>
      </trkpt>
      <trkpt lat="49.15102" lon="1.61057">
        <ele>118.95872497559</ele>
        <time>2016-09-11T08:41:26.000Z</time>
      </trkpt>
      <trkpt lat="49.15119" lon="1.61051">
        <ele>118.7068862915</ele>
        <time>2016-09-11T08:41:29.000Z</time>
      </trkpt>
      <trkpt lat="49.15128" lon="1.61044">
        <ele>118.52958679199</ele>
        <time>2016-09-11T08:41:31.000Z</time>
      </trkpt>
      <trkpt lat="49.15137" lon="1.61035">
        <ele>118.46441650391</ele>
        <time>2016-09-11T08:41:33.000Z</time>
      </trkpt>
      <trkpt lat="49.15147" lon="1.61019">
        <ele>118.62691497803</ele>
        <time>2016-09-11T08:41:36.000Z</time>
      </trkpt>
      <trkpt lat="49.15156" lon="1.61015">
        <ele>118.95491027832</ele>
        <time>2016-09-11T08:41:38.000Z</time>
      </trkpt>
      <trkpt lat="49.15169" lon="1.61007">
        <ele>119.37870025635</ele>
        <time>2016-09-11T08:41:41.000Z</time>
      </trkpt>
      <trkpt lat="49.15178" lon="1.60998">
        <ele>119.71768951416</ele>
        <time>2016-09-11T08:41:43.000Z</time>
      </trkpt>
      <trkpt lat="49.15186" lon="1.6099">
        <ele>119.84657287598</ele>
        <time>2016-09-11T08:41:45.000Z</time>
      </trkpt>
      <trkpt lat="49.152" lon="1.60972">
        <ele>119.59799957275</ele>
        <time>2016-09-11T08:41:48.000Z</time>
      </trkpt>
      <trkpt lat="49.15208" lon="1.60965">
        <ele>119.20170593262</ele>
        <time>2016-09-11T08:41:50.000Z</time>
      </trkpt>
      <trkpt lat="49.15219" lon="1.6094">
        <ele>118.68591308594</ele>
        <time>2016-09-11T08:41:53.000Z</time>
      </trkpt>
      <trkpt lat="49.15222" lon="1.60915">
        <ele>118.27317810059</ele>
        <time>2016-09-11T08:41:56.000Z</time>
      </trkpt>
      <trkpt lat="49.15219" lon="1.60893">
        <ele>117.90795898438</ele>
        <time>2016-09-11T08:41:59.000Z</time>
      </trkpt>
      <trkpt lat="49.15208" lon="1.60874">
        <ele>117.7266998291</ele>
        <time>2016-09-11T08:42:02.000Z</time>
      </trkpt>
      <trkpt lat="49.152" lon="1.60865">
        <ele>117.65682220459</ele>
        <time>2016-09-11T08:42:04.000Z</time>
      </trkpt>
      <trkpt lat="49.15188" lon="1.60856">
        <ele>117.671875</ele>
        <time>2016-09-11T08:42:06.000Z</time>
      </trkpt>
      <trkpt lat="49.15181" lon="1.60844">
        <ele>117.62255859375</ele>
        <time>2016-09-11T08:42:09.000Z</time>
      </trkpt>
      <trkpt lat="49.1517" lon="1.60822">
        <ele>117.55660247803</ele>
        <time>2016-09-11T08:42:12.000Z</time>
      </trkpt>
      <trkpt lat="49.15167" lon="1.60811">
        <ele>117.38747406006</ele>
        <time>2016-09-11T08:42:14.000Z</time>
      </trkpt>
      <trkpt lat="49.15171" lon="1.60797">
        <ele>116.9987411499</ele>
        <time>2016-09-11T08:42:16.000Z</time>
      </trkpt>
      <trkpt lat="49.15176" lon="1.60782">
        <ele>116.3443145752</ele>
        <time>2016-09-11T08:42:18.000Z</time>
      </trkpt>
      <trkpt lat="49.1519" lon="1.60755">
        <ele>115.23765563965</ele>
        <time>2016-09-11T08:42:21.000Z</time>
      </trkpt>
      <trkpt lat="49.15202" lon="1.60744">
        <ele>113.96989440918</ele>
        <time>2016-09-11T08:42:23.000Z</time>
      </trkpt>
      <trkpt lat="49.15219" lon="1.60721">
        <ele>112.30375671387</ele>
        <time>2016-09-11T08:42:26.000Z</time>
      </trkpt>
      <trkpt lat="49.15232" lon="1.60714">
        <ele>110.6096572876</ele>
        <time>2016-09-11T08:42:28.000Z</time>
      </trkpt>
      <trkpt lat="49.15247" lon="1.60708">
        <ele>108.92915344238</ele>
        <time>2016-09-11T08:42:31.000Z</time>
      </trkpt>
      <trkpt lat="49.15271" lon="1.60713">
        <ele>107.22658538818</ele>
        <time>2016-09-11T08:42:34.000Z</time>
      </trkpt>
      <trkpt lat="49.15281" lon="1.60717">
        <ele>105.590965271</ele>
        <time>2016-09-11T08:42:36.000Z</time>
      </trkpt>
      <trkpt lat="49.15332" lon="1.60732">
        <ele>103.46318054199</ele>
        <time>2016-09-11T08:42:41.000Z</time>
      </trkpt>
      <trkpt lat="49.15357" lon="1.6075">
        <ele>100.91737365723</ele>
        <time>2016-09-11T08:42:44.000Z</time>
      </trkpt>
      <trkpt lat="49.15363" lon="1.60771">
        <ele>98.588928222656</ele>
        <time>2016-09-11T08:42:46.000Z</time>
      </trkpt>
      <trkpt lat="49.15379" lon="1.60797">
        <ele>96.256408691406</ele>
        <time>2016-09-11T08:42:49.000Z</time>
      </trkpt>
      <trkpt lat="49.15394" lon="1.60822">
        <ele>93.603012084961</ele>
        <time>2016-09-11T08:42:52.000Z</time>
      </trkpt>
      <trkpt lat="49.15406" lon="1.60848">
        <ele>91.616577148438</ele>
        <time>2016-09-11T08:42:55.000Z</time>
      </trkpt>
      <trkpt lat="49.15436" lon="1.60889">
        <ele>90.221267700195</ele>
        <time>2016-09-11T08:42:59.000Z</time>
      </trkpt>
      <trkpt lat="49.15446" lon="1.609">
        <ele>88.807800292969</ele>
        <time>2016-09-11T08:43:02.000Z</time>
      </trkpt>
      <trkpt lat="49.15449" lon="1.60893">
        <ele>87.765342712402</ele>
        <time>2016-09-11T08:43:05.000Z</time>
      </trkpt>
      <trkpt lat="49.1544" lon="1.60879">
        <ele>87.196914672852</ele>
        <time>2016-09-11T08:43:08.000Z</time>
      </trkpt>
      <trkpt lat="49.15431" lon="1.6086">
        <ele>86.814231872559</ele>
        <time>2016-09-11T08:43:11.000Z</time>
      </trkpt>
      <trkpt lat="49.15425" lon="1.60851">
        <ele>86.379821777344</ele>
        <time>2016-09-11T08:43:13.000Z</time>
      </trkpt>
      <trkpt lat="49.15419" lon="1.60839">
        <ele>85.795921325684</ele>
        <time>2016-09-11T08:43:15.000Z</time>
      </trkpt>
      <trkpt lat="49.15412" lon="1.60821">
        <ele>85.441055297852</ele>
        <time>2016-09-11T08:43:18.000Z</time>
      </trkpt>
      <trkpt lat="49.15406" lon="1.60809">
        <ele>85.379981994629</ele>
        <time>2016-09-11T08:43:20.000Z</time>
      </trkpt>
      <trkpt lat="49.15402" lon="1.60795">
        <ele>85.581405639648</ele>
        <time>2016-09-11T08:43:23.000Z</time>
      </trkpt>
      <trkpt lat="49.15396" lon="1.60777">
        <ele>86.052734375</ele>
        <time>2016-09-11T08:43:26.000Z</time>
      </trkpt>
      <trkpt lat="49.15395" lon="1.60767">
        <ele>86.665245056152</ele>
        <time>2016-09-11T08:43:28.000Z</time>
      </trkpt>
      <trkpt lat="49.154" lon="1.60763">
        <ele>86.942642211914</ele>
        <time>2016-09-11T08:43:31.000Z</time>
      </trkpt>
      <trkpt lat="49.15405" lon="1.60759">
        <ele>86.776054382324</ele>
        <time>2016-09-11T08:43:33.000Z</time>
      </trkpt>
      <trkpt lat="49.15416" lon="1.60751">
        <ele>86.027732849121</ele>
        <time>2016-09-11T08:43:36.000Z</time>
      </trkpt>
      <trkpt lat="49.15423" lon="1.60745">
        <ele>85.110656738281</ele>
        <time>2016-09-11T08:43:38.000Z</time>
      </trkpt>
      <trkpt lat="49.15432" lon="1.60737">
        <ele>84.237991333008</ele>
        <time>2016-09-11T08:43:41.000Z</time>
      </trkpt>
      <trkpt lat="49.15437" lon="1.60734">
        <ele>83.613052368164</ele>
        <time>2016-09-11T08:43:43.000Z</time>
      </trkpt>
      <trkpt lat="49.15445" lon="1.60728">
        <ele>83.225967407227</ele>
        <time>2016-09-11T08:43:46.000Z</time>
      </trkpt>
      <trkpt lat="49.15451" lon="1.6072">
        <ele>83.347076416016</ele>
        <time>2016-09-11T08:43:49.000Z</time>
      </trkpt>
      <trkpt lat="49.15453" lon="1.60718">
        <ele>83.493293762207</ele>
        <time>2016-09-11T08:43:51.000Z</time>
      </trkpt>
      <trkpt lat="49.15459" lon="1.60714">
        <ele>83.662239074707</ele>
        <time>2016-09-11T08:43:54.000Z</time>
      </trkpt>
      <trkpt lat="49.15462" lon="1.60711">
        <ele>83.84056854248</ele>
        <time>2016-09-11T08:43:56.000Z</time>
      </trkpt>
      <trkpt lat="49.15468" lon="1.60707">
        <ele>84.034591674805</ele>
        <time>2016-09-11T08:43:59.000Z</time>
      </trkpt>
      <trkpt lat="49.15472" lon="1.60704">
        <ele>84.234268188477</ele>
        <time>2016-09-11T08:44:01.000Z</time>
      </trkpt>
      <trkpt lat="49.15477" lon="1.60698">
        <ele>84.480941772461</ele>
        <time>2016-09-11T08:44:04.000Z</time>
      </trkpt>
      <trkpt lat="49.15483" lon="1.60694">
        <ele>84.751602172852</ele>
        <time>2016-09-11T08:44:07.000Z</time>
      </trkpt>
      <trkpt lat="49.15487" lon="1.60693">
        <ele>85.034851074219</ele>
        <time>2016-09-11T08:44:09.000Z</time>
      </trkpt>
      <trkpt lat="49.1549" lon="1.60691">
        <ele>85.309394836426</ele>
        <time>2016-09-11T08:44:11.000Z</time>
      </trkpt>
      <trkpt lat="49.15496" lon="1.60687">
        <ele>85.623641967773</ele>
        <time>2016-09-11T08:44:14.000Z</time>
      </trkpt>
      <trkpt lat="49.15502" lon="1.60685">
        <ele>85.974159240723</ele>
        <time>2016-09-11T08:44:17.000Z</time>
      </trkpt>
      <trkpt lat="49.15508" lon="1.60686">
        <ele>86.366683959961</ele>
        <time>2016-09-11T08:44:20.000Z</time>
      </trkpt>
      <trkpt lat="49.15512" lon="1.60688">
        <ele>86.771591186523</ele>
        <time>2016-09-11T08:44:22.000Z</time>
      </trkpt>
      <trkpt lat="49.15516" lon="1.60689">
        <ele>87.202377319336</ele>
        <time>2016-09-11T08:44:24.000Z</time>
      </trkpt>
      <trkpt lat="49.15522" lon="1.60689">
        <ele>87.661148071289</ele>
        <time>2016-09-11T08:44:27.000Z</time>
      </trkpt>
      <trkpt lat="49.15525" lon="1.6069">
        <ele>88.080101013184</ele>
        <time>2016-09-11T08:44:29.000Z</time>
      </trkpt>
      <trkpt lat="49.15531" lon="1.60692">
        <ele>88.496711730957</ele>
        <time>2016-09-11T08:44:32.000Z</time>
      </trkpt>
      <trkpt lat="49.15535" lon="1.60693">
        <ele>88.929832458496</ele>
        <time>2016-09-11T08:44:34.000Z</time>
      </trkpt>
      <trkpt lat="49.15539" lon="1.60693">
        <ele>89.369247436523</ele>
        <time>2016-09-11T08:44:36.000Z</time>
      </trkpt>
      <trkpt lat="49.15545" lon="1.60688">
        <ele>89.811325073242</ele>
        <time>2016-09-11T08:44:39.000Z</time>
      </trkpt>
      <trkpt lat="49.15549" lon="1.60678">
        <ele>90.262138366699</ele>
        <time>2016-09-11T08:44:42.000Z</time>
      </trkpt>
      <trkpt lat="49.15551" lon="1.60667">
        <ele>90.62971496582</ele>
        <time>2016-09-11T08:44:45.000Z</time>
      </trkpt>
      <trkpt lat="49.15551" lon="1.60656">
        <ele>90.980819702148</ele>
        <time>2016-09-11T08:44:48.000Z</time>
      </trkpt>
      <trkpt lat="49.15552" lon="1.60646">
        <ele>91.30859375</ele>
        <time>2016-09-11T08:44:51.000Z</time>
      </trkpt>
      <trkpt lat="49.15553" lon="1.60636">
        <ele>91.585716247559</ele>
        <time>2016-09-11T08:44:54.000Z</time>
      </trkpt>
      <trkpt lat="49.15553" lon="1.6063">
        <ele>91.820846557617</ele>
        <time>2016-09-11T08:44:56.000Z</time>
      </trkpt>
      <trkpt lat="49.15553" lon="1.60621">
        <ele>92.078491210938</ele>
        <time>2016-09-11T08:44:59.000Z</time>
      </trkpt>
      <trkpt lat="49.15554" lon="1.60616">
        <ele>92.314392089844</ele>
        <time>2016-09-11T08:45:01.000Z</time>
      </trkpt>
      <trkpt lat="49.15554" lon="1.6061">
        <ele>92.525573730469</ele>
        <time>2016-09-11T08:45:03.000Z</time>
      </trkpt>
      <trkpt lat="49.15555" lon="1.60605">
        <ele>92.716735839844</ele>
        <time>2016-09-11T08:45:05.000Z</time>
      </trkpt>
      <trkpt lat="49.15556" lon="1.60599">
        <ele>92.912841796875</ele>
        <time>2016-09-11T08:45:07.000Z</time>
      </trkpt>
      <trkpt lat="49.15556" lon="1.60591">
        <ele>93.107482910156</ele>
        <time>2016-09-11T08:45:10.000Z</time>
      </trkpt>
      <trkpt lat="49.15557" lon="1.60585">
        <ele>93.300903320312</ele>
        <time>2016-09-11T08:45:12.000Z</time>
      </trkpt>
      <trkpt lat="49.15559" lon="1.60578">
        <ele>93.54475402832</ele>
        <time>2016-09-11T08:45:15.000Z</time>
      </trkpt>
      <trkpt lat="49.15562" lon="1.60571">
        <ele>93.839645385742</ele>
        <time>2016-09-11T08:45:18.000Z</time>
      </trkpt>
      <trkpt lat="49.15566" lon="1.60565">
        <ele>94.208869934082</ele>
        <time>2016-09-11T08:45:21.000Z</time>
      </trkpt>
      <trkpt lat="49.15569" lon="1.60556">
        <ele>94.621559143066</ele>
        <time>2016-09-11T08:45:24.000Z</time>
      </trkpt>
      <trkpt lat="49.15566" lon="1.60545">
        <ele>95.03254699707</ele>
        <time>2016-09-11T08:45:27.000Z</time>
      </trkpt>
      <trkpt lat="49.15561" lon="1.60533">
        <ele>95.370475769043</ele>
        <time>2016-09-11T08:45:30.000Z</time>
      </trkpt>
      <trkpt lat="49.15558" lon="1.60525">
        <ele>95.636909484863</ele>
        <time>2016-09-11T08:45:32.000Z</time>
      </trkpt>
      <trkpt lat="49.15556" lon="1.60518">
        <ele>95.821151733398</ele>
        <time>2016-09-11T08:45:34.000Z</time>
      </trkpt>
      <trkpt lat="49.15554" lon="1.60508">
        <ele>95.962982177734</ele>
        <time>2016-09-11T08:45:37.000Z</time>
      </trkpt>
      <trkpt lat="49.15553" lon="1.60501">
        <ele>96.104721069336</ele>
        <time>2016-09-11T08:45:39.000Z</time>
      </trkpt>
      <trkpt lat="49.15551" lon="1.60489">
        <ele>96.274124145508</ele>
        <time>2016-09-11T08:45:42.000Z</time>
      </trkpt>
      <trkpt lat="49.15549" lon="1.60479">
        <ele>96.451583862305</ele>
        <time>2016-09-11T08:45:44.000Z</time>
      </trkpt>
      <trkpt lat="49.15548" lon="1.60464">
        <ele>96.66007232666</ele>
        <time>2016-09-11T08:45:47.000Z</time>
      </trkpt>
      <trkpt lat="49.15546" lon="1.60454">
        <ele>96.856796264648</ele>
        <time>2016-09-11T08:45:49.000Z</time>
      </trkpt>
      <trkpt lat="49.15544" lon="1.60439">
        <ele>97.068984985352</ele>
        <time>2016-09-11T08:45:52.000Z</time>
      </trkpt>
      <trkpt lat="49.15542" lon="1.60429">
        <ele>97.283340454102</ele>
        <time>2016-09-11T08:45:54.000Z</time>
      </trkpt>
      <trkpt lat="49.15542" lon="1.60419">
        <ele>97.512336730957</ele>
        <time>2016-09-11T08:45:56.000Z</time>
      </trkpt>
      <trkpt lat="49.15544" lon="1.60405">
        <ele>97.81462097168</ele>
        <time>2016-09-11T08:45:59.000Z</time>
      </trkpt>
      <trkpt lat="49.15546" lon="1.60396">
        <ele>98.185768127441</ele>
        <time>2016-09-11T08:46:01.000Z</time>
      </trkpt>
      <trkpt lat="49.1555" lon="1.60386">
        <ele>98.611030578613</ele>
        <time>2016-09-11T08:46:03.000Z</time>
      </trkpt>
      <trkpt lat="49.15556" lon="1.60372">
        <ele>99.157028198242</ele>
        <time>2016-09-11T08:46:06.000Z</time>
      </trkpt>
      <trkpt lat="49.1556" lon="1.60358">
        <ele>99.820556640625</ele>
        <time>2016-09-11T08:46:09.000Z</time>
      </trkpt>
      <trkpt lat="49.15563" lon="1.60349">
        <ele>100.45642089844</ele>
        <time>2016-09-11T08:46:11.000Z</time>
      </trkpt>
      <trkpt lat="49.15566" lon="1.6034">
        <ele>101.08984375</ele>
        <time>2016-09-11T08:46:13.000Z</time>
      </trkpt>
      <trkpt lat="49.15574" lon="1.60328">
        <ele>101.7354888916</ele>
        <time>2016-09-11T08:46:16.000Z</time>
      </trkpt>
      <trkpt lat="49.15579" lon="1.60322">
        <ele>102.28019714355</ele>
        <time>2016-09-11T08:46:18.000Z</time>
      </trkpt>
      <trkpt lat="49.15588" lon="1.60312">
        <ele>102.75633239746</ele>
        <time>2016-09-11T08:46:21.000Z</time>
      </trkpt>
      <trkpt lat="49.15593" lon="1.60306">
        <ele>103.19677734375</ele>
        <time>2016-09-11T08:46:23.000Z</time>
      </trkpt>
      <trkpt lat="49.15599" lon="1.603">
        <ele>103.59348297119</ele>
        <time>2016-09-11T08:46:25.000Z</time>
      </trkpt>
      <trkpt lat="49.15604" lon="1.60295">
        <ele>103.92924499512</ele>
        <time>2016-09-11T08:46:27.000Z</time>
      </trkpt>
      <trkpt lat="49.15611" lon="1.60287">
        <ele>104.27919769287</ele>
        <time>2016-09-11T08:46:30.000Z</time>
      </trkpt>
      <trkpt lat="49.15617" lon="1.60276">
        <ele>104.61427307129</ele>
        <time>2016-09-11T08:46:33.000Z</time>
      </trkpt>
      <trkpt lat="49.15617" lon="1.6026">
        <ele>104.93937683105</ele>
        <time>2016-09-11T08:46:36.000Z</time>
      </trkpt>
      <trkpt lat="49.15611" lon="1.60246">
        <ele>105.22575378418</ele>
        <time>2016-09-11T08:46:39.000Z</time>
      </trkpt>
      <trkpt lat="49.15607" lon="1.60239">
        <ele>105.45190429688</ele>
        <time>2016-09-11T08:46:41.000Z</time>
      </trkpt>
      <trkpt lat="49.15601" lon="1.60226">
        <ele>105.60591125488</ele>
        <time>2016-09-11T08:46:44.000Z</time>
      </trkpt>
      <trkpt lat="49.15596" lon="1.60217">
        <ele>105.68452453613</ele>
        <time>2016-09-11T08:46:46.000Z</time>
      </trkpt>
      <trkpt lat="49.15592" lon="1.60208">
        <ele>105.70581054688</ele>
        <time>2016-09-11T08:46:48.000Z</time>
      </trkpt>
      <trkpt lat="49.15585" lon="1.60195">
        <ele>105.70571136475</ele>
        <time>2016-09-11T08:46:51.000Z</time>
      </trkpt>
      <trkpt lat="49.15578" lon="1.60182">
        <ele>105.7373046875</ele>
        <time>2016-09-11T08:46:54.000Z</time>
      </trkpt>
      <trkpt lat="49.15574" lon="1.60173">
        <ele>105.80104827881</ele>
        <time>2016-09-11T08:46:56.000Z</time>
      </trkpt>
      <trkpt lat="49.15569" lon="1.60164">
        <ele>105.89414215088</ele>
        <time>2016-09-11T08:46:58.000Z</time>
      </trkpt>
      <trkpt lat="49.15564" lon="1.60156">
        <ele>106.00358581543</ele>
        <time>2016-09-11T08:47:00.000Z</time>
      </trkpt>
      <trkpt lat="49.1556" lon="1.60147">
        <ele>106.13217926025</ele>
        <time>2016-09-11T08:47:02.000Z</time>
      </trkpt>
      <trkpt lat="49.15556" lon="1.60138">
        <ele>106.25113677979</ele>
        <time>2016-09-11T08:47:04.000Z</time>
      </trkpt>
      <trkpt lat="49.15549" lon="1.60123">
        <ele>106.37226867676</ele>
        <time>2016-09-11T08:47:07.000Z</time>
      </trkpt>
      <trkpt lat="49.15544" lon="1.60112">
        <ele>106.49224853516</ele>
        <time>2016-09-11T08:47:09.000Z</time>
      </trkpt>
      <trkpt lat="49.15537" lon="1.60097">
        <ele>106.6463470459</ele>
        <time>2016-09-11T08:47:12.000Z</time>
      </trkpt>
      <trkpt lat="49.15529" lon="1.60082">
        <ele>106.83930969238</ele>
        <time>2016-09-11T08:47:15.000Z</time>
      </trkpt>
      <trkpt lat="49.15522" lon="1.60068">
        <ele>107.08686828613</ele>
        <time>2016-09-11T08:47:18.000Z</time>
      </trkpt>
      <trkpt lat="49.15516" lon="1.60055">
        <ele>107.36594390869</ele>
        <time>2016-09-11T08:47:21.000Z</time>
      </trkpt>
      <trkpt lat="49.15515" lon="1.6004">
        <ele>107.65992736816</ele>
        <time>2016-09-11T08:47:24.000Z</time>
      </trkpt>
      <trkpt lat="49.15526" lon="1.6003">
        <ele>107.89837646484</ele>
        <time>2016-09-11T08:47:27.000Z</time>
      </trkpt>
      <trkpt lat="49.15535" lon="1.60025">
        <ele>108.06797790527</ele>
        <time>2016-09-11T08:47:29.000Z</time>
      </trkpt>
      <trkpt lat="49.15547" lon="1.60018">
        <ele>108.14891052246</ele>
        <time>2016-09-11T08:47:32.000Z</time>
      </trkpt>
      <trkpt lat="49.15556" lon="1.60013">
        <ele>108.15824890137</ele>
        <time>2016-09-11T08:47:34.000Z</time>
      </trkpt>
      <trkpt lat="49.15564" lon="1.60008">
        <ele>108.12155914307</ele>
        <time>2016-09-11T08:47:36.000Z</time>
      </trkpt>
      <trkpt lat="49.15572" lon="1.60003">
        <ele>108.08980560303</ele>
        <time>2016-09-11T08:47:38.000Z</time>
      </trkpt>
      <trkpt lat="49.15583" lon="1.59998">
        <ele>108.07623291016</ele>
        <time>2016-09-11T08:47:41.000Z</time>
      </trkpt>
      <trkpt lat="49.15594" lon="1.59993">
        <ele>108.13056945801</ele>
        <time>2016-09-11T08:47:44.000Z</time>
      </trkpt>
      <trkpt lat="49.15606" lon="1.59989">
        <ele>108.23497009277</ele>
        <time>2016-09-11T08:47:47.000Z</time>
      </trkpt>
      <trkpt lat="49.15616" lon="1.59985">
        <ele>108.37809753418</ele>
        <time>2016-09-11T08:47:50.000Z</time>
      </trkpt>
      <trkpt lat="49.15624" lon="1.59984">
        <ele>108.54286193848</ele>
        <time>2016-09-11T08:47:52.000Z</time>
      </trkpt>
      <trkpt lat="49.15635" lon="1.59981">
        <ele>108.72804260254</ele>
        <time>2016-09-11T08:47:55.000Z</time>
      </trkpt>
      <trkpt lat="49.15643" lon="1.5998">
        <ele>108.87365722656</ele>
        <time>2016-09-11T08:47:57.000Z</time>
      </trkpt>
      <trkpt lat="49.15654" lon="1.59978">
        <ele>108.99422454834</ele>
        <time>2016-09-11T08:48:00.000Z</time>
      </trkpt>
      <trkpt lat="49.15662" lon="1.59976">
        <ele>109.08937835693</ele>
        <time>2016-09-11T08:48:02.000Z</time>
      </trkpt>
      <trkpt lat="49.15674" lon="1.59975">
        <ele>109.19404602051</ele>
        <time>2016-09-11T08:48:05.000Z</time>
      </trkpt>
      <trkpt lat="49.15686" lon="1.59974">
        <ele>109.31309509277</ele>
        <time>2016-09-11T08:48:08.000Z</time>
      </trkpt>
      <trkpt lat="49.15694" lon="1.59974">
        <ele>109.44496917725</ele>
        <time>2016-09-11T08:48:10.000Z</time>
      </trkpt>
      <trkpt lat="49.15702" lon="1.59972">
        <ele>109.58666992188</ele>
        <time>2016-09-11T08:48:12.000Z</time>
      </trkpt>
      <trkpt lat="49.15712" lon="1.59963">
        <ele>109.78442382812</ele>
        <time>2016-09-11T08:48:15.000Z</time>
      </trkpt>
      <trkpt lat="49.15717" lon="1.59954">
        <ele>110.00170898438</ele>
        <time>2016-09-11T08:48:17.000Z</time>
      </trkpt>
      <trkpt lat="49.1572" lon="1.59937">
        <ele>110.25710296631</ele>
        <time>2016-09-11T08:48:20.000Z</time>
      </trkpt>
      <trkpt lat="49.15722" lon="1.59919">
        <ele>110.56323242188</ele>
        <time>2016-09-11T08:48:23.000Z</time>
      </trkpt>
      <trkpt lat="49.15723" lon="1.59903">
        <ele>110.89963531494</ele>
        <time>2016-09-11T08:48:26.000Z</time>
      </trkpt>
      <trkpt lat="49.15725" lon="1.59887">
        <ele>111.22129821777</ele>
        <time>2016-09-11T08:48:29.000Z</time>
      </trkpt>
      <trkpt lat="49.15725" lon="1.59873">
        <ele>111.53776550293</ele>
        <time>2016-09-11T08:48:32.000Z</time>
      </trkpt>
      <trkpt lat="49.15726" lon="1.59863">
        <ele>111.81153869629</ele>
        <time>2016-09-11T08:48:35.000Z</time>
      </trkpt>
      <trkpt lat="49.15725" lon="1.59863">
        <ele>112.00441741943</ele>
        <time>2016-09-11T08:48:49.000Z</time>
      </trkpt>
      <trkpt lat="49.15726" lon="1.5986">
        <ele>112.14555358887</ele>
        <time>2016-09-11T08:48:54.000Z</time>
      </trkpt>
      <trkpt lat="49.15725" lon="1.59858">
        <ele>112.2367401123</ele>
        <time>2016-09-11T08:48:57.000Z</time>
      </trkpt>
      <trkpt lat="49.15725" lon="1.59858">
        <ele>112.2367401123</ele>
        <time>2016-09-11T08:49:17.000Z</time>
      </trkpt>
      <trkpt lat="49.15725" lon="1.59858">
        <ele>112.2367401123</ele>
        <time>2016-09-11T08:49:22.000Z</time>
      </trkpt>
    </trkseg>
  </trk>
</gpx>